<?xml version="1.0" encoding="UTF-8" standalone="no" ?><gpx xmlns="http://www.topografix.com/GPX/1/1" xmlns:gpxx="http://www.garmin.com/xmlschemas/GpxExtensions/v3" xmlns:wptx1="http://www.garmin.com/xmlschemas/WaypointExtension/v1" xmlns:gpxtpx="http://www.garmin.com/xmlschemas/TrackPointExtension/v1" creator="GuideVTT.com" version="1.1" xmlns:xsi="http://www.w3.org/2001/XMLSchema-instance" xsi:schemaLocation="http://www.topografix.com/GPX/1/1 http://www.topografix.com/GPX/1/1/gpx.xsd http://www.garmin.com/xmlschemas/GpxExtensions/v3 http://www8.garmin.com/xmlschemas/GpxExtensionsv3.xsd http://www.garmin.com/xmlschemas/WaypointExtension/v1 http://www8.garmin.com/xmlschemas/WaypointExtensionv1.xsd http://www.garmin.com/xmlschemas/TrackPointExtension/v1 http://www.garmin.com/xmlschemas/TrackPointExtensionv1.xsd">
<metadata><link href="http://www.garmin.com"><text>Garmin International</text></link><time>2013-06-22T15:13:50Z</time></metadata>
<trk><name>gibloux-combert-cousimbert-berra.gpx</name><extensions><gpxx:TrackExtension><gpxx:DisplayColor>Cyan</gpxx:DisplayColor></gpxx:TrackExtension></extensions><trkseg>
<trkpt lat="46.61708345" lon="7.01980744"><ele>480.315918</ele><time>2008-06-22T10:51:58Z</time></trkpt>
<trkpt lat="46.61708345" lon="7.01980744"><ele>479.835083</ele><time>2008-06-22T10:52:00Z</time></trkpt>
<trkpt lat="46.61708345" lon="7.01980744"><ele>809.567383</ele><time>2008-06-22T11:08:02Z</time></trkpt>
<trkpt lat="46.61708345" lon="7.01980744"><ele>479.354492</ele><time>2008-06-22T11:08:03Z</time></trkpt>
<trkpt lat="46.61708345" lon="7.01980744"><ele>479.835083</ele><time>2008-06-22T11:08:12Z</time></trkpt>
<trkpt lat="46.61704933" lon="7.01982035"><ele>803.799561</ele><time>2008-06-21T04:08:37Z</time></trkpt>
<trkpt lat="46.61707641" lon="7.01984625"><ele>803.799561</ele><time>2008-06-21T04:09:10Z</time></trkpt>
<trkpt lat="46.61710348" lon="7.01985908"><ele>803.799561</ele><time>2008-06-21T04:09:16Z</time></trkpt>
<trkpt lat="46.61721077" lon="7.01968851"><ele>802.838135</ele><time>2008-06-21T04:09:25Z</time></trkpt>
<trkpt lat="46.61738126" lon="7.01958281"><ele>802.838135</ele><time>2008-06-21T04:09:31Z</time></trkpt>
<trkpt lat="46.61729878" lon="7.01916564"><ele>801.876953</ele><time>2008-06-21T04:09:39Z</time></trkpt>
<trkpt lat="46.61744982" lon="7.01865535"><ele>800.915527</ele><time>2008-06-21T04:09:47Z</time></trkpt>
<trkpt lat="46.61750372" lon="7.01862878"><ele>799.954346</ele><time>2008-06-21T04:09:48Z</time></trkpt>
<trkpt lat="46.61856218" lon="7.01781113"><ele>798.031738</ele><time>2008-06-21T04:10:06Z</time></trkpt>
<trkpt lat="46.61892914" lon="7.01729916"><ele>798.99292</ele><time>2008-06-21T04:10:14Z</time></trkpt>
<trkpt lat="46.61919837" lon="7.01714032"><ele>798.031738</ele><time>2008-06-21T04:10:19Z</time></trkpt>
<trkpt lat="46.62034828" lon="7.01672668"><ele>796.109131</ele><time>2008-06-21T04:10:36Z</time></trkpt>
<trkpt lat="46.62094113" lon="7.01648704"><ele>796.109131</ele><time>2008-06-21T04:10:45Z</time></trkpt>
<trkpt lat="46.62130105" lon="7.01649726"><ele>795.147461</ele><time>2008-06-21T04:10:51Z</time></trkpt>
<trkpt lat="46.62169618" lon="7.01632443"><ele>794.186279</ele><time>2008-06-21T04:11:01Z</time></trkpt>
<trkpt lat="46.62188443" lon="7.01614019"><ele>795.147461</ele><time>2008-06-21T04:11:10Z</time></trkpt>
<trkpt lat="46.62243219" lon="7.01588782"><ele>793.224854</ele><time>2008-06-21T04:11:22Z</time></trkpt>
<trkpt lat="46.62316812" lon="7.01542513"><ele>790.821533</ele><time>2008-06-21T04:11:37Z</time></trkpt>
<trkpt lat="46.62327600" lon="7.01539814"><ele>788.89917</ele><time>2008-06-21T04:11:39Z</time></trkpt>
<trkpt lat="46.62342058" lon="7.01557978"><ele>789.860352</ele><time>2008-06-21T04:11:43Z</time></trkpt>
<trkpt lat="46.62355646" lon="7.01582680"><ele>789.860352</ele><time>2008-06-21T04:11:47Z</time></trkpt>
<trkpt lat="46.62394395" lon="7.01601966"><ele>786.015137</ele><time>2008-06-21T04:11:54Z</time></trkpt>
<trkpt lat="46.62424075" lon="7.01600424"><ele>784.092529</ele><time>2008-06-21T04:12:03Z</time></trkpt>
<trkpt lat="46.62433983" lon="7.01602964"><ele>783.131104</ele><time>2008-06-21T04:12:05Z</time></trkpt>
<trkpt lat="46.62455667" lon="7.01628906"><ele>782.169922</ele><time>2008-06-21T04:12:07Z</time></trkpt>
<trkpt lat="46.62535840" lon="7.01659617"><ele>781.20874</ele><time>2008-06-21T04:12:20Z</time></trkpt>
<trkpt lat="46.62549360" lon="7.01666038"><ele>782.169922</ele><time>2008-06-21T04:12:23Z</time></trkpt>
<trkpt lat="46.62571907" lon="7.01681536"><ele>786.015137</ele><time>2008-06-21T04:12:31Z</time></trkpt>
<trkpt lat="46.62610766" lon="7.01728231"><ele>786.976318</ele><time>2008-06-21T04:12:46Z</time></trkpt>
<trkpt lat="46.62630639" lon="7.01751583"><ele>789.860352</ele><time>2008-06-21T04:12:55Z</time></trkpt>
<trkpt lat="46.62635207" lon="7.01771130"><ele>791.782959</ele><time>2008-06-21T04:13:00Z</time></trkpt>
<trkpt lat="46.62649691" lon="7.01794524"><ele>795.147461</ele><time>2008-06-21T04:13:13Z</time></trkpt>
<trkpt lat="46.62657872" lon="7.01819267"><ele>798.031738</ele><time>2008-06-21T04:13:28Z</time></trkpt>
<trkpt lat="46.62662440" lon="7.01836207"><ele>798.031738</ele><time>2008-06-21T04:14:00Z</time></trkpt>
<trkpt lat="46.62668827" lon="7.01862275"><ele>789.860352</ele><time>2008-06-21T04:14:19Z</time></trkpt>
<trkpt lat="46.62674351" lon="7.01894872"><ele>789.860352</ele><time>2008-06-21T04:14:31Z</time></trkpt>
<trkpt lat="46.62684359" lon="7.01926136"><ele>789.860352</ele><time>2008-06-21T04:14:47Z</time></trkpt>
<trkpt lat="46.62700804" lon="7.01995212"><ele>793.224854</ele><time>2008-06-21T04:15:02Z</time></trkpt>
<trkpt lat="46.62708247" lon="7.02061747"><ele>795.147461</ele><time>2008-06-21T04:15:17Z</time></trkpt>
<trkpt lat="46.62716562" lon="7.02123052"><ele>796.109131</ele><time>2008-06-21T04:15:28Z</time></trkpt>
<trkpt lat="46.62720275" lon="7.02154367"><ele>791.782959</ele><time>2008-06-21T04:15:32Z</time></trkpt>
<trkpt lat="46.62721356" lon="7.02203971"><ele>788.89917</ele><time>2008-06-21T04:15:37Z</time></trkpt>
<trkpt lat="46.62727785" lon="7.02239184"><ele>790.821533</ele><time>2008-06-21T04:15:41Z</time></trkpt>
<trkpt lat="46.62750534" lon="7.02310824"><ele>793.224854</ele><time>2008-06-21T04:15:54Z</time></trkpt>
<trkpt lat="46.62772310" lon="7.02361576"><ele>796.109131</ele><time>2008-06-21T04:16:07Z</time></trkpt>
<trkpt lat="46.62798629" lon="7.02424055"><ele>796.109131</ele><time>2008-06-21T04:16:21Z</time></trkpt>
<trkpt lat="46.62822216" lon="7.02480021"><ele>794.186279</ele><time>2008-06-21T04:16:30Z</time></trkpt>
<trkpt lat="46.62834914" lon="7.02508654"><ele>793.224854</ele><time>2008-06-21T04:16:36Z</time></trkpt>
<trkpt lat="46.62842408" lon="7.02589556"><ele>788.89917</ele><time>2008-06-21T04:16:46Z</time></trkpt>
<trkpt lat="46.62847051" lon="7.02631306"><ele>788.89917</ele><time>2008-06-21T04:16:51Z</time></trkpt>
<trkpt lat="46.62847152" lon="7.02657416"><ele>786.976318</ele><time>2008-06-21T04:16:54Z</time></trkpt>
<trkpt lat="46.62847186" lon="7.02666560"><ele>786.976318</ele><time>2008-06-21T04:16:55Z</time></trkpt>
<trkpt lat="46.62843665" lon="7.02690088"><ele>786.015137</ele><time>2008-06-21T04:16:58Z</time></trkpt>
<trkpt lat="46.62842793" lon="7.02696626"><ele>786.015137</ele><time>2008-06-21T04:16:59Z</time></trkpt>
<trkpt lat="46.62850220" lon="7.02760555"><ele>784.092529</ele><time>2008-06-21T04:17:08Z</time></trkpt>
<trkpt lat="46.62855710" lon="7.02786623"><ele>783.131104</ele><time>2008-06-21T04:17:12Z</time></trkpt>
<trkpt lat="46.62859356" lon="7.02799656"><ele>783.131104</ele><time>2008-06-21T04:17:14Z</time></trkpt>
<trkpt lat="46.62865877" lon="7.02860978"><ele>779.766357</ele><time>2008-06-21T04:17:21Z</time></trkpt>
<trkpt lat="46.62893211" lon="7.02957404"><ele>777.84375</ele><time>2008-06-21T04:17:33Z</time></trkpt>
<trkpt lat="46.62921432" lon="7.03051206"><ele>778.805176</ele><time>2008-06-21T04:17:46Z</time></trkpt>
<trkpt lat="46.62944131" lon="7.03109795"><ele>774.959961</ele><time>2008-06-21T04:17:53Z</time></trkpt>
<trkpt lat="46.62946863" lon="7.03118915"><ele>774.959961</ele><time>2008-06-21T04:17:54Z</time></trkpt>
<trkpt lat="46.62954122" lon="7.03135838"><ele>774.959961</ele><time>2008-06-21T04:17:56Z</time></trkpt>
<trkpt lat="46.62964147" lon="7.03173632"><ele>776.882568</ele><time>2008-06-21T04:18:01Z</time></trkpt>
<trkpt lat="46.62973266" lon="7.03208819"><ele>775.921143</ele><time>2008-06-21T04:18:06Z</time></trkpt>
<trkpt lat="46.62987817" lon="7.03253109"><ele>774.959961</ele><time>2008-06-21T04:18:12Z</time></trkpt>
<trkpt lat="46.63008722" lon="7.03311707"><ele>773.037354</ele><time>2008-06-21T04:18:19Z</time></trkpt>
<trkpt lat="46.63020481" lon="7.03329904"><ele>768.230713</ele><time>2008-06-21T04:18:21Z</time></trkpt>
<trkpt lat="46.63032250" lon="7.03350708"><ele>766.788818</ele><time>2008-06-21T04:18:23Z</time></trkpt>
<trkpt lat="46.63041310" lon="7.03368922"><ele>766.788818</ele><time>2008-06-21T04:18:25Z</time></trkpt>
<trkpt lat="46.63051260" lon="7.03384520"><ele>768.230713</ele><time>2008-06-21T04:18:27Z</time></trkpt>
<trkpt lat="46.63072030" lon="7.03407864"><ele>769.192139</ele><time>2008-06-21T04:18:32Z</time></trkpt>
<trkpt lat="46.63084687" lon="7.03426053"><ele>768.230713</ele><time>2008-06-21T04:18:35Z</time></trkpt>
<trkpt lat="46.63110000" lon="7.03461123"><ele>769.192139</ele><time>2008-06-21T04:18:45Z</time></trkpt>
<trkpt lat="46.63140737" lon="7.03503988"><ele>763.904541</ele><time>2008-06-21T04:18:55Z</time></trkpt>
<trkpt lat="46.63145263" lon="7.03510484"><ele>764.866211</ele><time>2008-06-21T04:18:56Z</time></trkpt>
<trkpt lat="46.63154290" lon="7.03520861"><ele>762.943359</ele><time>2008-06-21T04:18:58Z</time></trkpt>
<trkpt lat="46.63211245" lon="7.03598787"><ele>761.020752</ele><time>2008-06-21T04:19:11Z</time></trkpt>
<trkpt lat="46.63241219" lon="7.03682145"><ele>760.059326</ele><time>2008-06-21T04:19:20Z</time></trkpt>
<trkpt lat="46.63293824" lon="7.03804504"><ele>758.136963</ele><time>2008-06-21T04:19:32Z</time></trkpt>
<trkpt lat="46.63359907" lon="7.03922857"><ele>753.811035</ele><time>2008-06-21T04:19:44Z</time></trkpt>
<trkpt lat="46.63447715" lon="7.04080218"><ele>751.888428</ele><time>2008-06-21T04:20:00Z</time></trkpt>
<trkpt lat="46.63496607" lon="7.04169972"><ele>752.849609</ele><time>2008-06-21T04:20:10Z</time></trkpt>
<trkpt lat="46.63502164" lon="7.04214337"><ele>752.849609</ele><time>2008-06-21T04:20:15Z</time></trkpt>
<trkpt lat="46.63525592" lon="7.04227220"><ele>752.849609</ele><time>2008-06-21T04:20:22Z</time></trkpt>
<trkpt lat="46.63530042" lon="7.04214128"><ele>754.772217</ele><time>2008-06-21T04:20:25Z</time></trkpt>
<trkpt lat="46.63529095" lon="7.04198462"><ele>757.175537</ele><time>2008-06-21T04:20:28Z</time></trkpt>
<trkpt lat="46.63527989" lon="7.04141012"><ele>759.098145</ele><time>2008-06-21T04:20:42Z</time></trkpt>
<trkpt lat="46.63566671" lon="7.04139420"><ele>761.982178</ele><time>2008-06-21T04:20:56Z</time></trkpt>
<trkpt lat="46.63624247" lon="7.04140300"><ele>763.904541</ele><time>2008-06-21T04:21:15Z</time></trkpt>
<trkpt lat="46.63696214" lon="7.04142387"><ele>765.827637</ele><time>2008-06-21T04:21:34Z</time></trkpt>
<trkpt lat="46.63728677" lon="7.04163040"><ele>770.15332</ele><time>2008-06-21T04:21:45Z</time></trkpt>
<trkpt lat="46.63761157" lon="7.04191539"><ele>773.037354</ele><time>2008-06-21T04:21:56Z</time></trkpt>
<trkpt lat="46.63796377" lon="7.04230456"><ele>773.037354</ele><time>2008-06-21T04:22:10Z</time></trkpt>
<trkpt lat="46.63801842" lon="7.04251318"><ele>773.037354</ele><time>2008-06-21T04:22:13Z</time></trkpt>
<trkpt lat="46.63819084" lon="7.04292985"><ele>770.15332</ele><time>2008-06-21T04:22:18Z</time></trkpt>
<trkpt lat="46.63827231" lon="7.04308592"><ele>769.192139</ele><time>2008-06-21T04:22:20Z</time></trkpt>
<trkpt lat="46.63832780" lon="7.04351650"><ele>770.15332</ele><time>2008-06-21T04:22:25Z</time></trkpt>
<trkpt lat="46.63853643" lon="7.04402436"><ele>765.827637</ele><time>2008-06-21T04:22:30Z</time></trkpt>
<trkpt lat="46.63922374" lon="7.04506413"><ele>761.982178</ele><time>2008-06-21T04:22:42Z</time></trkpt>
<trkpt lat="46.63928694" lon="7.04512901"><ele>761.982178</ele><time>2008-06-21T04:22:43Z</time></trkpt>
<trkpt lat="46.63941326" lon="7.04524560"><ele>761.020752</ele><time>2008-06-21T04:22:45Z</time></trkpt>
<trkpt lat="46.63963839" lon="7.04532238"><ele>761.982178</ele><time>2008-06-21T04:22:48Z</time></trkpt>
<trkpt lat="46.63977368" lon="7.04542589"><ele>761.982178</ele><time>2008-06-21T04:22:50Z</time></trkpt>
<trkpt lat="46.63988206" lon="7.04554265"><ele>763.904541</ele><time>2008-06-21T04:22:52Z</time></trkpt>
<trkpt lat="46.64009001" lon="7.04585454"><ele>765.827637</ele><time>2008-06-21T04:22:57Z</time></trkpt>
<trkpt lat="46.64077766" lon="7.04699893"><ele>762.943359</ele><time>2008-06-21T04:23:13Z</time></trkpt>
<trkpt lat="46.64130212" lon="7.04780493"><ele>761.020752</ele><time>2008-06-21T04:23:22Z</time></trkpt>
<trkpt lat="46.64160999" lon="7.04839041"><ele>757.175537</ele><time>2008-06-21T04:23:27Z</time></trkpt>
<trkpt lat="46.64178232" lon="7.04879408"><ele>754.772217</ele><time>2008-06-21T04:23:30Z</time></trkpt>
<trkpt lat="46.64237215" lon="7.05029184"><ele>756.214111</ele><time>2008-06-21T04:23:43Z</time></trkpt>
<trkpt lat="46.64239939" lon="7.05037004"><ele>756.214111</ele><time>2008-06-21T04:23:44Z</time></trkpt>
<trkpt lat="46.64240928" lon="7.05064422"><ele>753.811035</ele><time>2008-06-21T04:23:49Z</time></trkpt>
<trkpt lat="46.64225715" lon="7.05088042"><ele>752.849609</ele><time>2008-06-21T04:23:53Z</time></trkpt>
<trkpt lat="46.64230308" lon="7.05115442"><ele>750.927002</ele><time>2008-06-21T04:23:57Z</time></trkpt>
<trkpt lat="46.64257407" lon="7.05147897"><ele>748.043213</ele><time>2008-06-21T04:24:02Z</time></trkpt>
<trkpt lat="46.64277281" lon="7.05171266"><ele>744.197754</ele><time>2008-06-21T04:24:05Z</time></trkpt>
<trkpt lat="46.64292620" lon="7.05186831"><ele>744.197754</ele><time>2008-06-21T04:24:07Z</time></trkpt>
<trkpt lat="46.64358401" lon="7.05220317"><ele>746.120361</ele><time>2008-06-21T04:24:16Z</time></trkpt>
<trkpt lat="46.64379163" lon="7.05239763"><ele>748.043213</ele><time>2008-06-21T04:24:20Z</time></trkpt>
<trkpt lat="46.64423444" lon="7.05300833"><ele>750.927002</ele><time>2008-06-21T04:24:31Z</time></trkpt>
<trkpt lat="46.64467718" lon="7.05356682"><ele>748.043213</ele><time>2008-06-21T04:24:41Z</time></trkpt>
<trkpt lat="46.64495713" lon="7.05390444"><ele>745.158936</ele><time>2008-06-21T04:24:46Z</time></trkpt>
<trkpt lat="46.64505662" lon="7.05407359"><ele>746.120361</ele><time>2008-06-21T04:24:49Z</time></trkpt>
<trkpt lat="46.64525435" lon="7.05400687"><ele>748.043213</ele><time>2008-06-21T04:24:57Z</time></trkpt>
<trkpt lat="46.64529920" lon="7.05398038"><ele>749.96582</ele><time>2008-06-21T04:24:59Z</time></trkpt>
<trkpt lat="46.64555082" lon="7.05388717"><ele>753.811035</ele><time>2008-06-21T04:25:11Z</time></trkpt>
<trkpt lat="46.64573086" lon="7.05392506"><ele>757.175537</ele><time>2008-06-21T04:25:20Z</time></trkpt>
<trkpt lat="46.64574889" lon="7.05393797"><ele>757.175537</ele><time>2008-06-21T04:25:21Z</time></trkpt>
<trkpt lat="46.64598341" lon="7.05411918"><ele>761.020752</ele><time>2008-06-21T04:25:35Z</time></trkpt>
<trkpt lat="46.64617284" lon="7.05427459"><ele>761.982178</ele><time>2008-06-21T04:25:48Z</time></trkpt>
<trkpt lat="46.64639823" lon="7.05442973"><ele>765.827637</ele><time>2008-06-21T04:26:02Z</time></trkpt>
<trkpt lat="46.64646143" lon="7.05449461"><ele>766.788818</ele><time>2008-06-21T04:26:06Z</time></trkpt>
<trkpt lat="46.64667794" lon="7.05467591"><ele>771.114746</ele><time>2008-06-21T04:26:20Z</time></trkpt>
<trkpt lat="46.64684021" lon="7.05477926"><ele>773.037354</ele><time>2008-06-21T04:26:30Z</time></trkpt>
<trkpt lat="46.64707448" lon="7.05489518"><ele>776.882568</ele><time>2008-06-21T04:26:43Z</time></trkpt>
<trkpt lat="46.64731764" lon="7.05497179"><ele>778.805176</ele><time>2008-06-21T04:26:58Z</time></trkpt>
<trkpt lat="46.64741663" lon="7.05499727"><ele>781.20874</ele><time>2008-06-21T04:27:04Z</time></trkpt>
<trkpt lat="46.64744354" lon="7.05497095"><ele>781.20874</ele><time>2008-06-21T04:27:07Z</time></trkpt>
<trkpt lat="46.64749710" lon="7.05485302"><ele>782.169922</ele><time>2008-06-21T04:27:11Z</time></trkpt>
<trkpt lat="46.64750598" lon="7.05481371"><ele>783.131104</ele><time>2008-06-21T04:27:14Z</time></trkpt>
<trkpt lat="46.64749727" lon="7.05489216"><ele>781.20874</ele><time>2008-06-21T04:27:17Z</time></trkpt>
<trkpt lat="46.64756969" lon="7.05502233"><ele>781.20874</ele><time>2008-06-21T04:27:21Z</time></trkpt>
<trkpt lat="46.64779524" lon="7.05522970"><ele>782.169922</ele><time>2008-06-21T04:27:31Z</time></trkpt>
<trkpt lat="46.64807444" lon="7.05533221"><ele>784.092529</ele><time>2008-06-21T04:27:44Z</time></trkpt>
<trkpt lat="46.64832607" lon="7.05525208"><ele>786.976318</ele><time>2008-06-21T04:27:58Z</time></trkpt>
<trkpt lat="46.64849614" lon="7.05501571"><ele>790.821533</ele><time>2008-06-21T04:28:10Z</time></trkpt>
<trkpt lat="46.64865690" lon="7.05466191"><ele>793.224854</ele><time>2008-06-21T04:28:26Z</time></trkpt>
<trkpt lat="46.64894465" lon="7.05463375"><ele>793.224854</ele><time>2008-06-21T04:28:38Z</time></trkpt>
<trkpt lat="46.64949375" lon="7.05473433"><ele>794.186279</ele><time>2008-06-21T04:28:56Z</time></trkpt>
<trkpt lat="46.64977320" lon="7.05490214"><ele>790.821533</ele><time>2008-06-21T04:29:05Z</time></trkpt>
<trkpt lat="46.64987245" lon="7.05499291"><ele>788.89917</ele><time>2008-06-21T04:29:08Z</time></trkpt>
<trkpt lat="46.65024142" lon="7.05504254"><ele>787.937744</ele><time>2008-06-21T04:29:19Z</time></trkpt>
<trkpt lat="46.65031350" lon="7.05508118"><ele>786.015137</ele><time>2008-06-21T04:29:21Z</time></trkpt>
<trkpt lat="46.65044887" lon="7.05521084"><ele>786.976318</ele><time>2008-06-21T04:29:25Z</time></trkpt>
<trkpt lat="46.65082907" lon="7.05592666"><ele>786.015137</ele><time>2008-06-21T04:29:41Z</time></trkpt>
<trkpt lat="46.65101901" lon="7.05622572"><ele>786.015137</ele><time>2008-06-21T04:29:48Z</time></trkpt>
<trkpt lat="46.65138094" lon="7.05683718"><ele>786.015137</ele><time>2008-06-21T04:30:03Z</time></trkpt>
<trkpt lat="46.65139016" lon="7.05690240"><ele>785.053955</ele><time>2008-06-21T04:30:06Z</time></trkpt>
<trkpt lat="46.65132796" lon="7.05713801"><ele>784.092529</ele><time>2008-06-21T04:30:14Z</time></trkpt>
<trkpt lat="46.65141815" lon="7.05721571"><ele>782.169922</ele><time>2008-06-21T04:30:19Z</time></trkpt>
<trkpt lat="46.65142796" lon="7.05745082"><ele>779.766357</ele><time>2008-06-21T04:30:29Z</time></trkpt>
<trkpt lat="46.65138320" lon="7.05752953"><ele>778.805176</ele><time>2008-06-21T04:30:31Z</time></trkpt>
<trkpt lat="46.65134775" lon="7.05767345"><ele>776.882568</ele><time>2008-06-21T04:30:35Z</time></trkpt>
<trkpt lat="46.65134816" lon="7.05781720"><ele>773.998535</ele><time>2008-06-21T04:30:38Z</time></trkpt>
<trkpt lat="46.65147515" lon="7.05811668"><ele>771.114746</ele><time>2008-06-21T04:30:44Z</time></trkpt>
<trkpt lat="46.65157464" lon="7.05827275"><ele>768.230713</ele><time>2008-06-21T04:30:47Z</time></trkpt>
<trkpt lat="46.65164698" lon="7.05838985"><ele>765.827637</ele><time>2008-06-21T04:30:49Z</time></trkpt>
<trkpt lat="46.65174664" lon="7.05859814"><ele>764.866211</ele><time>2008-06-21T04:30:53Z</time></trkpt>
<trkpt lat="46.65188218" lon="7.05879319"><ele>762.943359</ele><time>2008-06-21T04:30:59Z</time></trkpt>
<trkpt lat="46.65227881" lon="7.05903861"><ele>759.098145</ele><time>2008-06-21T04:31:06Z</time></trkpt>
<trkpt lat="46.65241409" lon="7.05914212"><ele>758.136963</ele><time>2008-06-21T04:31:08Z</time></trkpt>
<trkpt lat="46.65255834" lon="7.05924564"><ele>757.175537</ele><time>2008-06-21T04:31:10Z</time></trkpt>
<trkpt lat="46.65312655" lon="7.05967278"><ele>756.214111</ele><time>2008-06-21T04:31:18Z</time></trkpt>
<trkpt lat="46.65371303" lon="7.06020428"><ele>754.772217</ele><time>2008-06-21T04:31:28Z</time></trkpt>
<trkpt lat="46.65403842" lon="7.06068532"><ele>751.888428</ele><time>2008-06-21T04:31:34Z</time></trkpt>
<trkpt lat="46.65421939" lon="7.06098455"><ele>749.004395</ele><time>2008-06-21T04:31:37Z</time></trkpt>
<trkpt lat="46.65447260" lon="7.06140080"><ele>744.197754</ele><time>2008-06-21T04:31:41Z</time></trkpt>
<trkpt lat="46.65453597" lon="7.06151797"><ele>744.197754</ele><time>2008-06-21T04:31:42Z</time></trkpt>
<trkpt lat="46.65477125" lon="7.06194746"><ele>745.158936</ele><time>2008-06-21T04:31:49Z</time></trkpt>
<trkpt lat="46.65478935" lon="7.06197345"><ele>744.197754</ele><time>2008-06-21T04:31:50Z</time></trkpt>
<trkpt lat="46.65485163" lon="7.06177706"><ele>740.833008</ele><time>2008-06-21T04:31:55Z</time></trkpt>
<trkpt lat="46.65486890" lon="7.06154178"><ele>739.871826</ele><time>2008-06-21T04:31:58Z</time></trkpt>
<trkpt lat="46.65487728" lon="7.06135880"><ele>738.910645</ele><time>2008-06-21T04:32:00Z</time></trkpt>
<trkpt lat="46.65510125" lon="7.06106988"><ele>743.236328</ele><time>2008-06-21T04:32:07Z</time></trkpt>
<trkpt lat="46.65526360" lon="7.06121237"><ele>744.197754</ele><time>2008-06-21T04:32:13Z</time></trkpt>
<trkpt lat="46.65535404" lon="7.06135545"><ele>741.794434</ele><time>2008-06-21T04:32:16Z</time></trkpt>
<trkpt lat="46.65539017" lon="7.06139443"><ele>740.833008</ele><time>2008-06-21T04:32:17Z</time></trkpt>
<trkpt lat="46.65565177" lon="7.06161470"><ele>739.871826</ele><time>2008-06-21T04:32:23Z</time></trkpt>
<trkpt lat="46.65575076" lon="7.06164010"><ele>738.910645</ele><time>2008-06-21T04:32:25Z</time></trkpt>
<trkpt lat="46.65606634" lon="7.06184696"><ele>736.026611</ele><time>2008-06-21T04:32:31Z</time></trkpt>
<trkpt lat="46.65613834" lon="7.06185954"><ele>736.987793</ele><time>2008-06-21T04:32:34Z</time></trkpt>
<trkpt lat="46.65635384" lon="7.06174043"><ele>736.987793</ele><time>2008-06-21T04:32:41Z</time></trkpt>
<trkpt lat="46.65665148" lon="7.06198661"><ele>739.871826</ele><time>2008-06-21T04:32:55Z</time></trkpt>
<trkpt lat="46.65685030" lon="7.06227260"><ele>737.949219</ele><time>2008-06-21T04:33:03Z</time></trkpt>
<trkpt lat="46.65701333" lon="7.06258507"><ele>735.06543</ele><time>2008-06-21T04:33:07Z</time></trkpt>
<trkpt lat="46.65720326" lon="7.06291038"><ele>735.06543</ele><time>2008-06-21T04:33:14Z</time></trkpt>
<trkpt lat="46.65729311" lon="7.06287056"><ele>735.06543</ele><time>2008-06-21T04:33:18Z</time></trkpt>
<trkpt lat="46.65764281" lon="7.06252841"><ele>736.987793</ele><time>2008-06-21T04:33:34Z</time></trkpt>
<trkpt lat="46.65802971" lon="7.06256487"><ele>738.910645</ele><time>2008-06-21T04:33:48Z</time></trkpt>
<trkpt lat="46.65830028" lon="7.06277207"><ele>741.794434</ele><time>2008-06-21T04:33:59Z</time></trkpt>
<trkpt lat="46.65864285" lon="7.06300484"><ele>745.158936</ele><time>2008-06-21T04:34:13Z</time></trkpt>
<trkpt lat="46.65886866" lon="7.06327767"><ele>748.043213</ele><time>2008-06-21T04:34:26Z</time></trkpt>
<trkpt lat="46.65903118" lon="7.06345947"><ele>750.927002</ele><time>2008-06-21T04:34:36Z</time></trkpt>
<trkpt lat="46.65922967" lon="7.06362795"><ele>751.888428</ele><time>2008-06-21T04:34:48Z</time></trkpt>
<trkpt lat="46.65951775" lon="7.06369123"><ele>753.811035</ele><time>2008-06-21T04:35:02Z</time></trkpt>
<trkpt lat="46.65994062" lon="7.06372753"><ele>753.811035</ele><time>2008-06-21T04:35:14Z</time></trkpt>
<trkpt lat="46.66035393" lon="7.06358093"><ele>751.888428</ele><time>2008-06-21T04:35:25Z</time></trkpt>
<trkpt lat="46.66052442" lon="7.06344908"><ele>749.004395</ele><time>2008-06-21T04:35:29Z</time></trkpt>
<trkpt lat="46.66058720" lon="7.06339636"><ele>748.043213</ele><time>2008-06-21T04:35:30Z</time></trkpt>
<trkpt lat="46.66115248" lon="7.06293519"><ele>743.236328</ele><time>2008-06-21T04:35:36Z</time></trkpt>
<trkpt lat="46.66138558" lon="7.06269831"><ele>738.910645</ele><time>2008-06-21T04:35:39Z</time></trkpt>
<trkpt lat="46.66161859" lon="7.06244845"><ele>737.949219</ele><time>2008-06-21T04:35:42Z</time></trkpt>
<trkpt lat="46.66177911" lon="7.06201619"><ele>736.026611</ele><time>2008-06-21T04:35:46Z</time></trkpt>
<trkpt lat="46.66172303" lon="7.06137632"><ele>736.026611</ele><time>2008-06-21T04:35:51Z</time></trkpt>
<trkpt lat="46.66166847" lon="7.06120684"><ele>736.987793</ele><time>2008-06-21T04:35:53Z</time></trkpt>
<trkpt lat="46.66148700" lon="7.06072471"><ele>738.910645</ele><time>2008-06-21T04:36:02Z</time></trkpt>
<trkpt lat="46.66149580" lon="7.06067241"><ele>738.910645</ele><time>2008-06-21T04:36:03Z</time></trkpt>
<trkpt lat="46.66161977" lon="7.06008358"><ele>740.833008</ele><time>2008-06-21T04:36:16Z</time></trkpt>
<trkpt lat="46.66163754" lon="7.06001812"><ele>741.794434</ele><time>2008-06-21T04:36:32Z</time></trkpt>
<trkpt lat="46.66177207" lon="7.05989960"><ele>745.158936</ele><time>2008-06-21T04:38:15Z</time></trkpt>
<trkpt lat="46.66201514" lon="7.05996322"><ele>746.120361</ele><time>2008-06-21T04:38:28Z</time></trkpt>
<trkpt lat="46.66221404" lon="7.06024921"><ele>749.96582</ele><time>2008-06-21T04:38:43Z</time></trkpt>
<trkpt lat="46.66234975" lon="7.06048348"><ele>752.849609</ele><time>2008-06-21T04:38:55Z</time></trkpt>
<trkpt lat="46.66236777" lon="7.06049639"><ele>752.849609</ele><time>2008-06-21T04:38:56Z</time></trkpt>
<trkpt lat="46.66256684" lon="7.06084784"><ele>756.214111</ele><time>2008-06-21T04:39:13Z</time></trkpt>
<trkpt lat="46.66278326" lon="7.06100307"><ele>760.059326</ele><time>2008-06-21T04:39:26Z</time></trkpt>
<trkpt lat="46.66296297" lon="7.06093652"><ele>761.982178</ele><time>2008-06-21T04:39:37Z</time></trkpt>
<trkpt lat="46.66324125" lon="7.06076469"><ele>763.904541</ele><time>2008-06-21T04:39:53Z</time></trkpt>
<trkpt lat="46.66332087" lon="7.06037217"><ele>765.827637</ele><time>2008-06-21T04:40:08Z</time></trkpt>
<trkpt lat="46.66324762" lon="7.05996757"><ele>768.230713</ele><time>2008-06-21T04:40:24Z</time></trkpt>
<trkpt lat="46.66320127" lon="7.05956290"><ele>771.114746</ele><time>2008-06-21T04:40:39Z</time></trkpt>
<trkpt lat="46.66327218" lon="7.05924883"><ele>773.998535</ele><time>2008-06-21T04:40:52Z</time></trkpt>
<trkpt lat="46.66337888" lon="7.05886913"><ele>776.882568</ele><time>2008-06-21T04:41:07Z</time></trkpt>
<trkpt lat="46.66341442" lon="7.05872512"><ele>777.84375</ele><time>2008-06-21T04:41:13Z</time></trkpt>
<trkpt lat="46.66351215" lon="7.05835858"><ele>779.766357</ele><time>2008-06-21T04:41:28Z</time></trkpt>
<trkpt lat="46.66360100" lon="7.05804435"><ele>783.131104</ele><time>2008-06-21T04:41:41Z</time></trkpt>
<trkpt lat="46.66369881" lon="7.05770396"><ele>786.015137</ele><time>2008-06-21T04:41:55Z</time></trkpt>
<trkpt lat="46.66375129" lon="7.05725938"><ele>787.937744</ele><time>2008-06-21T04:42:13Z</time></trkpt>
<trkpt lat="46.66366923" lon="7.05692017"><ele>791.782959</ele><time>2008-06-21T04:42:28Z</time></trkpt>
<trkpt lat="46.66354174" lon="7.05645069"><ele>794.186279</ele><time>2008-06-21T04:42:48Z</time></trkpt>
<trkpt lat="46.66341433" lon="7.05602045"><ele>798.031738</ele><time>2008-06-21T04:43:06Z</time></trkpt>
<trkpt lat="46.66330487" lon="7.05556389"><ele>798.99292</ele><time>2008-06-21T04:43:23Z</time></trkpt>
<trkpt lat="46.66324954" lon="7.05515921"><ele>802.838135</ele><time>2008-06-21T04:43:38Z</time></trkpt>
<trkpt lat="46.66322155" lon="7.05487196"><ele>806.202637</ele><time>2008-06-21T04:43:49Z</time></trkpt>
<trkpt lat="46.66317528" lon="7.05449335"><ele>806.202637</ele><time>2008-06-21T04:44:04Z</time></trkpt>
<trkpt lat="46.66315600" lon="7.05410150"><ele>810.047852</ele><time>2008-06-21T04:44:18Z</time></trkpt>
<trkpt lat="46.66312767" lon="7.05369665"><ele>812.932129</ele><time>2008-06-21T04:44:33Z</time></trkpt>
<trkpt lat="46.66312759" lon="7.05367050"><ele>812.932129</ele><time>2008-06-21T04:44:34Z</time></trkpt>
<trkpt lat="46.66308107" lon="7.05322660"><ele>813.893311</ele><time>2008-06-21T04:44:50Z</time></trkpt>
<trkpt lat="46.66303488" lon="7.05286106"><ele>818.219238</ele><time>2008-06-21T04:45:04Z</time></trkpt>
<trkpt lat="46.66289885" lon="7.05253542"><ele>819.180664</ele><time>2008-06-21T04:45:19Z</time></trkpt>
<trkpt lat="46.66274504" lon="7.05228824"><ele>822.064453</ele><time>2008-06-21T04:45:31Z</time></trkpt>
<trkpt lat="46.66251051" lon="7.05209395"><ele>823.987061</ele><time>2008-06-21T04:45:46Z</time></trkpt>
<trkpt lat="46.66210466" lon="7.05178323"><ele>823.987061</ele><time>2008-06-21T04:46:01Z</time></trkpt>
<trkpt lat="46.66212126" lon="7.05136506"><ele>825.909668</ele><time>2008-06-21T04:46:14Z</time></trkpt>
<trkpt lat="46.66220130" lon="7.05110312"><ele>830.23584</ele><time>2008-06-21T04:46:26Z</time></trkpt>
<trkpt lat="46.66231706" lon="7.05076257"><ele>833.119629</ele><time>2008-06-21T04:46:42Z</time></trkpt>
<trkpt lat="46.66244186" lon="7.05042201"><ele>836.003662</ele><time>2008-06-21T04:46:58Z</time></trkpt>
<trkpt lat="46.66254899" lon="7.05017298"><ele>838.887695</ele><time>2008-06-21T04:47:08Z</time></trkpt>
<trkpt lat="46.66279055" lon="7.04979228"><ele>840.810059</ele><time>2008-06-21T04:47:26Z</time></trkpt>
<trkpt lat="46.66294243" lon="7.04947762"><ele>843.213379</ele><time>2008-06-21T04:47:41Z</time></trkpt>
<trkpt lat="46.66301385" lon="7.04932029"><ele>846.097656</ele><time>2008-06-21T04:47:50Z</time></trkpt>
<trkpt lat="46.66310253" lon="7.04895384"><ele>848.981445</ele><time>2008-06-21T04:48:07Z</time></trkpt>
<trkpt lat="46.66317335" lon="7.04861362"><ele>851.865479</ele><time>2008-06-21T04:48:22Z</time></trkpt>
<trkpt lat="46.66326220" lon="7.04829938"><ele>855.22998</ele><time>2008-06-21T04:48:36Z</time></trkpt>
<trkpt lat="46.66328877" lon="7.04818153"><ele>857.152588</ele><time>2008-06-21T04:48:41Z</time></trkpt>
<trkpt lat="46.66343143" lon="7.04780158"><ele>860.036621</ele><time>2008-06-21T04:48:59Z</time></trkpt>
<trkpt lat="46.66355624" lon="7.04746102"><ele>861.959473</ele><time>2008-06-21T04:49:15Z</time></trkpt>
<trkpt lat="46.66368096" lon="7.04712038"><ele>863.881836</ele><time>2008-06-21T04:49:31Z</time></trkpt>
<trkpt lat="46.66372547" lon="7.04697629"><ele>866.765869</ele><time>2008-06-21T04:49:38Z</time></trkpt>
<trkpt lat="46.66379655" lon="7.04671444"><ele>866.765869</ele><time>2008-06-21T04:49:51Z</time></trkpt>
<trkpt lat="46.66395681" lon="7.04624288"><ele>870.130371</ele><time>2008-06-21T04:50:08Z</time></trkpt>
<trkpt lat="46.66414389" lon="7.04571893"><ele>870.130371</ele><time>2008-06-21T04:50:22Z</time></trkpt>
<trkpt lat="46.66442879" lon="7.04485442"><ele>870.130371</ele><time>2008-06-21T04:50:40Z</time></trkpt>
<trkpt lat="46.66489340" lon="7.04393635"><ele>872.052979</ele><time>2008-06-21T04:51:03Z</time></trkpt>
<trkpt lat="46.66509901" lon="7.04356897"><ele>873.975586</ele><time>2008-06-21T04:51:14Z</time></trkpt>
<trkpt lat="46.66510790" lon="7.04354282"><ele>873.975586</ele><time>2008-06-21T04:51:15Z</time></trkpt>
<trkpt lat="46.66528668" lon="7.04321483"><ele>877.821045</ele><time>2008-06-21T04:51:29Z</time></trkpt>
<trkpt lat="46.66545625" lon="7.04282155"><ele>880.224365</ele><time>2008-06-21T04:51:44Z</time></trkpt>
<trkpt lat="46.66560712" lon="7.04223247"><ele>883.108154</ele><time>2008-06-21T04:52:04Z</time></trkpt>
<trkpt lat="46.66570494" lon="7.04190508"><ele>885.031006</ele><time>2008-06-21T04:52:16Z</time></trkpt>
<trkpt lat="46.66582874" lon="7.04129001"><ele>885.992188</ele><time>2008-06-21T04:52:33Z</time></trkpt>
<trkpt lat="46.66580846" lon="7.04063681"><ele>885.992188</ele><time>2008-06-21T04:52:49Z</time></trkpt>
<trkpt lat="46.66578004" lon="7.04021889"><ele>885.992188</ele><time>2008-06-21T04:52:57Z</time></trkpt>
<trkpt lat="46.66604726" lon="7.03947214"><ele>885.992188</ele><time>2008-06-21T04:53:13Z</time></trkpt>
<trkpt lat="46.66645093" lon="7.03914248"><ele>888.876221</ele><time>2008-06-21T04:53:28Z</time></trkpt>
<trkpt lat="46.66682803" lon="7.03893059"><ele>891.76001</ele><time>2008-06-21T04:53:43Z</time></trkpt>
<trkpt lat="46.66723221" lon="7.03875775"><ele>894.163574</ele><time>2008-06-21T04:53:59Z</time></trkpt>
<trkpt lat="46.66749230" lon="7.03853371"><ele>897.047363</ele><time>2008-06-21T04:54:12Z</time></trkpt>
<trkpt lat="46.66766278" lon="7.03841477"><ele>899.931396</ele><time>2008-06-21T04:54:21Z</time></trkpt>
<trkpt lat="46.66793226" lon="7.03830823"><ele>900.892578</ele><time>2008-06-21T04:54:34Z</time></trkpt>
<trkpt lat="46.66814776" lon="7.03818904"><ele>905.218506</ele><time>2008-06-21T04:54:47Z</time></trkpt>
<trkpt lat="46.66835312" lon="7.03774321"><ele>907.141113</ele><time>2008-06-21T04:55:05Z</time></trkpt>
<trkpt lat="46.66854079" lon="7.03738907"><ele>910.025146</ele><time>2008-06-21T04:55:21Z</time></trkpt>
<trkpt lat="46.66879132" lon="7.03702128"><ele>910.986572</ele><time>2008-06-21T04:55:39Z</time></trkpt>
<trkpt lat="46.66916826" lon="7.03675716"><ele>911.947998</ele><time>2008-06-21T04:55:56Z</time></trkpt>
<trkpt lat="46.66958123" lon="7.03653186"><ele>912.90918</ele><time>2008-06-21T04:56:12Z</time></trkpt>
<trkpt lat="46.66959020" lon="7.03651878"><ele>913.870361</ele><time>2008-06-21T04:56:13Z</time></trkpt>
<trkpt lat="46.66986949" lon="7.03664736"><ele>914.831787</ele><time>2008-06-21T04:56:25Z</time></trkpt>
<trkpt lat="46.67013964" lon="7.03672380"><ele>918.196289</ele><time>2008-06-21T04:56:36Z</time></trkpt>
<trkpt lat="46.67017560" lon="7.03672347"><ele>918.196289</ele><time>2008-06-21T04:56:38Z</time></trkpt>
<trkpt lat="46.67022941" lon="7.03667083"><ele>918.196289</ele><time>2008-06-21T04:56:42Z</time></trkpt>
<trkpt lat="46.67018289" lon="7.03623991"><ele>921.080322</ele><time>2008-06-21T04:56:58Z</time></trkpt>
<trkpt lat="46.67021826" lon="7.03605669"><ele>923.00293</ele><time>2008-06-21T04:57:05Z</time></trkpt>
<trkpt lat="46.67035203" lon="7.03572904"><ele>925.886963</ele><time>2008-06-21T04:57:20Z</time></trkpt>
<trkpt lat="46.67054867" lon="7.03537473"><ele>928.770996</ele><time>2008-06-21T04:57:37Z</time></trkpt>
<trkpt lat="46.67072738" lon="7.03503359"><ele>932.135498</ele><time>2008-06-21T04:57:54Z</time></trkpt>
<trkpt lat="46.67090633" lon="7.03475783"><ele>934.058105</ele><time>2008-06-21T04:58:11Z</time></trkpt>
<trkpt lat="46.67105821" lon="7.03445616"><ele>937.90332</ele><time>2008-06-21T04:58:28Z</time></trkpt>
<trkpt lat="46.67119232" lon="7.03423295"><ele>939.825928</ele><time>2008-06-21T04:58:41Z</time></trkpt>
<trkpt lat="46.67132643" lon="7.03400983"><ele>943.190674</ele><time>2008-06-21T04:58:55Z</time></trkpt>
<trkpt lat="46.67142441" lon="7.03372157"><ele>946.074707</ele><time>2008-06-21T04:59:09Z</time></trkpt>
<trkpt lat="46.67154034" lon="7.03344631"><ele>948.958496</ele><time>2008-06-21T04:59:24Z</time></trkpt>
<trkpt lat="46.67164721" lon="7.03313182"><ele>952.803711</ele><time>2008-06-21T04:59:40Z</time></trkpt>
<trkpt lat="46.67177218" lon="7.03286955"><ele>953.765137</ele><time>2008-06-21T04:59:55Z</time></trkpt>
<trkpt lat="46.67190621" lon="7.03260711"><ele>957.129883</ele><time>2008-06-21T05:00:10Z</time></trkpt>
<trkpt lat="46.67206697" lon="7.03227921"><ele>960.013672</ele><time>2008-06-21T05:00:27Z</time></trkpt>
<trkpt lat="46.67218289" lon="7.03199088"><ele>960.975098</ele><time>2008-06-21T05:00:42Z</time></trkpt>
<trkpt lat="46.67228046" lon="7.03159810"><ele>963.858887</ele><time>2008-06-21T05:00:58Z</time></trkpt>
<trkpt lat="46.67236906" lon="7.03121840"><ele>965.781738</ele><time>2008-06-21T05:01:16Z</time></trkpt>
<trkpt lat="46.67246662" lon="7.03085178"><ele>968.184814</ele><time>2008-06-21T05:01:33Z</time></trkpt>
<trkpt lat="46.67260962" lon="7.03058934"><ele>971.068848</ele><time>2008-06-21T05:01:47Z</time></trkpt>
<trkpt lat="46.67275261" lon="7.03032690"><ele>973.952881</ele><time>2008-06-21T05:02:03Z</time></trkpt>
<trkpt lat="46.67288655" lon="7.03003831"><ele>976.836914</ele><time>2008-06-21T05:02:18Z</time></trkpt>
<trkpt lat="46.67298445" lon="7.02975006"><ele>979.23999</ele><time>2008-06-21T05:02:33Z</time></trkpt>
<trkpt lat="46.67300105" lon="7.02935787"><ele>982.124023</ele><time>2008-06-21T05:02:47Z</time></trkpt>
<trkpt lat="46.67296384" lon="7.02900533"><ele>984.046631</ele><time>2008-06-21T05:03:01Z</time></trkpt>
<trkpt lat="46.67296241" lon="7.02862638"><ele>985.008057</ele><time>2008-06-21T05:03:16Z</time></trkpt>
<trkpt lat="46.67303307" lon="7.02824685"><ele>987.891846</ele><time>2008-06-21T05:03:32Z</time></trkpt>
<trkpt lat="46.67327472" lon="7.02790520"><ele>989.814697</ele><time>2008-06-21T05:03:51Z</time></trkpt>
<trkpt lat="46.67355283" lon="7.02769398"><ele>993.179199</ele><time>2008-06-21T05:04:09Z</time></trkpt>
<trkpt lat="46.67383983" lon="7.02746968"><ele>996.063232</ele><time>2008-06-21T05:04:27Z</time></trkpt>
<trkpt lat="46.67409045" lon="7.02711487"><ele>997.98584</ele><time>2008-06-21T05:04:46Z</time></trkpt>
<trkpt lat="46.67423378" lon="7.02694388"><ele>1001.831055</ele><time>2008-06-21T05:04:58Z</time></trkpt>
<trkpt lat="46.67440401" lon="7.02675965"><ele>1005.195801</ele><time>2008-06-21T05:05:12Z</time></trkpt>
<trkpt lat="46.67446688" lon="7.02673299"><ele>1005.195801</ele><time>2008-06-21T05:05:16Z</time></trkpt>
<trkpt lat="46.67458397" lon="7.02677130"><ele>1009.041016</ele><time>2008-06-21T05:05:26Z</time></trkpt>
<trkpt lat="46.67460199" lon="7.02677121"><ele>1009.041016</ele><time>2008-06-21T05:05:27Z</time></trkpt>
<trkpt lat="46.67469218" lon="7.02684891"><ele>1010.963623</ele><time>2008-06-21T05:05:35Z</time></trkpt>
<trkpt lat="46.67483660" lon="7.02699157"><ele>1014.808838</ele><time>2008-06-21T05:05:48Z</time></trkpt>
<trkpt lat="46.67484566" lon="7.02700457"><ele>1014.808838</ele><time>2008-06-21T05:05:49Z</time></trkpt>
<trkpt lat="46.67498983" lon="7.02706886"><ele>1017.212158</ele><time>2008-06-21T05:06:02Z</time></trkpt>
<trkpt lat="46.67512444" lon="7.02697632"><ele>1020.096191</ele><time>2008-06-21T05:06:12Z</time></trkpt>
<trkpt lat="46.67532183" lon="7.02684414"><ele>1022.980225</ele><time>2008-06-21T05:06:28Z</time></trkpt>
<trkpt lat="46.67551093" lon="7.02689493"><ele>1025.864014</ele><time>2008-06-21T05:06:37Z</time></trkpt>
<trkpt lat="46.67567295" lon="7.02691983"><ele>1027.786621</ele><time>2008-06-21T05:06:48Z</time></trkpt>
<trkpt lat="46.67589784" lon="7.02690507"><ele>1031.151367</ele><time>2008-06-21T05:06:59Z</time></trkpt>
<trkpt lat="46.67598744" lon="7.02682595"><ele>1032.112549</ele><time>2008-06-21T05:07:11Z</time></trkpt>
<trkpt lat="46.67600563" lon="7.02686501"><ele>1034.996582</ele><time>2008-06-21T05:12:37Z</time></trkpt>
<trkpt lat="46.67603262" lon="7.02686484"><ele>1034.996582</ele><time>2008-06-21T05:12:40Z</time></trkpt>
<trkpt lat="46.67619464" lon="7.02688973"><ele>1037.880615</ele><time>2008-06-21T05:12:53Z</time></trkpt>
<trkpt lat="46.67637435" lon="7.02683609"><ele>1042.206543</ele><time>2008-06-21T05:13:07Z</time></trkpt>
<trkpt lat="46.67653595" lon="7.02675646"><ele>1045.090332</ele><time>2008-06-21T05:13:21Z</time></trkpt>
<trkpt lat="46.67664357" lon="7.02666409"><ele>1047.974365</ele><time>2008-06-21T05:13:32Z</time></trkpt>
<trkpt lat="46.67666151" lon="7.02665093"><ele>1047.974365</ele><time>2008-06-21T05:13:34Z</time></trkpt>
<trkpt lat="46.67676939" lon="7.02662394"><ele>1051.81958</ele><time>2008-06-21T05:13:46Z</time></trkpt>
<trkpt lat="46.67691372" lon="7.02674045"><ele>1055.184326</ele><time>2008-06-21T05:14:06Z</time></trkpt>
<trkpt lat="46.67696770" lon="7.02675311"><ele>1056.145508</ele><time>2008-06-21T05:14:11Z</time></trkpt>
<trkpt lat="46.67721044" lon="7.02669905"><ele>1059.029541</ele><time>2008-06-21T05:14:32Z</time></trkpt>
<trkpt lat="46.67750750" lon="7.02676208"><ele>1061.913574</ele><time>2008-06-21T05:14:43Z</time></trkpt>
<trkpt lat="46.67769634" lon="7.02674758"><ele>1064.797363</ele><time>2008-06-21T05:14:56Z</time></trkpt>
<trkpt lat="46.67774144" lon="7.02677339"><ele>1067.200684</ele><time>2008-06-21T05:15:00Z</time></trkpt>
<trkpt lat="46.67775946" lon="7.02678630"><ele>1068.162109</ele><time>2008-06-21T05:15:02Z</time></trkpt>
<trkpt lat="46.67799348" lon="7.02681069"><ele>1070.084717</ele><time>2008-06-21T05:15:18Z</time></trkpt>
<trkpt lat="46.67810186" lon="7.02692745"><ele>1072.007324</ele><time>2008-06-21T05:15:27Z</time></trkpt>
<trkpt lat="46.67826405" lon="7.02701773"><ele>1075.852539</ele><time>2008-06-21T05:15:41Z</time></trkpt>
<trkpt lat="46.67847133" lon="7.02710766"><ele>1077.775146</ele><time>2008-06-21T05:15:55Z</time></trkpt>
<trkpt lat="46.67865121" lon="7.02711931"><ele>1080.178467</ele><time>2008-06-21T05:16:08Z</time></trkpt>
<trkpt lat="46.67872312" lon="7.02709266"><ele>1084.023926</ele><time>2008-06-21T05:16:17Z</time></trkpt>
<trkpt lat="46.67879487" lon="7.02703985"><ele>1084.985352</ele><time>2008-06-21T05:16:23Z</time></trkpt>
<trkpt lat="46.67891105" lon="7.02682980"><ele>1086.907715</ele><time>2008-06-21T05:16:30Z</time></trkpt>
<trkpt lat="46.67891021" lon="7.02658153"><ele>1089.791748</ele><time>2008-06-21T05:16:41Z</time></trkpt>
<trkpt lat="46.67889177" lon="7.02646402"><ele>1091.233643</ele><time>2008-06-21T05:16:49Z</time></trkpt>
<trkpt lat="46.67891867" lon="7.02645069"><ele>1091.233643</ele><time>2008-06-21T05:16:51Z</time></trkpt>
<trkpt lat="46.67899000" lon="7.02626721"><ele>1095.078857</ele><time>2008-06-21T05:17:11Z</time></trkpt>
<trkpt lat="46.67906133" lon="7.02609672"><ele>1097.001465</ele><time>2008-06-21T05:17:36Z</time></trkpt>
<trkpt lat="46.67926862" lon="7.02619974"><ele>1099.885498</ele><time>2008-06-21T05:18:03Z</time></trkpt>
<trkpt lat="46.67938605" lon="7.02632949"><ele>1101.80835</ele><time>2008-06-21T05:18:30Z</time></trkpt>
<trkpt lat="46.67935881" lon="7.02626436"><ele>1102.769531</ele><time>2008-06-21T05:20:10Z</time></trkpt>
<trkpt lat="46.67950390" lon="7.02657692"><ele>1104.21167</ele><time>2008-06-21T05:20:26Z</time></trkpt>
<trkpt lat="46.67953122" lon="7.02668128"><ele>1106.134033</ele><time>2008-06-21T05:20:32Z</time></trkpt>
<trkpt lat="46.67961320" lon="7.02695520"><ele>1108.056885</ele><time>2008-06-21T05:20:44Z</time></trkpt>
<trkpt lat="46.67966760" lon="7.02707238"><ele>1109.018066</ele><time>2008-06-21T05:20:50Z</time></trkpt>
<trkpt lat="46.67976734" lon="7.02729383"><ele>1111.9021</ele><time>2008-06-21T05:21:03Z</time></trkpt>
<trkpt lat="46.67986734" lon="7.02758057"><ele>1113.824463</ele><time>2008-06-21T05:21:19Z</time></trkpt>
<trkpt lat="46.67995845" lon="7.02790663"><ele>1116.228027</ele><time>2008-06-21T05:21:35Z</time></trkpt>
<trkpt lat="46.68004956" lon="7.02823277"><ele>1118.150635</ele><time>2008-06-21T05:21:51Z</time></trkpt>
<trkpt lat="46.68013179" lon="7.02857190"><ele>1120.073242</ele><time>2008-06-21T05:22:08Z</time></trkpt>
<trkpt lat="46.68019541" lon="7.02875446"><ele>1121.99585</ele><time>2008-06-21T05:22:19Z</time></trkpt>
<trkpt lat="46.68028627" lon="7.02901513"><ele>1122.957275</ele><time>2008-06-21T05:22:35Z</time></trkpt>
<trkpt lat="46.68041308" lon="7.02926257"><ele>1125.841064</ele><time>2008-06-21T05:22:51Z</time></trkpt>
<trkpt lat="46.68046748" lon="7.02937975"><ele>1127.763672</ele><time>2008-06-21T05:22:59Z</time></trkpt>
<trkpt lat="46.68058533" lon="7.02961410"><ele>1131.128418</ele><time>2008-06-21T05:23:14Z</time></trkpt>
<trkpt lat="46.68074802" lon="7.02983513"><ele>1132.089844</ele><time>2008-06-21T05:23:29Z</time></trkpt>
<trkpt lat="46.68083888" lon="7.03008274"><ele>1134.012451</ele><time>2008-06-21T05:23:43Z</time></trkpt>
<trkpt lat="46.68099303" lon="7.03043452"><ele>1134.012451</ele><time>2008-06-21T05:23:59Z</time></trkpt>
<trkpt lat="46.68109294" lon="7.03070819"><ele>1134.973877</ele><time>2008-06-21T05:24:11Z</time></trkpt>
<trkpt lat="46.68123837" lon="7.03111229"><ele>1135.935059</ele><time>2008-06-21T05:24:27Z</time></trkpt>
<trkpt lat="46.68138413" lon="7.03162098"><ele>1136.89624</ele><time>2008-06-21T05:24:42Z</time></trkpt>
<trkpt lat="46.68141137" lon="7.03171226"><ele>1136.89624</ele><time>2008-06-21T05:24:46Z</time></trkpt>
<trkpt lat="46.68146577" lon="7.03182944"><ele>1136.89624</ele><time>2008-06-21T05:24:51Z</time></trkpt>
<trkpt lat="46.68149292" lon="7.03186850"><ele>1136.89624</ele><time>2008-06-21T05:24:53Z</time></trkpt>
<trkpt lat="46.68161094" lon="7.03216824"><ele>1136.89624</ele><time>2008-06-21T05:25:05Z</time></trkpt>
<trkpt lat="46.68169275" lon="7.03241592"><ele>1137.857666</ele><time>2008-06-21T05:25:14Z</time></trkpt>
<trkpt lat="46.68180188" lon="7.03274189"><ele>1139.780273</ele><time>2008-06-21T05:25:29Z</time></trkpt>
<trkpt lat="46.68188344" lon="7.03289813"><ele>1142.183594</ele><time>2008-06-21T05:25:39Z</time></trkpt>
<trkpt lat="46.68200171" lon="7.03328940"><ele>1145.067383</ele><time>2008-06-21T05:25:59Z</time></trkpt>
<trkpt lat="46.68203817" lon="7.03340675"><ele>1145.067383</ele><time>2008-06-21T05:26:05Z</time></trkpt>
<trkpt lat="46.68215585" lon="7.03361495"><ele>1146.98999</ele><time>2008-06-21T05:26:15Z</time></trkpt>
<trkpt lat="46.68221008" lon="7.03370607"><ele>1149.874268</ele><time>2008-06-21T05:26:35Z</time></trkpt>
<trkpt lat="46.68227345" lon="7.03381017"><ele>1153.23877</ele><time>2008-06-21T05:26:53Z</time></trkpt>
<trkpt lat="46.68232776" lon="7.03391436"><ele>1156.122559</ele><time>2008-06-21T05:27:11Z</time></trkpt>
<trkpt lat="46.68238191" lon="7.03395316"><ele>1159.006592</ele><time>2008-06-21T05:27:27Z</time></trkpt>
<trkpt lat="46.68252675" lon="7.03420043"><ele>1160.929199</ele><time>2008-06-21T05:27:54Z</time></trkpt>
<trkpt lat="46.68259917" lon="7.03433052"><ele>1163.812988</ele><time>2008-06-21T05:28:09Z</time></trkpt>
<trkpt lat="46.68269875" lon="7.03451282"><ele>1167.177979</ele><time>2008-06-21T05:28:31Z</time></trkpt>
<trkpt lat="46.68273496" lon="7.03457787"><ele>1167.177979</ele><time>2008-06-21T05:28:42Z</time></trkpt>
<trkpt lat="46.68284417" lon="7.03492999"><ele>1167.177979</ele><time>2008-06-21T05:28:56Z</time></trkpt>
<trkpt lat="46.68297183" lon="7.03541270"><ele>1168.13916</ele><time>2008-06-21T05:29:12Z</time></trkpt>
<trkpt lat="46.68307174" lon="7.03568637"><ele>1168.13916</ele><time>2008-06-21T05:29:22Z</time></trkpt>
<trkpt lat="46.68310870" lon="7.03596063"><ele>1170.061768</ele><time>2008-06-21T05:29:33Z</time></trkpt>
<trkpt lat="46.68310032" lon="7.03614369"><ele>1171.984375</ele><time>2008-06-21T05:29:41Z</time></trkpt>
<trkpt lat="46.68313687" lon="7.03631334"><ele>1173.906982</ele><time>2008-06-21T05:29:48Z</time></trkpt>
<trkpt lat="46.68317375" lon="7.03654837"><ele>1176.791016</ele><time>2008-06-21T05:30:00Z</time></trkpt>
<trkpt lat="46.68320124" lon="7.03669195"><ele>1179.194092</ele><time>2008-06-21T05:30:13Z</time></trkpt>
<trkpt lat="46.68326478" lon="7.03686135"><ele>1182.078369</ele><time>2008-06-21T05:30:34Z</time></trkpt>
<trkpt lat="46.68328338" lon="7.03703117"><ele>1184.000977</ele><time>2008-06-21T05:30:58Z</time></trkpt>
<trkpt lat="46.68328414" lon="7.03725337"><ele>1186.884766</ele><time>2008-06-21T05:31:21Z</time></trkpt>
<trkpt lat="46.68332051" lon="7.03737072"><ele>1188.807617</ele><time>2008-06-21T05:31:38Z</time></trkpt>
<trkpt lat="46.68338413" lon="7.03754020"><ele>1192.172119</ele><time>2008-06-21T05:31:56Z</time></trkpt>
<trkpt lat="46.68345672" lon="7.03772267"><ele>1194.094727</ele><time>2008-06-21T05:32:15Z</time></trkpt>
<trkpt lat="46.68347499" lon="7.03781404"><ele>1196.017578</ele><time>2008-06-21T05:32:27Z</time></trkpt>
<trkpt lat="46.68352989" lon="7.03807505"><ele>1196.97876</ele><time>2008-06-21T05:32:43Z</time></trkpt>
<trkpt lat="46.68361179" lon="7.03833581"><ele>1196.97876</ele><time>2008-06-21T05:32:56Z</time></trkpt>
<trkpt lat="46.68362989" lon="7.03837487"><ele>1196.97876</ele><time>2008-06-21T05:32:58Z</time></trkpt>
<trkpt lat="46.68366602" lon="7.03841385"><ele>1196.97876</ele><time>2008-06-21T05:33:02Z</time></trkpt>
<trkpt lat="46.68376610" lon="7.03872683"><ele>1198.901367</ele><time>2008-06-21T05:33:16Z</time></trkpt>
<trkpt lat="46.68385679" lon="7.03894836"><ele>1197.940186</ele><time>2008-06-21T05:33:25Z</time></trkpt>
<trkpt lat="46.68399333" lon="7.03939176"><ele>1198.901367</ele><time>2008-06-21T05:33:38Z</time></trkpt>
<trkpt lat="46.68409416" lon="7.03992695"><ele>1199.862793</ele><time>2008-06-21T05:33:51Z</time></trkpt>
<trkpt lat="46.68428510" lon="7.04051376"><ele>1199.862793</ele><time>2008-06-21T05:34:05Z</time></trkpt>
<trkpt lat="46.68431243" lon="7.04061812"><ele>1198.901367</ele><time>2008-06-21T05:34:07Z</time></trkpt>
<trkpt lat="46.68422266" lon="7.04067109"><ele>1199.862793</ele><time>2008-06-21T05:34:14Z</time></trkpt>
<trkpt lat="46.68422266" lon="7.04065802"><ele>1199.862793</ele><time>2008-06-21T05:34:15Z</time></trkpt>
<trkpt lat="46.68422266" lon="7.04065802"><ele>1200.823975</ele><time>2008-06-21T05:44:39Z</time></trkpt>
<trkpt lat="46.68422266" lon="7.04065802"><ele>1196.97876</ele><time>2008-06-21T05:44:40Z</time></trkpt>
<trkpt lat="46.68428527" lon="7.04056607"><ele>1196.97876</ele><time>2008-06-21T05:44:45Z</time></trkpt>
<trkpt lat="46.68432157" lon="7.04064419"><ele>1198.901367</ele><time>2008-06-21T05:45:25Z</time></trkpt>
<trkpt lat="46.68433053" lon="7.04064410"><ele>1201.7854</ele><time>2008-06-21T05:46:13Z</time></trkpt>
<trkpt lat="46.68433053" lon="7.04064410"><ele>1197.940186</ele><time>2008-06-21T05:46:23Z</time></trkpt>
<trkpt lat="46.68432157" lon="7.04064419"><ele>1198.901367</ele><time>2008-06-21T05:47:50Z</time></trkpt>
<trkpt lat="46.68432157" lon="7.04064419"><ele>1198.901367</ele><time>2008-06-21T05:48:01Z</time></trkpt>
<trkpt lat="46.68431251" lon="7.04064427"><ele>1197.940186</ele><time>2008-06-21T05:48:26Z</time></trkpt>
<trkpt lat="46.68427672" lon="7.04069682"><ele>1197.940186</ele><time>2008-06-21T05:49:23Z</time></trkpt>
<trkpt lat="46.68444847" lon="7.04094392"><ele>1195.055908</ele><time>2008-06-21T05:49:30Z</time></trkpt>
<trkpt lat="46.68454830" lon="7.04117845"><ele>1192.172119</ele><time>2008-06-21T05:49:33Z</time></trkpt>
<trkpt lat="46.68459356" lon="7.04126964"><ele>1189.768799</ele><time>2008-06-21T05:49:34Z</time></trkpt>
<trkpt lat="46.68472993" lon="7.04168689"><ele>1184.000977</ele><time>2008-06-21T05:49:38Z</time></trkpt>
<trkpt lat="46.68487553" lon="7.04215645"><ele>1182.078369</ele><time>2008-06-21T05:49:42Z</time></trkpt>
<trkpt lat="46.68527442" lon="7.04305541"><ele>1174.868408</ele><time>2008-06-21T05:49:50Z</time></trkpt>
<trkpt lat="46.68531985" lon="7.04317275"><ele>1172.945801</ele><time>2008-06-21T05:49:51Z</time></trkpt>
<trkpt lat="46.68546561" lon="7.04370760"><ele>1168.13916</ele><time>2008-06-21T05:49:55Z</time></trkpt>
<trkpt lat="46.68548405" lon="7.04383819"><ele>1167.177979</ele><time>2008-06-21T05:49:56Z</time></trkpt>
<trkpt lat="46.68548615" lon="7.04443943"><ele>1161.890625</ele><time>2008-06-21T05:50:00Z</time></trkpt>
<trkpt lat="46.68546016" lon="7.04474034"><ele>1159.006592</ele><time>2008-06-21T05:50:02Z</time></trkpt>
<trkpt lat="46.68542504" lon="7.04498895"><ele>1159.006592</ele><time>2008-06-21T05:50:04Z</time></trkpt>
<trkpt lat="46.68546251" lon="7.04540695"><ele>1155.161377</ele><time>2008-06-21T05:50:07Z</time></trkpt>
<trkpt lat="46.68551783" lon="7.04579864"><ele>1154.200195</ele><time>2008-06-21T05:50:10Z</time></trkpt>
<trkpt lat="46.68565395" lon="7.04615059"><ele>1151.796875</ele><time>2008-06-21T05:50:13Z</time></trkpt>
<trkpt lat="46.68587071" lon="7.04639744"><ele>1146.98999</ele><time>2008-06-21T05:50:16Z</time></trkpt>
<trkpt lat="46.68618620" lon="7.04657815"><ele>1143.144775</ele><time>2008-06-21T05:50:20Z</time></trkpt>
<trkpt lat="46.68650220" lon="7.04692877"><ele>1141.222168</ele><time>2008-06-21T05:50:24Z</time></trkpt>
<trkpt lat="46.68657496" lon="7.04715047"><ele>1135.935059</ele><time>2008-06-21T05:50:26Z</time></trkpt>
<trkpt lat="46.68661142" lon="7.04728089"><ele>1134.973877</ele><time>2008-06-21T05:50:27Z</time></trkpt>
<trkpt lat="46.68672994" lon="7.04775061"><ele>1131.128418</ele><time>2008-06-21T05:50:31Z</time></trkpt>
<trkpt lat="46.68696513" lon="7.04812805"><ele>1126.80249</ele><time>2008-06-21T05:50:35Z</time></trkpt>
<trkpt lat="46.68715473" lon="7.04833584"><ele>1122.957275</ele><time>2008-06-21T05:50:37Z</time></trkpt>
<trkpt lat="46.68732639" lon="7.04854371"><ele>1120.073242</ele><time>2008-06-21T05:50:39Z</time></trkpt>
<trkpt lat="46.68759713" lon="7.04881629"><ele>1116.228027</ele><time>2008-06-21T05:50:42Z</time></trkpt>
<trkpt lat="46.68768749" lon="7.04892023"><ele>1116.228027</ele><time>2008-06-21T05:50:43Z</time></trkpt>
<trkpt lat="46.68789553" lon="7.04925860"><ele>1112.863281</ele><time>2008-06-21T05:50:46Z</time></trkpt>
<trkpt lat="46.68811220" lon="7.04947921"><ele>1109.018066</ele><time>2008-06-21T05:50:49Z</time></trkpt>
<trkpt lat="46.68835569" lon="7.04966052"><ele>1107.095459</ele><time>2008-06-21T05:50:52Z</time></trkpt>
<trkpt lat="46.68843683" lon="7.04972531"><ele>1105.172852</ele><time>2008-06-21T05:50:53Z</time></trkpt>
<trkpt lat="46.68868225" lon="7.05046861"><ele>1100.846924</ele><time>2008-06-21T05:50:59Z</time></trkpt>
<trkpt lat="46.68870077" lon="7.05062536"><ele>1097.001465</ele><time>2008-06-21T05:51:00Z</time></trkpt>
<trkpt lat="46.68870186" lon="7.05093909"><ele>1095.078857</ele><time>2008-06-21T05:51:02Z</time></trkpt>
<trkpt lat="46.68875735" lon="7.05138316"><ele>1092.195068</ele><time>2008-06-21T05:51:05Z</time></trkpt>
<trkpt lat="46.68878476" lon="7.05151367"><ele>1092.195068</ele><time>2008-06-21T05:51:06Z</time></trkpt>
<trkpt lat="46.68902013" lon="7.05194341"><ele>1087.869141</ele><time>2008-06-21T05:51:12Z</time></trkpt>
<trkpt lat="46.68911015" lon="7.05196889"><ele>1085.946533</ele><time>2008-06-21T05:51:13Z</time></trkpt>
<trkpt lat="46.68930813" lon="7.05199362"><ele>1081.139893</ele><time>2008-06-21T05:51:15Z</time></trkpt>
<trkpt lat="46.68947912" lon="7.05200552"><ele>1080.178467</ele><time>2008-06-21T05:51:17Z</time></trkpt>
<trkpt lat="46.68956009" lon="7.05201801"><ele>1079.217041</ele><time>2008-06-21T05:51:18Z</time></trkpt>
<trkpt lat="46.68999301" lon="7.05234172"><ele>1072.007324</ele><time>2008-06-21T05:51:23Z</time></trkpt>
<trkpt lat="46.69009234" lon="7.05245865"><ele>1071.046143</ele><time>2008-06-21T05:51:24Z</time></trkpt>
<trkpt lat="46.69025511" lon="7.05270583"><ele>1069.123535</ele><time>2008-06-21T05:51:26Z</time></trkpt>
<trkpt lat="46.69042678" lon="7.05292686"><ele>1064.797363</ele><time>2008-06-21T05:51:28Z</time></trkpt>
<trkpt lat="46.69067966" lon="7.05322576"><ele>1062.874756</ele><time>2008-06-21T05:51:31Z</time></trkpt>
<trkpt lat="46.69107671" lon="7.05360202"><ele>1060.952148</ele><time>2008-06-21T05:51:38Z</time></trkpt>
<trkpt lat="46.69113949" lon="7.05354930"><ele>1059.029541</ele><time>2008-06-21T05:51:39Z</time></trkpt>
<trkpt lat="46.69134577" lon="7.05336481"><ele>1057.106934</ele><time>2008-06-21T05:51:42Z</time></trkpt>
<trkpt lat="46.69164232" lon="7.05327119"><ele>1055.184326</ele><time>2008-06-21T05:51:49Z</time></trkpt>
<trkpt lat="46.69160703" lon="7.05346749"><ele>1049.896973</ele><time>2008-06-21T05:51:52Z</time></trkpt>
<trkpt lat="46.69158926" lon="7.05354611"><ele>1049.896973</ele><time>2008-06-21T05:51:53Z</time></trkpt>
<trkpt lat="46.69131216" lon="7.05405791"><ele>1047.012939</ele><time>2008-06-21T05:51:58Z</time></trkpt>
<trkpt lat="46.69123152" lon="7.05416302"><ele>1045.090332</ele><time>2008-06-21T05:51:59Z</time></trkpt>
<trkpt lat="46.69097110" lon="7.05429562"><ele>1042.206543</ele><time>2008-06-21T05:52:02Z</time></trkpt>
<trkpt lat="46.69059467" lon="7.05469050"><ele>1038.842041</ele><time>2008-06-21T05:52:07Z</time></trkpt>
<trkpt lat="46.69042393" lon="7.05474406"><ele>1037.880615</ele><time>2008-06-21T05:52:09Z</time></trkpt>
<trkpt lat="46.69006493" lon="7.05499493"><ele>1034.996582</ele><time>2008-06-21T05:52:13Z</time></trkpt>
<trkpt lat="46.68962614" lon="7.05558635"><ele>1032.112549</ele><time>2008-06-21T05:52:19Z</time></trkpt>
<trkpt lat="46.68950083" lon="7.05577025"><ele>1032.112549</ele><time>2008-06-21T05:52:21Z</time></trkpt>
<trkpt lat="46.68890831" lon="7.05614048"><ele>1027.786621</ele><time>2008-06-21T05:52:28Z</time></trkpt>
<trkpt lat="46.68866607" lon="7.05631214"><ele>1025.864014</ele><time>2008-06-21T05:52:31Z</time></trkpt>
<trkpt lat="46.68849559" lon="7.05644407"><ele>1025.864014</ele><time>2008-06-21T05:52:33Z</time></trkpt>
<trkpt lat="46.68835217" lon="7.05661498"><ele>1024.902832</ele><time>2008-06-21T05:52:35Z</time></trkpt>
<trkpt lat="46.68820054" lon="7.05698211"><ele>1022.018799</ele><time>2008-06-21T05:52:38Z</time></trkpt>
<trkpt lat="46.68813785" lon="7.05707406"><ele>1022.018799</ele><time>2008-06-21T05:52:39Z</time></trkpt>
<trkpt lat="46.68782780" lon="7.05851415"><ele>1022.018799</ele><time>2008-06-21T05:52:51Z</time></trkpt>
<trkpt lat="46.68780115" lon="7.05861893"><ele>1022.018799</ele><time>2008-06-21T05:52:52Z</time></trkpt>
<trkpt lat="46.68772990" lon="7.05882864"><ele>1021.057617</ele><time>2008-06-21T05:52:54Z</time></trkpt>
<trkpt lat="46.68754198" lon="7.05913056"><ele>1021.057617</ele><time>2008-06-21T05:52:58Z</time></trkpt>
<trkpt lat="46.68746294" lon="7.05969323"><ele>1017.212158</ele><time>2008-06-21T05:53:05Z</time></trkpt>
<trkpt lat="46.68777801" lon="7.05976943"><ele>1013.847412</ele><time>2008-06-21T05:53:09Z</time></trkpt>
<trkpt lat="46.68803852" lon="7.05964998"><ele>1010.002197</ele><time>2008-06-21T05:53:12Z</time></trkpt>
<trkpt lat="46.68827154" lon="7.05938688"><ele>1008.079834</ele><time>2008-06-21T05:53:15Z</time></trkpt>
<trkpt lat="46.68847815" lon="7.05930700"><ele>1004.234619</ele><time>2008-06-21T05:53:18Z</time></trkpt>
<trkpt lat="46.68864026" lon="7.05937129"><ele>1000.869629</ele><time>2008-06-21T05:53:20Z</time></trkpt>
<trkpt lat="46.68899188" lon="7.05960405"><ele>997.98584</ele><time>2008-06-21T05:53:24Z</time></trkpt>
<trkpt lat="46.68934308" lon="7.05971930"><ele>995.101807</ele><time>2008-06-21T05:53:28Z</time></trkpt>
<trkpt lat="46.68960468" lon="7.05993966"><ele>990.775879</ele><time>2008-06-21T05:53:32Z</time></trkpt>
<trkpt lat="46.68975882" lon="7.06030461"><ele>985.969238</ele><time>2008-06-21T05:53:35Z</time></trkpt>
<trkpt lat="46.68985865" lon="7.06057845"><ele>985.008057</ele><time>2008-06-21T05:53:37Z</time></trkpt>
<trkpt lat="46.69004867" lon="7.06091699"><ele>983.085205</ele><time>2008-06-21T05:53:40Z</time></trkpt>
<trkpt lat="46.69017532" lon="7.06111221"><ele>982.124023</ele><time>2008-06-21T05:53:42Z</time></trkpt>
<trkpt lat="46.69026593" lon="7.06132075"><ele>980.201416</ele><time>2008-06-21T05:53:44Z</time></trkpt>
<trkpt lat="46.69039434" lon="7.06206498"><ele>974.914307</ele><time>2008-06-21T05:53:49Z</time></trkpt>
<trkpt lat="46.69042342" lon="7.06269228"><ele>972.030273</ele><time>2008-06-21T05:53:53Z</time></trkpt>
<trkpt lat="46.69044228" lon="7.06296670"><ele>972.030273</ele><time>2008-06-21T05:53:55Z</time></trkpt>
<trkpt lat="46.69039853" lon="7.06334607"><ele>970.107422</ele><time>2008-06-21T05:53:58Z</time></trkpt>
<trkpt lat="46.69036299" lon="7.06347708"><ele>969.14624</ele><time>2008-06-21T05:53:59Z</time></trkpt>
<trkpt lat="46.69023835" lon="7.06385703"><ele>964.820313</ele><time>2008-06-21T05:54:02Z</time></trkpt>
<trkpt lat="46.69015839" lon="7.06415827"><ele>960.975098</ele><time>2008-06-21T05:54:04Z</time></trkpt>
<trkpt lat="46.69011388" lon="7.06431543"><ele>958.091309</ele><time>2008-06-21T05:54:05Z</time></trkpt>
<trkpt lat="46.69007842" lon="7.06447260"><ele>958.091309</ele><time>2008-06-21T05:54:06Z</time></trkpt>
<trkpt lat="46.68999922" lon="7.06499605"><ele>952.803711</ele><time>2008-06-21T05:54:09Z</time></trkpt>
<trkpt lat="46.68999075" lon="7.06517911"><ele>952.803711</ele><time>2008-06-21T05:54:10Z</time></trkpt>
<trkpt lat="46.68994700" lon="7.06554548"><ele>949.919922</ele><time>2008-06-21T05:54:12Z</time></trkpt>
<trkpt lat="46.68989411" lon="7.06588570"><ele>947.997314</ele><time>2008-06-21T05:54:14Z</time></trkpt>
<trkpt lat="46.68998916" lon="7.06744071"><ele>946.074707</ele><time>2008-06-21T05:54:23Z</time></trkpt>
<trkpt lat="46.69003576" lon="7.06795025"><ele>940.787354</ele><time>2008-06-21T05:54:26Z</time></trkpt>
<trkpt lat="46.69006401" lon="7.06832911"><ele>936.941895</ele><time>2008-06-21T05:54:28Z</time></trkpt>
<trkpt lat="46.69007365" lon="7.06852516"><ele>935.980713</ele><time>2008-06-21T05:54:29Z</time></trkpt>
<trkpt lat="46.69004783" lon="7.06887829"><ele>935.019531</ele><time>2008-06-21T05:54:31Z</time></trkpt>
<trkpt lat="46.68998580" lon="7.06916629"><ele>936.941895</ele><time>2008-06-21T05:54:33Z</time></trkpt>
<trkpt lat="46.68990618" lon="7.06959830"><ele>938.864746</ele><time>2008-06-21T05:54:38Z</time></trkpt>
<trkpt lat="46.68999678" lon="7.06979376"><ele>938.864746</ele><time>2008-06-21T05:54:43Z</time></trkpt>
<trkpt lat="46.69060120" lon="7.07031252"><ele>935.019531</ele><time>2008-06-21T05:54:57Z</time></trkpt>
<trkpt lat="46.69067329" lon="7.07035124"><ele>935.019531</ele><time>2008-06-21T05:54:58Z</time></trkpt>
<trkpt lat="46.69074529" lon="7.07037689"><ele>935.019531</ele><time>2008-06-21T05:54:59Z</time></trkpt>
<trkpt lat="46.69108727" lon="7.07041377"><ele>933.09668</ele><time>2008-06-21T05:55:03Z</time></trkpt>
<trkpt lat="46.69172555" lon="7.07029182"><ele>928.770996</ele><time>2008-06-21T05:55:10Z</time></trkpt>
<trkpt lat="46.69181549" lon="7.07027807"><ele>928.770996</ele><time>2008-06-21T05:55:11Z</time></trkpt>
<trkpt lat="46.69217482" lon="7.07013180"><ele>926.848389</ele><time>2008-06-21T05:55:15Z</time></trkpt>
<trkpt lat="46.69238102" lon="7.06992125"><ele>922.041504</ele><time>2008-06-21T05:55:18Z</time></trkpt>
<trkpt lat="46.69259576" lon="7.06956678"><ele>919.157715</ele><time>2008-06-21T05:55:21Z</time></trkpt>
<trkpt lat="46.69272987" lon="7.06930443"><ele>917.235107</ele><time>2008-06-21T05:55:23Z</time></trkpt>
<trkpt lat="46.69279240" lon="7.06916017"><ele>917.235107</ele><time>2008-06-21T05:55:24Z</time></trkpt>
<trkpt lat="46.69344669" lon="7.06842357"><ele>917.235107</ele><time>2008-06-21T05:55:32Z</time></trkpt>
<trkpt lat="46.69373335" lon="7.06805561"><ele>913.870361</ele><time>2008-06-21T05:55:36Z</time></trkpt>
<trkpt lat="46.69393083" lon="7.06793658"><ele>915.793213</ele><time>2008-06-21T05:55:39Z</time></trkpt>
<trkpt lat="46.69410174" lon="7.06792234"><ele>911.947998</ele><time>2008-06-21T05:55:41Z</time></trkpt>
<trkpt lat="46.69420064" lon="7.06792166"><ele>911.947998</ele><time>2008-06-21T05:55:42Z</time></trkpt>
<trkpt lat="46.69429955" lon="7.06790783"><ele>910.986572</ele><time>2008-06-21T05:55:43Z</time></trkpt>
<trkpt lat="46.69458722" lon="7.06782745"><ele>907.141113</ele><time>2008-06-21T05:55:46Z</time></trkpt>
<trkpt lat="46.69479392" lon="7.06777372"><ele>906.179688</ele><time>2008-06-21T05:55:48Z</time></trkpt>
<trkpt lat="46.69486575" lon="7.06774707"><ele>907.141113</ele><time>2008-06-21T05:55:49Z</time></trkpt>
<trkpt lat="46.69527965" lon="7.06775730"><ele>906.179688</ele><time>2008-06-21T05:55:54Z</time></trkpt>
<trkpt lat="46.69565826" lon="7.06801621"><ele>901.854004</ele><time>2008-06-21T05:55:59Z</time></trkpt>
<trkpt lat="46.69611926" lon="7.06870596"><ele>900.892578</ele><time>2008-06-21T05:56:06Z</time></trkpt>
<trkpt lat="46.69642696" lon="7.06926604"><ele>897.047363</ele><time>2008-06-21T05:56:11Z</time></trkpt>
<trkpt lat="46.69657188" lon="7.06956577"><ele>897.047363</ele><time>2008-06-21T05:56:15Z</time></trkpt>
<trkpt lat="46.69663534" lon="7.06973534"><ele>897.047363</ele><time>2008-06-21T05:56:18Z</time></trkpt>
<trkpt lat="46.69675201" lon="7.06964297"><ele>896.086182</ele><time>2008-06-21T05:56:25Z</time></trkpt>
<trkpt lat="46.69674262" lon="7.06952537"><ele>896.086182</ele><time>2008-06-21T05:56:27Z</time></trkpt>
<trkpt lat="46.69675914" lon="7.06906764"><ele>890.798584</ele><time>2008-06-21T05:56:32Z</time></trkpt>
<trkpt lat="46.69677674" lon="7.06894987"><ele>888.876221</ele><time>2008-06-21T05:56:33Z</time></trkpt>
<trkpt lat="46.69689207" lon="7.06845224"><ele>885.031006</ele><time>2008-06-21T05:56:37Z</time></trkpt>
<trkpt lat="46.69713381" lon="7.06808452"><ele>888.876221</ele><time>2008-06-21T05:56:42Z</time></trkpt>
<trkpt lat="46.69718754" lon="7.06803189"><ele>889.837402</ele><time>2008-06-21T05:56:43Z</time></trkpt>
<trkpt lat="46.69727722" lon="7.06792661"><ele>890.798584</ele><time>2008-06-21T05:56:45Z</time></trkpt>
<trkpt lat="46.69736666" lon="7.06778219"><ele>888.876221</ele><time>2008-06-21T05:56:47Z</time></trkpt>
<trkpt lat="46.69762474" lon="7.06691751"><ele>888.876221</ele><time>2008-06-21T05:56:57Z</time></trkpt>
<trkpt lat="46.69764192" lon="7.06666899"><ele>885.992188</ele><time>2008-06-21T05:57:00Z</time></trkpt>
<trkpt lat="46.69773948" lon="7.06623682"><ele>885.992188</ele><time>2008-06-21T05:57:06Z</time></trkpt>
<trkpt lat="46.69794559" lon="7.06600011"><ele>888.876221</ele><time>2008-06-21T05:57:12Z</time></trkpt>
<trkpt lat="46.69812530" lon="7.06593348"><ele>889.837402</ele><time>2008-06-21T05:57:17Z</time></trkpt>
<trkpt lat="46.69849318" lon="7.06565637"><ele>891.76001</ele><time>2008-06-21T05:57:27Z</time></trkpt>
<trkpt lat="46.69854691" lon="7.06559066"><ele>891.76001</ele><time>2008-06-21T05:57:29Z</time></trkpt>
<trkpt lat="46.69898596" lon="7.06503846"><ele>894.163574</ele><time>2008-06-21T05:57:43Z</time></trkpt>
<trkpt lat="46.69942475" lon="7.06444703"><ele>895.124756</ele><time>2008-06-21T05:57:56Z</time></trkpt>
<trkpt lat="46.69957696" lon="7.06422374"><ele>893.202148</ele><time>2008-06-21T05:58:01Z</time></trkpt>
<trkpt lat="46.69967545" lon="7.06407923"><ele>890.798584</ele><time>2008-06-21T05:58:04Z</time></trkpt>
<trkpt lat="46.69973806" lon="7.06397412"><ele>889.837402</ele><time>2008-06-21T05:58:06Z</time></trkpt>
<trkpt lat="46.69988140" lon="7.06380322"><ele>887.914795</ele><time>2008-06-21T05:58:10Z</time></trkpt>
<trkpt lat="46.70022195" lon="7.06339552"><ele>885.031006</ele><time>2008-06-21T05:58:16Z</time></trkpt>
<trkpt lat="46.70041021" lon="7.06321112"><ele>885.031006</ele><time>2008-06-21T05:58:22Z</time></trkpt>
<trkpt lat="46.70053652" lon="7.06332796"><ele>881.185791</ele><time>2008-06-21T05:58:26Z</time></trkpt>
<trkpt lat="46.70063577" lon="7.06341874"><ele>877.821045</ele><time>2008-06-21T05:58:29Z</time></trkpt>
<trkpt lat="46.70069897" lon="7.06348370"><ele>875.898193</ele><time>2008-06-21T05:58:31Z</time></trkpt>
<trkpt lat="46.70088848" lon="7.06365234"><ele>872.052979</ele><time>2008-06-21T05:58:36Z</time></trkpt>
<trkpt lat="46.70102368" lon="7.06374295"><ele>869.169189</ele><time>2008-06-21T05:58:39Z</time></trkpt>
<trkpt lat="46.70113181" lon="7.06380758"><ele>866.765869</ele><time>2008-06-21T05:58:41Z</time></trkpt>
<trkpt lat="46.70122200" lon="7.06387237"><ele>864.843262</ele><time>2008-06-21T05:58:43Z</time></trkpt>
<trkpt lat="46.70130322" lon="7.06395024"><ele>863.881836</ele><time>2008-06-21T05:58:45Z</time></trkpt>
<trkpt lat="46.70137547" lon="7.06404126"><ele>861.959473</ele><time>2008-06-21T05:58:47Z</time></trkpt>
<trkpt lat="46.70147513" lon="7.06424980"><ele>860.036621</ele><time>2008-06-21T05:58:50Z</time></trkpt>
<trkpt lat="46.70153883" lon="7.06448467"><ele>857.152588</ele><time>2008-06-21T05:58:53Z</time></trkpt>
<trkpt lat="46.70156616" lon="7.06457603"><ele>855.22998</ele><time>2008-06-21T05:58:54Z</time></trkpt>
<trkpt lat="46.70173036" lon="7.06526787"><ele>851.865479</ele><time>2008-06-21T05:59:02Z</time></trkpt>
<trkpt lat="46.70175768" lon="7.06537231"><ele>849.942871</ele><time>2008-06-21T05:59:03Z</time></trkpt>
<trkpt lat="46.70189364" lon="7.06568521"><ele>846.097656</ele><time>2008-06-21T05:59:06Z</time></trkpt>
<trkpt lat="46.70210210" lon="7.06616750"><ele>841.771484</ele><time>2008-06-21T05:59:10Z</time></trkpt>
<trkpt lat="46.70221978" lon="7.06638903"><ele>840.810059</ele><time>2008-06-21T05:59:12Z</time></trkpt>
<trkpt lat="46.70258028" lon="7.06660881"><ele>837.92627</ele><time>2008-06-21T05:59:16Z</time></trkpt>
<trkpt lat="46.70322821" lon="7.06666974"><ele>834.081055</ele><time>2008-06-21T05:59:22Z</time></trkpt>
<trkpt lat="46.70344429" lon="7.06673361"><ele>831.197266</ele><time>2008-06-21T05:59:24Z</time></trkpt>
<trkpt lat="46.70366054" lon="7.06684979"><ele>828.793945</ele><time>2008-06-21T05:59:26Z</time></trkpt>
<trkpt lat="46.70382315" lon="7.06705791"><ele>827.832275</ele><time>2008-06-21T05:59:28Z</time></trkpt>
<trkpt lat="46.70413043" lon="7.06748731"><ele>826.871094</ele><time>2008-06-21T05:59:32Z</time></trkpt>
<trkpt lat="46.70425708" lon="7.06772184"><ele>825.909668</ele><time>2008-06-21T05:59:34Z</time></trkpt>
<trkpt lat="46.70446487" lon="7.06799501"><ele>823.987061</ele><time>2008-06-21T05:59:37Z</time></trkpt>
<trkpt lat="46.70474399" lon="7.06805846"><ele>822.064453</ele><time>2008-06-21T05:59:40Z</time></trkpt>
<trkpt lat="46.70515747" lon="7.06796408"><ele>813.893311</ele><time>2008-06-21T05:59:44Z</time></trkpt>
<trkpt lat="46.70548998" lon="7.06787028"><ele>811.009277</ele><time>2008-06-21T05:59:47Z</time></trkpt>
<trkpt lat="46.70597630" lon="7.06804999"><ele>804.760742</ele><time>2008-06-21T05:59:52Z</time></trkpt>
<trkpt lat="46.70606649" lon="7.06810171"><ele>804.760742</ele><time>2008-06-21T05:59:53Z</time></trkpt>
<trkpt lat="46.70623764" lon="7.06817899"><ele>804.760742</ele><time>2008-06-21T05:59:55Z</time></trkpt>
<trkpt lat="46.70641970" lon="7.06885767"><ele>802.838135</ele><time>2008-06-21T06:00:02Z</time></trkpt>
<trkpt lat="46.70635801" lon="7.06923737"><ele>798.99292</ele><time>2008-06-21T06:00:05Z</time></trkpt>
<trkpt lat="46.70632238" lon="7.06935531"><ele>798.99292</ele><time>2008-06-21T06:00:06Z</time></trkpt>
<trkpt lat="46.70582240" lon="7.07052249"><ele>800.915527</ele><time>2008-06-21T06:00:18Z</time></trkpt>
<trkpt lat="46.70528638" lon="7.07167692"><ele>799.954346</ele><time>2008-06-21T06:00:34Z</time></trkpt>
<trkpt lat="46.70522503" lon="7.07217422"><ele>800.915527</ele><time>2008-06-21T06:00:39Z</time></trkpt>
<trkpt lat="46.70536576" lon="7.07397776"><ele>798.99292</ele><time>2008-06-21T06:00:56Z</time></trkpt>
<trkpt lat="46.70541278" lon="7.07461822"><ele>798.031738</ele><time>2008-06-21T06:01:02Z</time></trkpt>
<trkpt lat="46.70528839" lon="7.07510286"><ele>797.070313</ele><time>2008-06-21T06:01:07Z</time></trkpt>
<trkpt lat="46.70496829" lon="7.07628194"><ele>793.224854</ele><time>2008-06-21T06:01:19Z</time></trkpt>
<trkpt lat="46.70499729" lon="7.07690941"><ele>789.860352</ele><time>2008-06-21T06:01:24Z</time></trkpt>
<trkpt lat="46.70501724" lon="7.07753688"><ele>789.860352</ele><time>2008-06-21T06:01:29Z</time></trkpt>
<trkpt lat="46.70499134" lon="7.07787710"><ele>790.821533</ele><time>2008-06-21T06:01:32Z</time></trkpt>
<trkpt lat="46.70478607" lon="7.07840147"><ele>790.821533</ele><time>2008-06-21T06:01:38Z</time></trkpt>
<trkpt lat="46.70464274" lon="7.07857247"><ele>791.782959</ele><time>2008-06-21T06:01:41Z</time></trkpt>
<trkpt lat="46.70451801" lon="7.07896558"><ele>793.224854</ele><time>2008-06-21T06:01:46Z</time></trkpt>
<trkpt lat="46.70449211" lon="7.07930571"><ele>790.821533</ele><time>2008-06-21T06:01:50Z</time></trkpt>
<trkpt lat="46.70417067" lon="7.08006629"><ele>789.860352</ele><time>2008-06-21T06:01:59Z</time></trkpt>
<trkpt lat="46.70408148" lon="7.08031531"><ele>790.821533</ele><time>2008-06-21T06:02:02Z</time></trkpt>
<trkpt lat="46.70409095" lon="7.08048522"><ele>790.821533</ele><time>2008-06-21T06:02:04Z</time></trkpt>
<trkpt lat="46.70414569" lon="7.08072024"><ele>791.782959</ele><time>2008-06-21T06:02:07Z</time></trkpt>
<trkpt lat="46.70419187" lon="7.08111218"><ele>791.782959</ele><time>2008-06-21T06:02:12Z</time></trkpt>
<trkpt lat="46.70433789" lon="7.08177812"><ele>791.782959</ele><time>2008-06-21T06:02:20Z</time></trkpt>
<trkpt lat="46.70468020" lon="7.08193277"><ele>790.821533</ele><time>2008-06-21T06:02:27Z</time></trkpt>
<trkpt lat="46.70496779" lon="7.08182624"><ele>786.976318</ele><time>2008-06-21T06:02:31Z</time></trkpt>
<trkpt lat="46.70522838" lon="7.08174611"><ele>785.053955</ele><time>2008-06-21T06:02:34Z</time></trkpt>
<trkpt lat="46.70559693" lon="7.08166522"><ele>782.169922</ele><time>2008-06-21T06:02:38Z</time></trkpt>
<trkpt lat="46.70610018" lon="7.08150496"><ele>778.805176</ele><time>2008-06-21T06:02:43Z</time></trkpt>
<trkpt lat="46.70656781" lon="7.08146263"><ele>773.998535</ele><time>2008-06-21T06:02:47Z</time></trkpt>
<trkpt lat="46.70668482" lon="7.08147495"><ele>773.998535</ele><time>2008-06-21T06:02:48Z</time></trkpt>
<trkpt lat="46.70725211" lon="7.08165424"><ele>769.192139</ele><time>2008-06-21T06:02:53Z</time></trkpt>
<trkpt lat="46.70785544" lon="7.08184644"><ele>770.15332</ele><time>2008-06-21T06:03:01Z</time></trkpt>
<trkpt lat="46.70798150" lon="7.08188483"><ele>770.15332</ele><time>2008-06-21T06:03:05Z</time></trkpt>
<trkpt lat="46.70852875" lon="7.08142349"><ele>770.15332</ele><time>2008-06-21T06:03:17Z</time></trkpt>
<trkpt lat="46.70871701" lon="7.08121302"><ele>770.15332</ele><time>2008-06-21T06:03:21Z</time></trkpt>
<trkpt lat="46.70894240" lon="7.08136842"><ele>769.192139</ele><time>2008-06-21T06:03:27Z</time></trkpt>
<trkpt lat="46.70917114" lon="7.08260927"><ele>768.230713</ele><time>2008-06-21T06:03:42Z</time></trkpt>
<trkpt lat="46.70937248" lon="7.08370646"><ele>764.866211</ele><time>2008-06-21T06:03:53Z</time></trkpt>
<trkpt lat="46.70941849" lon="7.08404618"><ele>764.866211</ele><time>2008-06-21T06:03:56Z</time></trkpt>
<trkpt lat="46.70941958" lon="7.08438615"><ele>761.982178</ele><time>2008-06-21T06:03:59Z</time></trkpt>
<trkpt lat="46.70938429" lon="7.08460869"><ele>762.943359</ele><time>2008-06-21T06:04:01Z</time></trkpt>
<trkpt lat="46.70929528" lon="7.08491011"><ele>764.866211</ele><time>2008-06-21T06:04:07Z</time></trkpt>
<trkpt lat="46.70928665" lon="7.08504095"><ele>765.827637</ele><time>2008-06-21T06:04:09Z</time></trkpt>
<trkpt lat="46.70928815" lon="7.08551168"><ele>761.982178</ele><time>2008-06-21T06:04:15Z</time></trkpt>
<trkpt lat="46.70928841" lon="7.08561628"><ele>761.982178</ele><time>2008-06-21T06:04:16Z</time></trkpt>
<trkpt lat="46.70929804" lon="7.08579934"><ele>761.020752</ele><time>2008-06-21T06:04:18Z</time></trkpt>
<trkpt lat="46.70946317" lon="7.08685756"><ele>758.136963</ele><time>2008-06-21T06:04:28Z</time></trkpt>
<trkpt lat="46.70948152" lon="7.08697507"><ele>758.136963</ele><time>2008-06-21T06:04:29Z</time></trkpt>
<trkpt lat="46.70990833" lon="7.08826697"><ele>754.772217</ele><time>2008-06-21T06:04:41Z</time></trkpt>
<trkpt lat="46.71057000" lon="7.08989742"><ele>756.214111</ele><time>2008-06-21T06:04:56Z</time></trkpt>
<trkpt lat="46.71060621" lon="7.08998870"><ele>756.214111</ele><time>2008-06-21T06:04:57Z</time></trkpt>
<trkpt lat="46.71083311" lon="7.09064115"><ele>758.136963</ele><time>2008-06-21T06:05:04Z</time></trkpt>
<trkpt lat="46.71100477" lon="7.09087542"><ele>756.214111</ele><time>2008-06-21T06:05:08Z</time></trkpt>
<trkpt lat="46.71126645" lon="7.09114834"><ele>753.811035</ele><time>2008-06-21T06:05:13Z</time></trkpt>
<trkpt lat="46.71155496" lon="7.09135579"><ele>749.96582</ele><time>2008-06-21T06:05:16Z</time></trkpt>
<trkpt lat="46.71200565" lon="7.09166676"><ele>748.043213</ele><time>2008-06-21T06:05:20Z</time></trkpt>
<trkpt lat="46.71308725" lon="7.09235290"><ele>748.043213</ele><time>2008-06-21T06:05:32Z</time></trkpt>
<trkpt lat="46.71410372" lon="7.09234645"><ele>749.004395</ele><time>2008-06-21T06:05:44Z</time></trkpt>
<trkpt lat="46.71427446" lon="7.09227989"><ele>748.043213</ele><time>2008-06-21T06:05:46Z</time></trkpt>
<trkpt lat="46.71475047" lon="7.09204143"><ele>748.043213</ele><time>2008-06-21T06:05:52Z</time></trkpt>
<trkpt lat="46.71512011" lon="7.09231376"><ele>746.120361</ele><time>2008-06-21T06:05:58Z</time></trkpt>
<trkpt lat="46.71550107" lon="7.09334448"><ele>746.120361</ele><time>2008-06-21T06:06:08Z</time></trkpt>
<trkpt lat="46.71569444" lon="7.09483428"><ele>744.197754</ele><time>2008-06-21T06:06:22Z</time></trkpt>
<trkpt lat="46.71569721" lon="7.09573667"><ele>741.794434</ele><time>2008-06-21T06:06:30Z</time></trkpt>
<trkpt lat="46.71571590" lon="7.09598511"><ele>740.833008</ele><time>2008-06-21T06:06:32Z</time></trkpt>
<trkpt lat="46.71579804" lon="7.09636389"><ele>738.910645</ele><time>2008-06-21T06:06:35Z</time></trkpt>
<trkpt lat="46.71589804" lon="7.09672943"><ele>736.026611</ele><time>2008-06-21T06:06:38Z</time></trkpt>
<trkpt lat="46.71614271" lon="7.09731641"><ele>733.142578</ele><time>2008-06-21T06:06:43Z</time></trkpt>
<trkpt lat="46.71623340" lon="7.09757742"><ele>732.181396</ele><time>2008-06-21T06:06:45Z</time></trkpt>
<trkpt lat="46.71634253" lon="7.09796911"><ele>728.81665</ele><time>2008-06-21T06:06:48Z</time></trkpt>
<trkpt lat="46.71638796" lon="7.09811269"><ele>728.81665</ele><time>2008-06-21T06:06:49Z</time></trkpt>
<trkpt lat="46.71671351" lon="7.09869917"><ele>724.01001</ele><time>2008-06-21T06:06:54Z</time></trkpt>
<trkpt lat="46.71717410" lon="7.09929798"><ele>724.01001</ele><time>2008-06-21T06:07:01Z</time></trkpt>
<trkpt lat="46.71737292" lon="7.09961062"><ele>724.01001</ele><time>2008-06-21T06:07:06Z</time></trkpt>
<trkpt lat="46.71789746" lon="7.10056214"><ele>724.01001</ele><time>2008-06-21T06:07:20Z</time></trkpt>
<trkpt lat="46.71837665" lon="7.10138314"><ele>724.01001</ele><time>2008-06-21T06:07:32Z</time></trkpt>
<trkpt lat="46.71864915" lon="7.10227087"><ele>724.01001</ele><time>2008-06-21T06:07:43Z</time></trkpt>
<trkpt lat="46.71899448" lon="7.10345892"><ele>725.932617</ele><time>2008-06-21T06:08:01Z</time></trkpt>
<trkpt lat="46.71911241" lon="7.10379831"><ele>727.855225</ele><time>2008-06-21T06:08:07Z</time></trkpt>
<trkpt lat="46.71917570" lon="7.10390249"><ele>727.855225</ele><time>2008-06-21T06:08:09Z</time></trkpt>
<trkpt lat="46.71944710" lon="7.10442401"><ele>727.855225</ele><time>2008-06-21T06:08:21Z</time></trkpt>
<trkpt lat="46.71956453" lon="7.10458025"><ele>725.932617</ele><time>2008-06-21T06:08:24Z</time></trkpt>
<trkpt lat="46.71980769" lon="7.10468343"><ele>724.01001</ele><time>2008-06-21T06:08:28Z</time></trkpt>
<trkpt lat="46.71987064" lon="7.10466994"><ele>724.01001</ele><time>2008-06-21T06:08:29Z</time></trkpt>
<trkpt lat="46.72000534" lon="7.10460372"><ele>722.087402</ele><time>2008-06-21T06:08:31Z</time></trkpt>
<trkpt lat="46.72026568" lon="7.10441899"><ele>716.800293</ele><time>2008-06-21T06:08:35Z</time></trkpt>
<trkpt lat="46.72053508" lon="7.10424724"><ele>717.761475</ele><time>2008-06-21T06:08:42Z</time></trkpt>
<trkpt lat="46.72056198" lon="7.10423400"><ele>717.761475</ele><time>2008-06-21T06:08:52Z</time></trkpt>
<trkpt lat="46.72059827" lon="7.10432536"><ele>715.838867</ele><time>2008-06-21T06:08:56Z</time></trkpt>
<trkpt lat="46.72069844" lon="7.10474328"><ele>716.800293</ele><time>2008-06-21T06:09:04Z</time></trkpt>
<trkpt lat="46.72086222" lon="7.10538324"><ele>721.126221</ele><time>2008-06-21T06:09:16Z</time></trkpt>
<trkpt lat="46.72119783" lon="7.10633601"><ele>722.087402</ele><time>2008-06-21T06:09:36Z</time></trkpt>
<trkpt lat="46.72179404" lon="7.10718250"><ele>724.01001</ele><time>2008-06-21T06:09:55Z</time></trkpt>
<trkpt lat="46.72215588" lon="7.10788666"><ele>724.01001</ele><time>2008-06-21T06:10:09Z</time></trkpt>
<trkpt lat="46.72214767" lon="7.10816142"><ele>724.01001</ele><time>2008-06-21T06:10:19Z</time></trkpt>
<trkpt lat="46.72210333" lon="7.10838404"><ele>724.01001</ele><time>2008-06-21T06:11:01Z</time></trkpt>
<trkpt lat="46.72187962" lon="7.10880398"><ele>724.971436</ele><time>2008-06-21T06:11:10Z</time></trkpt>
<trkpt lat="46.72167376" lon="7.10914529"><ele>724.01001</ele><time>2008-06-21T06:11:17Z</time></trkpt>
<trkpt lat="46.72161123" lon="7.10931578"><ele>723.048828</ele><time>2008-06-21T06:11:20Z</time></trkpt>
<trkpt lat="46.72159446" lon="7.10973445"><ele>724.01001</ele><time>2008-06-21T06:11:26Z</time></trkpt>
<trkpt lat="46.72180275" lon="7.11020409"><ele>722.087402</ele><time>2008-06-21T06:11:34Z</time></trkpt>
<trkpt lat="46.72188406" lon="7.11033435"><ele>723.048828</ele><time>2008-06-21T06:11:36Z</time></trkpt>
<trkpt lat="46.72201163" lon="7.11089602"><ele>717.761475</ele><time>2008-06-21T06:11:42Z</time></trkpt>
<trkpt lat="46.72197626" lon="7.11111864"><ele>715.838867</ele><time>2008-06-21T06:11:44Z</time></trkpt>
<trkpt lat="46.72185129" lon="7.11144637"><ele>713.916016</ele><time>2008-06-21T06:11:47Z</time></trkpt>
<trkpt lat="46.72171701" lon="7.11166958"><ele>711.993652</ele><time>2008-06-21T06:11:49Z</time></trkpt>
<trkpt lat="46.72154652" lon="7.11181451"><ele>708.148438</ele><time>2008-06-21T06:11:51Z</time></trkpt>
<trkpt lat="46.72134896" lon="7.11194652"><ele>704.783691</ele><time>2008-06-21T06:11:53Z</time></trkpt>
<trkpt lat="46.72079139" lon="7.11198910"><ele>699.977051</ele><time>2008-06-21T06:11:58Z</time></trkpt>
<trkpt lat="46.72067438" lon="7.11198977"><ele>699.015625</ele><time>2008-06-21T06:11:59Z</time></trkpt>
<trkpt lat="46.72031497" lon="7.11210972"><ele>698.054443</ele><time>2008-06-21T06:12:02Z</time></trkpt>
<trkpt lat="46.71982882" lon="7.11199497"><ele>691.805908</ele><time>2008-06-21T06:12:07Z</time></trkpt>
<trkpt lat="46.71979244" lon="7.11185130"><ele>691.805908</ele><time>2008-06-21T06:12:08Z</time></trkpt>
<trkpt lat="46.71964743" lon="7.11145978"><ele>691.805908</ele><time>2008-06-21T06:12:11Z</time></trkpt>
<trkpt lat="46.71931400" lon="7.11126558"><ele>686.999268</ele><time>2008-06-21T06:12:15Z</time></trkpt>
<trkpt lat="46.71889138" lon="7.11132048"><ele>684.115479</ele><time>2008-06-21T06:12:19Z</time></trkpt>
<trkpt lat="46.71837950" lon="7.11163748"><ele>684.115479</ele><time>2008-06-21T06:12:25Z</time></trkpt>
<trkpt lat="46.71813760" lon="7.11195281"><ele>686.038086</ele><time>2008-06-21T06:12:29Z</time></trkpt>
<trkpt lat="46.71775371" lon="7.11297540"><ele>686.038086</ele><time>2008-06-21T06:12:40Z</time></trkpt>
<trkpt lat="46.71771976" lon="7.11369490"><ele>686.038086</ele><time>2008-06-21T06:12:47Z</time></trkpt>
<trkpt lat="46.71779302" lon="7.11416538"><ele>686.038086</ele><time>2008-06-21T06:12:52Z</time></trkpt>
<trkpt lat="46.71791975" lon="7.11443922"><ele>687.960693</ele><time>2008-06-21T06:12:56Z</time></trkpt>
<trkpt lat="46.71799268" lon="7.11476577"><ele>688.922119</ele><time>2008-06-21T06:13:00Z</time></trkpt>
<trkpt lat="46.71799284" lon="7.11484431"><ele>689.883301</ele><time>2008-06-21T06:13:01Z</time></trkpt>
<trkpt lat="46.71827992" lon="7.11456788"><ele>691.805908</ele><time>2008-06-21T06:13:06Z</time></trkpt>
<trkpt lat="46.71846894" lon="7.11459294"><ele>695.17041</ele><time>2008-06-21T06:13:14Z</time></trkpt>
<trkpt lat="46.71878435" lon="7.11480031"><ele>698.054443</ele><time>2008-06-21T06:13:27Z</time></trkpt>
<trkpt lat="46.71900999" lon="7.11507364"><ele>699.015625</ele><time>2008-06-21T06:13:41Z</time></trkpt>
<trkpt lat="46.71902809" lon="7.11508655"><ele>699.977051</ele><time>2008-06-21T06:13:42Z</time></trkpt>
<trkpt lat="46.71892994" lon="7.11537489"><ele>701.899902</ele><time>2008-06-21T06:13:55Z</time></trkpt>
<trkpt lat="46.71879566" lon="7.11561117"><ele>703.82251</ele><time>2008-06-21T06:14:08Z</time></trkpt>
<trkpt lat="46.71876876" lon="7.11565057"><ele>704.783691</ele><time>2008-06-21T06:14:12Z</time></trkpt>
<trkpt lat="46.71853599" lon="7.11603127"><ele>707.187012</ele><time>2008-06-21T06:14:21Z</time></trkpt>
<trkpt lat="46.71849081" lon="7.11595307"><ele>708.148438</ele><time>2008-06-21T06:14:27Z</time></trkpt>
<trkpt lat="46.71841093" lon="7.11634593"><ele>709.109619</ele><time>2008-06-21T06:14:39Z</time></trkpt>
<trkpt lat="46.71842082" lon="7.11667283"><ele>711.993652</ele><time>2008-06-21T06:14:50Z</time></trkpt>
<trkpt lat="46.71861042" lon="7.11692026"><ele>714.877441</ele><time>2008-06-21T06:15:04Z</time></trkpt>
<trkpt lat="46.71881771" lon="7.11704976"><ele>715.838867</ele><time>2008-06-21T06:15:14Z</time></trkpt>
<trkpt lat="46.71903371" lon="7.11707465"><ele>717.761475</ele><time>2008-06-21T06:15:25Z</time></trkpt>
<trkpt lat="46.71929455" lon="7.11707314"><ele>720.164795</ele><time>2008-06-21T06:15:39Z</time></trkpt>
<trkpt lat="46.71964567" lon="7.11718873"><ele>723.048828</ele><time>2008-06-21T06:15:56Z</time></trkpt>
<trkpt lat="46.72003208" lon="7.11704255"><ele>724.971436</ele><time>2008-06-21T06:16:14Z</time></trkpt>
<trkpt lat="46.72031145" lon="7.11722402"><ele>728.81665</ele><time>2008-06-21T06:16:30Z</time></trkpt>
<trkpt lat="46.72052837" lon="7.11758897"><ele>731.219971</ele><time>2008-06-21T06:16:47Z</time></trkpt>
<trkpt lat="46.72081687" lon="7.11780958"><ele>733.142578</ele><time>2008-06-21T06:17:03Z</time></trkpt>
<trkpt lat="46.72120311" lon="7.11759802"><ele>736.987793</ele><time>2008-06-21T06:17:21Z</time></trkpt>
<trkpt lat="46.72155306" lon="7.11729510"><ele>738.910645</ele><time>2008-06-21T06:17:38Z</time></trkpt>
<trkpt lat="46.72187702" lon="7.11733240"><ele>740.833008</ele><time>2008-06-21T06:17:53Z</time></trkpt>
<trkpt lat="46.72232729" lon="7.11751286"><ele>740.833008</ele><time>2008-06-21T06:18:09Z</time></trkpt>
<trkpt lat="46.72260658" lon="7.11765510"><ele>741.794434</ele><time>2008-06-21T06:18:19Z</time></trkpt>
<trkpt lat="46.72261580" lon="7.11774663"><ele>743.236328</ele><time>2008-06-21T06:18:24Z</time></trkpt>
<trkpt lat="46.72224716" lon="7.11781419"><ele>744.197754</ele><time>2008-06-21T06:18:42Z</time></trkpt>
<trkpt lat="46.72222017" lon="7.11781436"><ele>744.197754</ele><time>2008-06-21T06:18:43Z</time></trkpt>
<trkpt lat="46.72215723" lon="7.11782777"><ele>746.120361</ele><time>2008-06-21T06:18:46Z</time></trkpt>
<trkpt lat="46.72183377" lon="7.11796054"><ele>747.081543</ele><time>2008-06-21T06:19:02Z</time></trkpt>
<trkpt lat="46.72173503" lon="7.11803958"><ele>749.004395</ele><time>2008-06-21T06:19:07Z</time></trkpt>
<trkpt lat="46.72150201" lon="7.11832875"><ele>750.927002</ele><time>2008-06-21T06:19:23Z</time></trkpt>
<trkpt lat="46.72130529" lon="7.11874852"><ele>753.811035</ele><time>2008-06-21T06:19:43Z</time></trkpt>
<trkpt lat="46.72122541" lon="7.11914138"><ele>756.214111</ele><time>2008-06-21T06:20:00Z</time></trkpt>
<trkpt lat="46.72127159" lon="7.11957271"><ele>758.136963</ele><time>2008-06-21T06:20:16Z</time></trkpt>
<trkpt lat="46.72128215" lon="7.12014821"><ele>757.175537</ele><time>2008-06-21T06:20:31Z</time></trkpt>
<trkpt lat="46.72110320" lon="7.12048936"><ele>759.098145</ele><time>2008-06-21T06:20:45Z</time></trkpt>
<trkpt lat="46.72093296" lon="7.12071273"><ele>761.982178</ele><time>2008-06-21T06:20:57Z</time></trkpt>
<trkpt lat="46.72093296" lon="7.12072581"><ele>761.982178</ele><time>2008-06-21T06:20:58Z</time></trkpt>
<trkpt lat="46.72089734" lon="7.12084374"><ele>762.943359</ele><time>2008-06-21T06:21:04Z</time></trkpt>
<trkpt lat="46.72096037" lon="7.12086948"><ele>761.982178</ele><time>2008-06-21T06:21:17Z</time></trkpt>
<trkpt lat="46.72096029" lon="7.12085640"><ele>762.943359</ele><time>2008-06-21T06:22:05Z</time></trkpt>
<trkpt lat="46.72089768" lon="7.12096143"><ele>762.943359</ele><time>2008-06-21T06:22:10Z</time></trkpt>
<trkpt lat="46.72097923" lon="7.12119637"><ele>765.827637</ele><time>2008-06-21T06:22:20Z</time></trkpt>
<trkpt lat="46.72114251" lon="7.12167942"><ele>770.15332</ele><time>2008-06-21T06:22:38Z</time></trkpt>
<trkpt lat="46.72132348" lon="7.12205769"><ele>770.15332</ele><time>2008-06-21T06:22:54Z</time></trkpt>
<trkpt lat="46.72148692" lon="7.12260612"><ele>772.075928</ele><time>2008-06-21T06:23:12Z</time></trkpt>
<trkpt lat="46.72155155" lon="7.12319436"><ele>773.998535</ele><time>2008-06-21T06:23:29Z</time></trkpt>
<trkpt lat="46.72158860" lon="7.12358655"><ele>776.882568</ele><time>2008-06-21T06:23:42Z</time></trkpt>
<trkpt lat="46.72166227" lon="7.12420086"><ele>777.84375</ele><time>2008-06-21T06:24:01Z</time></trkpt>
<trkpt lat="46.72166253" lon="7.12430547"><ele>777.84375</ele><time>2008-06-21T06:24:04Z</time></trkpt>
<trkpt lat="46.72153671" lon="7.12435853"><ele>777.84375</ele><time>2008-06-21T06:24:11Z</time></trkpt>
<trkpt lat="46.72122172" lon="7.12428192"><ele>779.766357</ele><time>2008-06-21T06:24:25Z</time></trkpt>
<trkpt lat="46.72109532" lon="7.12413875"><ele>783.131104</ele><time>2008-06-21T06:24:34Z</time></trkpt>
<trkpt lat="46.72091452" lon="7.12381278"><ele>784.092529</ele><time>2008-06-21T06:24:49Z</time></trkpt>
<trkpt lat="46.72050021" lon="7.12360592"><ele>786.976318</ele><time>2008-06-21T06:25:08Z</time></trkpt>
<trkpt lat="46.72015781" lon="7.12341179"><ele>787.937744</ele><time>2008-06-21T06:25:23Z</time></trkpt>
<trkpt lat="46.71976042" lon="7.12283855"><ele>789.860352</ele><time>2008-06-21T06:25:41Z</time></trkpt>
<trkpt lat="46.71933655" lon="7.12246170"><ele>790.821533</ele><time>2008-06-21T06:25:57Z</time></trkpt>
<trkpt lat="46.71904804" lon="7.12221494"><ele>793.224854</ele><time>2008-06-21T06:26:12Z</time></trkpt>
<trkpt lat="46.71884042" lon="7.12194144"><ele>795.147461</ele><time>2008-06-21T06:26:23Z</time></trkpt>
<trkpt lat="46.71861453" lon="7.12158965"><ele>798.031738</ele><time>2008-06-21T06:26:39Z</time></trkpt>
<trkpt lat="46.71847883" lon="7.12130265"><ele>800.915527</ele><time>2008-06-21T06:26:53Z</time></trkpt>
<trkpt lat="46.71833407" lon="7.12101574"><ele>802.838135</ele><time>2008-06-21T06:27:05Z</time></trkpt>
<trkpt lat="46.71828873" lon="7.12089831"><ele>803.799561</ele><time>2008-06-21T06:27:12Z</time></trkpt>
<trkpt lat="46.71807197" lon="7.12058567"><ele>808.125488</ele><time>2008-06-21T06:27:28Z</time></trkpt>
<trkpt lat="46.71790073" lon="7.12045591"><ele>809.08667</ele><time>2008-06-21T06:27:40Z</time></trkpt>
<trkpt lat="46.71763938" lon="7.12030051"><ele>811.009277</ele><time>2008-06-21T06:27:56Z</time></trkpt>
<trkpt lat="46.71739639" lon="7.12024963"><ele>813.893311</ele><time>2008-06-21T06:28:11Z</time></trkpt>
<trkpt lat="46.71711769" lon="7.12030353"><ele>816.777344</ele><time>2008-06-21T06:28:27Z</time></trkpt>
<trkpt lat="46.71701887" lon="7.12035650"><ele>818.219238</ele><time>2008-06-21T06:28:40Z</time></trkpt>
<trkpt lat="46.71702784" lon="7.12035642"><ele>819.180664</ele><time>2008-06-21T06:30:44Z</time></trkpt>
<trkpt lat="46.71698299" lon="7.12039590"><ele>818.219238</ele><time>2008-06-21T06:42:23Z</time></trkpt>
<trkpt lat="46.71679482" lon="7.12064551"><ele>819.180664</ele><time>2008-06-21T06:42:35Z</time></trkpt>
<trkpt lat="46.71676791" lon="7.12067183"><ele>819.180664</ele><time>2008-06-21T06:42:36Z</time></trkpt>
<trkpt lat="46.71647203" lon="7.12103980"><ele>819.180664</ele><time>2008-06-21T06:42:49Z</time></trkpt>
<trkpt lat="46.71602318" lon="7.12136946"><ele>821.103271</ele><time>2008-06-21T06:43:04Z</time></trkpt>
<trkpt lat="46.71574507" lon="7.12163265"><ele>823.987061</ele><time>2008-06-21T06:43:16Z</time></trkpt>
<trkpt lat="46.71548506" lon="7.12196114"><ele>824.948486</ele><time>2008-06-21T06:43:28Z</time></trkpt>
<trkpt lat="46.71528809" lon="7.12228929"><ele>824.948486</ele><time>2008-06-21T06:43:37Z</time></trkpt>
<trkpt lat="46.71523453" lon="7.12242038"><ele>827.832275</ele><time>2008-06-21T06:43:42Z</time></trkpt>
<trkpt lat="46.71515473" lon="7.12283931"><ele>831.197266</ele><time>2008-06-21T06:43:58Z</time></trkpt>
<trkpt lat="46.71518248" lon="7.12312689"><ele>834.081055</ele><time>2008-06-21T06:44:12Z</time></trkpt>
<trkpt lat="46.71519220" lon="7.12338841"><ele>836.964844</ele><time>2008-06-21T06:44:25Z</time></trkpt>
<trkpt lat="46.71522883" lon="7.12363668"><ele>839.848877</ele><time>2008-06-21T06:44:37Z</time></trkpt>
<trkpt lat="46.71531064" lon="7.12392401"><ele>841.771484</ele><time>2008-06-21T06:44:52Z</time></trkpt>
<trkpt lat="46.71542815" lon="7.12413255"><ele>845.13623</ele><time>2008-06-21T06:45:03Z</time></trkpt>
<trkpt lat="46.71557274" lon="7.12436716"><ele>848.020264</ele><time>2008-06-21T06:45:18Z</time></trkpt>
<trkpt lat="46.71573535" lon="7.12462775"><ele>849.942871</ele><time>2008-06-21T06:45:35Z</time></trkpt>
<trkpt lat="46.71581673" lon="7.12478424"><ele>851.865479</ele><time>2008-06-21T06:45:44Z</time></trkpt>
<trkpt lat="46.71598848" lon="7.12509714"><ele>855.22998</ele><time>2008-06-21T06:46:03Z</time></trkpt>
<trkpt lat="46.71604271" lon="7.12517526"><ele>856.191162</ele><time>2008-06-21T06:46:08Z</time></trkpt>
<trkpt lat="46.71609728" lon="7.12538422"><ele>859.075195</ele><time>2008-06-21T06:46:19Z</time></trkpt>
<trkpt lat="46.71613407" lon="7.12569796"><ele>860.036621</ele><time>2008-06-21T06:46:35Z</time></trkpt>
<trkpt lat="46.71613441" lon="7.12582871"><ele>863.881836</ele><time>2008-06-21T06:46:41Z</time></trkpt>
<trkpt lat="46.71610842" lon="7.12619509"><ele>865.804688</ele><time>2008-06-21T06:46:58Z</time></trkpt>
<trkpt lat="46.71614522" lon="7.12646951"><ele>870.130371</ele><time>2008-06-21T06:47:12Z</time></trkpt>
<trkpt lat="46.71633440" lon="7.12657303"><ele>871.091797</ele><time>2008-06-21T06:47:26Z</time></trkpt>
<trkpt lat="46.71653238" lon="7.12659809"><ele>873.975586</ele><time>2008-06-21T06:47:39Z</time></trkpt>
<trkpt lat="46.71664101" lon="7.12684594"><ele>876.859863</ele><time>2008-06-21T06:47:55Z</time></trkpt>
<trkpt lat="46.71656993" lon="7.12717334"><ele>877.821045</ele><time>2008-06-21T06:48:12Z</time></trkpt>
<trkpt lat="46.71647203" lon="7.12755321"><ele>881.185791</ele><time>2008-06-21T06:48:29Z</time></trkpt>
<trkpt lat="46.71636508" lon="7.12792000"><ele>884.06958</ele><time>2008-06-21T06:48:46Z</time></trkpt>
<trkpt lat="46.71635619" lon="7.12795931"><ele>885.031006</ele><time>2008-06-21T06:48:48Z</time></trkpt>
<trkpt lat="46.71623122" lon="7.12833934"><ele>885.992188</ele><time>2008-06-21T06:49:06Z</time></trkpt>
<trkpt lat="46.71608831" lon="7.12870630"><ele>888.876221</ele><time>2008-06-21T06:49:24Z</time></trkpt>
<trkpt lat="46.71591832" lon="7.12903429"><ele>890.798584</ele><time>2008-06-21T06:49:42Z</time></trkpt>
<trkpt lat="46.71579318" lon="7.12934894"><ele>891.76001</ele><time>2008-06-21T06:49:57Z</time></trkpt>
<trkpt lat="46.71572194" lon="7.12959780"><ele>896.086182</ele><time>2008-06-21T06:50:09Z</time></trkpt>
<trkpt lat="46.71564189" lon="7.12993836"><ele>898.969971</ele><time>2008-06-21T06:50:25Z</time></trkpt>
<trkpt lat="46.71557995" lon="7.13031798"><ele>900.892578</ele><time>2008-06-21T06:50:42Z</time></trkpt>
<trkpt lat="46.71552697" lon="7.13069759"><ele>902.815186</ele><time>2008-06-21T06:50:59Z</time></trkpt>
<trkpt lat="46.71551038" lon="7.13119464"><ele>907.141113</ele><time>2008-06-21T06:51:20Z</time></trkpt>
<trkpt lat="46.71550216" lon="7.13150854"><ele>907.141113</ele><time>2008-06-21T06:51:34Z</time></trkpt>
<trkpt lat="46.71547651" lon="7.13199268"><ele>910.986572</ele><time>2008-06-21T06:51:53Z</time></trkpt>
<trkpt lat="46.71546872" lon="7.13245042"><ele>911.947998</ele><time>2008-06-21T06:52:10Z</time></trkpt>
<trkpt lat="46.71545187" lon="7.13288217"><ele>913.870361</ele><time>2008-06-21T06:52:26Z</time></trkpt>
<trkpt lat="46.71542605" lon="7.13331392"><ele>917.235107</ele><time>2008-06-21T06:52:42Z</time></trkpt>
<trkpt lat="46.71542723" lon="7.13373243"><ele>919.157715</ele><time>2008-06-21T06:53:00Z</time></trkpt>
<trkpt lat="46.71540937" lon="7.13378482"><ele>921.080322</ele><time>2008-06-21T06:53:03Z</time></trkpt>
<trkpt lat="46.71540124" lon="7.13411188"><ele>923.00293</ele><time>2008-06-21T06:53:18Z</time></trkpt>
<trkpt lat="46.71540158" lon="7.13424264"><ele>924.925781</ele><time>2008-06-21T06:53:24Z</time></trkpt>
<trkpt lat="46.71538465" lon="7.13464815"><ele>927.80957</ele><time>2008-06-21T06:53:42Z</time></trkpt>
<trkpt lat="46.71536755" lon="7.13498829"><ele>932.135498</ele><time>2008-06-21T06:53:56Z</time></trkpt>
<trkpt lat="46.71535950" lon="7.13532843"><ele>935.019531</ele><time>2008-06-21T06:54:11Z</time></trkpt>
<trkpt lat="46.71535112" lon="7.13557695"><ele>937.90332</ele><time>2008-06-21T06:54:23Z</time></trkpt>
<trkpt lat="46.71534307" lon="7.13593008"><ele>939.825928</ele><time>2008-06-21T06:54:39Z</time></trkpt>
<trkpt lat="46.71533486" lon="7.13623099"><ele>943.190674</ele><time>2008-06-21T06:54:53Z</time></trkpt>
<trkpt lat="46.71532597" lon="7.13625714"><ele>944.1521</ele><time>2008-06-21T06:54:54Z</time></trkpt>
<trkpt lat="46.71532690" lon="7.13661027"><ele>947.035889</ele><time>2008-06-21T06:55:10Z</time></trkpt>
<trkpt lat="46.71531851" lon="7.13683273"><ele>948.958496</ele><time>2008-06-21T06:55:20Z</time></trkpt>
<trkpt lat="46.71530988" lon="7.13698972"><ele>949.919922</ele><time>2008-06-21T06:55:27Z</time></trkpt>
<trkpt lat="46.71529261" lon="7.13723824"><ele>952.803711</ele><time>2008-06-21T06:55:38Z</time></trkpt>
<trkpt lat="46.71531080" lon="7.13732969"><ele>955.207031</ele><time>2008-06-21T06:55:43Z</time></trkpt>
<trkpt lat="46.71544634" lon="7.13755131"><ele>955.207031</ele><time>2008-06-21T06:55:56Z</time></trkpt>
<trkpt lat="46.71568036" lon="7.13758928"><ele>958.091309</ele><time>2008-06-21T06:56:11Z</time></trkpt>
<trkpt lat="46.71594137" lon="7.13766622"><ele>959.05249</ele><time>2008-06-21T06:56:26Z</time></trkpt>
<trkpt lat="46.71614857" lon="7.13776974"><ele>960.975098</ele><time>2008-06-21T06:56:39Z</time></trkpt>
<trkpt lat="46.71637363" lon="7.13783386"><ele>963.858887</ele><time>2008-06-21T06:56:52Z</time></trkpt>
<trkpt lat="46.71662559" lon="7.13787175"><ele>967.223633</ele><time>2008-06-21T06:57:08Z</time></trkpt>
<trkpt lat="46.71680613" lon="7.13810611"><ele>968.184814</ele><time>2008-06-21T06:57:22Z</time></trkpt>
<trkpt lat="46.71682449" lon="7.13823678"><ele>969.14624</ele><time>2008-06-21T06:57:27Z</time></trkpt>
<trkpt lat="46.71687017" lon="7.13851120"><ele>970.107422</ele><time>2008-06-21T06:57:41Z</time></trkpt>
<trkpt lat="46.71681711" lon="7.13886467"><ele>972.030273</ele><time>2008-06-21T06:57:58Z</time></trkpt>
<trkpt lat="46.71671066" lon="7.13944076"><ele>974.914307</ele><time>2008-06-21T06:58:20Z</time></trkpt>
<trkpt lat="46.71661360" lon="7.14014752"><ele>977.798096</ele><time>2008-06-21T06:58:42Z</time></trkpt>
<trkpt lat="46.71661385" lon="7.14025221"><ele>977.798096</ele><time>2008-06-21T06:58:46Z</time></trkpt>
<trkpt lat="46.71661536" lon="7.14084070"><ele>981.162842</ele><time>2008-06-21T06:59:03Z</time></trkpt>
<trkpt lat="46.71667965" lon="7.14133741"><ele>982.124023</ele><time>2008-06-21T06:59:16Z</time></trkpt>
<trkpt lat="46.71683421" lon="7.14195122"><ele>983.085205</ele><time>2008-06-21T06:59:31Z</time></trkpt>
<trkpt lat="46.71688107" lon="7.14269654"><ele>984.046631</ele><time>2008-06-21T06:59:44Z</time></trkpt>
<trkpt lat="46.71689037" lon="7.14280106"><ele>985.008057</ele><time>2008-06-21T06:59:46Z</time></trkpt>
<trkpt lat="46.71693689" lon="7.14338939"><ele>985.008057</ele><time>2008-06-21T06:59:57Z</time></trkpt>
<trkpt lat="46.71694687" lon="7.14379482"><ele>986.93042</ele><time>2008-06-21T07:00:07Z</time></trkpt>
<trkpt lat="46.71702934" lon="7.14438289"><ele>987.891846</ele><time>2008-06-21T07:00:20Z</time></trkpt>
<trkpt lat="46.71703873" lon="7.14451365"><ele>987.891846</ele><time>2008-06-21T07:00:23Z</time></trkpt>
<trkpt lat="46.71723797" lon="7.14504884"><ele>989.814697</ele><time>2008-06-21T07:00:34Z</time></trkpt>
<trkpt lat="46.71745523" lon="7.14558385"><ele>990.775879</ele><time>2008-06-21T07:00:46Z</time></trkpt>
<trkpt lat="46.71763636" lon="7.14605374"><ele>993.179199</ele><time>2008-06-21T07:00:59Z</time></trkpt>
<trkpt lat="46.71781766" lon="7.14658901"><ele>994.140625</ele><time>2008-06-21T07:01:10Z</time></trkpt>
<trkpt lat="46.71805286" lon="7.14711095"><ele>996.063232</ele><time>2008-06-21T07:01:21Z</time></trkpt>
<trkpt lat="46.71828797" lon="7.14756743"><ele>996.063232</ele><time>2008-06-21T07:01:32Z</time></trkpt>
<trkpt lat="46.71853155" lon="7.14786692"><ele>997.024414</ele><time>2008-06-21T07:01:43Z</time></trkpt>
<trkpt lat="46.71891913" lon="7.14816573"><ele>998.947021</ele><time>2008-06-21T07:01:53Z</time></trkpt>
<trkpt lat="46.71921702" lon="7.14856957"><ele>999.908447</ele><time>2008-06-21T07:02:05Z</time></trkpt>
<trkpt lat="46.71920923" lon="7.14905354"><ele>1000.869629</ele><time>2008-06-21T07:02:16Z</time></trkpt>
<trkpt lat="46.71917444" lon="7.14952460"><ele>1004.234619</ele><time>2008-06-21T07:02:30Z</time></trkpt>
<trkpt lat="46.71916623" lon="7.14981244"><ele>1004.234619</ele><time>2008-06-21T07:02:39Z</time></trkpt>
<trkpt lat="46.71932925" lon="7.15025626"><ele>1000.869629</ele><time>2008-06-21T07:02:52Z</time></trkpt>
<trkpt lat="46.71933847" lon="7.15036087"><ele>997.024414</ele><time>2008-06-21T07:02:58Z</time></trkpt>
<trkpt lat="46.71933856" lon="7.15038702"><ele>997.98584</ele><time>2008-06-21T07:02:59Z</time></trkpt>
<trkpt lat="46.71941064" lon="7.15042583"><ele>997.024414</ele><time>2008-06-21T07:03:04Z</time></trkpt>
<trkpt lat="46.71941073" lon="7.15046505"><ele>995.101807</ele><time>2008-06-21T07:03:07Z</time></trkpt>
<trkpt lat="46.71942011" lon="7.15060889"><ele>993.179199</ele><time>2008-06-21T07:03:13Z</time></trkpt>
<trkpt lat="46.71924091" lon="7.15088457"><ele>989.814697</ele><time>2008-06-21T07:03:24Z</time></trkpt>
<trkpt lat="46.71917788" lon="7.15088490"><ele>987.891846</ele><time>2008-06-21T07:03:27Z</time></trkpt>
<trkpt lat="46.71908786" lon="7.15084610"><ele>984.046631</ele><time>2008-06-21T07:03:32Z</time></trkpt>
<trkpt lat="46.71885392" lon="7.15082120"><ele>981.162842</ele><time>2008-06-21T07:03:40Z</time></trkpt>
<trkpt lat="46.71875484" lon="7.15078248"><ele>976.836914</ele><time>2008-06-21T07:03:44Z</time></trkpt>
<trkpt lat="46.71856575" lon="7.15071810"><ele>973.952881</ele><time>2008-06-21T07:03:51Z</time></trkpt>
<trkpt lat="46.71852065" lon="7.15063990"><ele>971.068848</ele><time>2008-06-21T07:03:56Z</time></trkpt>
<trkpt lat="46.71829560" lon="7.15060185"><ele>968.184814</ele><time>2008-06-21T07:04:04Z</time></trkpt>
<trkpt lat="46.71823290" lon="7.15069371"><ele>965.781738</ele><time>2008-06-21T07:04:09Z</time></trkpt>
<trkpt lat="46.71820600" lon="7.15073311"><ele>964.820313</ele><time>2008-06-21T07:04:11Z</time></trkpt>
<trkpt lat="46.71815260" lon="7.15096881"><ele>963.858887</ele><time>2008-06-21T07:04:15Z</time></trkpt>
<trkpt lat="46.71817079" lon="7.15104718"><ele>960.975098</ele><time>2008-06-21T07:04:19Z</time></trkpt>
<trkpt lat="46.71818898" lon="7.15112555"><ele>960.975098</ele><time>2008-06-21T07:04:24Z</time></trkpt>
<trkpt lat="46.71826123" lon="7.15121674"><ele>960.013672</ele><time>2008-06-21T07:04:30Z</time></trkpt>
<trkpt lat="46.71833340" lon="7.15132101"><ele>960.013672</ele><time>2008-06-21T07:04:34Z</time></trkpt>
<trkpt lat="46.71845955" lon="7.15139880"><ele>959.05249</ele><time>2008-06-21T07:04:41Z</time></trkpt>
<trkpt lat="46.71864948" lon="7.15179023"><ele>957.129883</ele><time>2008-06-21T07:04:52Z</time></trkpt>
<trkpt lat="46.71888418" lon="7.15214211"><ele>952.803711</ele><time>2008-06-21T07:05:01Z</time></trkpt>
<trkpt lat="46.71911024" lon="7.15258559"><ele>949.919922</ele><time>2008-06-21T07:05:09Z</time></trkpt>
<trkpt lat="46.71914628" lon="7.15262465"><ele>948.958496</ele><time>2008-06-21T07:05:10Z</time></trkpt>
<trkpt lat="46.71921836" lon="7.15267662"><ele>947.997314</ele><time>2008-06-21T07:05:12Z</time></trkpt>
<trkpt lat="46.71931752" lon="7.15274150"><ele>947.035889</ele><time>2008-06-21T07:05:15Z</time></trkpt>
<trkpt lat="46.71945238" lon="7.15271459"><ele>945.113281</ele><time>2008-06-21T07:05:21Z</time></trkpt>
<trkpt lat="46.71965933" lon="7.15275273"><ele>939.825928</ele><time>2008-06-21T07:05:26Z</time></trkpt>
<trkpt lat="46.71980367" lon="7.15290897"><ele>937.90332</ele><time>2008-06-21T07:05:31Z</time></trkpt>
<trkpt lat="46.71989369" lon="7.15292154"><ele>935.980713</ele><time>2008-06-21T07:05:43Z</time></trkpt>
<trkpt lat="46.71991171" lon="7.15294761"><ele>935.980713</ele><time>2008-06-21T07:05:48Z</time></trkpt>
<trkpt lat="46.71997491" lon="7.15303880"><ele>935.019531</ele><time>2008-06-21T07:05:51Z</time></trkpt>
<trkpt lat="46.72010986" lon="7.15305121"><ele>933.09668</ele><time>2008-06-21T07:05:56Z</time></trkpt>
<trkpt lat="46.72025361" lon="7.15297191"><ele>930.212891</ele><time>2008-06-21T07:06:03Z</time></trkpt>
<trkpt lat="46.72036149" lon="7.15294518"><ele>925.886963</ele><time>2008-06-21T07:06:07Z</time></trkpt>
<trkpt lat="46.72048738" lon="7.15291835"><ele>923.964111</ele><time>2008-06-21T07:06:12Z</time></trkpt>
<trkpt lat="46.72068520" lon="7.15290427"><ele>921.080322</ele><time>2008-06-21T07:06:24Z</time></trkpt>
<trkpt lat="46.72103581" lon="7.15279774"><ele>917.235107</ele><time>2008-06-21T07:06:32Z</time></trkpt>
<trkpt lat="46.72105375" lon="7.15278458"><ele>917.235107</ele><time>2008-06-21T07:06:33Z</time></trkpt>
<trkpt lat="46.72121535" lon="7.15266597"><ele>913.870361</ele><time>2008-06-21T07:06:43Z</time></trkpt>
<trkpt lat="46.72126916" lon="7.15260034"><ele>912.90918</ele><time>2008-06-21T07:07:15Z</time></trkpt>
<trkpt lat="46.72127805" lon="7.15254796"><ele>911.947998</ele><time>2008-06-21T07:07:30Z</time></trkpt>
<trkpt lat="46.72139506" lon="7.15258660"><ele>909.063965</ele><time>2008-06-21T07:07:48Z</time></trkpt>
<trkpt lat="46.72139514" lon="7.15259967"><ele>909.063965</ele><time>2008-06-21T07:07:49Z</time></trkpt>
<trkpt lat="46.72135072" lon="7.15283537"><ele>907.141113</ele><time>2008-06-21T07:08:14Z</time></trkpt>
<trkpt lat="46.72135131" lon="7.15305766"><ele>903.776611</ele><time>2008-06-21T07:08:25Z</time></trkpt>
<trkpt lat="46.72137863" lon="7.15321449"><ele>901.854004</ele><time>2008-06-21T07:08:30Z</time></trkpt>
<trkpt lat="46.72132574" lon="7.15363333"><ele>898.969971</ele><time>2008-06-21T07:08:42Z</time></trkpt>
<trkpt lat="46.72133530" lon="7.15384263"><ele>896.086182</ele><time>2008-06-21T07:08:47Z</time></trkpt>
<trkpt lat="46.72131753" lon="7.15393424"><ele>895.124756</ele><time>2008-06-21T07:08:49Z</time></trkpt>
<trkpt lat="46.72133630" lon="7.15424806"><ele>889.837402</ele><time>2008-06-21T07:08:56Z</time></trkpt>
<trkpt lat="46.72133630" lon="7.15427421"><ele>889.837402</ele><time>2008-06-21T07:08:57Z</time></trkpt>
<trkpt lat="46.72134602" lon="7.15453581"><ele>885.992188</ele><time>2008-06-21T07:09:02Z</time></trkpt>
<trkpt lat="46.72135508" lon="7.15458803"><ele>885.992188</ele><time>2008-06-21T07:09:03Z</time></trkpt>
<trkpt lat="46.72139179" lon="7.15486254"><ele>883.108154</ele><time>2008-06-21T07:09:11Z</time></trkpt>
<trkpt lat="46.72143772" lon="7.15524165"><ele>878.782471</ele><time>2008-06-21T07:09:20Z</time></trkpt>
<trkpt lat="46.72143823" lon="7.15545095"><ele>874.937012</ele><time>2008-06-21T07:09:25Z</time></trkpt>
<trkpt lat="46.72147460" lon="7.15560769"><ele>873.975586</ele><time>2008-06-21T07:09:27Z</time></trkpt>
<trkpt lat="46.72151157" lon="7.15601295"><ele>871.091797</ele><time>2008-06-21T07:09:35Z</time></trkpt>
<trkpt lat="46.72149430" lon="7.15630087"><ele>870.130371</ele><time>2008-06-21T07:09:45Z</time></trkpt>
<trkpt lat="46.72149438" lon="7.15632702"><ele>871.091797</ele><time>2008-06-21T07:10:09Z</time></trkpt>
<trkpt lat="46.72158466" lon="7.15648351"><ele>868.207764</ele><time>2008-06-21T07:10:14Z</time></trkpt>
<trkpt lat="46.72164786" lon="7.15656163"><ele>866.765869</ele><time>2008-06-21T07:10:16Z</time></trkpt>
<trkpt lat="46.72181885" lon="7.15658695"><ele>862.920654</ele><time>2008-06-21T07:10:24Z</time></trkpt>
<trkpt lat="46.72203393" lon="7.15624572"><ele>860.036621</ele><time>2008-06-21T07:10:35Z</time></trkpt>
<trkpt lat="46.72218623" lon="7.15600943"><ele>859.075195</ele><time>2008-06-21T07:10:41Z</time></trkpt>
<trkpt lat="46.72226678" lon="7.15585210"><ele>857.152588</ele><time>2008-06-21T07:10:44Z</time></trkpt>
<trkpt lat="46.72232050" lon="7.15576024"><ele>855.22998</ele><time>2008-06-21T07:10:46Z</time></trkpt>
<trkpt lat="46.72259853" lon="7.15539252"><ele>851.865479</ele><time>2008-06-21T07:10:57Z</time></trkpt>
<trkpt lat="46.72267020" lon="7.15528750"><ele>851.865479</ele><time>2008-06-21T07:11:00Z</time></trkpt>
<trkpt lat="46.72283197" lon="7.15523436"><ele>847.058838</ele><time>2008-06-21T07:11:04Z</time></trkpt>
<trkpt lat="46.72293993" lon="7.15522069"><ele>847.058838</ele><time>2008-06-21T07:11:05Z</time></trkpt>
<trkpt lat="46.72328157" lon="7.15516655"><ele>841.771484</ele><time>2008-06-21T07:11:10Z</time></trkpt>
<trkpt lat="46.72332658" lon="7.15516630"><ele>843.213379</ele><time>2008-06-21T07:11:11Z</time></trkpt>
<trkpt lat="46.72347947" lon="7.15515247"><ele>840.810059</ele><time>2008-06-21T07:11:15Z</time></trkpt>
<trkpt lat="46.72355935" lon="7.15473345"><ele>841.771484</ele><time>2008-06-21T07:11:24Z</time></trkpt>
<trkpt lat="46.72371978" lon="7.15413088"><ele>838.887695</ele><time>2008-06-21T07:11:35Z</time></trkpt>
<trkpt lat="46.72379119" lon="7.15390809"><ele>837.92627</ele><time>2008-06-21T07:11:38Z</time></trkpt>
<trkpt lat="46.72383578" lon="7.15373785"><ele>836.964844</ele><time>2008-06-21T07:11:41Z</time></trkpt>
<trkpt lat="46.72397970" lon="7.15373710"><ele>837.92627</ele><time>2008-06-21T07:11:47Z</time></trkpt>
<trkpt lat="46.72425052" lon="7.15411495"><ele>839.848877</ele><time>2008-06-21T07:11:59Z</time></trkpt>
<trkpt lat="46.72471027" lon="7.15451804"><ele>838.887695</ele><time>2008-06-21T07:12:14Z</time></trkpt>
<trkpt lat="46.72497195" lon="7.15484376"><ele>836.003662</ele><time>2008-06-21T07:12:21Z</time></trkpt>
<trkpt lat="46.72533304" lon="7.15533888"><ele>835.04248</ele><time>2008-06-21T07:12:29Z</time></trkpt>
<trkpt lat="46.72556774" lon="7.15567776"><ele>835.04248</ele><time>2008-06-21T07:12:35Z</time></trkpt>
<trkpt lat="46.72566706" lon="7.15582117"><ele>836.003662</ele><time>2008-06-21T07:12:38Z</time></trkpt>
<trkpt lat="46.72591056" lon="7.15609459"><ele>838.887695</ele><time>2008-06-21T07:12:48Z</time></trkpt>
<trkpt lat="46.72593763" lon="7.15610758"><ele>838.887695</ele><time>2008-06-21T07:12:49Z</time></trkpt>
<trkpt lat="46.72599178" lon="7.15617263"><ele>840.810059</ele><time>2008-06-21T07:12:52Z</time></trkpt>
<trkpt lat="46.72626235" lon="7.15647211"><ele>844.175049</ele><time>2008-06-21T07:13:05Z</time></trkpt>
<trkpt lat="46.72658673" lon="7.15667973"><ele>846.097656</ele><time>2008-06-21T07:13:21Z</time></trkpt>
<trkpt lat="46.72690163" lon="7.15671737"><ele>848.020264</ele><time>2008-06-21T07:13:38Z</time></trkpt>
<trkpt lat="46.72709945" lon="7.15666397"><ele>849.942871</ele><time>2008-06-21T07:13:49Z</time></trkpt>
<trkpt lat="46.72716223" lon="7.15661134"><ele>850.904053</ele><time>2008-06-21T07:13:53Z</time></trkpt>
<trkpt lat="46.72734152" lon="7.15636181"><ele>853.788086</ele><time>2008-06-21T07:14:09Z</time></trkpt>
<trkpt lat="46.72745794" lon="7.15612577"><ele>857.152588</ele><time>2008-06-21T07:14:22Z</time></trkpt>
<trkpt lat="46.72754738" lon="7.15594213"><ele>860.036621</ele><time>2008-06-21T07:14:32Z</time></trkpt>
<trkpt lat="46.72765475" lon="7.15570609"><ele>861.959473</ele><time>2008-06-21T07:14:45Z</time></trkpt>
<trkpt lat="46.72780688" lon="7.15539135"><ele>862.920654</ele><time>2008-06-21T07:15:02Z</time></trkpt>
<trkpt lat="46.72788751" lon="7.15524701"><ele>864.843262</ele><time>2008-06-21T07:15:10Z</time></trkpt>
<trkpt lat="46.72801282" lon="7.15498474"><ele>866.765869</ele><time>2008-06-21T07:15:23Z</time></trkpt>
<trkpt lat="46.72803068" lon="7.15493227"><ele>868.207764</ele><time>2008-06-21T07:15:25Z</time></trkpt>
<trkpt lat="46.72811089" lon="7.15464410"><ele>869.169189</ele><time>2008-06-21T07:15:38Z</time></trkpt>
<trkpt lat="46.72814593" lon="7.15426449"><ele>872.052979</ele><time>2008-06-21T07:15:53Z</time></trkpt>
<trkpt lat="46.72821684" lon="7.15383240"><ele>873.975586</ele><time>2008-06-21T07:16:10Z</time></trkpt>
<trkpt lat="46.72823394" lon="7.15349226"><ele>874.937012</ele><time>2008-06-21T07:16:24Z</time></trkpt>
<trkpt lat="46.72825070" lon="7.15299505"><ele>874.937012</ele><time>2008-06-21T07:16:39Z</time></trkpt>
<trkpt lat="46.72827627" lon="7.15243237"><ele>876.859863</ele><time>2008-06-21T07:16:55Z</time></trkpt>
<trkpt lat="46.72837383" lon="7.15185620"><ele>874.937012</ele><time>2008-06-21T07:17:08Z</time></trkpt>
<trkpt lat="46.72856972" lon="7.15107031"><ele>873.014404</ele><time>2008-06-21T07:17:19Z</time></trkpt>
<trkpt lat="46.72868572" lon="7.15069028"><ele>872.052979</ele><time>2008-06-21T07:17:24Z</time></trkpt>
<trkpt lat="46.72876392" lon="7.14961714"><ele>869.169189</ele><time>2008-06-21T07:17:37Z</time></trkpt>
<trkpt lat="46.72884339" lon="7.14901490"><ele>865.804688</ele><time>2008-06-21T07:17:44Z</time></trkpt>
<trkpt lat="46.72887884" lon="7.14881851"><ele>865.804688</ele><time>2008-06-21T07:17:46Z</time></trkpt>
<trkpt lat="46.72901245" lon="7.14829448"><ele>860.998047</ele><time>2008-06-21T07:17:51Z</time></trkpt>
<trkpt lat="46.72903013" lon="7.14816364"><ele>859.075195</ele><time>2008-06-21T07:17:52Z</time></trkpt>
<trkpt lat="46.72903768" lon="7.14760104"><ele>855.22998</ele><time>2008-06-21T07:17:56Z</time></trkpt>
<trkpt lat="46.72885529" lon="7.14663394"><ele>850.904053</ele><time>2008-06-21T07:18:03Z</time></trkpt>
<trkpt lat="46.72879142" lon="7.14626798"><ele>850.904053</ele><time>2008-06-21T07:18:07Z</time></trkpt>
<trkpt lat="46.72898915" lon="7.14620152"><ele>848.020264</ele><time>2008-06-21T07:18:13Z</time></trkpt>
<trkpt lat="46.72921454" lon="7.14639648"><ele>846.097656</ele><time>2008-06-21T07:18:17Z</time></trkpt>
<trkpt lat="46.72945770" lon="7.14649983"><ele>840.810059</ele><time>2008-06-21T07:18:20Z</time></trkpt>
<trkpt lat="46.72966464" lon="7.14653797"><ele>836.964844</ele><time>2008-06-21T07:18:22Z</time></trkpt>
<trkpt lat="46.72976363" lon="7.14653746"><ele>836.964844</ele><time>2008-06-21T07:18:23Z</time></trkpt>
<trkpt lat="46.72994351" lon="7.14653646"><ele>836.964844</ele><time>2008-06-21T07:18:25Z</time></trkpt>
<trkpt lat="46.73024870" lon="7.14627318"><ele>836.964844</ele><time>2008-06-21T07:18:29Z</time></trkpt>
<trkpt lat="46.73037417" lon="7.14608937"><ele>836.964844</ele><time>2008-06-21T07:18:31Z</time></trkpt>
<trkpt lat="46.73061641" lon="7.14585258"><ele>837.92627</ele><time>2008-06-21T07:18:35Z</time></trkpt>
<trkpt lat="46.73077810" lon="7.14576012"><ele>840.810059</ele><time>2008-06-21T07:18:38Z</time></trkpt>
<trkpt lat="46.73088639" lon="7.14589030"><ele>840.810059</ele><time>2008-06-21T07:18:42Z</time></trkpt>
<trkpt lat="46.73110499" lon="7.14694885"><ele>841.771484</ele><time>2008-06-21T07:18:58Z</time></trkpt>
<trkpt lat="46.73118738" lon="7.14749786"><ele>845.13623</ele><time>2008-06-21T07:19:08Z</time></trkpt>
<trkpt lat="46.73120675" lon="7.14806029"><ele>847.058838</ele><time>2008-06-21T07:19:22Z</time></trkpt>
<trkpt lat="46.73123474" lon="7.14842649"><ele>849.942871</ele><time>2008-06-21T07:19:33Z</time></trkpt>
<trkpt lat="46.73129878" lon="7.14887090"><ele>852.82666</ele><time>2008-06-21T07:19:49Z</time></trkpt>
<trkpt lat="46.73141680" lon="7.14930207"><ele>855.22998</ele><time>2008-06-21T07:20:04Z</time></trkpt>
<trkpt lat="46.73151671" lon="7.14966777"><ele>858.114014</ele><time>2008-06-21T07:20:18Z</time></trkpt>
<trkpt lat="46.73161671" lon="7.15008594"><ele>860.998047</ele><time>2008-06-21T07:20:36Z</time></trkpt>
<trkpt lat="46.73175249" lon="7.15041225"><ele>862.920654</ele><time>2008-06-21T07:20:49Z</time></trkpt>
<trkpt lat="46.73191544" lon="7.15081693"><ele>864.843262</ele><time>2008-06-21T07:21:03Z</time></trkpt>
<trkpt lat="46.73206958" lon="7.15131330"><ele>866.765869</ele><time>2008-06-21T07:21:22Z</time></trkpt>
<trkpt lat="46.73225055" lon="7.15174405"><ele>869.169189</ele><time>2008-06-21T07:21:40Z</time></trkpt>
<trkpt lat="46.73247610" lon="7.15200447"><ele>872.052979</ele><time>2008-06-21T07:21:56Z</time></trkpt>
<trkpt lat="46.73271993" lon="7.15235643"><ele>873.975586</ele><time>2008-06-21T07:22:14Z</time></trkpt>
<trkpt lat="46.73274701" lon="7.15240865"><ele>873.975586</ele><time>2008-06-21T07:22:16Z</time></trkpt>
<trkpt lat="46.73280216" lon="7.15286630"><ele>874.937012</ele><time>2008-06-21T07:22:33Z</time></trkpt>
<trkpt lat="46.73284792" lon="7.15320619"><ele>874.937012</ele><time>2008-06-21T07:22:41Z</time></trkpt>
<trkpt lat="46.73288455" lon="7.15345454"><ele>873.014404</ele><time>2008-06-21T07:22:45Z</time></trkpt>
<trkpt lat="46.73289394" lon="7.15359846"><ele>873.014404</ele><time>2008-06-21T07:22:47Z</time></trkpt>
<trkpt lat="46.73301280" lon="7.15436968"><ele>869.169189</ele><time>2008-06-21T07:22:57Z</time></trkpt>
<trkpt lat="46.73307641" lon="7.15464410"><ele>868.207764</ele><time>2008-06-21T07:22:59Z</time></trkpt>
<trkpt lat="46.73309511" lon="7.15491878"><ele>866.765869</ele><time>2008-06-21T07:23:01Z</time></trkpt>
<trkpt lat="46.73322218" lon="7.15537601"><ele>866.765869</ele><time>2008-06-21T07:23:05Z</time></trkpt>
<trkpt lat="46.73332158" lon="7.15557173"><ele>865.804688</ele><time>2008-06-21T07:23:07Z</time></trkpt>
<trkpt lat="46.73345729" lon="7.15585881"><ele>865.804688</ele><time>2008-06-21T07:23:10Z</time></trkpt>
<trkpt lat="46.73366658" lon="7.15682591"><ele>862.920654</ele><time>2008-06-21T07:23:20Z</time></trkpt>
<trkpt lat="46.73385710" lon="7.15747903"><ele>860.998047</ele><time>2008-06-21T07:23:26Z</time></trkpt>
<trkpt lat="46.73424527" lon="7.15803961"><ele>857.152588</ele><time>2008-06-21T07:23:32Z</time></trkpt>
<trkpt lat="46.73458801" lon="7.15843038"><ele>857.152588</ele><time>2008-06-21T07:23:37Z</time></trkpt>
<trkpt lat="46.73484935" lon="7.15862526"><ele>858.114014</ele><time>2008-06-21T07:23:41Z</time></trkpt>
<trkpt lat="46.73502973" lon="7.15880748"><ele>856.191162</ele><time>2008-06-21T07:23:44Z</time></trkpt>
<trkpt lat="46.73512009" lon="7.15896405"><ele>856.191162</ele><time>2008-06-21T07:23:46Z</time></trkpt>
<trkpt lat="46.73547246" lon="7.15960326"><ele>852.82666</ele><time>2008-06-21T07:23:53Z</time></trkpt>
<trkpt lat="46.73552661" lon="7.15968154"><ele>852.82666</ele><time>2008-06-21T07:23:54Z</time></trkpt>
<trkpt lat="46.73577924" lon="7.15998111"><ele>848.020264</ele><time>2008-06-21T07:23:58Z</time></trkpt>
<trkpt lat="46.73598678" lon="7.16024171"><ele>844.175049</ele><time>2008-06-21T07:24:01Z</time></trkpt>
<trkpt lat="46.73612215" lon="7.16041110"><ele>841.771484</ele><time>2008-06-21T07:24:03Z</time></trkpt>
<trkpt lat="46.73640177" lon="7.16073674"><ele>836.964844</ele><time>2008-06-21T07:24:07Z</time></trkpt>
<trkpt lat="46.73651014" lon="7.16091938"><ele>836.003662</ele><time>2008-06-21T07:24:09Z</time></trkpt>
<trkpt lat="46.73660964" lon="7.16112826"><ele>838.887695</ele><time>2008-06-21T07:24:12Z</time></trkpt>
<trkpt lat="46.73650227" lon="7.16135122"><ele>836.964844</ele><time>2008-06-21T07:24:16Z</time></trkpt>
<trkpt lat="46.73632306" lon="7.16166613"><ele>832.158447</ele><time>2008-06-21T07:24:20Z</time></trkpt>
<trkpt lat="46.73621560" lon="7.16187601"><ele>826.871094</ele><time>2008-06-21T07:24:22Z</time></trkpt>
<trkpt lat="46.73602751" lon="7.16219100"><ele>823.987061</ele><time>2008-06-21T07:24:25Z</time></trkpt>
<trkpt lat="46.73583934" lon="7.16249292"><ele>821.103271</ele><time>2008-06-21T07:24:28Z</time></trkpt>
<trkpt lat="46.73567807" lon="7.16275536"><ele>818.219238</ele><time>2008-06-21T07:24:31Z</time></trkpt>
<trkpt lat="46.73557104" lon="7.16314847"><ele>811.970703</ele><time>2008-06-21T07:24:35Z</time></trkpt>
<trkpt lat="46.73558034" lon="7.16326615"><ele>809.08667</ele><time>2008-06-21T07:24:36Z</time></trkpt>
<trkpt lat="46.73563491" lon="7.16351450"><ele>807.164063</ele><time>2008-06-21T07:24:38Z</time></trkpt>
<trkpt lat="46.73592458" lon="7.16427189"><ele>801.876953</ele><time>2008-06-21T07:24:45Z</time></trkpt>
<trkpt lat="46.73611427" lon="7.16458487"><ele>800.915527</ele><time>2008-06-21T07:24:49Z</time></trkpt>
<trkpt lat="46.73606959" lon="7.16471597"><ele>799.954346</ele><time>2008-06-21T07:24:57Z</time></trkpt>
<trkpt lat="46.73606959" lon="7.16471597"><ele>798.99292</ele><time>2008-06-21T07:26:17Z</time></trkpt>
<trkpt lat="46.73588963" lon="7.16470381"><ele>796.109131</ele><time>2008-06-21T07:26:22Z</time></trkpt>
<trkpt lat="46.73566449" lon="7.16461337"><ele>791.782959</ele><time>2008-06-21T07:26:25Z</time></trkpt>
<trkpt lat="46.73512403" lon="7.16428899"><ele>786.015137</ele><time>2008-06-21T07:26:31Z</time></trkpt>
<trkpt lat="46.73469161" lon="7.16404265"><ele>782.169922</ele><time>2008-06-21T07:26:36Z</time></trkpt>
<trkpt lat="46.73460159" lon="7.16400384"><ele>781.20874</ele><time>2008-06-21T07:26:37Z</time></trkpt>
<trkpt lat="46.73433169" lon="7.16400518"><ele>776.882568</ele><time>2008-06-21T07:26:40Z</time></trkpt>
<trkpt lat="46.73424183" lon="7.16404491"><ele>775.921143</ele><time>2008-06-21T07:26:41Z</time></trkpt>
<trkpt lat="46.73365787" lon="7.16433568"><ele>774.959961</ele><time>2008-06-21T07:26:48Z</time></trkpt>
<trkpt lat="46.73332511" lon="7.16436359"><ele>774.959961</ele><time>2008-06-21T07:26:53Z</time></trkpt>
<trkpt lat="46.73302847" lon="7.16446971"><ele>779.766357</ele><time>2008-06-21T07:27:00Z</time></trkpt>
<trkpt lat="46.73301053" lon="7.16448295"><ele>779.766357</ele><time>2008-06-21T07:27:01Z</time></trkpt>
<trkpt lat="46.73276779" lon="7.16454959"><ele>779.766357</ele><time>2008-06-21T07:27:09Z</time></trkpt>
<trkpt lat="46.73266000" lon="7.16461555"><ele>782.169922</ele><time>2008-06-21T07:27:16Z</time></trkpt>
<trkpt lat="46.73242648" lon="7.16474757"><ele>784.092529</ele><time>2008-06-21T07:27:31Z</time></trkpt>
<trkpt lat="46.73229187" lon="7.16489215"><ele>786.976318</ele><time>2008-06-21T07:27:43Z</time></trkpt>
<trkpt lat="46.73228290" lon="7.16491831"><ele>786.976318</ele><time>2008-06-21T07:27:44Z</time></trkpt>
<trkpt lat="46.73225616" lon="7.16499701"><ele>786.976318</ele><time>2008-06-21T07:27:48Z</time></trkpt>
<trkpt lat="46.73227435" lon="7.16510153"><ele>788.89917</ele><time>2008-06-21T07:27:55Z</time></trkpt>
<trkpt lat="46.73226580" lon="7.16525861"><ele>789.860352</ele><time>2008-06-21T07:28:04Z</time></trkpt>
<trkpt lat="46.73227502" lon="7.16536322"><ele>790.821533</ele><time>2008-06-21T07:28:09Z</time></trkpt>
<trkpt lat="46.73235674" lon="7.16568986"><ele>795.147461</ele><time>2008-06-21T07:28:25Z</time></trkpt>
<trkpt lat="46.73251944" lon="7.16601608"><ele>797.070313</ele><time>2008-06-21T07:28:41Z</time></trkpt>
<trkpt lat="46.73267299" lon="7.16627701"><ele>798.99292</ele><time>2008-06-21T07:28:58Z</time></trkpt>
<trkpt lat="46.73277257" lon="7.16652503"><ele>798.99292</ele><time>2008-06-21T07:29:13Z</time></trkpt>
<trkpt lat="46.73281808" lon="7.16676031"><ele>802.838135</ele><time>2008-06-21T07:29:27Z</time></trkpt>
<trkpt lat="46.73281825" lon="7.16682578"><ele>802.838135</ele><time>2008-06-21T07:29:31Z</time></trkpt>
<trkpt lat="46.73280040" lon="7.16690431"><ele>803.799561</ele><time>2008-06-21T07:29:35Z</time></trkpt>
<trkpt lat="46.73259387" lon="7.16706240"><ele>806.202637</ele><time>2008-06-21T07:29:53Z</time></trkpt>
<trkpt lat="46.73254902" lon="7.16708880"><ele>806.202637</ele><time>2008-06-21T07:29:59Z</time></trkpt>
<trkpt lat="46.73246881" lon="7.16740312"><ele>808.125488</ele><time>2008-06-21T07:30:13Z</time></trkpt>
<trkpt lat="46.73246956" lon="7.16774334"><ele>810.047852</ele><time>2008-06-21T07:30:29Z</time></trkpt>
<trkpt lat="46.73254274" lon="7.16824014"><ele>810.047852</ele><time>2008-06-21T07:30:44Z</time></trkpt>
<trkpt lat="46.73267006" lon="7.16882821"><ele>810.047852</ele><time>2008-06-21T07:30:58Z</time></trkpt>
<trkpt lat="46.73258943" lon="7.16895939"><ele>810.047852</ele><time>2008-06-21T07:31:02Z</time></trkpt>
<trkpt lat="46.73246378" lon="7.16907782"><ele>811.009277</ele><time>2008-06-21T07:31:07Z</time></trkpt>
<trkpt lat="46.73255472" lon="7.16952215"><ele>811.009277</ele><time>2008-06-21T07:31:19Z</time></trkpt>
<trkpt lat="46.73240293" lon="7.16999388"><ele>811.970703</ele><time>2008-06-21T07:31:30Z</time></trkpt>
<trkpt lat="46.73235892" lon="7.17039973"><ele>811.970703</ele><time>2008-06-21T07:31:41Z</time></trkpt>
<trkpt lat="46.73243252" lon="7.17110583"><ele>812.932129</ele><time>2008-06-21T07:31:55Z</time></trkpt>
<trkpt lat="46.73245071" lon="7.17119727"><ele>813.893311</ele><time>2008-06-21T07:31:57Z</time></trkpt>
<trkpt lat="46.73251533" lon="7.17190345"><ele>816.777344</ele><time>2008-06-21T07:32:12Z</time></trkpt>
<trkpt lat="46.73265179" lon="7.17254383"><ele>819.180664</ele><time>2008-06-21T07:32:27Z</time></trkpt>
<trkpt lat="46.73280601" lon="7.17311874"><ele>818.219238</ele><time>2008-06-21T07:32:39Z</time></trkpt>
<trkpt lat="46.73284231" lon="7.17322326"><ele>818.219238</ele><time>2008-06-21T07:32:41Z</time></trkpt>
<trkpt lat="46.73286972" lon="7.17340624"><ele>818.219238</ele><time>2008-06-21T07:32:44Z</time></trkpt>
<trkpt lat="46.73292420" lon="7.17362836"><ele>818.219238</ele><time>2008-06-21T07:32:48Z</time></trkpt>
<trkpt lat="46.73297868" lon="7.17386364"><ele>818.219238</ele><time>2008-06-21T07:32:52Z</time></trkpt>
<trkpt lat="46.73299000" lon="7.17485790"><ele>820.141846</ele><time>2008-06-21T07:33:08Z</time></trkpt>
<trkpt lat="46.73296452" lon="7.17549903"><ele>819.180664</ele><time>2008-06-21T07:33:19Z</time></trkpt>
<trkpt lat="46.73293945" lon="7.17634963"><ele>820.141846</ele><time>2008-06-21T07:33:35Z</time></trkpt>
<trkpt lat="46.73288623" lon="7.17669002"><ele>822.064453</ele><time>2008-06-21T07:33:43Z</time></trkpt>
<trkpt lat="46.73270702" lon="7.17696561"><ele>822.064453</ele><time>2008-06-21T07:33:50Z</time></trkpt>
<trkpt lat="46.73234845" lon="7.17752988"><ele>820.141846</ele><time>2008-06-21T07:34:01Z</time></trkpt>
<trkpt lat="46.73228583" lon="7.17768721"><ele>820.141846</ele><time>2008-06-21T07:34:04Z</time></trkpt>
<trkpt lat="46.73224141" lon="7.17793599"><ele>820.141846</ele><time>2008-06-21T07:34:08Z</time></trkpt>
<trkpt lat="46.73225264" lon="7.17891717"><ele>821.103271</ele><time>2008-06-21T07:34:24Z</time></trkpt>
<trkpt lat="46.73226253" lon="7.17930961"><ele>820.141846</ele><time>2008-06-21T07:34:32Z</time></trkpt>
<trkpt lat="46.73225457" lon="7.17976752"><ele>820.141846</ele><time>2008-06-21T07:34:41Z</time></trkpt>
<trkpt lat="46.73220964" lon="7.17976777"><ele>820.141846</ele><time>2008-06-21T07:34:43Z</time></trkpt>
<trkpt lat="46.73184059" lon="7.17966484"><ele>822.064453</ele><time>2008-06-21T07:34:56Z</time></trkpt>
<trkpt lat="46.73130976" lon="7.17964129"><ele>823.025879</ele><time>2008-06-21T07:35:13Z</time></trkpt>
<trkpt lat="46.73095906" lon="7.17968219"><ele>824.948486</ele><time>2008-06-21T07:35:26Z</time></trkpt>
<trkpt lat="46.73062630" lon="7.17970993"><ele>826.871094</ele><time>2008-06-21T07:35:39Z</time></trkpt>
<trkpt lat="46.73009614" lon="7.17996106"><ele>827.832275</ele><time>2008-06-21T07:35:57Z</time></trkpt>
<trkpt lat="46.72998936" lon="7.18048484"><ele>827.832275</ele><time>2008-06-21T07:36:10Z</time></trkpt>
<trkpt lat="46.73017058" lon="7.18104651"><ele>828.793945</ele><time>2008-06-21T07:36:22Z</time></trkpt>
<trkpt lat="46.73035213" lon="7.18179133"><ele>830.23584</ele><time>2008-06-21T07:36:36Z</time></trkpt>
<trkpt lat="46.73046101" lon="7.18222258"><ele>827.832275</ele><time>2008-06-21T07:36:45Z</time></trkpt>
<trkpt lat="46.73034433" lon="7.18234085"><ele>828.793945</ele><time>2008-06-21T07:36:50Z</time></trkpt>
<trkpt lat="46.72991258" lon="7.18235602"><ele>832.158447</ele><time>2008-06-21T07:37:08Z</time></trkpt>
<trkpt lat="46.72947186" lon="7.18237119"><ele>834.081055</ele><time>2008-06-21T07:37:27Z</time></trkpt>
<trkpt lat="46.72912083" lon="7.18228125"><ele>836.964844</ele><time>2008-06-21T07:37:43Z</time></trkpt>
<trkpt lat="46.72869813" lon="7.18229634"><ele>838.887695</ele><time>2008-06-21T07:38:01Z</time></trkpt>
<trkpt lat="46.72841054" lon="7.18244160"><ele>841.771484</ele><time>2008-06-21T07:38:16Z</time></trkpt>
<trkpt lat="46.72814123" lon="7.18267838"><ele>844.175049</ele><time>2008-06-21T07:38:32Z</time></trkpt>
<trkpt lat="46.72789874" lon="7.18286270"><ele>845.13623</ele><time>2008-06-21T07:38:48Z</time></trkpt>
<trkpt lat="46.72777302" lon="7.18294174"><ele>848.020264</ele><time>2008-06-21T07:38:56Z</time></trkpt>
<trkpt lat="46.72775500" lon="7.18294183"><ele>848.020264</ele><time>2008-06-21T07:38:57Z</time></trkpt>
<trkpt lat="46.72752131" lon="7.18302146"><ele>850.904053</ele><time>2008-06-21T07:39:11Z</time></trkpt>
<trkpt lat="46.72724261" lon="7.18311433"><ele>851.865479</ele><time>2008-06-21T07:39:28Z</time></trkpt>
<trkpt lat="46.72700029" lon="7.18336402"><ele>852.82666</ele><time>2008-06-21T07:39:44Z</time></trkpt>
<trkpt lat="46.72690230" lon="7.18378312"><ele>853.788086</ele><time>2008-06-21T07:40:00Z</time></trkpt>
<trkpt lat="46.72683106" lon="7.18409736"><ele>858.114014</ele><time>2008-06-21T07:40:14Z</time></trkpt>
<trkpt lat="46.72674154" lon="7.18430716"><ele>859.075195</ele><time>2008-06-21T07:40:27Z</time></trkpt>
<trkpt lat="46.72649913" lon="7.18451754"><ele>860.036621</ele><time>2008-06-21T07:40:42Z</time></trkpt>
<trkpt lat="46.72633753" lon="7.18464914"><ele>862.920654</ele><time>2008-06-21T07:40:52Z</time></trkpt>
<trkpt lat="46.72622999" lon="7.18481971"><ele>863.881836</ele><time>2008-06-21T07:41:04Z</time></trkpt>
<trkpt lat="46.72609538" lon="7.18499037"><ele>868.207764</ele><time>2008-06-21T07:41:17Z</time></trkpt>
<trkpt lat="46.72605054" lon="7.18505600"><ele>868.207764</ele><time>2008-06-21T07:41:21Z</time></trkpt>
<trkpt lat="46.72598775" lon="7.18513479"><ele>869.169189</ele><time>2008-06-21T07:41:35Z</time></trkpt>
<trkpt lat="46.72585281" lon="7.18512238"><ele>871.091797</ele><time>2008-06-21T07:41:50Z</time></trkpt>
<trkpt lat="46.72574485" lon="7.18510981"><ele>872.052979</ele><time>2008-06-21T07:42:01Z</time></trkpt>
<trkpt lat="46.72563706" lon="7.18516261"><ele>873.975586</ele><time>2008-06-21T07:42:16Z</time></trkpt>
<trkpt lat="46.72553848" lon="7.18535925"><ele>875.898193</ele><time>2008-06-21T07:42:35Z</time></trkpt>
<trkpt lat="46.72544897" lon="7.18552974"><ele>876.859863</ele><time>2008-06-21T07:42:51Z</time></trkpt>
<trkpt lat="46.72544008" lon="7.18558213"><ele>877.821045</ele><time>2008-06-21T07:42:54Z</time></trkpt>
<trkpt lat="46.72531444" lon="7.18572663"><ele>881.185791</ele><time>2008-06-21T07:43:13Z</time></trkpt>
<trkpt lat="46.72528753" lon="7.18575287"><ele>881.185791</ele><time>2008-06-21T07:43:16Z</time></trkpt>
<trkpt lat="46.72517069" lon="7.18580576"><ele>883.108154</ele><time>2008-06-21T07:43:31Z</time></trkpt>
<trkpt lat="46.72506290" lon="7.18588480"><ele>885.031006</ele><time>2008-06-21T07:43:46Z</time></trkpt>
<trkpt lat="46.72498251" lon="7.18613366"><ele>886.953369</ele><time>2008-06-21T07:44:05Z</time></trkpt>
<trkpt lat="46.72497354" lon="7.18614682"><ele>886.953369</ele><time>2008-06-21T07:44:07Z</time></trkpt>
<trkpt lat="46.72489291" lon="7.18630414"><ele>888.876221</ele><time>2008-06-21T07:44:21Z</time></trkpt>
<trkpt lat="46.72484840" lon="7.18651369"><ele>890.798584</ele><time>2008-06-21T07:44:38Z</time></trkpt>
<trkpt lat="46.72483088" lon="7.18673615"><ele>894.163574</ele><time>2008-06-21T07:44:58Z</time></trkpt>
<trkpt lat="46.72479509" lon="7.18680169"><ele>896.086182</ele><time>2008-06-21T07:45:07Z</time></trkpt>
<trkpt lat="46.72466928" lon="7.18688074"><ele>898.008789</ele><time>2008-06-21T07:45:23Z</time></trkpt>
<trkpt lat="46.72452553" lon="7.18693379"><ele>899.931396</ele><time>2008-06-21T07:45:40Z</time></trkpt>
<trkpt lat="46.72448077" lon="7.18705173"><ele>901.854004</ele><time>2008-06-21T07:45:56Z</time></trkpt>
<trkpt lat="46.72438220" lon="7.18722221"><ele>905.218506</ele><time>2008-06-21T07:46:13Z</time></trkpt>
<trkpt lat="46.72416637" lon="7.18724937"><ele>907.141113</ele><time>2008-06-21T07:46:36Z</time></trkpt>
<trkpt lat="46.72401382" lon="7.18742011"><ele>910.025146</ele><time>2008-06-21T07:46:55Z</time></trkpt>
<trkpt lat="46.72392396" lon="7.18745976"><ele>910.986572</ele><time>2008-06-21T07:47:02Z</time></trkpt>
<trkpt lat="46.72379840" lon="7.18763041"><ele>912.90918</ele><time>2008-06-21T07:47:21Z</time></trkpt>
<trkpt lat="46.72367276" lon="7.18778799"><ele>915.793213</ele><time>2008-06-21T07:47:41Z</time></trkpt>
<trkpt lat="46.72359221" lon="7.18795840"><ele>918.196289</ele><time>2008-06-21T07:47:59Z</time></trkpt>
<trkpt lat="46.72351166" lon="7.18812880"><ele>920.118896</ele><time>2008-06-21T07:48:19Z</time></trkpt>
<trkpt lat="46.72344888" lon="7.18822067"><ele>922.041504</ele><time>2008-06-21T07:48:37Z</time></trkpt>
<trkpt lat="46.72337713" lon="7.18833877"><ele>923.964111</ele><time>2008-06-21T07:48:55Z</time></trkpt>
<trkpt lat="46.72326070" lon="7.18856164"><ele>926.848389</ele><time>2008-06-21T07:49:17Z</time></trkpt>
<trkpt lat="46.72307219" lon="7.18874563"><ele>930.212891</ele><time>2008-06-21T07:49:40Z</time></trkpt>
<trkpt lat="46.72302777" lon="7.18899440"><ele>934.058105</ele><time>2008-06-21T07:50:03Z</time></trkpt>
<trkpt lat="46.72304629" lon="7.18925592"><ele>936.941895</ele><time>2008-06-21T07:50:24Z</time></trkpt>
<trkpt lat="46.72308301" lon="7.18955657"><ele>939.825928</ele><time>2008-06-21T07:50:52Z</time></trkpt>
<trkpt lat="46.72298460" lon="7.18984483"><ele>943.190674</ele><time>2008-06-21T07:51:17Z</time></trkpt>
<trkpt lat="46.72288628" lon="7.19012001"><ele>947.035889</ele><time>2008-06-21T07:51:45Z</time></trkpt>
<trkpt lat="46.72281520" lon="7.19051270"><ele>948.958496</ele><time>2008-06-21T07:52:16Z</time></trkpt>
<trkpt lat="46.72262720" lon="7.19091905"><ele>950.881104</ele><time>2008-06-21T07:52:44Z</time></trkpt>
<trkpt lat="46.72235780" lon="7.19114268"><ele>953.765137</ele><time>2008-06-21T07:53:08Z</time></trkpt>
<trkpt lat="46.72219620" lon="7.19128735"><ele>956.168457</ele><time>2008-06-21T07:53:31Z</time></trkpt>
<trkpt lat="46.72214222" lon="7.19128761"><ele>956.168457</ele><time>2008-06-21T07:53:35Z</time></trkpt>
<trkpt lat="46.72204348" lon="7.19137955"><ele>956.168457</ele><time>2008-06-21T07:53:50Z</time></trkpt>
<trkpt lat="46.72203443" lon="7.19137964"><ele>956.168457</ele><time>2008-06-21T07:54:20Z</time></trkpt>
<trkpt lat="46.72204348" lon="7.19137955"><ele>960.013672</ele><time>2008-06-21T07:57:45Z</time></trkpt>
<trkpt lat="46.72204348" lon="7.19137955"><ele>959.05249</ele><time>2008-06-21T07:58:21Z</time></trkpt>
<trkpt lat="46.72198984" lon="7.19153680"><ele>960.013672</ele><time>2008-06-21T07:59:26Z</time></trkpt>
<trkpt lat="46.72175691" lon="7.19196947"><ele>960.975098</ele><time>2008-06-21T07:59:41Z</time></trkpt>
<trkpt lat="46.72172111" lon="7.19207433"><ele>962.897705</ele><time>2008-06-21T07:59:44Z</time></trkpt>
<trkpt lat="46.72172120" lon="7.19211356"><ele>962.897705</ele><time>2008-06-21T07:59:45Z</time></trkpt>
<trkpt lat="46.72167703" lon="7.19248001"><ele>965.781738</ele><time>2008-06-21T07:59:58Z</time></trkpt>
<trkpt lat="46.72159698" lon="7.19291202"><ele>968.184814</ele><time>2008-06-21T08:00:13Z</time></trkpt>
<trkpt lat="46.72158818" lon="7.19299056"><ele>968.184814</ele><time>2008-06-21T08:00:16Z</time></trkpt>
<trkpt lat="46.72155239" lon="7.19310841"><ele>968.184814</ele><time>2008-06-21T08:00:20Z</time></trkpt>
<trkpt lat="46.72149044" lon="7.19356648"><ele>971.068848</ele><time>2008-06-21T08:00:37Z</time></trkpt>
<trkpt lat="46.72146413" lon="7.19389362"><ele>972.991699</ele><time>2008-06-21T08:00:51Z</time></trkpt>
<trkpt lat="46.72141979" lon="7.19418162"><ele>974.914307</ele><time>2008-06-21T08:01:04Z</time></trkpt>
<trkpt lat="46.72142892" lon="7.19424700"><ele>974.914307</ele><time>2008-06-21T08:01:08Z</time></trkpt>
<trkpt lat="46.72139330" lon="7.19440408"><ele>975.875488</ele><time>2008-06-21T08:01:15Z</time></trkpt>
<trkpt lat="46.72140277" lon="7.19463953"><ele>980.201416</ele><time>2008-06-21T08:01:26Z</time></trkpt>
<trkpt lat="46.72140294" lon="7.19469183"><ele>980.201416</ele><time>2008-06-21T08:01:30Z</time></trkpt>
<trkpt lat="46.72138575" lon="7.19508427"><ele>982.124023</ele><time>2008-06-21T08:01:43Z</time></trkpt>
<trkpt lat="46.72138643" lon="7.19538518"><ele>983.085205</ele><time>2008-06-21T08:01:54Z</time></trkpt>
<trkpt lat="46.72141367" lon="7.19552893"><ele>984.046631</ele><time>2008-06-21T08:02:00Z</time></trkpt>
<trkpt lat="46.72142339" lon="7.19585583"><ele>985.969238</ele><time>2008-06-21T08:02:14Z</time></trkpt>
<trkpt lat="46.72140579" lon="7.19605213"><ele>987.891846</ele><time>2008-06-21T08:02:24Z</time></trkpt>
<trkpt lat="46.72129858" lon="7.19637961"><ele>989.814697</ele><time>2008-06-21T08:02:37Z</time></trkpt>
<trkpt lat="46.72129867" lon="7.19643191"><ele>989.814697</ele><time>2008-06-21T08:02:39Z</time></trkpt>
<trkpt lat="46.72131727" lon="7.19671967"><ele>993.179199</ele><time>2008-06-21T08:02:55Z</time></trkpt>
<trkpt lat="46.72130009" lon="7.19709903"><ele>996.063232</ele><time>2008-06-21T08:03:08Z</time></trkpt>
<trkpt lat="46.72129154" lon="7.19730833"><ele>996.063232</ele><time>2008-06-21T08:03:18Z</time></trkpt>
<trkpt lat="46.72130076" lon="7.19743908"><ele>997.024414</ele><time>2008-06-21T08:03:24Z</time></trkpt>
<trkpt lat="46.72129188" lon="7.19746532"><ele>997.98584</ele><time>2008-06-21T08:03:26Z</time></trkpt>
<trkpt lat="46.72138240" lon="7.19773958"><ele>998.947021</ele><time>2008-06-21T08:03:39Z</time></trkpt>
<trkpt lat="46.72140059" lon="7.19784418"><ele>1000.869629</ele><time>2008-06-21T08:03:44Z</time></trkpt>
<trkpt lat="46.72133781" lon="7.19793596"><ele>1000.869629</ele><time>2008-06-21T08:03:47Z</time></trkpt>
<trkpt lat="46.72122122" lon="7.19809346"><ele>1001.831055</ele><time>2008-06-21T08:03:51Z</time></trkpt>
<trkpt lat="46.72110429" lon="7.19812020"><ele>1001.831055</ele><time>2008-06-21T08:04:00Z</time></trkpt>
<trkpt lat="46.72089759" lon="7.19818650"><ele>1001.831055</ele><time>2008-06-21T08:04:14Z</time></trkpt>
<trkpt lat="46.72085258" lon="7.19819974"><ele>1002.792236</ele><time>2008-06-21T08:04:16Z</time></trkpt>
<trkpt lat="46.72069986" lon="7.19826587"><ele>1002.792236</ele><time>2008-06-21T08:04:25Z</time></trkpt>
<trkpt lat="46.72065502" lon="7.19835757"><ele>1005.195801</ele><time>2008-06-21T08:04:32Z</time></trkpt>
<trkpt lat="46.72057497" lon="7.19878958"><ele>1006.156982</ele><time>2008-06-21T08:04:48Z</time></trkpt>
<trkpt lat="46.72053935" lon="7.19893366"><ele>1008.079834</ele><time>2008-06-21T08:04:56Z</time></trkpt>
<trkpt lat="46.72051244" lon="7.19898605"><ele>1008.079834</ele><time>2008-06-21T08:04:59Z</time></trkpt>
<trkpt lat="46.72043189" lon="7.19918260"><ele>1009.041016</ele><time>2008-06-21T08:05:08Z</time></trkpt>
<trkpt lat="46.72044153" lon="7.19949651"><ele>1010.963623</ele><time>2008-06-21T08:05:21Z</time></trkpt>
<trkpt lat="46.72046911" lon="7.19978417"><ele>1011.925049</ele><time>2008-06-21T08:05:34Z</time></trkpt>
<trkpt lat="46.72043391" lon="7.20015055"><ele>1012.88623</ele><time>2008-06-21T08:05:48Z</time></trkpt>
<trkpt lat="46.72043424" lon="7.20030754"><ele>1012.88623</ele><time>2008-06-21T08:05:55Z</time></trkpt>
<trkpt lat="46.72054254" lon="7.20045087"><ele>1013.847412</ele><time>2008-06-21T08:06:05Z</time></trkpt>
<trkpt lat="46.72065058" lon="7.20050275"><ele>1014.808838</ele><time>2008-06-21T08:06:13Z</time></trkpt>
<trkpt lat="46.72067757" lon="7.20050267"><ele>1014.808838</ele><time>2008-06-21T08:06:15Z</time></trkpt>
<trkpt lat="46.72087580" lon="7.20067182"><ele>1015.770264</ele><time>2008-06-21T08:06:28Z</time></trkpt>
<trkpt lat="46.72094839" lon="7.20097231"><ele>1019.134766</ele><time>2008-06-21T08:06:41Z</time></trkpt>
<trkpt lat="46.72092207" lon="7.20129945"><ele>1020.096191</ele><time>2008-06-21T08:06:55Z</time></trkpt>
<trkpt lat="46.72095819" lon="7.20136466"><ele>1021.057617</ele><time>2008-06-21T08:06:59Z</time></trkpt>
<trkpt lat="46.72118375" lon="7.20169072"><ele>1022.018799</ele><time>2008-06-21T08:07:17Z</time></trkpt>
<trkpt lat="46.72122943" lon="7.20204368"><ele>1023.941406</ele><time>2008-06-21T08:07:32Z</time></trkpt>
<trkpt lat="46.72120328" lon="7.20243621"><ele>1024.902832</ele><time>2008-06-21T08:07:47Z</time></trkpt>
<trkpt lat="46.72119465" lon="7.20261935"><ele>1026.825439</ele><time>2008-06-21T08:07:54Z</time></trkpt>
<trkpt lat="46.72113254" lon="7.20302512"><ele>1029.228516</ele><time>2008-06-21T08:08:11Z</time></trkpt>
<trkpt lat="46.72106087" lon="7.20315621"><ele>1030.189941</ele><time>2008-06-21T08:08:20Z</time></trkpt>
<trkpt lat="46.72101628" lon="7.20336568"><ele>1032.112549</ele><time>2008-06-21T08:08:34Z</time></trkpt>
<trkpt lat="46.72097194" lon="7.20367983"><ele>1034.035156</ele><time>2008-06-21T08:08:50Z</time></trkpt>
<trkpt lat="46.72076591" lon="7.20408618"><ele>1034.996582</ele><time>2008-06-21T08:09:02Z</time></trkpt>
<trkpt lat="46.72070355" lon="7.20436111"><ele>1035.957764</ele><time>2008-06-21T08:09:16Z</time></trkpt>
<trkpt lat="46.72057807" lon="7.20458407"><ele>1036.919189</ele><time>2008-06-21T08:09:26Z</time></trkpt>
<trkpt lat="46.72065058" lon="7.20485841"><ele>1037.880615</ele><time>2008-06-21T08:09:33Z</time></trkpt>
<trkpt lat="46.72069576" lon="7.20494977"><ele>1038.842041</ele><time>2008-06-21T08:09:38Z</time></trkpt>
<trkpt lat="46.72083121" lon="7.20523694"><ele>1039.803223</ele><time>2008-06-21T08:09:52Z</time></trkpt>
<trkpt lat="46.72082241" lon="7.20532855"><ele>1040.764404</ele><time>2008-06-21T08:09:56Z</time></trkpt>
<trkpt lat="46.72073247" lon="7.20530273"><ele>1040.764404</ele><time>2008-06-21T08:10:03Z</time></trkpt>
<trkpt lat="46.72056994" lon="7.20502881"><ele>1044.12915</ele><time>2008-06-21T08:10:20Z</time></trkpt>
<trkpt lat="46.72032637" lon="7.20468977"><ele>1045.090332</ele><time>2008-06-21T08:10:37Z</time></trkpt>
<trkpt lat="46.72030826" lon="7.20463755"><ele>1045.090332</ele><time>2008-06-21T08:10:40Z</time></trkpt>
<trkpt lat="46.72029016" lon="7.20457217"><ele>1045.090332</ele><time>2008-06-21T08:10:44Z</time></trkpt>
<trkpt lat="46.72028915" lon="7.20410136"><ele>1047.012939</ele><time>2008-06-21T08:11:01Z</time></trkpt>
<trkpt lat="46.72024364" lon="7.20382685"><ele>1050.858154</ele><time>2008-06-21T08:11:16Z</time></trkpt>
<trkpt lat="46.72025252" lon="7.20377446"><ele>1049.896973</ele><time>2008-06-21T08:11:18Z</time></trkpt>
<trkpt lat="46.72035084" lon="7.20344706"><ele>1052.781006</ele><time>2008-06-21T08:11:34Z</time></trkpt>
<trkpt lat="46.72041270" lon="7.20291054"><ele>1054.223145</ele><time>2008-06-21T08:11:51Z</time></trkpt>
<trkpt lat="46.72033106" lon="7.20258390"><ele>1057.106934</ele><time>2008-06-21T08:12:06Z</time></trkpt>
<trkpt lat="46.72010584" lon="7.20241483"><ele>1059.029541</ele><time>2008-06-21T08:12:21Z</time></trkpt>
<trkpt lat="46.71990752" lon="7.20221953"><ele>1059.990723</ele><time>2008-06-21T08:12:35Z</time></trkpt>
<trkpt lat="46.71980795" lon="7.20193220"><ele>1060.952148</ele><time>2008-06-21T08:12:48Z</time></trkpt>
<trkpt lat="46.71957342" lon="7.20163238"><ele>1064.797363</ele><time>2008-06-21T08:13:05Z</time></trkpt>
<trkpt lat="46.71951039" lon="7.20158033"><ele>1066.239258</ele><time>2008-06-21T08:13:15Z</time></trkpt>
<trkpt lat="46.71942942" lon="7.20159374"><ele>1066.239258</ele><time>2008-06-21T08:13:21Z</time></trkpt>
<trkpt lat="46.71923144" lon="7.20156843"><ele>1067.200684</ele><time>2008-06-21T08:13:34Z</time></trkpt>
<trkpt lat="46.71917737" lon="7.20151638"><ele>1068.162109</ele><time>2008-06-21T08:13:38Z</time></trkpt>
<trkpt lat="46.71899683" lon="7.20121639"><ele>1070.084717</ele><time>2008-06-21T08:13:55Z</time></trkpt>
<trkpt lat="46.71878938" lon="7.20094255"><ele>1072.007324</ele><time>2008-06-21T08:14:10Z</time></trkpt>
<trkpt lat="46.71863590" lon="7.20068171"><ele>1072.96875</ele><time>2008-06-21T08:14:25Z</time></trkpt>
<trkpt lat="46.71864479" lon="7.20062932"><ele>1072.96875</ele><time>2008-06-21T08:14:27Z</time></trkpt>
<trkpt lat="46.71854555" lon="7.20045975"><ele>1073.929932</ele><time>2008-06-21T08:14:36Z</time></trkpt>
<trkpt lat="46.71843692" lon="7.20014627"><ele>1075.852539</ele><time>2008-06-21T08:14:50Z</time></trkpt>
<trkpt lat="46.71834623" lon="7.19980664"><ele>1077.775146</ele><time>2008-06-21T08:15:05Z</time></trkpt>
<trkpt lat="46.71825562" lon="7.19950623"><ele>1079.217041</ele><time>2008-06-21T08:15:18Z</time></trkpt>
<trkpt lat="46.71805705" lon="7.19916701"><ele>1080.178467</ele><time>2008-06-21T08:15:34Z</time></trkpt>
<trkpt lat="46.71789478" lon="7.19901077"><ele>1083.062256</ele><time>2008-06-21T08:15:47Z</time></trkpt>
<trkpt lat="46.71761566" lon="7.19888119"><ele>1085.946533</ele><time>2008-06-21T08:16:00Z</time></trkpt>
<trkpt lat="46.71748943" lon="7.19872487"><ele>1085.946533</ele><time>2008-06-21T08:16:08Z</time></trkpt>
<trkpt lat="46.71752471" lon="7.19841080"><ele>1088.830566</ele><time>2008-06-21T08:16:22Z</time></trkpt>
<trkpt lat="46.71748783" lon="7.19799237"><ele>1091.233643</ele><time>2008-06-21T08:16:39Z</time></trkpt>
<trkpt lat="46.71742430" lon="7.19770496"><ele>1094.117676</ele><time>2008-06-21T08:16:54Z</time></trkpt>
<trkpt lat="46.71719866" lon="7.19736591"><ele>1097.001465</ele><time>2008-06-21T08:17:10Z</time></trkpt>
<trkpt lat="46.71708114" lon="7.19709174"><ele>1097.962891</ele><time>2008-06-21T08:17:23Z</time></trkpt>
<trkpt lat="46.71707209" lon="7.19705259"><ele>1097.962891</ele><time>2008-06-21T08:17:25Z</time></trkpt>
<trkpt lat="46.71708089" lon="7.19698713"><ele>1098.924072</ele><time>2008-06-21T08:17:29Z</time></trkpt>
<trkpt lat="46.71714359" lon="7.19682989"><ele>1100.846924</ele><time>2008-06-21T08:17:38Z</time></trkpt>
<trkpt lat="46.71708902" lon="7.19654239"><ele>1104.21167</ele><time>2008-06-21T08:17:52Z</time></trkpt>
<trkpt lat="46.71701702" lon="7.19652965"><ele>1105.172852</ele><time>2008-06-21T08:17:57Z</time></trkpt>
<trkpt lat="46.71678250" lon="7.19624299"><ele>1107.095459</ele><time>2008-06-21T08:18:14Z</time></trkpt>
<trkpt lat="46.71662902" lon="7.19598206"><ele>1109.018066</ele><time>2008-06-21T08:18:27Z</time></trkpt>
<trkpt lat="46.71656574" lon="7.19585155"><ele>1109.018066</ele><time>2008-06-21T08:18:34Z</time></trkpt>
<trkpt lat="46.71659206" lon="7.19551141"><ele>1110.940674</ele><time>2008-06-21T08:18:50Z</time></trkpt>
<trkpt lat="46.71671737" lon="7.19522308"><ele>1113.824463</ele><time>2008-06-21T08:19:02Z</time></trkpt>
<trkpt lat="46.71662651" lon="7.19481806"><ele>1114.785889</ele><time>2008-06-21T08:19:19Z</time></trkpt>
<trkpt lat="46.71650933" lon="7.19467473"><ele>1116.228027</ele><time>2008-06-21T08:19:27Z</time></trkpt>
<trkpt lat="46.71647295" lon="7.19450483"><ele>1116.228027</ele><time>2008-06-21T08:19:35Z</time></trkpt>
<trkpt lat="46.71649005" lon="7.19409931"><ele>1119.112061</ele><time>2008-06-21T08:19:51Z</time></trkpt>
<trkpt lat="46.71635452" lon="7.19379907"><ele>1121.034668</ele><time>2008-06-21T08:20:05Z</time></trkpt>
<trkpt lat="46.71632728" lon="7.19370771"><ele>1121.034668</ele><time>2008-06-21T08:20:09Z</time></trkpt>
<trkpt lat="46.71641654" lon="7.19338031"><ele>1121.99585</ele><time>2008-06-21T08:20:24Z</time></trkpt>
<trkpt lat="46.71643456" lon="7.19336716"><ele>1121.99585</ele><time>2008-06-21T08:20:25Z</time></trkpt>
<trkpt lat="46.71656876" lon="7.19303951"><ele>1122.957275</ele><time>2008-06-21T08:20:40Z</time></trkpt>
<trkpt lat="46.71657773" lon="7.19301336"><ele>1123.918457</ele><time>2008-06-21T08:20:41Z</time></trkpt>
<trkpt lat="46.71659558" lon="7.19294789"><ele>1123.918457</ele><time>2008-06-21T08:20:45Z</time></trkpt>
<trkpt lat="46.71659516" lon="7.19277782"><ele>1124.879883</ele><time>2008-06-21T08:20:53Z</time></trkpt>
<trkpt lat="46.71658586" lon="7.19263399"><ele>1126.80249</ele><time>2008-06-21T08:21:07Z</time></trkpt>
<trkpt lat="46.71648670" lon="7.19251673"><ele>1125.841064</ele><time>2008-06-21T08:22:46Z</time></trkpt>
<trkpt lat="46.71647765" lon="7.19250374"><ele>1126.80249</ele><time>2008-06-21T08:23:05Z</time></trkpt>
<trkpt lat="46.71640573" lon="7.19253022"><ele>1127.763672</ele><time>2008-06-21T08:23:14Z</time></trkpt>
<trkpt lat="46.71631588" lon="7.19258294"><ele>1127.763672</ele><time>2008-06-21T08:23:22Z</time></trkpt>
<trkpt lat="46.71629794" lon="7.19260918"><ele>1129.205566</ele><time>2008-06-21T08:23:26Z</time></trkpt>
<trkpt lat="46.71613625" lon="7.19268839"><ele>1130.166992</ele><time>2008-06-21T08:23:42Z</time></trkpt>
<trkpt lat="46.71610935" lon="7.19275394"><ele>1131.128418</ele><time>2008-06-21T08:35:56Z</time></trkpt>
<trkpt lat="46.71609133" lon="7.19271471"><ele>1132.089844</ele><time>2008-06-21T08:53:14Z</time></trkpt>
<trkpt lat="46.71609133" lon="7.19271471"><ele>1134.973877</ele><time>2008-06-21T08:53:15Z</time></trkpt>
<trkpt lat="46.71609133" lon="7.19271471"><ele>1131.128418</ele><time>2008-06-21T08:53:16Z</time></trkpt>
<trkpt lat="46.71609133" lon="7.19271471"><ele>1131.128418</ele><time>2008-06-21T08:53:17Z</time></trkpt>
<trkpt lat="46.71609133" lon="7.19271471"><ele>1132.089844</ele><time>2008-06-21T08:53:59Z</time></trkpt>
<trkpt lat="46.71609133" lon="7.19271471"><ele>1132.089844</ele><time>2008-06-21T08:54:00Z</time></trkpt>
<trkpt lat="46.71623608" lon="7.19311955"><ele>1132.089844</ele><time>2008-06-21T08:54:05Z</time></trkpt>
<trkpt lat="46.71600122" lon="7.19267590"><ele>1133.051025</ele><time>2008-06-21T09:00:55Z</time></trkpt>
<trkpt lat="46.71595638" lon="7.19271538"><ele>1134.012451</ele><time>2008-06-21T09:00:59Z</time></trkpt>
<trkpt lat="46.71592042" lon="7.19272862"><ele>1134.012451</ele><time>2008-06-21T09:01:03Z</time></trkpt>
<trkpt lat="46.71576795" lon="7.19293859"><ele>1134.012451</ele><time>2008-06-21T09:01:17Z</time></trkpt>
<trkpt lat="46.71572344" lon="7.19317420"><ele>1134.973877</ele><time>2008-06-21T09:01:26Z</time></trkpt>
<trkpt lat="46.71570593" lon="7.19337042"><ele>1134.973877</ele><time>2008-06-21T09:01:34Z</time></trkpt>
<trkpt lat="46.71566117" lon="7.19350143"><ele>1135.935059</ele><time>2008-06-21T09:01:41Z</time></trkpt>
<trkpt lat="46.71555405" lon="7.19386814"><ele>1136.89624</ele><time>2008-06-21T09:01:56Z</time></trkpt>
<trkpt lat="46.71543770" lon="7.19415640"><ele>1139.780273</ele><time>2008-06-21T09:02:11Z</time></trkpt>
<trkpt lat="46.71532111" lon="7.19432697"><ele>1141.222168</ele><time>2008-06-21T09:02:21Z</time></trkpt>
<trkpt lat="46.71528608" lon="7.19474564"><ele>1144.106201</ele><time>2008-06-21T09:02:37Z</time></trkpt>
<trkpt lat="46.71527719" lon="7.19482410"><ele>1145.067383</ele><time>2008-06-21T09:02:41Z</time></trkpt>
<trkpt lat="46.71523260" lon="7.19499433"><ele>1146.98999</ele><time>2008-06-21T09:02:49Z</time></trkpt>
<trkpt lat="46.71521475" lon="7.19504672"><ele>1146.98999</ele><time>2008-06-21T09:02:51Z</time></trkpt>
<trkpt lat="46.71513462" lon="7.19542642"><ele>1149.874268</ele><time>2008-06-21T09:03:08Z</time></trkpt>
<trkpt lat="46.71500897" lon="7.19559699"><ele>1150.835449</ele><time>2008-06-21T09:03:22Z</time></trkpt>
<trkpt lat="46.71498206" lon="7.19561015"><ele>1151.796875</ele><time>2008-06-21T09:03:25Z</time></trkpt>
<trkpt lat="46.71493714" lon="7.19564963"><ele>1153.23877</ele><time>2008-06-21T09:03:29Z</time></trkpt>
<trkpt lat="46.71483848" lon="7.19578089"><ele>1155.161377</ele><time>2008-06-21T09:03:37Z</time></trkpt>
<trkpt lat="46.71475785" lon="7.19592506"><ele>1156.122559</ele><time>2008-06-21T09:03:44Z</time></trkpt>
<trkpt lat="46.71474896" lon="7.19599052"><ele>1157.083984</ele><time>2008-06-21T09:03:48Z</time></trkpt>
<trkpt lat="46.71472239" lon="7.19618683"><ele>1159.006592</ele><time>2008-06-21T09:03:57Z</time></trkpt>
<trkpt lat="46.71464209" lon="7.19647491"><ele>1160.929199</ele><time>2008-06-21T09:04:10Z</time></trkpt>
<trkpt lat="46.71468744" lon="7.19665781"><ele>1162.851807</ele><time>2008-06-21T09:04:17Z</time></trkpt>
<trkpt lat="46.71451687" lon="7.19682855"><ele>1166.216553</ele><time>2008-06-21T09:04:31Z</time></trkpt>
<trkpt lat="46.71439114" lon="7.19693374"><ele>1168.13916</ele><time>2008-06-21T09:04:44Z</time></trkpt>
<trkpt lat="46.71411286" lon="7.19718352"><ele>1171.023193</ele><time>2008-06-21T09:05:00Z</time></trkpt>
<trkpt lat="46.71403198" lon="7.19723616"><ele>1171.023193</ele><time>2008-06-21T09:05:03Z</time></trkpt>
<trkpt lat="46.71398722" lon="7.19734102"><ele>1171.023193</ele><time>2008-06-21T09:05:07Z</time></trkpt>
<trkpt lat="46.71402351" lon="7.19749776"><ele>1171.984375</ele><time>2008-06-21T09:05:13Z</time></trkpt>
<trkpt lat="46.71421319" lon="7.19785005"><ele>1173.906982</ele><time>2008-06-21T09:05:32Z</time></trkpt>
<trkpt lat="46.71422250" lon="7.19800696"><ele>1175.82959</ele><time>2008-06-21T09:05:40Z</time></trkpt>
<trkpt lat="46.71422308" lon="7.19829471"><ele>1178.23291</ele><time>2008-06-21T09:05:54Z</time></trkpt>
<trkpt lat="46.71406182" lon="7.19858313"><ele>1180.155762</ele><time>2008-06-21T09:06:10Z</time></trkpt>
<trkpt lat="46.71392720" lon="7.19874071"><ele>1182.078369</ele><time>2008-06-21T09:06:24Z</time></trkpt>
<trkpt lat="46.71372076" lon="7.19893777"><ele>1184.962402</ele><time>2008-06-21T09:06:38Z</time></trkpt>
<trkpt lat="46.71359503" lon="7.19904296"><ele>1186.884766</ele><time>2008-06-21T09:06:49Z</time></trkpt>
<trkpt lat="46.71346955" lon="7.19926584"><ele>1188.807617</ele><time>2008-06-21T09:07:03Z</time></trkpt>
<trkpt lat="46.71327207" lon="7.19946289"><ele>1191.210693</ele><time>2008-06-21T09:07:18Z</time></trkpt>
<trkpt lat="46.71311952" lon="7.19965970"><ele>1194.094727</ele><time>2008-06-21T09:07:32Z</time></trkpt>
<trkpt lat="46.71301207" lon="7.19986950"><ele>1196.017578</ele><time>2008-06-21T09:07:40Z</time></trkpt>
<trkpt lat="46.71296747" lon="7.20007888"><ele>1198.901367</ele><time>2008-06-21T09:07:51Z</time></trkpt>
<trkpt lat="46.71286010" lon="7.20034098"><ele>1199.862793</ele><time>2008-06-21T09:08:06Z</time></trkpt>
<trkpt lat="46.71287871" lon="7.20065472"><ele>1200.823975</ele><time>2008-06-21T09:08:17Z</time></trkpt>
<trkpt lat="46.71286094" lon="7.20074633"><ele>1200.823975</ele><time>2008-06-21T09:08:22Z</time></trkpt>
<trkpt lat="46.71285239" lon="7.20098178"><ele>1205.149902</ele><time>2008-06-21T09:08:35Z</time></trkpt>
<trkpt lat="46.71287963" lon="7.20109938"><ele>1206.111084</ele><time>2008-06-21T09:08:40Z</time></trkpt>
<trkpt lat="46.71294292" lon="7.20122988"><ele>1208.033936</ele><time>2008-06-21T09:08:44Z</time></trkpt>
<trkpt lat="46.71306957" lon="7.20158243"><ele>1208.995117</ele><time>2008-06-21T09:09:01Z</time></trkpt>
<trkpt lat="46.71316009" lon="7.20184361"><ele>1210.917725</ele><time>2008-06-21T09:09:16Z</time></trkpt>
<trkpt lat="46.71316051" lon="7.20205290"><ele>1213.801758</ele><time>2008-06-21T09:09:27Z</time></trkpt>
<trkpt lat="46.71312463" lon="7.20210537"><ele>1214.763184</ele><time>2008-06-21T09:09:31Z</time></trkpt>
<trkpt lat="46.71297217" lon="7.20234141"><ele>1217.166504</ele><time>2008-06-21T09:09:46Z</time></trkpt>
<trkpt lat="46.71285566" lon="7.20252506"><ele>1219.089111</ele><time>2008-06-21T09:09:58Z</time></trkpt>
<trkpt lat="46.71282875" lon="7.20259052"><ele>1218.127686</ele><time>2008-06-21T09:10:02Z</time></trkpt>
<trkpt lat="46.71281995" lon="7.20266906"><ele>1219.089111</ele><time>2008-06-21T09:10:06Z</time></trkpt>
<trkpt lat="46.71283814" lon="7.20278665"><ele>1219.089111</ele><time>2008-06-21T09:10:13Z</time></trkpt>
<trkpt lat="46.71284795" lon="7.20316585"><ele>1221.011719</ele><time>2008-06-21T09:10:27Z</time></trkpt>
<trkpt lat="46.71268651" lon="7.20341505"><ele>1222.934326</ele><time>2008-06-21T09:10:42Z</time></trkpt>
<trkpt lat="46.71257000" lon="7.20362484"><ele>1224.856934</ele><time>2008-06-21T09:10:54Z</time></trkpt>
<trkpt lat="46.71248057" lon="7.20384755"><ele>1228.22168</ele><time>2008-06-21T09:11:05Z</time></trkpt>
<trkpt lat="46.71247160" lon="7.20386063"><ele>1228.22168</ele><time>2008-06-21T09:11:06Z</time></trkpt>
<trkpt lat="46.71240899" lon="7.20404402"><ele>1230.144287</ele><time>2008-06-21T09:11:16Z</time></trkpt>
<trkpt lat="46.71239113" lon="7.20409641"><ele>1231.105713</ele><time>2008-06-21T09:11:20Z</time></trkpt>
<trkpt lat="46.71242760" lon="7.20434477"><ele>1232.066895</ele><time>2008-06-21T09:11:34Z</time></trkpt>
<trkpt lat="46.71246372" lon="7.20442305"><ele>1232.066895</ele><time>2008-06-21T09:11:39Z</time></trkpt>
<trkpt lat="46.71247294" lon="7.20451458"><ele>1233.028076</ele><time>2008-06-21T09:11:44Z</time></trkpt>
<trkpt lat="46.71250002" lon="7.20457979"><ele>1233.028076</ele><time>2008-06-21T09:11:47Z</time></trkpt>
<trkpt lat="46.71246431" lon="7.20471080"><ele>1234.950928</ele><time>2008-06-21T09:11:54Z</time></trkpt>
<trkpt lat="46.71240153" lon="7.20480259"><ele>1235.912109</ele><time>2008-06-21T09:12:02Z</time></trkpt>
<trkpt lat="46.71234738" lon="7.20472438"><ele>1235.912109</ele><time>2008-06-21T09:12:10Z</time></trkpt>
<trkpt lat="46.71223925" lon="7.20462020"><ele>1236.873291</ele><time>2008-06-21T09:12:20Z</time></trkpt>
<trkpt lat="46.71223917" lon="7.20459404"><ele>1237.834717</ele><time>2008-06-21T09:12:24Z</time></trkpt>
<trkpt lat="46.71218486" lon="7.20439808"><ele>1238.796143</ele><time>2008-06-21T09:12:40Z</time></trkpt>
<trkpt lat="46.71206743" lon="7.20416321"><ele>1243.121826</ele><time>2008-06-21T09:12:54Z</time></trkpt>
<trkpt lat="46.71186006" lon="7.20394176"><ele>1246.006104</ele><time>2008-06-21T09:13:16Z</time></trkpt>
<trkpt lat="46.71165235" lon="7.20353725"><ele>1246.967285</ele><time>2008-06-21T09:13:35Z</time></trkpt>
<trkpt lat="46.71155336" lon="7.20353767"><ele>1246.967285</ele><time>2008-06-21T09:13:38Z</time></trkpt>
<trkpt lat="46.71152612" lon="7.20340708"><ele>1247.928711</ele><time>2008-06-21T09:13:45Z</time></trkpt>
<trkpt lat="46.71151648" lon="7.20311942"><ele>1249.851318</ele><time>2008-06-21T09:14:01Z</time></trkpt>
<trkpt lat="46.71154297" lon="7.20284466"><ele>1250.8125</ele><time>2008-06-21T09:14:15Z</time></trkpt>
<trkpt lat="46.71150642" lon="7.20258323"><ele>1255.138428</ele><time>2008-06-21T09:14:29Z</time></trkpt>
<trkpt lat="46.71147927" lon="7.20250485"><ele>1255.138428</ele><time>2008-06-21T09:14:34Z</time></trkpt>
<trkpt lat="46.71137977" lon="7.20223068"><ele>1257.061035</ele><time>2008-06-21T09:14:51Z</time></trkpt>
<trkpt lat="46.71125321" lon="7.20195659"><ele>1258.022461</ele><time>2008-06-21T09:15:08Z</time></trkpt>
<trkpt lat="46.71125312" lon="7.20190429"><ele>1258.983643</ele><time>2008-06-21T09:15:11Z</time></trkpt>
<trkpt lat="46.71125312" lon="7.20187814"><ele>1258.983643</ele><time>2008-06-21T09:15:14Z</time></trkpt>
<trkpt lat="46.71120778" lon="7.20173447"><ele>1259.944824</ele><time>2008-06-21T09:15:25Z</time></trkpt>
<trkpt lat="46.71117157" lon="7.20161696"><ele>1260.906494</ele><time>2008-06-21T09:15:30Z</time></trkpt>
<trkpt lat="46.71117140" lon="7.20152543"><ele>1260.906494</ele><time>2008-06-21T09:15:35Z</time></trkpt>
<trkpt lat="46.71115313" lon="7.20139467"><ele>1263.790283</ele><time>2008-06-21T09:15:48Z</time></trkpt>
<trkpt lat="46.71110786" lon="7.20125101"><ele>1265.232422</ele><time>2008-06-21T09:15:54Z</time></trkpt>
<trkpt lat="46.71108934" lon="7.20101573"><ele>1266.193604</ele><time>2008-06-21T09:16:02Z</time></trkpt>
<trkpt lat="46.71108012" lon="7.20091112"><ele>1267.155029</ele><time>2008-06-21T09:16:08Z</time></trkpt>
<trkpt lat="46.71105271" lon="7.20068892"><ele>1268.116211</ele><time>2008-06-21T09:16:20Z</time></trkpt>
<trkpt lat="46.71098004" lon="7.20036236"><ele>1270.038818</ele><time>2008-06-21T09:16:36Z</time></trkpt>
<trkpt lat="46.71087183" lon="7.20020587"><ele>1271.961426</ele><time>2008-06-21T09:16:50Z</time></trkpt>
<trkpt lat="46.71069170" lon="7.20011509"><ele>1274.845459</ele><time>2008-06-21T09:17:04Z</time></trkpt>
<trkpt lat="46.71064669" lon="7.20010227"><ele>1274.845459</ele><time>2008-06-21T09:17:08Z</time></trkpt>
<trkpt lat="46.71045793" lon="7.20015541"><ele>1275.806641</ele><time>2008-06-21T09:17:22Z</time></trkpt>
<trkpt lat="46.71038593" lon="7.20014267"><ele>1275.806641</ele><time>2008-06-21T09:17:27Z</time></trkpt>
<trkpt lat="46.71027839" lon="7.20033931"><ele>1276.768311</ele><time>2008-06-21T09:17:38Z</time></trkpt>
<trkpt lat="46.71014386" lon="7.20056218"><ele>1279.171387</ele><time>2008-06-21T09:17:52Z</time></trkpt>
<trkpt lat="46.70999148" lon="7.20079822"><ele>1282.05542</ele><time>2008-06-21T09:18:07Z</time></trkpt>
<trkpt lat="46.70986617" lon="7.20112570"><ele>1283.016602</ele><time>2008-06-21T09:18:26Z</time></trkpt>
<trkpt lat="46.70978562" lon="7.20129610"><ele>1283.978027</ele><time>2008-06-21T09:18:39Z</time></trkpt>
<trkpt lat="46.70977665" lon="7.20130918"><ele>1283.978027</ele><time>2008-06-21T09:18:40Z</time></trkpt>
<trkpt lat="46.70974991" lon="7.20145318"><ele>1285.900635</ele><time>2008-06-21T09:18:49Z</time></trkpt>
<trkpt lat="46.70971412" lon="7.20153180"><ele>1285.900635</ele><time>2008-06-21T09:18:54Z</time></trkpt>
<trkpt lat="46.70971437" lon="7.20166256"><ele>1287.823242</ele><time>2008-06-21T09:19:01Z</time></trkpt>
<trkpt lat="46.70968755" lon="7.20174118"><ele>1288.784668</ele><time>2008-06-21T09:19:06Z</time></trkpt>
<trkpt lat="46.70966098" lon="7.20191125"><ele>1290.226563</ele><time>2008-06-21T09:19:14Z</time></trkpt>
<trkpt lat="46.70966098" lon="7.20193740"><ele>1291.187744</ele><time>2008-06-21T09:19:16Z</time></trkpt>
<trkpt lat="46.70967917" lon="7.20201585"><ele>1291.187744</ele><time>2008-06-21T09:19:20Z</time></trkpt>
<trkpt lat="46.70967062" lon="7.20225122"><ele>1294.072021</ele><time>2008-06-21T09:19:32Z</time></trkpt>
<trkpt lat="46.70975226" lon="7.20257786"><ele>1295.033203</ele><time>2008-06-21T09:19:48Z</time></trkpt>
<trkpt lat="46.70969870" lon="7.20277425"><ele>1296.955811</ele><time>2008-06-21T09:20:01Z</time></trkpt>
<trkpt lat="46.70961807" lon="7.20291842"><ele>1297.917236</ele><time>2008-06-21T09:20:07Z</time></trkpt>
<trkpt lat="46.70954648" lon="7.20310181"><ele>1299.839844</ele><time>2008-06-21T09:20:18Z</time></trkpt>
<trkpt lat="46.70955570" lon="7.20321950"><ele>1299.839844</ele><time>2008-06-21T09:20:21Z</time></trkpt>
<trkpt lat="46.70953785" lon="7.20328496"><ele>1299.839844</ele><time>2008-06-21T09:20:25Z</time></trkpt>
<trkpt lat="46.70951991" lon="7.20331119"><ele>1299.839844</ele><time>2008-06-21T09:20:27Z</time></trkpt>
<trkpt lat="46.70950231" lon="7.20350741"><ele>1300.801025</ele><time>2008-06-21T09:20:38Z</time></trkpt>
<trkpt lat="46.70962930" lon="7.20399071"><ele>1305.126953</ele><time>2008-06-21T09:20:53Z</time></trkpt>
<trkpt lat="46.70970172" lon="7.20422583"><ele>1307.049561</ele><time>2008-06-21T09:21:08Z</time></trkpt>
<trkpt lat="46.70973818" lon="7.20447410"><ele>1308.01123</ele><time>2008-06-21T09:21:22Z</time></trkpt>
<trkpt lat="46.70982862" lon="7.20469605"><ele>1308.972412</ele><time>2008-06-21T09:21:36Z</time></trkpt>
<trkpt lat="46.70995493" lon="7.20490476"><ele>1309.933594</ele><time>2008-06-21T09:21:50Z</time></trkpt>
<trkpt lat="46.71009022" lon="7.20506108"><ele>1311.856445</ele><time>2008-06-21T09:22:02Z</time></trkpt>
<trkpt lat="46.71028837" lon="7.20517793"><ele>1312.817627</ele><time>2008-06-21T09:22:16Z</time></trkpt>
<trkpt lat="46.71045969" lon="7.20536023"><ele>1316.182129</ele><time>2008-06-21T09:22:28Z</time></trkpt>
<trkpt lat="46.71058618" lon="7.20566047"><ele>1317.143555</ele><time>2008-06-21T09:22:44Z</time></trkpt>
<trkpt lat="46.71064971" lon="7.20590866"><ele>1319.066162</ele><time>2008-06-21T09:22:58Z</time></trkpt>
<trkpt lat="46.71075809" lon="7.20611745"><ele>1320.98877</ele><time>2008-06-21T09:23:14Z</time></trkpt>
<trkpt lat="46.71094735" lon="7.20631284"><ele>1322.911377</ele><time>2008-06-21T09:23:31Z</time></trkpt>
<trkpt lat="46.71110057" lon="7.20645600"><ele>1324.834229</ele><time>2008-06-21T09:23:43Z</time></trkpt>
<trkpt lat="46.71127182" lon="7.20662531"><ele>1327.237549</ele><time>2008-06-21T09:23:58Z</time></trkpt>
<trkpt lat="46.71137122" lon="7.20684718"><ele>1329.159912</ele><time>2008-06-21T09:24:10Z</time></trkpt>
<trkpt lat="46.71130853" lon="7.20696512"><ele>1330.121338</ele><time>2008-06-21T09:24:15Z</time></trkpt>
<trkpt lat="46.71121909" lon="7.20725329"><ele>1330.121338</ele><time>2008-06-21T09:24:28Z</time></trkpt>
<trkpt lat="46.71118322" lon="7.20729260"><ele>1330.121338</ele><time>2008-06-21T09:24:37Z</time></trkpt>
<trkpt lat="46.71113812" lon="7.20724055"><ele>1331.082764</ele><time>2008-06-21T09:24:53Z</time></trkpt>
<trkpt lat="46.71111122" lon="7.20726678"><ele>1331.082764</ele><time>2008-06-21T09:26:56Z</time></trkpt>
<trkpt lat="46.71103033" lon="7.20730634"><ele>1330.121338</ele><time>2008-06-21T09:27:01Z</time></trkpt>
<trkpt lat="46.71068860" lon="7.20734708"><ele>1333.005127</ele><time>2008-06-21T09:27:19Z</time></trkpt>
<trkpt lat="46.71039180" lon="7.20737449"><ele>1334.927979</ele><time>2008-06-21T09:27:35Z</time></trkpt>
<trkpt lat="46.71010422" lon="7.20749343"><ele>1334.927979</ele><time>2008-06-21T09:27:49Z</time></trkpt>
<trkpt lat="46.70972653" lon="7.20758655"><ele>1337.811768</ele><time>2008-06-21T09:28:07Z</time></trkpt>
<trkpt lat="46.70939393" lon="7.20767951"><ele>1338.773193</ele><time>2008-06-21T09:28:23Z</time></trkpt>
<trkpt lat="46.70914231" lon="7.20779828"><ele>1340.215332</ele><time>2008-06-21T09:28:37Z</time></trkpt>
<trkpt lat="46.70885447" lon="7.20783876"><ele>1341.176514</ele><time>2008-06-21T09:28:51Z</time></trkpt>
<trkpt lat="46.70846765" lon="7.20781429"><ele>1342.137939</ele><time>2008-06-21T09:29:07Z</time></trkpt>
<trkpt lat="46.70839556" lon="7.20774916"><ele>1342.137939</ele><time>2008-06-21T09:29:11Z</time></trkpt>
<trkpt lat="46.70813397" lon="7.20738413"><ele>1344.060547</ele><time>2008-06-21T09:29:30Z</time></trkpt>
<trkpt lat="46.70793548" lon="7.20709730"><ele>1345.021729</ele><time>2008-06-21T09:29:45Z</time></trkpt>
<trkpt lat="46.70787228" lon="7.20701910"><ele>1345.021729</ele><time>2008-06-21T09:29:51Z</time></trkpt>
<trkpt lat="46.70780020" lon="7.20695405"><ele>1345.983154</ele><time>2008-06-21T09:29:56Z</time></trkpt>
<trkpt lat="46.70761102" lon="7.20682413"><ele>1347.905762</ele><time>2008-06-21T09:30:08Z</time></trkpt>
<trkpt lat="46.70738596" lon="7.20672045"><ele>1349.828369</ele><time>2008-06-21T09:30:22Z</time></trkpt>
<trkpt lat="46.70708899" lon="7.20665633"><ele>1353.192871</ele><time>2008-06-21T09:30:39Z</time></trkpt>
<trkpt lat="46.70707097" lon="7.20666949"><ele>1353.192871</ele><time>2008-06-21T09:30:40Z</time></trkpt>
<trkpt lat="46.70680149" lon="7.20682757"><ele>1355.115479</ele><time>2008-06-21T09:30:55Z</time></trkpt>
<trkpt lat="46.70662187" lon="7.20698523"><ele>1355.115479</ele><time>2008-06-21T09:31:08Z</time></trkpt>
<trkpt lat="46.70659488" lon="7.20699848"><ele>1356.076904</ele><time>2008-06-21T09:31:10Z</time></trkpt>
<trkpt lat="46.70635214" lon="7.20705179"><ele>1357.03833</ele><time>2008-06-21T09:31:24Z</time></trkpt>
<trkpt lat="46.70627109" lon="7.20701289"><ele>1357.03833</ele><time>2008-06-21T09:31:30Z</time></trkpt>
<trkpt lat="46.70600999" lon="7.20690946"><ele>1358.960938</ele><time>2008-06-21T09:31:45Z</time></trkpt>
<trkpt lat="46.70593782" lon="7.20679203"><ele>1360.883545</ele><time>2008-06-21T09:31:56Z</time></trkpt>
<trkpt lat="46.70588359" lon="7.20666152"><ele>1362.806152</ele><time>2008-06-21T09:32:03Z</time></trkpt>
<trkpt lat="46.70586540" lon="7.20658315"><ele>1362.806152</ele><time>2008-06-21T09:32:07Z</time></trkpt>
<trkpt lat="46.70581134" lon="7.20651803"><ele>1362.806152</ele><time>2008-06-21T09:32:13Z</time></trkpt>
<trkpt lat="46.70577521" lon="7.20645273"><ele>1363.767334</ele><time>2008-06-21T09:32:17Z</time></trkpt>
<trkpt lat="46.70574814" lon="7.20641367"><ele>1363.767334</ele><time>2008-06-21T09:32:19Z</time></trkpt>
<trkpt lat="46.70571210" lon="7.20637461"><ele>1365.209473</ele><time>2008-06-21T09:32:23Z</time></trkpt>
<trkpt lat="46.70563993" lon="7.20628333"><ele>1365.209473</ele><time>2008-06-21T09:32:29Z</time></trkpt>
<trkpt lat="46.70559484" lon="7.20621812"><ele>1366.170654</ele><time>2008-06-21T09:32:35Z</time></trkpt>
<trkpt lat="46.70556768" lon="7.20613983"><ele>1366.170654</ele><time>2008-06-21T09:32:40Z</time></trkpt>
<trkpt lat="46.70551353" lon="7.20606163"><ele>1367.13208</ele><time>2008-06-21T09:32:46Z</time></trkpt>
<trkpt lat="46.70546819" lon="7.20589181"><ele>1368.093262</ele><time>2008-06-21T09:32:52Z</time></trkpt>
<trkpt lat="46.70538680" lon="7.20565679"><ele>1370.977295</ele><time>2008-06-21T09:33:06Z</time></trkpt>
<trkpt lat="46.70530558" lon="7.20552636"><ele>1373.861328</ele><time>2008-06-21T09:33:15Z</time></trkpt>
<trkpt lat="46.70522402" lon="7.20522596"><ele>1377.226074</ele><time>2008-06-21T09:33:30Z</time></trkpt>
<trkpt lat="46.70521497" lon="7.20521296"><ele>1375.783936</ele><time>2008-06-21T09:33:31Z</time></trkpt>
<trkpt lat="46.70520592" lon="7.20519989"><ele>1377.226074</ele><time>2008-06-21T09:33:32Z</time></trkpt>
<trkpt lat="46.70512453" lon="7.20496486"><ele>1378.187256</ele><time>2008-06-21T09:33:48Z</time></trkpt>
<trkpt lat="46.70511506" lon="7.20475565"><ele>1382.032471</ele><time>2008-06-21T09:34:07Z</time></trkpt>
<trkpt lat="46.70501556" lon="7.20448148"><ele>1382.993652</ele><time>2008-06-21T09:34:28Z</time></trkpt>
<trkpt lat="46.70502411" lon="7.20428534"><ele>1383.955078</ele><time>2008-06-21T09:34:44Z</time></trkpt>
<trkpt lat="46.70508664" lon="7.20406280"><ele>1388.761963</ele><time>2008-06-21T09:35:04Z</time></trkpt>
<trkpt lat="46.70513115" lon="7.20384026"><ele>1391.165039</ele><time>2008-06-21T09:35:27Z</time></trkpt>
<trkpt lat="46.70513961" lon="7.20356567"><ele>1394.049072</ele><time>2008-06-21T09:35:50Z</time></trkpt>
<trkpt lat="46.70513031" lon="7.20342183"><ele>1394.049072</ele><time>2008-06-21T09:36:11Z</time></trkpt>
<trkpt lat="46.70511212" lon="7.20330424"><ele>1395.97168</ele><time>2008-06-21T09:36:22Z</time></trkpt>
<trkpt lat="46.70512947" lon="7.20302956"><ele>1396.932861</ele><time>2008-06-21T09:36:43Z</time></trkpt>
<trkpt lat="46.70512914" lon="7.20285958"><ele>1400.778076</ele><time>2008-06-21T09:36:58Z</time></trkpt>
<trkpt lat="46.70517348" lon="7.20255858"><ele>1404.143066</ele><time>2008-06-21T09:37:22Z</time></trkpt>
<trkpt lat="46.70519108" lon="7.20233621"><ele>1404.143066</ele><time>2008-06-21T09:37:39Z</time></trkpt>
<trkpt lat="46.70521757" lon="7.20210076"><ele>1405.104248</ele><time>2008-06-21T09:37:58Z</time></trkpt>
<trkpt lat="46.70520835" lon="7.20199616"><ele>1407.988281</ele><time>2008-06-21T09:38:07Z</time></trkpt>
<trkpt lat="46.70520818" lon="7.20193078"><ele>1408.949463</ele><time>2008-06-21T09:38:12Z</time></trkpt>
<trkpt lat="46.70516275" lon="7.20169567"><ele>1410.87207</ele><time>2008-06-21T09:38:33Z</time></trkpt>
<trkpt lat="46.70510827" lon="7.20146047"><ele>1412.794678</ele><time>2008-06-21T09:38:54Z</time></trkpt>
<trkpt lat="46.70500877" lon="7.20119937"><ele>1415.197998</ele><time>2008-06-21T09:39:21Z</time></trkpt>
<trkpt lat="46.70496343" lon="7.20102964"><ele>1415.197998</ele><time>2008-06-21T09:39:30Z</time></trkpt>
<trkpt lat="46.70490945" lon="7.20102989"><ele>1416.15918</ele><time>2008-06-21T09:39:49Z</time></trkpt>
<trkpt lat="46.70484625" lon="7.20089938"><ele>1417.120605</ele><time>2008-06-21T09:40:41Z</time></trkpt>
<trkpt lat="46.70472873" lon="7.20065145"><ele>1420.004639</ele><time>2008-06-21T09:40:58Z</time></trkpt>
<trkpt lat="46.70465631" lon="7.20041642"><ele>1420.966064</ele><time>2008-06-21T09:41:11Z</time></trkpt>
<trkpt lat="46.70455699" lon="7.20023378"><ele>1423.849854</ele><time>2008-06-21T09:41:22Z</time></trkpt>
<trkpt lat="46.70452086" lon="7.20018164"><ele>1423.849854</ele><time>2008-06-21T09:41:26Z</time></trkpt>
<trkpt lat="46.70449379" lon="7.20012942"><ele>1425.772461</ele><time>2008-06-21T09:41:31Z</time></trkpt>
<trkpt lat="46.70445766" lon="7.20003806"><ele>1425.772461</ele><time>2008-06-21T09:41:36Z</time></trkpt>
<trkpt lat="46.70443051" lon="7.19995969"><ele>1427.2146</ele><time>2008-06-21T09:41:41Z</time></trkpt>
<trkpt lat="46.70440318" lon="7.19982910"><ele>1428.175781</ele><time>2008-06-21T09:41:47Z</time></trkpt>
<trkpt lat="46.70434903" lon="7.19971167"><ele>1430.098389</ele><time>2008-06-21T09:41:55Z</time></trkpt>
<trkpt lat="46.70435783" lon="7.19962006"><ele>1431.059814</ele><time>2008-06-21T09:41:57Z</time></trkpt>
<trkpt lat="46.70432171" lon="7.19955484"><ele>1432.020996</ele><time>2008-06-21T09:42:02Z</time></trkpt>
<trkpt lat="46.70419523" lon="7.19932007"><ele>1432.982178</ele><time>2008-06-21T09:42:18Z</time></trkpt>
<trkpt lat="46.70405994" lon="7.19912452"><ele>1436.827637</ele><time>2008-06-21T09:42:35Z</time></trkpt>
<trkpt lat="46.70397839" lon="7.19886334"><ele>1440.192383</ele><time>2008-06-21T09:42:52Z</time></trkpt>
<trkpt lat="46.70390580" lon="7.19857601"><ele>1442.11499</ele><time>2008-06-21T09:43:07Z</time></trkpt>
<trkpt lat="46.70387872" lon="7.19852379"><ele>1443.076172</ele><time>2008-06-21T09:43:10Z</time></trkpt>
<trkpt lat="46.70378837" lon="7.19834114"><ele>1444.037598</ele><time>2008-06-21T09:43:20Z</time></trkpt>
<trkpt lat="46.70375224" lon="7.19826286"><ele>1444.037598</ele><time>2008-06-21T09:43:24Z</time></trkpt>
<trkpt lat="46.70372517" lon="7.19823679"><ele>1444.998779</ele><time>2008-06-21T09:43:27Z</time></trkpt>
<trkpt lat="46.70369809" lon="7.19819773"><ele>1444.998779</ele><time>2008-06-21T09:43:31Z</time></trkpt>
<trkpt lat="46.70359869" lon="7.19796279"><ele>1447.882813</ele><time>2008-06-21T09:43:45Z</time></trkpt>
<trkpt lat="46.70349039" lon="7.19778023"><ele>1448.843994</ele><time>2008-06-21T09:43:59Z</time></trkpt>
<trkpt lat="46.70340003" lon="7.19759759"><ele>1453.170166</ele><time>2008-06-21T09:44:11Z</time></trkpt>
<trkpt lat="46.70335477" lon="7.19745392"><ele>1455.092773</ele><time>2008-06-21T09:44:19Z</time></trkpt>
<trkpt lat="46.70331865" lon="7.19738871"><ele>1456.053955</ele><time>2008-06-21T09:44:24Z</time></trkpt>
<trkpt lat="46.70325528" lon="7.19721898"><ele>1457.015381</ele><time>2008-06-21T09:44:34Z</time></trkpt>
<trkpt lat="46.70314690" lon="7.19699719"><ele>1459.89917</ele><time>2008-06-21T09:44:49Z</time></trkpt>
<trkpt lat="46.70301145" lon="7.19677549"><ele>1461.822021</ele><time>2008-06-21T09:45:06Z</time></trkpt>
<trkpt lat="46.70290316" lon="7.19659293"><ele>1465.186523</ele><time>2008-06-21T09:45:19Z</time></trkpt>
<trkpt lat="46.70288505" lon="7.19654071"><ele>1465.186523</ele><time>2008-06-21T09:45:23Z</time></trkpt>
<trkpt lat="46.70285781" lon="7.19644926"><ele>1466.147705</ele><time>2008-06-21T09:45:27Z</time></trkpt>
<trkpt lat="46.70283074" lon="7.19639713"><ele>1468.070557</ele><time>2008-06-21T09:45:30Z</time></trkpt>
<trkpt lat="46.70281246" lon="7.19626646"><ele>1468.070557</ele><time>2008-06-21T09:45:36Z</time></trkpt>
<trkpt lat="46.70267701" lon="7.19603168"><ele>1469.031982</ele><time>2008-06-21T09:45:50Z</time></trkpt>
<trkpt lat="46.70255078" lon="7.19587536"><ele>1471.915771</ele><time>2008-06-21T09:46:03Z</time></trkpt>
<trkpt lat="46.70242455" lon="7.19574519"><ele>1473.838379</ele><time>2008-06-21T09:46:14Z</time></trkpt>
<trkpt lat="46.70235230" lon="7.19561476"><ele>1477.203125</ele><time>2008-06-21T09:46:24Z</time></trkpt>
<trkpt lat="46.70227108" lon="7.19548434"><ele>1478.164307</ele><time>2008-06-21T09:46:38Z</time></trkpt>
<trkpt lat="46.70218986" lon="7.19536699"><ele>1481.04834</ele><time>2008-06-21T09:46:53Z</time></trkpt>
<trkpt lat="46.70207251" lon="7.19517144"><ele>1482.009521</ele><time>2008-06-21T09:47:13Z</time></trkpt>
<trkpt lat="46.70202733" lon="7.19505393"><ele>1482.970703</ele><time>2008-06-21T09:47:22Z</time></trkpt>
<trkpt lat="46.70200923" lon="7.19500171"><ele>1482.970703</ele><time>2008-06-21T09:47:27Z</time></trkpt>
<trkpt lat="46.70190085" lon="7.19483223"><ele>1485.85498</ele><time>2008-06-21T09:47:45Z</time></trkpt>
<trkpt lat="46.70182860" lon="7.19468873"><ele>1486.816162</ele><time>2008-06-21T09:48:01Z</time></trkpt>
<trkpt lat="46.70172030" lon="7.19453232"><ele>1491.14209</ele><time>2008-06-21T09:48:16Z</time></trkpt>
<trkpt lat="46.70162106" lon="7.19440199"><ele>1492.103516</ele><time>2008-06-21T09:48:31Z</time></trkpt>
<trkpt lat="46.70149491" lon="7.19429797"><ele>1494.026123</ele><time>2008-06-21T09:48:47Z</time></trkpt>
<trkpt lat="46.70144085" lon="7.19423284"><ele>1494.987305</ele><time>2008-06-21T09:48:55Z</time></trkpt>
<trkpt lat="46.70134161" lon="7.19410250"><ele>1496.909912</ele><time>2008-06-21T09:49:10Z</time></trkpt>
<trkpt lat="46.70126030" lon="7.19394601"><ele>1497.871338</ele><time>2008-06-21T09:49:26Z</time></trkpt>
<trkpt lat="46.70115218" lon="7.19386806"><ele>1499.793945</ele><time>2008-06-21T09:49:42Z</time></trkpt>
<trkpt lat="46.70105310" lon="7.19380310"><ele>1502.197266</ele><time>2008-06-21T09:49:53Z</time></trkpt>
<trkpt lat="46.70092687" lon="7.19368600"><ele>1503.158691</ele><time>2008-06-21T09:50:10Z</time></trkpt>
<trkpt lat="46.70093592" lon="7.19368600"><ele>1503.158691</ele><time>2008-06-21T09:50:42Z</time></trkpt>
<trkpt lat="46.70086367" lon="7.19358173"><ele>1504.120117</ele><time>2008-06-21T09:51:07Z</time></trkpt>
<trkpt lat="46.70070148" lon="7.19342549"><ele>1506.04248</ele><time>2008-06-21T09:51:20Z</time></trkpt>
<trkpt lat="46.70060216" lon="7.19325601"><ele>1507.003906</ele><time>2008-06-21T09:51:31Z</time></trkpt>
<trkpt lat="46.70057500" lon="7.19319072"><ele>1508.926514</ele><time>2008-06-21T09:51:35Z</time></trkpt>
<trkpt lat="46.70046654" lon="7.19295586"><ele>1511.810547</ele><time>2008-06-21T09:51:50Z</time></trkpt>
<trkpt lat="46.70033989" lon="7.19261647"><ele>1514.213623</ele><time>2008-06-21T09:52:08Z</time></trkpt>
<trkpt lat="46.70021357" lon="7.19243400"><ele>1515.175049</ele><time>2008-06-21T09:52:21Z</time></trkpt>
<trkpt lat="46.70004191" lon="7.19209487"><ele>1515.175049</ele><time>2008-06-21T09:52:37Z</time></trkpt>
<trkpt lat="46.69988844" lon="7.19182103"><ele>1518.059082</ele><time>2008-06-21T09:52:52Z</time></trkpt>
<trkpt lat="46.69965399" lon="7.19159975"><ele>1519.981689</ele><time>2008-06-21T09:53:10Z</time></trkpt>
<trkpt lat="46.69956381" lon="7.19146949"><ele>1522.865723</ele><time>2008-06-21T09:53:19Z</time></trkpt>
<trkpt lat="46.69955475" lon="7.19145642"><ele>1522.865723</ele><time>2008-06-21T09:53:20Z</time></trkpt>
<trkpt lat="46.69953673" lon="7.19141727"><ele>1523.826904</ele><time>2008-06-21T09:53:22Z</time></trkpt>
<trkpt lat="46.69935627" lon="7.19119582"><ele>1527.19165</ele><time>2008-06-21T09:53:38Z</time></trkpt>
<trkpt lat="46.69927513" lon="7.19107856"><ele>1528.152832</ele><time>2008-06-21T09:53:47Z</time></trkpt>
<trkpt lat="46.69917589" lon="7.19096130"><ele>1528.152832</ele><time>2008-06-21T09:54:04Z</time></trkpt>
<trkpt lat="46.69910364" lon="7.19081780"><ele>1531.036865</ele><time>2008-06-21T09:54:17Z</time></trkpt>
<trkpt lat="46.69898638" lon="7.19067455"><ele>1531.998047</ele><time>2008-06-21T09:54:35Z</time></trkpt>
<trkpt lat="46.69888688" lon="7.19045268"><ele>1534.882324</ele><time>2008-06-21T09:54:54Z</time></trkpt>
<trkpt lat="46.69881463" lon="7.19028312"><ele>1535.843506</ele><time>2008-06-21T09:55:11Z</time></trkpt>
<trkpt lat="46.69873324" lon="7.19011347"><ele>1540.169434</ele><time>2008-06-21T09:55:29Z</time></trkpt>
<trkpt lat="46.69865185" lon="7.18991775"><ele>1542.092041</ele><time>2008-06-21T09:55:48Z</time></trkpt>
<trkpt lat="46.69861564" lon="7.18978716"><ele>1542.092041</ele><time>2008-06-21T09:56:07Z</time></trkpt>
<trkpt lat="46.69845312" lon="7.18952640"><ele>1544.014648</ele><time>2008-06-21T09:56:22Z</time></trkpt>
<trkpt lat="46.69832672" lon="7.18931777"><ele>1546.898438</ele><time>2008-06-21T09:56:35Z</time></trkpt>
<trkpt lat="46.69831767" lon="7.18930478"><ele>1546.898438</ele><time>2008-06-21T09:56:36Z</time></trkpt>
<trkpt lat="46.69823603" lon="7.18897831"><ele>1547.859863</ele><time>2008-06-21T09:56:53Z</time></trkpt>
<trkpt lat="46.69818180" lon="7.18887395"><ele>1549.782715</ele><time>2008-06-21T09:57:01Z</time></trkpt>
<trkpt lat="46.69808256" lon="7.18873054"><ele>1553.147217</ele><time>2008-06-21T09:57:11Z</time></trkpt>
<trkpt lat="46.69792028" lon="7.18857447"><ele>1556.031006</ele><time>2008-06-21T09:57:26Z</time></trkpt>
<trkpt lat="46.69777595" lon="7.18837900"><ele>1556.031006</ele><time>2008-06-21T09:57:42Z</time></trkpt>
<trkpt lat="46.69771283" lon="7.18831387"><ele>1557.953857</ele><time>2008-06-21T09:57:48Z</time></trkpt>
<trkpt lat="46.69759540" lon="7.18809217"><ele>1561.799072</ele><time>2008-06-21T09:58:02Z</time></trkpt>
<trkpt lat="46.69755919" lon="7.18798773"><ele>1561.799072</ele><time>2008-06-21T09:58:08Z</time></trkpt>
<trkpt lat="46.69745961" lon="7.18770057"><ele>1564.202393</ele><time>2008-06-21T09:58:24Z</time></trkpt>
<trkpt lat="46.69736909" lon="7.18742640"><ele>1566.125</ele><time>2008-06-21T09:58:38Z</time></trkpt>
<trkpt lat="46.69720648" lon="7.18711342"><ele>1566.125</ele><time>2008-06-21T09:58:52Z</time></trkpt>
<trkpt lat="46.69718837" lon="7.18708735"><ele>1566.125</ele><time>2008-06-21T09:58:53Z</time></trkpt>
<trkpt lat="46.69703457" lon="7.18666968"><ele>1562.760254</ele><time>2008-06-21T09:59:04Z</time></trkpt>
<trkpt lat="46.69656526" lon="7.18597893"><ele>1562.760254</ele><time>2008-06-21T09:59:20Z</time></trkpt>
<trkpt lat="46.69643903" lon="7.18586183"><ele>1560.837646</ele><time>2008-06-21T09:59:24Z</time></trkpt>
<trkpt lat="46.69633987" lon="7.18577080"><ele>1559.876221</ele><time>2008-06-21T09:59:27Z</time></trkpt>
<trkpt lat="46.69618674" lon="7.18566695"><ele>1560.837646</ele><time>2008-06-21T09:59:31Z</time></trkpt>
<trkpt lat="46.69606042" lon="7.18551063"><ele>1559.876221</ele><time>2008-06-21T09:59:35Z</time></trkpt>
<trkpt lat="46.69578969" lon="7.18509355"><ele>1560.837646</ele><time>2008-06-21T09:59:46Z</time></trkpt>
<trkpt lat="46.69571743" lon="7.18498928"><ele>1561.799072</ele><time>2008-06-21T09:59:50Z</time></trkpt>
<trkpt lat="46.69548308" lon="7.18474201"><ele>1561.799072</ele><time>2008-06-21T10:00:02Z</time></trkpt>
<trkpt lat="46.69534788" lon="7.18463799"><ele>1561.799072</ele><time>2008-06-21T10:00:09Z</time></trkpt>
<trkpt lat="46.69522190" lon="7.18462550"><ele>1561.799072</ele><time>2008-06-21T10:00:15Z</time></trkpt>
<trkpt lat="46.69483515" lon="7.18465350"><ele>1562.760254</ele><time>2008-06-21T10:00:31Z</time></trkpt>
<trkpt lat="46.69456501" lon="7.18451092"><ele>1565.163818</ele><time>2008-06-21T10:00:44Z</time></trkpt>
<trkpt lat="46.69455595" lon="7.18449793"><ele>1565.163818</ele><time>2008-06-21T10:00:58Z</time></trkpt>
<trkpt lat="46.69442092" lon="7.18444630"><ele>1566.125</ele><time>2008-06-21T10:01:25Z</time></trkpt>
<trkpt lat="46.69431288" lon="7.18442065"><ele>1566.125</ele><time>2008-06-21T10:01:39Z</time></trkpt>
<trkpt lat="46.69421389" lon="7.18440799"><ele>1568.047607</ele><time>2008-06-21T10:01:53Z</time></trkpt>
<trkpt lat="46.69402496" lon="7.18439584"><ele>1569.009033</ele><time>2008-06-21T10:02:34Z</time></trkpt>
<trkpt lat="46.69381809" lon="7.18440992"><ele>1569.970215</ele><time>2008-06-21T10:02:47Z</time></trkpt>
<trkpt lat="46.69379110" lon="7.18441000"><ele>1569.970215</ele><time>2008-06-21T10:02:49Z</time></trkpt>
<trkpt lat="46.69358432" lon="7.18443716"><ele>1570.931641</ele><time>2008-06-21T10:03:05Z</time></trkpt>
<trkpt lat="46.69333236" lon="7.18442526"><ele>1573.81543</ele><time>2008-06-21T10:03:23Z</time></trkpt>
<trkpt lat="46.69327838" lon="7.18441243"><ele>1573.81543</ele><time>2008-06-21T10:03:27Z</time></trkpt>
<trkpt lat="46.69302642" lon="7.18437438"><ele>1576.21875</ele><time>2008-06-21T10:03:43Z</time></trkpt>
<trkpt lat="46.69281051" lon="7.18434923"><ele>1577.180176</ele><time>2008-06-21T10:03:57Z</time></trkpt>
<trkpt lat="46.69257640" lon="7.18425888"><ele>1581.025635</ele><time>2008-06-21T10:04:14Z</time></trkpt>
<trkpt lat="46.69242343" lon="7.18424647"><ele>1581.025635</ele><time>2008-06-21T10:04:26Z</time></trkpt>
<trkpt lat="46.69227046" lon="7.18423415"><ele>1584.87085</ele><time>2008-06-21T10:04:39Z</time></trkpt>
<trkpt lat="46.69213543" lon="7.18416944"><ele>1585.832031</ele><time>2008-06-21T10:04:49Z</time></trkpt>
<trkpt lat="46.69195547" lon="7.18414413"><ele>1589.196533</ele><time>2008-06-21T10:05:06Z</time></trkpt>
<trkpt lat="46.69183837" lon="7.18409241"><ele>1590.157959</ele><time>2008-06-21T10:05:21Z</time></trkpt>
<trkpt lat="46.69171231" lon="7.18404070"><ele>1591.119141</ele><time>2008-06-21T10:05:36Z</time></trkpt>
<trkpt lat="46.69155029" lon="7.18397607"><ele>1592.080566</ele><time>2008-06-21T10:05:52Z</time></trkpt>
<trkpt lat="46.69138818" lon="7.18388529"><ele>1591.119141</ele><time>2008-06-21T10:06:09Z</time></trkpt>
<trkpt lat="46.69118995" lon="7.18375554"><ele>1591.119141</ele><time>2008-06-21T10:06:27Z</time></trkpt>
<trkpt lat="46.69104595" lon="7.18373006"><ele>1593.041748</ele><time>2008-06-21T10:06:43Z</time></trkpt>
<trkpt lat="46.69094704" lon="7.18374364"><ele>1595.925781</ele><time>2008-06-21T10:06:56Z</time></trkpt>
<trkpt lat="46.69086624" lon="7.18379628"><ele>1597.848633</ele><time>2008-06-21T10:07:11Z</time></trkpt>
<trkpt lat="46.69075828" lon="7.18382293"><ele>1601.213135</ele><time>2008-06-21T10:07:28Z</time></trkpt>
<trkpt lat="46.69074043" lon="7.18384917"><ele>1601.213135</ele><time>2008-06-21T10:07:31Z</time></trkpt>
<trkpt lat="46.69072249" lon="7.18387540"><ele>1601.213135</ele><time>2008-06-21T10:07:34Z</time></trkpt>
<trkpt lat="46.69067773" lon="7.18399325"><ele>1603.135742</ele><time>2008-06-21T10:07:48Z</time></trkpt>
<trkpt lat="46.69067773" lon="7.18400633"><ele>1605.05835</ele><time>2008-06-21T10:07:51Z</time></trkpt>
<trkpt lat="46.69058813" lon="7.18413751"><ele>1604.097168</ele><time>2008-06-21T10:08:09Z</time></trkpt>
<trkpt lat="46.69048034" lon="7.18422954"><ele>1604.097168</ele><time>2008-06-21T10:08:23Z</time></trkpt>
<trkpt lat="46.69042636" lon="7.18420364"><ele>1604.097168</ele><time>2008-06-21T10:08:36Z</time></trkpt>
<trkpt lat="46.69040834" lon="7.18420372"><ele>1604.097168</ele><time>2008-06-21T10:08:57Z</time></trkpt>
<trkpt lat="46.69011103" lon="7.18399594"><ele>1603.135742</ele><time>2008-06-21T10:09:13Z</time></trkpt>
<trkpt lat="46.68982286" lon="7.18385353"><ele>1601.213135</ele><time>2008-06-21T10:09:26Z</time></trkpt>
<trkpt lat="46.68958833" lon="7.18356703"><ele>1599.77124</ele><time>2008-06-21T10:09:40Z</time></trkpt>
<trkpt lat="46.68929983" lon="7.18329387"><ele>1597.848633</ele><time>2008-06-21T10:09:53Z</time></trkpt>
<trkpt lat="46.68920972" lon="7.18321583"><ele>1597.848633</ele><time>2008-06-21T10:09:58Z</time></trkpt>
<trkpt lat="46.68914652" lon="7.18312464"><ele>1597.848633</ele><time>2008-06-21T10:10:03Z</time></trkpt>
<trkpt lat="46.68893036" lon="7.18298189"><ele>1597.848633</ele><time>2008-06-21T10:10:18Z</time></trkpt>
<trkpt lat="46.68867814" lon="7.18283923"><ele>1597.848633</ele><time>2008-06-21T10:10:33Z</time></trkpt>
<trkpt lat="46.68845292" lon="7.18269657"><ele>1599.77124</ele><time>2008-06-21T10:10:49Z</time></trkpt>
<trkpt lat="46.68829073" lon="7.18256657"><ele>1599.77124</ele><time>2008-06-21T10:11:01Z</time></trkpt>
<trkpt lat="46.68823667" lon="7.18252759"><ele>1601.213135</ele><time>2008-06-21T10:11:05Z</time></trkpt>
<trkpt lat="46.68802938" lon="7.18234562"><ele>1601.213135</ele><time>2008-06-21T10:11:20Z</time></trkpt>
<trkpt lat="46.68788522" lon="7.18225476"><ele>1602.174316</ele><time>2008-06-21T10:11:30Z</time></trkpt>
<trkpt lat="46.68775907" lon="7.18217698"><ele>1604.097168</ele><time>2008-06-21T10:11:39Z</time></trkpt>
<trkpt lat="46.68753385" lon="7.18199501"><ele>1605.05835</ele><time>2008-06-21T10:11:54Z</time></trkpt>
<trkpt lat="46.68730854" lon="7.18182611"><ele>1605.05835</ele><time>2008-06-21T10:12:06Z</time></trkpt>
<trkpt lat="46.68709229" lon="7.18165722"><ele>1606.019531</ele><time>2008-06-21T10:12:20Z</time></trkpt>
<trkpt lat="46.68688509" lon="7.18151439"><ele>1606.980957</ele><time>2008-06-21T10:12:34Z</time></trkpt>
<trkpt lat="46.68664184" lon="7.18137181"><ele>1606.980957</ele><time>2008-06-21T10:12:48Z</time></trkpt>
<trkpt lat="46.68626382" lon="7.18128213"><ele>1606.019531</ele><time>2008-06-21T10:13:02Z</time></trkpt>
<trkpt lat="46.68594874" lon="7.18116595"><ele>1606.019531</ele><time>2008-06-21T10:13:15Z</time></trkpt>
<trkpt lat="46.68593072" lon="7.18116604"><ele>1605.05835</ele><time>2008-06-21T10:13:16Z</time></trkpt>
<trkpt lat="46.68575093" lon="7.18120610"><ele>1605.05835</ele><time>2008-06-21T10:13:26Z</time></trkpt>
<trkpt lat="46.68548112" lon="7.18124659"><ele>1605.05835</ele><time>2008-06-21T10:13:37Z</time></trkpt>
<trkpt lat="46.68518431" lon="7.18126109"><ele>1605.05835</ele><time>2008-06-21T10:13:49Z</time></trkpt>
<trkpt lat="46.68481526" lon="7.18117132"><ele>1601.213135</ele><time>2008-06-21T10:14:02Z</time></trkpt>
<trkpt lat="46.68444612" lon="7.18102933"><ele>1597.848633</ele><time>2008-06-21T10:14:12Z</time></trkpt>
<trkpt lat="46.68428418" lon="7.18100393"><ele>1595.925781</ele><time>2008-06-21T10:14:16Z</time></trkpt>
<trkpt lat="46.68414001" lon="7.18088700"><ele>1594.003174</ele><time>2008-06-21T10:14:20Z</time></trkpt>
<trkpt lat="46.68398671" lon="7.18073085"><ele>1591.119141</ele><time>2008-06-21T10:14:24Z</time></trkpt>
<trkpt lat="46.68366225" lon="7.18045793"><ele>1591.119141</ele><time>2008-06-21T10:14:36Z</time></trkpt>
<trkpt lat="46.68347290" lon="7.18024973"><ele>1590.157959</ele><time>2008-06-21T10:14:47Z</time></trkpt>
<trkpt lat="46.68340098" lon="7.18027622"><ele>1585.832031</ele><time>2008-06-21T10:14:50Z</time></trkpt>
<trkpt lat="46.68332915" lon="7.18034193"><ele>1584.87085</ele><time>2008-06-21T10:14:52Z</time></trkpt>
<trkpt lat="46.68325732" lon="7.18038141"><ele>1583.909424</ele><time>2008-06-21T10:14:54Z</time></trkpt>
<trkpt lat="46.68277116" lon="7.18022693"><ele>1582.947998</ele><time>2008-06-21T10:15:07Z</time></trkpt>
<trkpt lat="46.68239306" lon="7.18009802"><ele>1581.986816</ele><time>2008-06-21T10:15:21Z</time></trkpt>
<trkpt lat="46.68198813" lon="7.18002157"><ele>1579.102539</ele><time>2008-06-21T10:15:34Z</time></trkpt>
<trkpt lat="46.68185301" lon="7.17995686"><ele>1578.141357</ele><time>2008-06-21T10:15:37Z</time></trkpt>
<trkpt lat="46.68126770" lon="7.17971127"><ele>1578.141357</ele><time>2008-06-21T10:15:51Z</time></trkpt>
<trkpt lat="46.68101566" lon="7.17962100"><ele>1580.064209</ele><time>2008-06-21T10:16:05Z</time></trkpt>
<trkpt lat="46.68076378" lon="7.17960918"><ele>1581.025635</ele><time>2008-06-21T10:16:20Z</time></trkpt>
<trkpt lat="46.68066463" lon="7.17954431"><ele>1582.947998</ele><time>2008-06-21T10:16:34Z</time></trkpt>
<trkpt lat="46.68064669" lon="7.17954439"><ele>1582.947998</ele><time>2008-06-21T10:16:35Z</time></trkpt>
<trkpt lat="46.68052968" lon="7.17951874"><ele>1583.909424</ele><time>2008-06-21T10:16:47Z</time></trkpt>
<trkpt lat="46.68040370" lon="7.17949326"><ele>1584.87085</ele><time>2008-06-21T10:17:00Z</time></trkpt>
<trkpt lat="46.68026858" lon="7.17944163"><ele>1585.832031</ele><time>2008-06-21T10:17:14Z</time></trkpt>
<trkpt lat="46.68016071" lon="7.17945521"><ele>1586.793213</ele><time>2008-06-21T10:17:27Z</time></trkpt>
<trkpt lat="46.68013372" lon="7.17945529"><ele>1588.235352</ele><time>2008-06-21T10:17:29Z</time></trkpt>
<trkpt lat="46.68005266" lon="7.17941648"><ele>1589.196533</ele><time>2008-06-21T10:17:37Z</time></trkpt>
<trkpt lat="46.67992668" lon="7.17939100"><ele>1590.157959</ele><time>2008-06-21T10:17:51Z</time></trkpt>
<trkpt lat="46.67980967" lon="7.17936535"><ele>1591.119141</ele><time>2008-06-21T10:18:07Z</time></trkpt>
<trkpt lat="46.67971973" lon="7.17936586"><ele>1593.041748</ele><time>2008-06-21T10:18:20Z</time></trkpt>
<trkpt lat="46.67959367" lon="7.17931414"><ele>1594.003174</ele><time>2008-06-21T10:18:36Z</time></trkpt>
<trkpt lat="46.67953961" lon="7.17928824"><ele>1594.964355</ele><time>2008-06-21T10:18:43Z</time></trkpt>
<trkpt lat="46.67943148" lon="7.17921037"><ele>1596.887207</ele><time>2008-06-21T10:19:00Z</time></trkpt>
<trkpt lat="46.67936853" lon="7.17921071"><ele>1598.809814</ele><time>2008-06-21T10:19:08Z</time></trkpt>
<trkpt lat="46.67933257" lon="7.17921088"><ele>1598.809814</ele><time>2008-06-21T10:19:12Z</time></trkpt>
<trkpt lat="46.67919771" lon="7.17926376"><ele>1601.213135</ele><time>2008-06-21T10:19:28Z</time></trkpt>
<trkpt lat="46.67919779" lon="7.17927684"><ele>1601.213135</ele><time>2008-06-21T10:19:29Z</time></trkpt>
<trkpt lat="46.67917089" lon="7.17931615"><ele>1601.213135</ele><time>2008-06-21T10:19:33Z</time></trkpt>
<trkpt lat="46.67909897" lon="7.17934264"><ele>1602.174316</ele><time>2008-06-21T10:19:47Z</time></trkpt>
<trkpt lat="46.67909897" lon="7.17932956"><ele>1602.174316</ele><time>2008-06-21T10:20:03Z</time></trkpt>
<trkpt lat="46.67891901" lon="7.17931741"><ele>1604.097168</ele><time>2008-06-21T10:20:22Z</time></trkpt>
<trkpt lat="46.67880200" lon="7.17930484"><ele>1605.05835</ele><time>2008-06-21T10:20:37Z</time></trkpt>
<trkpt lat="46.67870334" lon="7.17940995"><ele>1606.980957</ele><time>2008-06-21T10:20:53Z</time></trkpt>
<trkpt lat="46.67864056" lon="7.17948865"><ele>1609.864746</ele><time>2008-06-21T10:21:04Z</time></trkpt>
<trkpt lat="46.67855063" lon="7.17951522"><ele>1611.787598</ele><time>2008-06-21T10:21:18Z</time></trkpt>
<trkpt lat="46.67843378" lon="7.17955495"><ele>1614.190918</ele><time>2008-06-21T10:21:34Z</time></trkpt>
<trkpt lat="46.67834393" lon="7.17960767"><ele>1617.074951</ele><time>2008-06-21T10:21:51Z</time></trkpt>
<trkpt lat="46.67829908" lon="7.17966015"><ele>1616.113525</ele><time>2008-06-21T10:21:59Z</time></trkpt>
<trkpt lat="46.67819154" lon="7.17983063"><ele>1618.036133</ele><time>2008-06-21T10:22:17Z</time></trkpt>
<trkpt lat="46.67811988" lon="7.17996164"><ele>1618.036133</ele><time>2008-06-21T10:22:31Z</time></trkpt>
<trkpt lat="46.67805701" lon="7.18001420"><ele>1618.997559</ele><time>2008-06-21T10:22:40Z</time></trkpt>
<trkpt lat="46.67794939" lon="7.18014546"><ele>1619.95874</ele><time>2008-06-21T10:22:55Z</time></trkpt>
<trkpt lat="46.67783280" lon="7.18031586"><ele>1620.920166</ele><time>2008-06-21T10:23:12Z</time></trkpt>
<trkpt lat="46.67779701" lon="7.18038141"><ele>1621.881348</ele><time>2008-06-21T10:23:19Z</time></trkpt>
<trkpt lat="46.67778854" lon="7.18062976"><ele>1622.842773</ele><time>2008-06-21T10:23:35Z</time></trkpt>
<trkpt lat="46.67778863" lon="7.18065592"><ele>1621.881348</ele><time>2008-06-21T10:23:37Z</time></trkpt>
<trkpt lat="46.67783414" lon="7.18091710"><ele>1620.920166</ele><time>2008-06-21T10:23:52Z</time></trkpt>
<trkpt lat="46.67785225" lon="7.18095624"><ele>1620.920166</ele><time>2008-06-21T10:23:55Z</time></trkpt>
<trkpt lat="46.67785233" lon="7.18100846"><ele>1620.920166</ele><time>2008-06-21T10:23:59Z</time></trkpt>
<trkpt lat="46.67784353" lon="7.18107392"><ele>1620.920166</ele><time>2008-06-21T10:24:05Z</time></trkpt>
<trkpt lat="46.67787957" lon="7.18109982"><ele>1621.881348</ele><time>2008-06-21T10:24:13Z</time></trkpt>
<trkpt lat="46.67777195" lon="7.18124416"><ele>1622.842773</ele><time>2008-06-21T10:24:29Z</time></trkpt>
<trkpt lat="46.67777195" lon="7.18125723"><ele>1622.842773</ele><time>2008-06-21T10:24:30Z</time></trkpt>
<trkpt lat="46.67777228" lon="7.18140098"><ele>1623.803955</ele><time>2008-06-21T10:24:46Z</time></trkpt>
<trkpt lat="46.67773666" lon="7.18157105"><ele>1626.207275</ele><time>2008-06-21T10:24:59Z</time></trkpt>
<trkpt lat="46.67772844" lon="7.18191085"><ele>1629.091309</ele><time>2008-06-21T10:25:15Z</time></trkpt>
<trkpt lat="46.67769307" lon="7.18218553"><ele>1631.01416</ele><time>2008-06-21T10:25:31Z</time></trkpt>
<trkpt lat="46.67763934" lon="7.18230338"><ele>1631.975342</ele><time>2008-06-21T10:25:44Z</time></trkpt>
<trkpt lat="46.67760355" lon="7.18238200"><ele>1632.936523</ele><time>2008-06-21T10:25:53Z</time></trkpt>
<trkpt lat="46.67753197" lon="7.18255224"><ele>1633.897949</ele><time>2008-06-21T10:26:10Z</time></trkpt>
<trkpt lat="46.67751412" lon="7.18261770"><ele>1633.897949</ele><time>2008-06-21T10:26:19Z</time></trkpt>
<trkpt lat="46.67751462" lon="7.18282674"><ele>1635.820557</ele><time>2008-06-21T10:26:34Z</time></trkpt>
<trkpt lat="46.67756014" lon="7.18304878"><ele>1636.781738</ele><time>2008-06-21T10:26:49Z</time></trkpt>
<trkpt lat="46.67755117" lon="7.18307493"><ele>1638.223877</ele><time>2008-06-21T10:26:51Z</time></trkpt>
<trkpt lat="46.67756055" lon="7.18325783"><ele>1639.185059</ele><time>2008-06-21T10:27:06Z</time></trkpt>
<trkpt lat="46.67757003" lon="7.18348003"><ele>1641.107666</ele><time>2008-06-21T10:27:22Z</time></trkpt>
<trkpt lat="46.67756156" lon="7.18370223"><ele>1641.107666</ele><time>2008-06-21T10:27:37Z</time></trkpt>
<trkpt lat="46.67757112" lon="7.18395051"><ele>1643.030273</ele><time>2008-06-21T10:27:54Z</time></trkpt>
<trkpt lat="46.67757112" lon="7.18396358"><ele>1643.030273</ele><time>2008-06-21T10:27:55Z</time></trkpt>
<trkpt lat="46.67758947" lon="7.18413340"><ele>1643.991699</ele><time>2008-06-21T10:28:10Z</time></trkpt>
<trkpt lat="46.67760774" lon="7.18423784"><ele>1644.953125</ele><time>2008-06-21T10:28:24Z</time></trkpt>
<trkpt lat="46.67761722" lon="7.18444697"><ele>1646.875732</ele><time>2008-06-21T10:28:41Z</time></trkpt>
<trkpt lat="46.67761747" lon="7.18456456"><ele>1647.837158</ele><time>2008-06-21T10:28:51Z</time></trkpt>
<trkpt lat="46.67763591" lon="7.18477361"><ele>1648.79834</ele><time>2008-06-21T10:29:06Z</time></trkpt>
<trkpt lat="46.67763591" lon="7.18478668"><ele>1647.837158</ele><time>2008-06-21T10:29:08Z</time></trkpt>
<trkpt lat="46.67765443" lon="7.18499565"><ele>1650.240479</ele><time>2008-06-21T10:29:24Z</time></trkpt>
<trkpt lat="46.67760976" lon="7.18513965"><ele>1651.20166</ele><time>2008-06-21T10:29:38Z</time></trkpt>
<trkpt lat="46.67756491" lon="7.18519212"><ele>1651.20166</ele><time>2008-06-21T10:29:46Z</time></trkpt>
<trkpt lat="46.67751110" lon="7.18529698"><ele>1651.20166</ele><time>2008-06-21T10:29:55Z</time></trkpt>
<trkpt lat="46.67749367" lon="7.18551918"><ele>1651.20166</ele><time>2008-06-21T10:30:12Z</time></trkpt>
<trkpt lat="46.67743969" lon="7.18553251"><ele>1650.240479</ele><time>2008-06-21T10:30:18Z</time></trkpt>
<trkpt lat="46.67741270" lon="7.18553267"><ele>1648.79834</ele><time>2008-06-21T10:30:20Z</time></trkpt>
<trkpt lat="46.67733173" lon="7.18553301"><ele>1646.875732</ele><time>2008-06-21T10:30:34Z</time></trkpt>
<trkpt lat="46.67725084" lon="7.18557266"><ele>1646.875732</ele><time>2008-06-21T10:30:49Z</time></trkpt>
<trkpt lat="46.67725084" lon="7.18557266"><ele>1645.914551</ele><time>2008-06-21T10:30:50Z</time></trkpt>
<trkpt lat="46.67709813" lon="7.18563871"><ele>1644.953125</ele><time>2008-06-21T10:31:00Z</time></trkpt>
<trkpt lat="46.67689151" lon="7.18578346"><ele>1644.953125</ele><time>2008-06-21T10:31:12Z</time></trkpt>
<trkpt lat="46.67667593" lon="7.18592822"><ele>1643.991699</ele><time>2008-06-21T10:31:24Z</time></trkpt>
<trkpt lat="46.67642422" lon="7.18598169"><ele>1643.991699</ele><time>2008-06-21T10:31:41Z</time></trkpt>
<trkpt lat="46.67642414" lon="7.18594247"><ele>1643.991699</ele><time>2008-06-21T10:31:55Z</time></trkpt>
<trkpt lat="46.67636110" lon="7.18592964"><ele>1643.991699</ele><time>2008-06-21T10:32:04Z</time></trkpt>
<trkpt lat="46.67635205" lon="7.18591665"><ele>1643.991699</ele><time>2008-06-21T10:32:06Z</time></trkpt>
<trkpt lat="46.67628910" lon="7.18591690"><ele>1643.991699</ele><time>2008-06-21T10:32:19Z</time></trkpt>
<trkpt lat="46.67620822" lon="7.18594347"><ele>1646.875732</ele><time>2008-06-21T10:32:34Z</time></trkpt>
<trkpt lat="46.67610948" lon="7.18602234"><ele>1645.914551</ele><time>2008-06-21T10:32:43Z</time></trkpt>
<trkpt lat="46.67603765" lon="7.18610105"><ele>1645.914551</ele><time>2008-06-21T10:32:55Z</time></trkpt>
<trkpt lat="46.67598367" lon="7.18611438"><ele>1645.914551</ele><time>2008-06-21T10:33:09Z</time></trkpt>
<trkpt lat="46.67594779" lon="7.18615377"><ele>1645.914551</ele><time>2008-06-21T10:33:25Z</time></trkpt>
<trkpt lat="46.67586699" lon="7.18623256"><ele>1644.953125</ele><time>2008-06-21T10:33:56Z</time></trkpt>
<trkpt lat="46.67576825" lon="7.18631144"><ele>1643.991699</ele><time>2008-06-21T10:34:10Z</time></trkpt>
<trkpt lat="46.67577730" lon="7.18632451"><ele>1643.030273</ele><time>2008-06-21T10:34:24Z</time></trkpt>
<trkpt lat="46.67573238" lon="7.18636391"><ele>1643.030273</ele><time>2008-06-21T10:34:39Z</time></trkpt>
<trkpt lat="46.67566046" lon="7.18636424"><ele>1643.030273</ele><time>2008-06-21T10:34:45Z</time></trkpt>
<trkpt lat="46.67551671" lon="7.18648251"><ele>1643.030273</ele><time>2008-06-21T10:35:01Z</time></trkpt>
<trkpt lat="46.67549877" lon="7.18649567"><ele>1643.030273</ele><time>2008-06-21T10:35:03Z</time></trkpt>
<trkpt lat="46.67539090" lon="7.18653540"><ele>1643.030273</ele><time>2008-06-21T10:35:19Z</time></trkpt>
<trkpt lat="46.67538193" lon="7.18654848"><ele>1643.030273</ele><time>2008-06-21T10:35:20Z</time></trkpt>
<trkpt lat="46.67531010" lon="7.18660112"><ele>1643.030273</ele><time>2008-06-21T10:35:33Z</time></trkpt>
<trkpt lat="46.67522930" lon="7.18665375"><ele>1643.030273</ele><time>2008-06-21T10:35:48Z</time></trkpt>
<trkpt lat="46.67513039" lon="7.18668032"><ele>1643.991699</ele><time>2008-06-21T10:36:00Z</time></trkpt>
<trkpt lat="46.67500458" lon="7.18674629"><ele>1643.991699</ele><time>2008-06-21T10:36:15Z</time></trkpt>
<trkpt lat="46.67487876" lon="7.18679918"><ele>1643.030273</ele><time>2008-06-21T10:36:29Z</time></trkpt>
<trkpt lat="46.67476184" lon="7.18681276"><ele>1643.030273</ele><time>2008-06-21T10:36:42Z</time></trkpt>
<trkpt lat="46.67475287" lon="7.18681284"><ele>1643.030273</ele><time>2008-06-21T10:36:43Z</time></trkpt>
<trkpt lat="46.67465396" lon="7.18685249"><ele>1644.953125</ele><time>2008-06-21T10:36:53Z</time></trkpt>
<trkpt lat="46.67459118" lon="7.18691812"><ele>1643.991699</ele><time>2008-06-21T10:37:08Z</time></trkpt>
<trkpt lat="46.67446537" lon="7.18699716"><ele>1643.991699</ele><time>2008-06-21T10:37:25Z</time></trkpt>
<trkpt lat="46.67433972" lon="7.18710227"><ele>1643.030273</ele><time>2008-06-21T10:37:39Z</time></trkpt>
<trkpt lat="46.67417795" lon="7.18718139"><ele>1643.030273</ele><time>2008-06-21T10:37:55Z</time></trkpt>
<trkpt lat="46.67406128" lon="7.18728650"><ele>1643.030273</ele><time>2008-06-21T10:38:13Z</time></trkpt>
<trkpt lat="46.67390856" lon="7.18740486"><ele>1643.030273</ele><time>2008-06-21T10:38:29Z</time></trkpt>
<trkpt lat="46.67378291" lon="7.18750997"><ele>1643.030273</ele><time>2008-06-21T10:38:44Z</time></trkpt>
<trkpt lat="46.67361243" lon="7.18771985"><ele>1642.069092</ele><time>2008-06-21T10:39:05Z</time></trkpt>
<trkpt lat="46.67356758" lon="7.18778539"><ele>1643.030273</ele><time>2008-06-21T10:39:10Z</time></trkpt>
<trkpt lat="46.67355862" lon="7.18781163"><ele>1643.030273</ele><time>2008-06-21T10:39:13Z</time></trkpt>
<trkpt lat="46.67351402" lon="7.18795555"><ele>1642.069092</ele><time>2008-06-21T10:39:28Z</time></trkpt>
<trkpt lat="46.67350497" lon="7.18795563"><ele>1642.069092</ele><time>2008-06-21T10:40:09Z</time></trkpt>
<trkpt lat="46.67340598" lon="7.18791682"><ele>1641.107666</ele><time>2008-06-21T10:40:16Z</time></trkpt>
<trkpt lat="46.67337891" lon="7.18790391"><ele>1640.146484</ele><time>2008-06-21T10:40:18Z</time></trkpt>
<trkpt lat="46.67330691" lon="7.18787810"><ele>1640.146484</ele><time>2008-06-21T10:40:25Z</time></trkpt>
<trkpt lat="46.67316332" lon="7.18802252"><ele>1642.069092</ele><time>2008-06-21T10:40:41Z</time></trkpt>
<trkpt lat="46.67307372" lon="7.18819284"><ele>1642.069092</ele><time>2008-06-21T10:40:56Z</time></trkpt>
<trkpt lat="46.67294824" lon="7.18840255"><ele>1643.030273</ele><time>2008-06-21T10:41:14Z</time></trkpt>
<trkpt lat="46.67281372" lon="7.18858612"><ele>1643.030273</ele><time>2008-06-21T10:41:31Z</time></trkpt>
<trkpt lat="46.67268824" lon="7.18878267"><ele>1643.030273</ele><time>2008-06-21T10:41:48Z</time></trkpt>
<trkpt lat="46.67256268" lon="7.18896624"><ele>1643.030273</ele><time>2008-06-21T10:42:05Z</time></trkpt>
<trkpt lat="46.67249990" lon="7.18905802"><ele>1642.069092</ele><time>2008-06-21T10:42:13Z</time></trkpt>
<trkpt lat="46.67241918" lon="7.18916296"><ele>1642.069092</ele><time>2008-06-21T10:42:22Z</time></trkpt>
<trkpt lat="46.67242848" lon="7.18931970"><ele>1641.107666</ele><time>2008-06-21T10:42:35Z</time></trkpt>
<trkpt lat="46.67249202" lon="7.18955465"><ele>1640.146484</ele><time>2008-06-21T10:42:43Z</time></trkpt>
<trkpt lat="46.67259201" lon="7.19005077"><ele>1638.223877</ele><time>2008-06-21T10:42:59Z</time></trkpt>
<trkpt lat="46.67276368" lon="7.19040281"><ele>1633.897949</ele><time>2008-06-21T10:43:12Z</time></trkpt>
<trkpt lat="46.67283635" lon="7.19071613"><ele>1635.820557</ele><time>2008-06-21T10:43:23Z</time></trkpt>
<trkpt lat="46.67277399" lon="7.19100396"><ele>1636.781738</ele><time>2008-06-21T10:43:37Z</time></trkpt>
<trkpt lat="46.67274733" lon="7.19114779"><ele>1639.185059</ele><time>2008-06-21T10:43:52Z</time></trkpt>
<trkpt lat="46.67273853" lon="7.19121317"><ele>1639.185059</ele><time>2008-06-21T10:44:10Z</time></trkpt>
<trkpt lat="46.67276560" lon="7.19126539"><ele>1640.146484</ele><time>2008-06-21T10:44:26Z</time></trkpt>
<trkpt lat="46.67281975" lon="7.19134351"><ele>1642.069092</ele><time>2008-06-21T10:44:36Z</time></trkpt>
<trkpt lat="46.67290089" lon="7.19142155"><ele>1643.991699</ele><time>2008-06-21T10:44:50Z</time></trkpt>
<trkpt lat="46.67293701" lon="7.19148676"><ele>1643.991699</ele><time>2008-06-21T10:45:03Z</time></trkpt>
<trkpt lat="46.67306324" lon="7.19164300"><ele>1643.030273</ele><time>2008-06-21T10:45:19Z</time></trkpt>
<trkpt lat="46.67308168" lon="7.19182589"><ele>1643.991699</ele><time>2008-06-21T10:45:33Z</time></trkpt>
<trkpt lat="46.67298303" lon="7.19198314"><ele>1643.991699</ele><time>2008-06-21T10:45:49Z</time></trkpt>
<trkpt lat="46.67289343" lon="7.19214038"><ele>1643.991699</ele><time>2008-06-21T10:46:02Z</time></trkpt>
<trkpt lat="46.67277717" lon="7.19244146"><ele>1643.030273</ele><time>2008-06-21T10:46:10Z</time></trkpt>
<trkpt lat="46.67276862" lon="7.19267674"><ele>1641.107666</ele><time>2008-06-21T10:46:15Z</time></trkpt>
<trkpt lat="46.67273333" lon="7.19300363"><ele>1641.107666</ele><time>2008-06-21T10:46:26Z</time></trkpt>
<trkpt lat="46.67275177" lon="7.19319952"><ele>1641.107666</ele><time>2008-06-21T10:46:36Z</time></trkpt>
<trkpt lat="46.67276996" lon="7.19330404"><ele>1642.069092</ele><time>2008-06-21T10:46:44Z</time></trkpt>
<trkpt lat="46.67277935" lon="7.19347386"><ele>1643.030273</ele><time>2008-06-21T10:46:55Z</time></trkpt>
<trkpt lat="46.67277072" lon="7.19363068"><ele>1643.030273</ele><time>2008-06-21T10:47:06Z</time></trkpt>
<trkpt lat="46.67276208" lon="7.19382682"><ele>1643.991699</ele><time>2008-06-21T10:47:18Z</time></trkpt>
<trkpt lat="46.67276242" lon="7.19398364"><ele>1643.991699</ele><time>2008-06-21T10:47:29Z</time></trkpt>
<trkpt lat="46.67274456" lon="7.19402287"><ele>1643.991699</ele><time>2008-06-21T10:47:32Z</time></trkpt>
<trkpt lat="46.67276292" lon="7.19417961"><ele>1644.953125</ele><time>2008-06-21T10:47:42Z</time></trkpt>
<trkpt lat="46.67270928" lon="7.19436284"><ele>1647.837158</ele><time>2008-06-21T10:47:59Z</time></trkpt>
<trkpt lat="46.67261079" lon="7.19458546"><ele>1650.240479</ele><time>2008-06-21T10:48:17Z</time></trkpt>
<trkpt lat="46.67256595" lon="7.19463794"><ele>1650.240479</ele><time>2008-06-21T10:48:24Z</time></trkpt>
<trkpt lat="46.67253921" lon="7.19472955"><ele>1652.162842</ele><time>2008-06-21T10:48:40Z</time></trkpt>
<trkpt lat="46.67247634" lon="7.19479518"><ele>1652.162842</ele><time>2008-06-21T10:49:02Z</time></trkpt>
<trkpt lat="46.67237769" lon="7.19492627"><ele>1653.124268</ele><time>2008-06-21T10:49:16Z</time></trkpt>
<trkpt lat="46.67235975" lon="7.19496558"><ele>1655.046875</ele><time>2008-06-21T10:49:32Z</time></trkpt>
<trkpt lat="46.67227007" lon="7.19507053"><ele>1656.008057</ele><time>2008-06-21T10:49:44Z</time></trkpt>
<trkpt lat="46.67227007" lon="7.19508360"><ele>1656.008057</ele><time>2008-06-21T10:49:45Z</time></trkpt>
<trkpt lat="46.67220737" lon="7.19522760"><ele>1658.89209</ele><time>2008-06-21T10:50:00Z</time></trkpt>
<trkpt lat="46.67216253" lon="7.19526700"><ele>1658.89209</ele><time>2008-06-21T10:50:06Z</time></trkpt>
<trkpt lat="46.67208181" lon="7.19539809"><ele>1658.89209</ele><time>2008-06-21T10:50:22Z</time></trkpt>
<trkpt lat="46.67204610" lon="7.19550278"><ele>1659.853271</ele><time>2008-06-21T10:50:40Z</time></trkpt>
<trkpt lat="46.67204610" lon="7.19551586"><ele>1661.776367</ele><time>2008-06-21T10:50:50Z</time></trkpt>
<trkpt lat="46.67206446" lon="7.19569875"><ele>1661.776367</ele><time>2008-06-21T10:51:05Z</time></trkpt>
<trkpt lat="46.67207376" lon="7.19585549"><ele>1664.179443</ele><time>2008-06-21T10:51:19Z</time></trkpt>
<trkpt lat="46.67204702" lon="7.19594711"><ele>1664.179443</ele><time>2008-06-21T10:51:35Z</time></trkpt>
<trkpt lat="46.67204702" lon="7.19594711"><ele>1666.102051</ele><time>2008-06-21T10:51:39Z</time></trkpt>
<trkpt lat="46.67202037" lon="7.19610401"><ele>1668.024658</ele><time>2008-06-21T10:51:54Z</time></trkpt>
<trkpt lat="46.67199380" lon="7.19631323"><ele>1669.947266</ele><time>2008-06-21T10:52:20Z</time></trkpt>
<trkpt lat="46.67198533" lon="7.19654851"><ele>1669.947266</ele><time>2008-06-21T10:52:37Z</time></trkpt>
<trkpt lat="46.67200377" lon="7.19675755"><ele>1671.869873</ele><time>2008-06-21T10:52:55Z</time></trkpt>
<trkpt lat="46.67201282" lon="7.19678362"><ele>1670.908691</ele><time>2008-06-21T10:52:58Z</time></trkpt>
<trkpt lat="46.67205825" lon="7.19699250"><ele>1672.831299</ele><time>2008-06-21T10:53:17Z</time></trkpt>
<trkpt lat="46.67212171" lon="7.19722744"><ele>1672.831299</ele><time>2008-06-21T10:53:34Z</time></trkpt>
<trkpt lat="46.67216697" lon="7.19738410"><ele>1676.196045</ele><time>2008-06-21T10:53:47Z</time></trkpt>
<trkpt lat="46.67221215" lon="7.19746230"><ele>1677.157471</ele><time>2008-06-21T10:53:55Z</time></trkpt>
<trkpt lat="46.67226663" lon="7.19768417"><ele>1680.04126</ele><time>2008-06-21T10:54:11Z</time></trkpt>
<trkpt lat="46.67230267" lon="7.19772323"><ele>1680.04126</ele><time>2008-06-21T10:54:26Z</time></trkpt>
<trkpt lat="46.67231156" lon="7.19769708"><ele>1680.04126</ele><time>2008-06-21T10:55:31Z</time></trkpt>
<trkpt lat="46.67231181" lon="7.19780160"><ele>1681.002686</ele><time>2008-06-21T10:55:47Z</time></trkpt>
<trkpt lat="46.67226730" lon="7.19803705"><ele>1677.157471</ele><time>2008-06-21T10:55:57Z</time></trkpt>
<trkpt lat="46.67225841" lon="7.19807628"><ele>1677.157471</ele><time>2008-06-21T10:55:58Z</time></trkpt>
<trkpt lat="46.67224064" lon="7.19816781"><ele>1672.831299</ele><time>2008-06-21T10:56:00Z</time></trkpt>
<trkpt lat="46.67221382" lon="7.19825942"><ele>1671.869873</ele><time>2008-06-21T10:56:02Z</time></trkpt>
<trkpt lat="46.67214241" lon="7.19852110"><ele>1668.024658</ele><time>2008-06-21T10:56:08Z</time></trkpt>
<trkpt lat="46.67211575" lon="7.19867801"><ele>1667.063477</ele><time>2008-06-21T10:56:11Z</time></trkpt>
<trkpt lat="46.67204451" lon="7.19900507"><ele>1663.218262</ele><time>2008-06-21T10:56:18Z</time></trkpt>
<trkpt lat="46.67202665" lon="7.19909661"><ele>1661.776367</ele><time>2008-06-21T10:56:20Z</time></trkpt>
<trkpt lat="46.67200889" lon="7.19920130"><ele>1659.853271</ele><time>2008-06-21T10:56:23Z</time></trkpt>
<trkpt lat="46.67199128" lon="7.19935812"><ele>1656.008057</ele><time>2008-06-21T10:56:26Z</time></trkpt>
<trkpt lat="46.67195566" lon="7.19954127"><ele>1655.046875</ele><time>2008-06-21T10:56:30Z</time></trkpt>
<trkpt lat="46.67188458" lon="7.19995977"><ele>1651.20166</ele><time>2008-06-21T10:56:39Z</time></trkpt>
<trkpt lat="46.67179565" lon="7.20046981"><ele>1647.837158</ele><time>2008-06-21T10:56:50Z</time></trkpt>
<trkpt lat="46.67171527" lon="7.20074457"><ele>1644.953125</ele><time>2008-06-21T10:57:01Z</time></trkpt>
<trkpt lat="46.67170638" lon="7.20077081"><ele>1643.991699</ele><time>2008-06-21T10:57:18Z</time></trkpt>
<trkpt lat="46.67170647" lon="7.20082303"><ele>1643.030273</ele><time>2008-06-21T10:57:41Z</time></trkpt>
<trkpt lat="46.67170663" lon="7.20090148"><ele>1642.069092</ele><time>2008-06-21T10:57:45Z</time></trkpt>
<trkpt lat="46.67168015" lon="7.20116291"><ele>1640.146484</ele><time>2008-06-21T10:57:52Z</time></trkpt>
<trkpt lat="46.67165374" lon="7.20143750"><ele>1638.223877</ele><time>2008-06-21T10:58:03Z</time></trkpt>
<trkpt lat="46.67164503" lon="7.20156818"><ele>1634.859375</ele><time>2008-06-21T10:58:19Z</time></trkpt>
<trkpt lat="46.67162751" lon="7.20179047"><ele>1631.975342</ele><time>2008-06-21T10:58:34Z</time></trkpt>
<trkpt lat="46.67161871" lon="7.20186892"><ele>1631.01416</ele><time>2008-06-21T10:58:47Z</time></trkpt>
<trkpt lat="46.67160085" lon="7.20194737"><ele>1629.091309</ele><time>2008-06-21T10:58:52Z</time></trkpt>
<trkpt lat="46.67160102" lon="7.20201275"><ele>1628.130127</ele><time>2008-06-21T10:58:54Z</time></trkpt>
<trkpt lat="46.67158325" lon="7.20215659"><ele>1626.207275</ele><time>2008-06-21T10:58:58Z</time></trkpt>
<trkpt lat="46.67156540" lon="7.20222197"><ele>1624.765381</ele><time>2008-06-21T10:59:00Z</time></trkpt>
<trkpt lat="46.67154788" lon="7.20243109"><ele>1620.920166</ele><time>2008-06-21T10:59:08Z</time></trkpt>
<trkpt lat="46.67153891" lon="7.20244425"><ele>1620.920166</ele><time>2008-06-21T10:59:09Z</time></trkpt>
<trkpt lat="46.67153011" lon="7.20252271"><ele>1619.95874</ele><time>2008-06-21T10:59:18Z</time></trkpt>
<trkpt lat="46.67151226" lon="7.20261424"><ele>1618.036133</ele><time>2008-06-21T10:59:26Z</time></trkpt>
<trkpt lat="46.67149440" lon="7.20265355"><ele>1617.074951</ele><time>2008-06-21T10:59:29Z</time></trkpt>
<trkpt lat="46.67149457" lon="7.20275807"><ele>1615.152344</ele><time>2008-06-21T10:59:37Z</time></trkpt>
<trkpt lat="46.67147697" lon="7.20294113"><ele>1611.787598</ele><time>2008-06-21T10:59:51Z</time></trkpt>
<trkpt lat="46.67142349" lon="7.20317658"><ele>1609.864746</ele><time>2008-06-21T11:00:07Z</time></trkpt>
<trkpt lat="46.67141452" lon="7.20318966"><ele>1609.864746</ele><time>2008-06-21T11:00:21Z</time></trkpt>
<trkpt lat="46.67139667" lon="7.20326811"><ele>1607.942383</ele><time>2008-06-21T11:00:32Z</time></trkpt>
<trkpt lat="46.67138770" lon="7.20329435"><ele>1607.942383</ele><time>2008-06-21T11:00:34Z</time></trkpt>
<trkpt lat="46.67136122" lon="7.20352963"><ele>1606.980957</ele><time>2008-06-21T11:00:49Z</time></trkpt>
<trkpt lat="46.67134336" lon="7.20359509"><ele>1606.019531</ele><time>2008-06-21T11:00:54Z</time></trkpt>
<trkpt lat="46.67128947" lon="7.20360842"><ele>1606.019531</ele><time>2008-06-21T11:01:00Z</time></trkpt>
<trkpt lat="46.67123549" lon="7.20363474"><ele>1604.097168</ele><time>2008-06-21T11:01:05Z</time></trkpt>
<trkpt lat="46.67120850" lon="7.20363490"><ele>1604.097168</ele><time>2008-06-21T11:01:07Z</time></trkpt>
<trkpt lat="46.67117254" lon="7.20364806"><ele>1602.174316</ele><time>2008-06-21T11:01:11Z</time></trkpt>
<trkpt lat="46.67105586" lon="7.20375317"><ele>1597.848633</ele><time>2008-06-21T11:01:28Z</time></trkpt>
<trkpt lat="46.67097498" lon="7.20377966"><ele>1596.887207</ele><time>2008-06-21T11:01:52Z</time></trkpt>
<trkpt lat="46.67084916" lon="7.20387169"><ele>1593.041748</ele><time>2008-06-21T11:02:08Z</time></trkpt>
<trkpt lat="46.67084916" lon="7.20387169"><ele>1593.041748</ele><time>2008-06-21T11:02:09Z</time></trkpt>
<trkpt lat="46.67081329" lon="7.20389793"><ele>1592.080566</ele><time>2008-06-21T11:02:13Z</time></trkpt>
<trkpt lat="46.67074137" lon="7.20392441"><ele>1589.196533</ele><time>2008-06-21T11:02:22Z</time></trkpt>
<trkpt lat="46.67073241" lon="7.20393749"><ele>1590.157959</ele><time>2008-06-21T11:02:23Z</time></trkpt>
<trkpt lat="46.67069653" lon="7.20398996"><ele>1586.793213</ele><time>2008-06-21T11:02:29Z</time></trkpt>
<trkpt lat="46.67066954" lon="7.20400312"><ele>1585.832031</ele><time>2008-06-21T11:02:32Z</time></trkpt>
<trkpt lat="46.67060668" lon="7.20405567"><ele>1582.947998</ele><time>2008-06-21T11:02:43Z</time></trkpt>
<trkpt lat="46.67060676" lon="7.20406875"><ele>1582.947998</ele><time>2008-06-21T11:02:44Z</time></trkpt>
<trkpt lat="46.67052613" lon="7.20425206"><ele>1580.064209</ele><time>2008-06-21T11:02:59Z</time></trkpt>
<trkpt lat="46.67049930" lon="7.20431753"><ele>1578.141357</ele><time>2008-06-21T11:03:06Z</time></trkpt>
<trkpt lat="46.67042756" lon="7.20444845"><ele>1573.81543</ele><time>2008-06-21T11:03:21Z</time></trkpt>
<trkpt lat="46.67038288" lon="7.20457938"><ele>1570.931641</ele><time>2008-06-21T11:03:32Z</time></trkpt>
<trkpt lat="46.67030216" lon="7.20471038"><ele>1569.970215</ele><time>2008-06-21T11:03:46Z</time></trkpt>
<trkpt lat="46.67025740" lon="7.20478901"><ele>1568.047607</ele><time>2008-06-21T11:03:55Z</time></trkpt>
<trkpt lat="46.67020359" lon="7.20489378"><ele>1565.163818</ele><time>2008-06-21T11:04:06Z</time></trkpt>
<trkpt lat="46.67012304" lon="7.20506402"><ele>1562.760254</ele><time>2008-06-21T11:04:21Z</time></trkpt>
<trkpt lat="46.67011407" lon="7.20509017"><ele>1561.799072</ele><time>2008-06-21T11:04:24Z</time></trkpt>
<trkpt lat="46.67010510" lon="7.20511632"><ele>1561.799072</ele><time>2008-06-21T11:04:26Z</time></trkpt>
<trkpt lat="46.66999748" lon="7.20524750"><ele>1559.876221</ele><time>2008-06-21T11:04:41Z</time></trkpt>
<trkpt lat="46.66998851" lon="7.20528672"><ele>1558.915039</ele><time>2008-06-21T11:04:45Z</time></trkpt>
<trkpt lat="46.66998851" lon="7.20528672"><ele>1558.915039</ele><time>2008-06-21T11:04:46Z</time></trkpt>
<trkpt lat="46.67000662" lon="7.20535202"><ele>1557.953857</ele><time>2008-06-21T11:05:04Z</time></trkpt>
<trkpt lat="46.66997074" lon="7.20536518"><ele>1556.031006</ele><time>2008-06-21T11:05:16Z</time></trkpt>
<trkpt lat="46.66989916" lon="7.20557456"><ele>1556.031006</ele><time>2008-06-21T11:05:32Z</time></trkpt>
<trkpt lat="46.66981844" lon="7.20567950"><ele>1553.147217</ele><time>2008-06-21T11:05:46Z</time></trkpt>
<trkpt lat="46.66976463" lon="7.20575812"><ele>1551.224609</ele><time>2008-06-21T11:06:00Z</time></trkpt>
<trkpt lat="46.66961216" lon="7.20600707"><ele>1548.821289</ele><time>2008-06-21T11:06:12Z</time></trkpt>
<trkpt lat="46.66936129" lon="7.20650470"><ele>1546.898438</ele><time>2008-06-21T11:06:24Z</time></trkpt>
<trkpt lat="46.66927177" lon="7.20670109"><ele>1549.782715</ele><time>2008-06-21T11:06:31Z</time></trkpt>
<trkpt lat="46.66913750" lon="7.20702840"><ele>1549.782715</ele><time>2008-06-21T11:06:45Z</time></trkpt>
<trkpt lat="46.66912870" lon="7.20713292"><ele>1551.224609</ele><time>2008-06-21T11:07:03Z</time></trkpt>
<trkpt lat="46.66913792" lon="7.20721129"><ele>1553.147217</ele><time>2008-06-21T11:07:21Z</time></trkpt>
<trkpt lat="46.66914688" lon="7.20722437"><ele>1554.108643</ele><time>2008-06-21T11:07:29Z</time></trkpt>
<trkpt lat="46.66914688" lon="7.20722437"><ele>1552.185791</ele><time>2008-06-21T11:30:50Z</time></trkpt>
<trkpt lat="46.66920983" lon="7.20722412"><ele>1551.224609</ele><time>2008-06-21T11:30:56Z</time></trkpt>
<trkpt lat="46.66910179" lon="7.20714617"><ele>1549.782715</ele><time>2008-06-21T11:31:08Z</time></trkpt>
<trkpt lat="46.66906600" lon="7.20726393"><ele>1552.185791</ele><time>2008-06-21T11:31:21Z</time></trkpt>
<trkpt lat="46.66904823" lon="7.20736854"><ele>1551.224609</ele><time>2008-06-21T11:31:31Z</time></trkpt>
<trkpt lat="46.66903029" lon="7.20738170"><ele>1552.185791</ele><time>2008-06-21T11:31:33Z</time></trkpt>
<trkpt lat="46.66897656" lon="7.20752561"><ele>1551.224609</ele><time>2008-06-21T11:31:47Z</time></trkpt>
<trkpt lat="46.66896760" lon="7.20753877"><ele>1552.185791</ele><time>2008-06-21T11:32:03Z</time></trkpt>
<trkpt lat="46.66894069" lon="7.20755193"><ele>1553.147217</ele><time>2008-06-21T11:32:17Z</time></trkpt>
<trkpt lat="46.66882393" lon="7.20765696"><ele>1551.224609</ele><time>2008-06-21T11:32:35Z</time></trkpt>
<trkpt lat="46.66869828" lon="7.20780121"><ele>1548.821289</ele><time>2008-06-21T11:32:44Z</time></trkpt>
<trkpt lat="46.66859955" lon="7.20789316"><ele>1548.821289</ele><time>2008-06-21T11:32:47Z</time></trkpt>
<trkpt lat="46.66849184" lon="7.20801118"><ele>1547.859863</ele><time>2008-06-21T11:32:50Z</time></trkpt>
<trkpt lat="46.66833015" lon="7.20814261"><ele>1544.97583</ele><time>2008-06-21T11:32:54Z</time></trkpt>
<trkpt lat="46.66817752" lon="7.20828694"><ele>1544.014648</ele><time>2008-06-21T11:32:58Z</time></trkpt>
<trkpt lat="46.66789924" lon="7.20857562"><ele>1544.014648</ele><time>2008-06-21T11:33:06Z</time></trkpt>
<trkpt lat="46.66748618" lon="7.20894325"><ele>1543.053223</ele><time>2008-06-21T11:33:17Z</time></trkpt>
<trkpt lat="46.66736950" lon="7.20907442"><ele>1544.014648</ele><time>2008-06-21T11:33:22Z</time></trkpt>
<trkpt lat="46.66729784" lon="7.20920543"><ele>1544.014648</ele><time>2008-06-21T11:33:30Z</time></trkpt>
<trkpt lat="46.66708251" lon="7.20948078"><ele>1544.97583</ele><time>2008-06-21T11:33:47Z</time></trkpt>
<trkpt lat="46.66694772" lon="7.20958580"><ele>1545.937256</ele><time>2008-06-21T11:33:56Z</time></trkpt>
<trkpt lat="46.66674136" lon="7.20983500"><ele>1548.821289</ele><time>2008-06-21T11:34:11Z</time></trkpt>
<trkpt lat="46.66662485" lon="7.21005762"><ele>1549.782715</ele><time>2008-06-21T11:34:25Z</time></trkpt>
<trkpt lat="46.66661605" lon="7.21016223"><ele>1551.224609</ele><time>2008-06-21T11:34:43Z</time></trkpt>
<trkpt lat="46.66659820" lon="7.21024068"><ele>1548.821289</ele><time>2008-06-21T11:35:06Z</time></trkpt>
<trkpt lat="46.66655361" lon="7.21041075"><ele>1549.782715</ele><time>2008-06-21T11:35:20Z</time></trkpt>
<trkpt lat="46.66650893" lon="7.21055467"><ele>1549.782715</ele><time>2008-06-21T11:35:37Z</time></trkpt>
<trkpt lat="46.66662636" lon="7.21082859"><ele>1549.782715</ele><time>2008-06-21T11:35:49Z</time></trkpt>
<trkpt lat="46.66666249" lon="7.21089371"><ele>1549.782715</ele><time>2008-06-21T11:35:53Z</time></trkpt>
<trkpt lat="46.66677078" lon="7.21103705"><ele>1551.224609</ele><time>2008-06-21T11:36:01Z</time></trkpt>
<trkpt lat="46.66702325" lon="7.21133653"><ele>1552.185791</ele><time>2008-06-21T11:36:16Z</time></trkpt>
<trkpt lat="46.66706834" lon="7.21141473"><ele>1551.224609</ele><time>2008-06-21T11:36:18Z</time></trkpt>
<trkpt lat="46.66717663" lon="7.21157106"><ele>1548.821289</ele><time>2008-06-21T11:36:22Z</time></trkpt>
<trkpt lat="46.66769061" lon="7.21219618"><ele>1547.859863</ele><time>2008-06-21T11:36:36Z</time></trkpt>
<trkpt lat="46.66772665" lon="7.21223515"><ele>1547.859863</ele><time>2008-06-21T11:36:37Z</time></trkpt>
<trkpt lat="46.66785331" lon="7.21258745"><ele>1544.014648</ele><time>2008-06-21T11:36:43Z</time></trkpt>
<trkpt lat="46.66793486" lon="7.21288769"><ele>1540.169434</ele><time>2008-06-21T11:36:47Z</time></trkpt>
<trkpt lat="46.66797107" lon="7.21301819"><ele>1537.766113</ele><time>2008-06-21T11:36:49Z</time></trkpt>
<trkpt lat="46.66805246" lon="7.21323998"><ele>1533.920898</ele><time>2008-06-21T11:36:53Z</time></trkpt>
<trkpt lat="46.66808867" lon="7.21331826"><ele>1534.882324</ele><time>2008-06-21T11:36:54Z</time></trkpt>
<trkpt lat="46.66816092" lon="7.21350091"><ele>1531.998047</ele><time>2008-06-21T11:36:57Z</time></trkpt>
<trkpt lat="46.66830584" lon="7.21398379"><ele>1531.036865</ele><time>2008-06-21T11:37:05Z</time></trkpt>
<trkpt lat="46.66836049" lon="7.21434941"><ele>1528.152832</ele><time>2008-06-21T11:37:11Z</time></trkpt>
<trkpt lat="46.66836066" lon="7.21441478"><ele>1528.152832</ele><time>2008-06-21T11:37:12Z</time></trkpt>
<trkpt lat="46.66832537" lon="7.21476775"><ele>1523.826904</ele><time>2008-06-21T11:37:19Z</time></trkpt>
<trkpt lat="46.66832571" lon="7.21493765"><ele>1521.904297</ele><time>2008-06-21T11:37:22Z</time></trkpt>
<trkpt lat="46.66832579" lon="7.21498987"><ele>1520.943115</ele><time>2008-06-21T11:37:23Z</time></trkpt>
<trkpt lat="46.66830819" lon="7.21518600"><ele>1517.0979</ele><time>2008-06-21T11:37:26Z</time></trkpt>
<trkpt lat="46.66828162" lon="7.21538206"><ele>1514.213623</ele><time>2008-06-21T11:37:29Z</time></trkpt>
<trkpt lat="46.66823703" lon="7.21559135"><ele>1510.849121</ele><time>2008-06-21T11:37:32Z</time></trkpt>
<trkpt lat="46.66821037" lon="7.21577441"><ele>1507.003906</ele><time>2008-06-21T11:37:35Z</time></trkpt>
<trkpt lat="46.66821063" lon="7.21589201"><ele>1505.081299</ele><time>2008-06-21T11:37:37Z</time></trkpt>
<trkpt lat="46.66823803" lon="7.21610097"><ele>1503.158691</ele><time>2008-06-21T11:37:40Z</time></trkpt>
<trkpt lat="46.66827433" lon="7.21624455"><ele>1499.793945</ele><time>2008-06-21T11:37:42Z</time></trkpt>
<trkpt lat="46.66847331" lon="7.21681871"><ele>1496.909912</ele><time>2008-06-21T11:37:52Z</time></trkpt>
<trkpt lat="46.66851916" lon="7.21728894"><ele>1494.026123</ele><time>2008-06-21T11:38:02Z</time></trkpt>
<trkpt lat="46.66851933" lon="7.21735432"><ele>1494.026123</ele><time>2008-06-21T11:38:03Z</time></trkpt>
<trkpt lat="46.66843903" lon="7.21769437"><ele>1492.103516</ele><time>2008-06-21T11:38:09Z</time></trkpt>
<trkpt lat="46.66831372" lon="7.21802160"><ele>1490.180908</ele><time>2008-06-21T11:38:15Z</time></trkpt>
<trkpt lat="46.66817048" lon="7.21837498"><ele>1484.893799</ele><time>2008-06-21T11:38:23Z</time></trkpt>
<trkpt lat="46.66814365" lon="7.21844045"><ele>1484.893799</ele><time>2008-06-21T11:38:24Z</time></trkpt>
<trkpt lat="46.66802731" lon="7.21876759"><ele>1481.04834</ele><time>2008-06-21T11:38:31Z</time></trkpt>
<trkpt lat="46.66794660" lon="7.21891168"><ele>1480.086914</ele><time>2008-06-21T11:38:33Z</time></trkpt>
<trkpt lat="46.66770436" lon="7.21921317"><ele>1477.203125</ele><time>2008-06-21T11:38:39Z</time></trkpt>
<trkpt lat="46.66757897" lon="7.21950117"><ele>1474.799805</ele><time>2008-06-21T11:38:45Z</time></trkpt>
<trkpt lat="46.66742616" lon="7.21959321"><ele>1470.95459</ele><time>2008-06-21T11:38:49Z</time></trkpt>
<trkpt lat="46.66741711" lon="7.21952791"><ele>1469.031982</ele><time>2008-06-21T11:38:51Z</time></trkpt>
<trkpt lat="46.66745273" lon="7.21938408"><ele>1468.070557</ele><time>2008-06-21T11:38:54Z</time></trkpt>
<trkpt lat="46.66747050" lon="7.21924025"><ele>1467.109131</ele><time>2008-06-21T11:38:57Z</time></trkpt>
<trkpt lat="46.66747034" lon="7.21917495"><ele>1466.147705</ele><time>2008-06-21T11:38:59Z</time></trkpt>
<trkpt lat="46.66741602" lon="7.21899223"><ele>1464.225098</ele><time>2008-06-21T11:39:04Z</time></trkpt>
<trkpt lat="46.66733488" lon="7.21888795"><ele>1464.225098</ele><time>2008-06-21T11:39:07Z</time></trkpt>
<trkpt lat="46.66737956" lon="7.21873105"><ele>1462.783203</ele><time>2008-06-21T11:39:09Z</time></trkpt>
<trkpt lat="46.66740630" lon="7.21858713"><ele>1460.860596</ele><time>2008-06-21T11:39:11Z</time></trkpt>
<trkpt lat="46.66733405" lon="7.21844371"><ele>1459.89917</ele><time>2008-06-21T11:39:14Z</time></trkpt>
<trkpt lat="46.66730697" lon="7.21840465"><ele>1458.937988</ele><time>2008-06-21T11:39:15Z</time></trkpt>
<trkpt lat="46.66727931" lon="7.21807810"><ele>1456.053955</ele><time>2008-06-21T11:39:20Z</time></trkpt>
<trkpt lat="46.66723413" lon="7.21796067"><ele>1456.053955</ele><time>2008-06-21T11:39:22Z</time></trkpt>
<trkpt lat="46.66713489" lon="7.21780426"><ele>1455.092773</ele><time>2008-06-21T11:39:26Z</time></trkpt>
<trkpt lat="46.66707178" lon="7.21773913"><ele>1454.131592</ele><time>2008-06-21T11:39:28Z</time></trkpt>
<trkpt lat="46.66677305" lon="7.21676038"><ele>1450.766602</ele><time>2008-06-21T11:39:39Z</time></trkpt>
<trkpt lat="46.66673692" lon="7.21668209"><ele>1449.80542</ele><time>2008-06-21T11:39:41Z</time></trkpt>
<trkpt lat="46.66664639" lon="7.21640809"><ele>1448.843994</ele><time>2008-06-21T11:39:45Z</time></trkpt>
<trkpt lat="46.66652016" lon="7.21623869"><ele>1444.998779</ele><time>2008-06-21T11:39:48Z</time></trkpt>
<trkpt lat="46.66640282" lon="7.21603015"><ele>1444.037598</ele><time>2008-06-21T11:39:53Z</time></trkpt>
<trkpt lat="46.66638429" lon="7.21578196"><ele>1444.037598</ele><time>2008-06-21T11:39:58Z</time></trkpt>
<trkpt lat="46.66603317" lon="7.21560049"><ele>1440.192383</ele><time>2008-06-21T11:40:08Z</time></trkpt>
<trkpt lat="46.66585288" lon="7.21543134"><ele>1435.866211</ele><time>2008-06-21T11:40:14Z</time></trkpt>
<trkpt lat="46.66581692" lon="7.21543151"><ele>1434.905029</ele><time>2008-06-21T11:40:15Z</time></trkpt>
<trkpt lat="46.66576286" lon="7.21537946"><ele>1434.905029</ele><time>2008-06-21T11:40:17Z</time></trkpt>
<trkpt lat="46.66539297" lon="7.21484520"><ele>1431.059814</ele><time>2008-06-21T11:40:25Z</time></trkpt>
<trkpt lat="46.66528467" lon="7.21466272"><ele>1430.098389</ele><time>2008-06-21T11:40:28Z</time></trkpt>
<trkpt lat="46.66505920" lon="7.21436315"><ele>1428.175781</ele><time>2008-06-21T11:40:38Z</time></trkpt>
<trkpt lat="46.66503212" lon="7.21432409"><ele>1427.2146</ele><time>2008-06-21T11:40:40Z</time></trkpt>
<trkpt lat="46.66505082" lon="7.21466373"><ele>1428.175781</ele><time>2008-06-21T11:40:50Z</time></trkpt>
<trkpt lat="46.66517789" lon="7.21527728"><ele>1427.2146</ele><time>2008-06-21T11:41:02Z</time></trkpt>
<trkpt lat="46.66552112" lon="7.21598153"><ele>1425.772461</ele><time>2008-06-21T11:41:16Z</time></trkpt>
<trkpt lat="46.66554820" lon="7.21602059"><ele>1425.772461</ele><time>2008-06-21T11:41:17Z</time></trkpt>
<trkpt lat="46.66570125" lon="7.21609837"><ele>1425.772461</ele><time>2008-06-21T11:41:20Z</time></trkpt>
<trkpt lat="46.66593527" lon="7.21614967"><ele>1425.772461</ele><time>2008-06-21T11:41:24Z</time></trkpt>
<trkpt lat="46.66609746" lon="7.21630583"><ele>1422.888672</ele><time>2008-06-21T11:41:28Z</time></trkpt>
<trkpt lat="46.66608070" lon="7.21690698"><ele>1421.927246</ele><time>2008-06-21T11:41:36Z</time></trkpt>
<trkpt lat="46.66624339" lon="7.21731132"><ele>1420.966064</ele><time>2008-06-21T11:41:43Z</time></trkpt>
<trkpt lat="46.66649577" lon="7.21757166"><ele>1421.927246</ele><time>2008-06-21T11:41:50Z</time></trkpt>
<trkpt lat="46.66655025" lon="7.21785891"><ele>1420.004639</ele><time>2008-06-21T11:41:54Z</time></trkpt>
<trkpt lat="46.66657758" lon="7.21800249"><ele>1420.004639</ele><time>2008-06-21T11:41:56Z</time></trkpt>
<trkpt lat="46.66645219" lon="7.21830357"><ele>1418.081787</ele><time>2008-06-21T11:42:01Z</time></trkpt>
<trkpt lat="46.66635336" lon="7.21836928"><ele>1417.120605</ele><time>2008-06-21T11:42:03Z</time></trkpt>
<trkpt lat="46.66614700" lon="7.21864454"><ele>1417.120605</ele><time>2008-06-21T11:42:08Z</time></trkpt>
<trkpt lat="46.66595011" lon="7.21915500"><ele>1415.197998</ele><time>2008-06-21T11:42:15Z</time></trkpt>
<trkpt lat="46.66534896" lon="7.21999370"><ele>1414.236572</ele><time>2008-06-21T11:42:27Z</time></trkpt>
<trkpt lat="46.66438789" lon="7.22074237"><ele>1411.833496</ele><time>2008-06-21T11:42:42Z</time></trkpt>
<trkpt lat="46.66389395" lon="7.22114939"><ele>1411.833496</ele><time>2008-06-21T11:42:50Z</time></trkpt>
<trkpt lat="46.66372371" lon="7.22154208"><ele>1414.236572</ele><time>2008-06-21T11:42:56Z</time></trkpt>
<trkpt lat="46.66372396" lon="7.22167276"><ele>1414.236572</ele><time>2008-06-21T11:42:58Z</time></trkpt>
<trkpt lat="46.66383318" lon="7.22231255"><ele>1418.081787</ele><time>2008-06-21T11:43:11Z</time></trkpt>
<trkpt lat="46.66385137" lon="7.22241699"><ele>1420.004639</ele><time>2008-06-21T11:43:15Z</time></trkpt>
<trkpt lat="46.66398715" lon="7.22288688"><ele>1422.888672</ele><time>2008-06-21T11:43:33Z</time></trkpt>
<trkpt lat="46.66401431" lon="7.22297816"><ele>1423.849854</ele><time>2008-06-21T11:43:37Z</time></trkpt>
<trkpt lat="46.66412302" lon="7.22335668"><ele>1427.2146</ele><time>2008-06-21T11:43:53Z</time></trkpt>
<trkpt lat="46.66418673" lon="7.22376144"><ele>1430.098389</ele><time>2008-06-21T11:44:09Z</time></trkpt>
<trkpt lat="46.66434028" lon="7.22408750"><ele>1432.020996</ele><time>2008-06-21T11:44:26Z</time></trkpt>
<trkpt lat="46.66434925" lon="7.22408750"><ele>1432.020996</ele><time>2008-06-21T11:44:27Z</time></trkpt>
<trkpt lat="46.66442150" lon="7.22424399"><ele>1433.943604</ele><time>2008-06-21T11:44:49Z</time></trkpt>
<trkpt lat="46.66448470" lon="7.22434826"><ele>1434.905029</ele><time>2008-06-21T11:45:07Z</time></trkpt>
<trkpt lat="46.66461999" lon="7.22454373"><ele>1436.827637</ele><time>2008-06-21T11:45:24Z</time></trkpt>
<trkpt lat="46.66472820" lon="7.22470013"><ele>1437.789063</ele><time>2008-06-21T11:45:41Z</time></trkpt>
<trkpt lat="46.66486348" lon="7.22488252"><ele>1440.192383</ele><time>2008-06-21T11:46:00Z</time></trkpt>
<trkpt lat="46.66503472" lon="7.22506475"><ele>1441.153564</ele><time>2008-06-21T11:46:19Z</time></trkpt>
<trkpt lat="46.66518803" lon="7.22523406"><ele>1442.11499</ele><time>2008-06-21T11:46:38Z</time></trkpt>
<trkpt lat="46.66534108" lon="7.22533800"><ele>1444.037598</ele><time>2008-06-21T11:46:55Z</time></trkpt>
<trkpt lat="46.66548525" lon="7.22544193"><ele>1444.998779</ele><time>2008-06-21T11:47:11Z</time></trkpt>
<trkpt lat="46.66566538" lon="7.22554578"><ele>1446.921387</ele><time>2008-06-21T11:47:27Z</time></trkpt>
<trkpt lat="46.66581843" lon="7.22563664"><ele>1448.843994</ele><time>2008-06-21T11:47:45Z</time></trkpt>
<trkpt lat="46.66598951" lon="7.22572742"><ele>1450.766602</ele><time>2008-06-21T11:48:03Z</time></trkpt>
<trkpt lat="46.66614273" lon="7.22585751"><ele>1453.170166</ele><time>2008-06-21T11:48:21Z</time></trkpt>
<trkpt lat="46.66629586" lon="7.22597443"><ele>1454.131592</ele><time>2008-06-21T11:48:38Z</time></trkpt>
<trkpt lat="46.66648504" lon="7.22611743"><ele>1455.092773</ele><time>2008-06-21T11:48:58Z</time></trkpt>
<trkpt lat="46.66667414" lon="7.22624735"><ele>1454.131592</ele><time>2008-06-21T11:49:17Z</time></trkpt>
<trkpt lat="46.66677321" lon="7.22631231"><ele>1457.015381</ele><time>2008-06-21T11:49:29Z</time></trkpt>
<trkpt lat="46.66694437" lon="7.22644231"><ele>1458.937988</ele><time>2008-06-21T11:49:48Z</time></trkpt>
<trkpt lat="46.66711545" lon="7.22653309"><ele>1459.89917</ele><time>2008-06-21T11:50:07Z</time></trkpt>
<trkpt lat="46.66713347" lon="7.22654608"><ele>1459.89917</ele><time>2008-06-21T11:50:09Z</time></trkpt>
<trkpt lat="46.66733162" lon="7.22668908"><ele>1457.015381</ele><time>2008-06-21T11:50:30Z</time></trkpt>
<trkpt lat="46.66750269" lon="7.22676678"><ele>1460.860596</ele><time>2008-06-21T11:50:48Z</time></trkpt>
<trkpt lat="46.66751174" lon="7.22676678"><ele>1460.860596</ele><time>2008-06-21T11:51:16Z</time></trkpt>
<trkpt lat="46.66751174" lon="7.22676678"><ele>1459.89917</ele><time>2008-06-21T11:52:29Z</time></trkpt>
<trkpt lat="46.66750269" lon="7.22675378"><ele>1461.822021</ele><time>2008-06-21T11:53:17Z</time></trkpt>
<trkpt lat="46.66734964" lon="7.22668899"><ele>1460.860596</ele><time>2008-06-21T11:53:26Z</time></trkpt>
<trkpt lat="46.66726892" lon="7.22683308"><ele>1461.822021</ele><time>2008-06-21T11:53:33Z</time></trkpt>
<trkpt lat="46.66712576" lon="7.22723868"><ele>1462.783203</ele><time>2008-06-21T11:53:49Z</time></trkpt>
<trkpt lat="46.66700053" lon="7.22761813"><ele>1466.147705</ele><time>2008-06-21T11:54:06Z</time></trkpt>
<trkpt lat="46.66698259" lon="7.22763129"><ele>1466.147705</ele><time>2008-06-21T11:54:07Z</time></trkpt>
<trkpt lat="46.66684831" lon="7.22799766"><ele>1467.109131</ele><time>2008-06-21T11:54:25Z</time></trkpt>
<trkpt lat="46.66675888" lon="7.22827242"><ele>1469.993164</ele><time>2008-06-21T11:54:37Z</time></trkpt>
<trkpt lat="46.66664254" lon="7.22859956"><ele>1471.915771</ele><time>2008-06-21T11:54:52Z</time></trkpt>
<trkpt lat="46.66657993" lon="7.22878271"><ele>1475.760986</ele><time>2008-06-21T11:55:00Z</time></trkpt>
<trkpt lat="46.66644556" lon="7.22910994"><ele>1477.203125</ele><time>2008-06-21T11:55:15Z</time></trkpt>
<trkpt lat="46.66630257" lon="7.22960707"><ele>1475.760986</ele><time>2008-06-21T11:55:30Z</time></trkpt>
<trkpt lat="46.66618690" lon="7.23032615"><ele>1477.203125</ele><time>2008-06-21T11:55:46Z</time></trkpt>
<trkpt lat="46.66607073" lon="7.23071859"><ele>1474.799805</ele><time>2008-06-21T11:55:53Z</time></trkpt>
<trkpt lat="46.66589119" lon="7.23095446"><ele>1473.838379</ele><time>2008-06-21T11:55:58Z</time></trkpt>
<trkpt lat="46.66577443" lon="7.23102026"><ele>1471.915771</ele><time>2008-06-21T11:56:00Z</time></trkpt>
<trkpt lat="46.66571148" lon="7.23105974"><ele>1470.95459</ele><time>2008-06-21T11:56:01Z</time></trkpt>
<trkpt lat="46.66554091" lon="7.23121715"><ele>1469.031982</ele><time>2008-06-21T11:56:04Z</time></trkpt>
<trkpt lat="46.66548701" lon="7.23129577"><ele>1469.031982</ele><time>2008-06-21T11:56:05Z</time></trkpt>
<trkpt lat="46.66519096" lon="7.23171503"><ele>1465.186523</ele><time>2008-06-21T11:56:10Z</time></trkpt>
<trkpt lat="46.66496666" lon="7.23204260"><ele>1462.783203</ele><time>2008-06-21T11:56:14Z</time></trkpt>
<trkpt lat="46.66487714" lon="7.23229120"><ele>1456.053955</ele><time>2008-06-21T11:56:17Z</time></trkpt>
<trkpt lat="46.66486834" lon="7.23238265"><ele>1456.053955</ele><time>2008-06-21T11:56:18Z</time></trkpt>
<trkpt lat="46.66473398" lon="7.23270988"><ele>1454.131592</ele><time>2008-06-21T11:56:23Z</time></trkpt>
<trkpt lat="46.66458135" lon="7.23288029"><ele>1453.170166</ele><time>2008-06-21T11:56:26Z</time></trkpt>
<trkpt lat="46.66446484" lon="7.23311590"><ele>1452.20874</ele><time>2008-06-21T11:56:29Z</time></trkpt>
<trkpt lat="46.66430390" lon="7.23367841"><ele>1447.882813</ele><time>2008-06-21T11:56:35Z</time></trkpt>
<trkpt lat="46.66411590" lon="7.23417562"><ele>1444.037598</ele><time>2008-06-21T11:56:41Z</time></trkpt>
<trkpt lat="46.66408011" lon="7.23426724"><ele>1444.037598</ele><time>2008-06-21T11:56:42Z</time></trkpt>
<trkpt lat="46.66392798" lon="7.23472514"><ele>1441.153564</ele><time>2008-06-21T11:56:48Z</time></trkpt>
<trkpt lat="46.66391012" lon="7.23477744"><ele>1441.153564</ele><time>2008-06-21T11:56:49Z</time></trkpt>
<trkpt lat="46.66383846" lon="7.23493452"><ele>1441.153564</ele><time>2008-06-21T11:56:58Z</time></trkpt>
<trkpt lat="46.66382052" lon="7.23497383"><ele>1441.153564</ele><time>2008-06-21T11:57:23Z</time></trkpt>
<trkpt lat="46.66367736" lon="7.23543165"><ele>1437.789063</ele><time>2008-06-21T11:57:35Z</time></trkpt>
<trkpt lat="46.66365054" lon="7.23551019"><ele>1437.789063</ele><time>2008-06-21T11:57:47Z</time></trkpt>
<trkpt lat="46.66365950" lon="7.23548396"><ele>1439.230957</ele><time>2008-06-21T11:58:15Z</time></trkpt>
<trkpt lat="46.66362422" lon="7.23588914"><ele>1435.866211</ele><time>2008-06-21T11:58:26Z</time></trkpt>
<trkpt lat="46.66353445" lon="7.23600707"><ele>1434.905029</ele><time>2008-06-21T11:58:34Z</time></trkpt>
<trkpt lat="46.66334560" lon="7.23600782"><ele>1434.905029</ele><time>2008-06-21T11:58:39Z</time></trkpt>
<trkpt lat="46.66324661" lon="7.23600816"><ele>1432.982178</ele><time>2008-06-21T11:58:41Z</time></trkpt>
<trkpt lat="46.66320168" lon="7.23600833"><ele>1432.982178</ele><time>2008-06-21T11:58:42Z</time></trkpt>
<trkpt lat="46.66300396" lon="7.23611360"><ele>1432.982178</ele><time>2008-06-21T11:58:46Z</time></trkpt>
<trkpt lat="46.66272576" lon="7.23651971"><ele>1431.059814</ele><time>2008-06-21T11:58:52Z</time></trkpt>
<trkpt lat="46.66244756" lon="7.23689966"><ele>1428.175781</ele><time>2008-06-21T11:58:57Z</time></trkpt>
<trkpt lat="46.66234011" lon="7.23717442"><ele>1425.772461</ele><time>2008-06-21T11:59:00Z</time></trkpt>
<trkpt lat="46.66230440" lon="7.23730526"><ele>1425.772461</ele><time>2008-06-21T11:59:01Z</time></trkpt>
<trkpt lat="46.66200827" lon="7.23773751"><ele>1422.888672</ele><time>2008-06-21T11:59:09Z</time></trkpt>
<trkpt lat="46.66166637" lon="7.23768655"><ele>1420.004639</ele><time>2008-06-21T11:59:13Z</time></trkpt>
<trkpt lat="46.66138734" lon="7.23756996"><ele>1420.004639</ele><time>2008-06-21T11:59:17Z</time></trkpt>
<trkpt lat="46.66097377" lon="7.23772829"><ele>1417.120605</ele><time>2008-06-21T11:59:24Z</time></trkpt>
<trkpt lat="46.66081184" lon="7.23770281"><ele>1417.120605</ele><time>2008-06-21T11:59:27Z</time></trkpt>
<trkpt lat="46.66062266" lon="7.23754666"><ele>1416.15918</ele><time>2008-06-21T11:59:31Z</time></trkpt>
<trkpt lat="46.66056843" lon="7.23741624"><ele>1414.236572</ele><time>2008-06-21T11:59:33Z</time></trkpt>
<trkpt lat="46.66032510" lon="7.23715581"><ele>1411.833496</ele><time>2008-06-21T11:59:38Z</time></trkpt>
<trkpt lat="46.66027053" lon="7.23684249"><ele>1409.910645</ele><time>2008-06-21T11:59:42Z</time></trkpt>
<trkpt lat="46.66035117" lon="7.23663311"><ele>1407.988281</ele><time>2008-06-21T11:59:45Z</time></trkpt>
<trkpt lat="46.66039517" lon="7.23608418"><ele>1405.104248</ele><time>2008-06-21T11:59:52Z</time></trkpt>
<trkpt lat="46.66034111" lon="7.23601906"><ele>1405.104248</ele><time>2008-06-21T11:59:53Z</time></trkpt>
<trkpt lat="46.66022393" lon="7.23590196"><ele>1404.143066</ele><time>2008-06-21T11:59:55Z</time></trkpt>
<trkpt lat="46.65980031" lon="7.23544624"><ele>1399.816895</ele><time>2008-06-21T12:00:01Z</time></trkpt>
<trkpt lat="46.65943100" lon="7.23514709"><ele>1394.049072</ele><time>2008-06-21T12:00:05Z</time></trkpt>
<trkpt lat="46.65933184" lon="7.23506914"><ele>1393.087646</ele><time>2008-06-21T12:00:06Z</time></trkpt>
<trkpt lat="46.65901677" lon="7.23491348"><ele>1388.761963</ele><time>2008-06-21T12:00:09Z</time></trkpt>
<trkpt lat="46.65884569" lon="7.23482271"><ele>1387.800293</ele><time>2008-06-21T12:00:11Z</time></trkpt>
<trkpt lat="46.65862081" lon="7.23484970"><ele>1385.877686</ele><time>2008-06-21T12:00:15Z</time></trkpt>
<trkpt lat="46.65858443" lon="7.23461467"><ele>1384.916504</ele><time>2008-06-21T12:00:21Z</time></trkpt>
<trkpt lat="46.65881812" lon="7.23452230"><ele>1382.993652</ele><time>2008-06-21T12:00:25Z</time></trkpt>
<trkpt lat="46.65917778" lon="7.23441644"><ele>1378.187256</ele><time>2008-06-21T12:00:30Z</time></trkpt>
<trkpt lat="46.65940259" lon="7.23437637"><ele>1373.861328</ele><time>2008-06-21T12:00:33Z</time></trkpt>
<trkpt lat="46.65954650" lon="7.23436279"><ele>1371.938477</ele><time>2008-06-21T12:00:35Z</time></trkpt>
<trkpt lat="46.65976234" lon="7.23432273"><ele>1372.900146</ele><time>2008-06-21T12:00:38Z</time></trkpt>
<trkpt lat="46.66013114" lon="7.23430831"><ele>1370.015869</ele><time>2008-06-21T12:00:42Z</time></trkpt>
<trkpt lat="46.66020306" lon="7.23430806"><ele>1370.015869</ele><time>2008-06-21T12:00:43Z</time></trkpt>
<trkpt lat="46.66044563" lon="7.23412416"><ele>1365.209473</ele><time>2008-06-21T12:00:47Z</time></trkpt>
<trkpt lat="46.66056222" lon="7.23392777"><ele>1363.767334</ele><time>2008-06-21T12:00:49Z</time></trkpt>
<trkpt lat="46.66099339" lon="7.23356031"><ele>1365.209473</ele><time>2008-06-21T12:00:56Z</time></trkpt>
<trkpt lat="46.66099263" lon="7.23316837"><ele>1365.209473</ele><time>2008-06-21T12:01:02Z</time></trkpt>
<trkpt lat="46.66088434" lon="7.23295975"><ele>1365.209473</ele><time>2008-06-21T12:01:06Z</time></trkpt>
<trkpt lat="46.66084813" lon="7.23284223"><ele>1365.209473</ele><time>2008-06-21T12:01:08Z</time></trkpt>
<trkpt lat="46.66095542" lon="7.23246295"><ele>1362.806152</ele><time>2008-06-21T12:01:15Z</time></trkpt>
<trkpt lat="46.66108039" lon="7.23196599"><ele>1360.883545</ele><time>2008-06-21T12:01:21Z</time></trkpt>
<trkpt lat="46.66121467" lon="7.23159961"><ele>1359.922119</ele><time>2008-06-21T12:01:25Z</time></trkpt>
<trkpt lat="46.66134912" lon="7.23132469"><ele>1358.960938</ele><time>2008-06-21T12:01:28Z</time></trkpt>
<trkpt lat="46.66137569" lon="7.23107642"><ele>1357.03833</ele><time>2008-06-21T12:01:31Z</time></trkpt>
<trkpt lat="46.66141978" lon="7.23059278"><ele>1357.03833</ele><time>2008-06-21T12:01:37Z</time></trkpt>
<trkpt lat="46.66150033" lon="7.23037032"><ele>1357.999756</ele><time>2008-06-21T12:01:40Z</time></trkpt>
<trkpt lat="46.66143662" lon="7.22999171"><ele>1356.076904</ele><time>2008-06-21T12:01:47Z</time></trkpt>
<trkpt lat="46.66131869" lon="7.22943029"><ele>1354.154297</ele><time>2008-06-21T12:01:56Z</time></trkpt>
<trkpt lat="46.66131844" lon="7.22931270"><ele>1353.192871</ele><time>2008-06-21T12:01:57Z</time></trkpt>
<trkpt lat="46.66124585" lon="7.22893408"><ele>1352.231445</ele><time>2008-06-21T12:02:02Z</time></trkpt>
<trkpt lat="46.66112842" lon="7.22867324"><ele>1349.828369</ele><time>2008-06-21T12:02:06Z</time></trkpt>
<trkpt lat="46.66108316" lon="7.22854273"><ele>1348.866943</ele><time>2008-06-21T12:02:08Z</time></trkpt>
<trkpt lat="46.66106514" lon="7.22850367"><ele>1349.828369</ele><time>2008-06-21T12:02:09Z</time></trkpt>
<trkpt lat="46.66113622" lon="7.22803303"><ele>1346.944336</ele><time>2008-06-21T12:02:17Z</time></trkpt>
<trkpt lat="46.66109984" lon="7.22782407"><ele>1345.021729</ele><time>2008-06-21T12:02:22Z</time></trkpt>
<trkpt lat="46.66105483" lon="7.22778509"><ele>1344.060547</ele><time>2008-06-21T12:02:23Z</time></trkpt>
<trkpt lat="46.66061285" lon="7.22715964"><ele>1340.215332</ele><time>2008-06-21T12:02:36Z</time></trkpt>
<trkpt lat="46.66046843" lon="7.22689888"><ele>1335.88916</ele><time>2008-06-21T12:02:42Z</time></trkpt>
<trkpt lat="46.66033356" lon="7.22691254"><ele>1334.927979</ele><time>2008-06-21T12:02:46Z</time></trkpt>
<trkpt lat="46.66029761" lon="7.22693877"><ele>1334.927979</ele><time>2008-06-21T12:02:47Z</time></trkpt>
<trkpt lat="46.66015394" lon="7.22708303"><ele>1333.005127</ele><time>2008-06-21T12:02:51Z</time></trkpt>
<trkpt lat="46.65997406" lon="7.22709686"><ele>1331.082764</ele><time>2008-06-21T12:02:55Z</time></trkpt>
<trkpt lat="46.65982101" lon="7.22701907"><ele>1332.043945</ele><time>2008-06-21T12:02:58Z</time></trkpt>
<trkpt lat="46.65948833" lon="7.22713793"><ele>1331.082764</ele><time>2008-06-21T12:03:06Z</time></trkpt>
<trkpt lat="46.65929069" lon="7.22725628"><ele>1329.159912</ele><time>2008-06-21T12:03:10Z</time></trkpt>
<trkpt lat="46.65912875" lon="7.22727003"><ele>1329.159912</ele><time>2008-06-21T12:03:13Z</time></trkpt>
<trkpt lat="46.65897637" lon="7.22755803"><ele>1327.237549</ele><time>2008-06-21T12:03:21Z</time></trkpt>
<trkpt lat="46.65900344" lon="7.22759709"><ele>1325.79541</ele><time>2008-06-21T12:03:22Z</time></trkpt>
<trkpt lat="46.65908458" lon="7.22768828"><ele>1324.834229</ele><time>2008-06-21T12:03:24Z</time></trkpt>
<trkpt lat="46.65917485" lon="7.22787084"><ele>1324.834229</ele><time>2008-06-21T12:03:27Z</time></trkpt>
<trkpt lat="46.65922942" lon="7.22817108"><ele>1323.872559</ele><time>2008-06-21T12:03:31Z</time></trkpt>
<trkpt lat="46.65917619" lon="7.22856327"><ele>1321.949951</ele><time>2008-06-21T12:03:36Z</time></trkpt>
<trkpt lat="46.65895223" lon="7.22908672"><ele>1318.104736</ele><time>2008-06-21T12:03:42Z</time></trkpt>
<trkpt lat="46.65888056" lon="7.22925687"><ele>1318.104736</ele><time>2008-06-21T12:03:44Z</time></trkpt>
<trkpt lat="46.65878182" lon="7.22938788"><ele>1318.104736</ele><time>2008-06-21T12:03:46Z</time></trkpt>
<trkpt lat="46.65862919" lon="7.22954529"><ele>1319.066162</ele><time>2008-06-21T12:03:49Z</time></trkpt>
<trkpt lat="46.65846767" lon="7.22974185"><ele>1317.143555</ele><time>2008-06-21T12:03:52Z</time></trkpt>
<trkpt lat="46.65838762" lon="7.23023864"><ele>1317.143555</ele><time>2008-06-21T12:03:58Z</time></trkpt>
<trkpt lat="46.65841486" lon="7.23039530"><ele>1317.143555</ele><time>2008-06-21T12:04:00Z</time></trkpt>
<trkpt lat="46.65844261" lon="7.23081331"><ele>1315.220947</ele><time>2008-06-21T12:04:07Z</time></trkpt>
<trkpt lat="46.65816374" lon="7.23081431"><ele>1311.856445</ele><time>2008-06-21T12:04:17Z</time></trkpt>
<trkpt lat="46.65804673" lon="7.23077559"><ele>1309.933594</ele><time>2008-06-21T12:04:20Z</time></trkpt>
<trkpt lat="46.65792989" lon="7.23078908"><ele>1308.972412</ele><time>2008-06-21T12:04:22Z</time></trkpt>
<trkpt lat="46.65774096" lon="7.23078984"><ele>1308.01123</ele><time>2008-06-21T12:04:26Z</time></trkpt>
<trkpt lat="46.65763308" lon="7.23085555"><ele>1307.049561</ele><time>2008-06-21T12:04:28Z</time></trkpt>
<trkpt lat="46.65739034" lon="7.23093493"><ele>1306.088135</ele><time>2008-06-21T12:04:32Z</time></trkpt>
<trkpt lat="46.65696748" lon="7.23088430"><ele>1304.165771</ele><time>2008-06-21T12:04:40Z</time></trkpt>
<trkpt lat="46.65682356" lon="7.23088481"><ele>1301.762451</ele><time>2008-06-21T12:04:43Z</time></trkpt>
<trkpt lat="46.65676053" lon="7.23085891"><ele>1300.801025</ele><time>2008-06-21T12:04:44Z</time></trkpt>
<trkpt lat="46.65644545" lon="7.23070342"><ele>1299.839844</ele><time>2008-06-21T12:04:48Z</time></trkpt>
<trkpt lat="46.65609475" lon="7.23077006"><ele>1295.033203</ele><time>2008-06-21T12:04:52Z</time></trkpt>
<trkpt lat="46.65572612" lon="7.23087600"><ele>1295.033203</ele><time>2008-06-21T12:04:58Z</time></trkpt>
<trkpt lat="46.65550986" lon="7.23069395"><ele>1290.226563</ele><time>2008-06-21T12:05:01Z</time></trkpt>
<trkpt lat="46.65537458" lon="7.23049848"><ele>1285.900635</ele><time>2008-06-21T12:05:03Z</time></trkpt>
<trkpt lat="46.65533837" lon="7.23039413"><ele>1284.939453</ele><time>2008-06-21T12:05:04Z</time></trkpt>
<trkpt lat="46.65516688" lon="7.23004200"><ele>1283.016602</ele><time>2008-06-21T12:05:07Z</time></trkpt>
<trkpt lat="46.65513067" lon="7.22992457"><ele>1283.016602</ele><time>2008-06-21T12:05:08Z</time></trkpt>
<trkpt lat="46.65504031" lon="7.22970287"><ele>1281.094238</ele><time>2008-06-21T12:05:10Z</time></trkpt>
<trkpt lat="46.65488709" lon="7.22953364"><ele>1279.171387</ele><time>2008-06-21T12:05:12Z</time></trkpt>
<trkpt lat="46.65483294" lon="7.22944236"><ele>1279.171387</ele><time>2008-06-21T12:05:13Z</time></trkpt>
<trkpt lat="46.65482347" lon="7.22918110"><ele>1274.845459</ele><time>2008-06-21T12:05:16Z</time></trkpt>
<trkpt lat="46.65490402" lon="7.22898488"><ele>1273.884033</ele><time>2008-06-21T12:05:19Z</time></trkpt>
<trkpt lat="46.65508348" lon="7.22870979"><ele>1269.077637</ele><time>2008-06-21T12:05:24Z</time></trkpt>
<trkpt lat="46.65511935" lon="7.22865740"><ele>1269.077637</ele><time>2008-06-21T12:05:25Z</time></trkpt>
<trkpt lat="46.65530744" lon="7.22822556"><ele>1266.193604</ele><time>2008-06-21T12:05:29Z</time></trkpt>
<trkpt lat="46.65533393" lon="7.22793806"><ele>1262.829102</ele><time>2008-06-21T12:05:33Z</time></trkpt>
<trkpt lat="46.65536947" lon="7.22770278"><ele>1262.829102</ele><time>2008-06-21T12:05:37Z</time></trkpt>
<trkpt lat="46.65527919" lon="7.22754629"><ele>1258.983643</ele><time>2008-06-21T12:05:42Z</time></trkpt>
<trkpt lat="46.65523427" lon="7.22757261"><ele>1258.022461</ele><time>2008-06-21T12:05:43Z</time></trkpt>
<trkpt lat="46.65508155" lon="7.22767772"><ele>1256.099609</ele><time>2008-06-21T12:05:47Z</time></trkpt>
<trkpt lat="46.65488373" lon="7.22773078"><ele>1255.138428</ele><time>2008-06-21T12:05:51Z</time></trkpt>
<trkpt lat="46.65474870" lon="7.22766599"><ele>1251.773926</ele><time>2008-06-21T12:05:54Z</time></trkpt>
<trkpt lat="46.65465860" lon="7.22761410"><ele>1250.8125</ele><time>2008-06-21T12:05:56Z</time></trkpt>
<trkpt lat="46.65454159" lon="7.22754923"><ele>1248.889893</ele><time>2008-06-21T12:05:59Z</time></trkpt>
<trkpt lat="46.65446062" lon="7.22753649"><ele>1247.928711</ele><time>2008-06-21T12:06:01Z</time></trkpt>
<trkpt lat="46.65435274" lon="7.22757605"><ele>1246.967285</ele><time>2008-06-21T12:06:03Z</time></trkpt>
<trkpt lat="46.65415501" lon="7.22768133"><ele>1246.006104</ele><time>2008-06-21T12:06:07Z</time></trkpt>
<trkpt lat="46.65416356" lon="7.22743314"><ele>1243.121826</ele><time>2008-06-21T12:06:13Z</time></trkpt>
<trkpt lat="46.65422609" lon="7.22721077"><ele>1240.238037</ele><time>2008-06-21T12:06:17Z</time></trkpt>
<trkpt lat="46.65422592" lon="7.22713239"><ele>1237.834717</ele><time>2008-06-21T12:06:18Z</time></trkpt>
<trkpt lat="46.65423439" lon="7.22685806"><ele>1235.912109</ele><time>2008-06-21T12:06:21Z</time></trkpt>
<trkpt lat="46.65430580" lon="7.22654424"><ele>1233.989502</ele><time>2008-06-21T12:06:25Z</time></trkpt>
<trkpt lat="46.65430496" lon="7.22611307"><ele>1231.105713</ele><time>2008-06-21T12:06:31Z</time></trkpt>
<trkpt lat="46.65425090" lon="7.22602188"><ele>1230.144287</ele><time>2008-06-21T12:06:33Z</time></trkpt>
<trkpt lat="46.65421478" lon="7.22595667"><ele>1229.182861</ele><time>2008-06-21T12:06:34Z</time></trkpt>
<trkpt lat="46.65392669" lon="7.22582716"><ele>1224.856934</ele><time>2008-06-21T12:06:40Z</time></trkpt>
<trkpt lat="46.65383658" lon="7.22576221"><ele>1222.934326</ele><time>2008-06-21T12:06:42Z</time></trkpt>
<trkpt lat="46.65373751" lon="7.22571032"><ele>1221.9729</ele><time>2008-06-21T12:06:44Z</time></trkpt>
<trkpt lat="46.65354850" lon="7.22565886"><ele>1219.089111</ele><time>2008-06-21T12:06:47Z</time></trkpt>
<trkpt lat="46.65335060" lon="7.22564653"><ele>1216.205078</ele><time>2008-06-21T12:06:50Z</time></trkpt>
<trkpt lat="46.65301784" lon="7.22567403"><ele>1212.840576</ele><time>2008-06-21T12:06:55Z</time></trkpt>
<trkpt lat="46.65277543" lon="7.22593621"><ele>1209.956299</ele><time>2008-06-21T12:07:01Z</time></trkpt>
<trkpt lat="46.65272171" lon="7.22606706"><ele>1208.033936</ele><time>2008-06-21T12:07:03Z</time></trkpt>
<trkpt lat="46.65231762" lon="7.22646059"><ele>1204.188721</ele><time>2008-06-21T12:07:11Z</time></trkpt>
<trkpt lat="46.65223681" lon="7.22655237"><ele>1203.227295</ele><time>2008-06-21T12:07:13Z</time></trkpt>
<trkpt lat="46.65220102" lon="7.22661775"><ele>1201.7854</ele><time>2008-06-21T12:07:14Z</time></trkpt>
<trkpt lat="46.65202115" lon="7.22667072"><ele>1198.901367</ele><time>2008-06-21T12:07:18Z</time></trkpt>
<trkpt lat="46.65199407" lon="7.22663166"><ele>1198.901367</ele><time>2008-06-21T12:07:19Z</time></trkpt>
<trkpt lat="46.65197589" lon="7.22652722"><ele>1197.940186</ele><time>2008-06-21T12:07:21Z</time></trkpt>
<trkpt lat="46.65191243" lon="7.22626621"><ele>1196.017578</ele><time>2008-06-21T12:07:25Z</time></trkpt>
<trkpt lat="46.65186726" lon="7.22614878"><ele>1196.017578</ele><time>2008-06-21T12:07:27Z</time></trkpt>
<trkpt lat="46.65188486" lon="7.22595281"><ele>1194.094727</ele><time>2008-06-21T12:07:31Z</time></trkpt>
<trkpt lat="46.65198326" lon="7.22562583"><ele>1193.133301</ele><time>2008-06-21T12:07:45Z</time></trkpt>
<trkpt lat="46.65199206" lon="7.22554738"><ele>1191.210693</ele><time>2008-06-21T12:08:02Z</time></trkpt>
<trkpt lat="46.65194680" lon="7.22536474"><ele>1187.846191</ele><time>2008-06-21T12:08:06Z</time></trkpt>
<trkpt lat="46.65193733" lon="7.22512962"><ele>1185.923584</ele><time>2008-06-21T12:08:10Z</time></trkpt>
<trkpt lat="46.65193699" lon="7.22494673"><ele>1185.923584</ele><time>2008-06-21T12:08:13Z</time></trkpt>
<trkpt lat="46.65197236" lon="7.22460693"><ele>1184.962402</ele><time>2008-06-21T12:08:18Z</time></trkpt>
<trkpt lat="46.65206180" lon="7.22433225"><ele>1184.000977</ele><time>2008-06-21T12:08:23Z</time></trkpt>
<trkpt lat="46.65224109" lon="7.22401801"><ele>1181.117188</ele><time>2008-06-21T12:08:31Z</time></trkpt>
<trkpt lat="46.65249280" lon="7.22391249"><ele>1182.078369</ele><time>2008-06-21T12:08:39Z</time></trkpt>
<trkpt lat="46.65272657" lon="7.22385935"><ele>1183.039551</ele><time>2008-06-21T12:08:51Z</time></trkpt>
<trkpt lat="46.65287954" lon="7.22388483"><ele>1184.962402</ele><time>2008-06-21T12:08:59Z</time></trkpt>
<trkpt lat="46.65292455" lon="7.22388466"><ele>1185.923584</ele><time>2008-06-21T12:09:02Z</time></trkpt>
<trkpt lat="46.65296034" lon="7.22380612"><ele>1185.923584</ele><time>2008-06-21T12:09:06Z</time></trkpt>
<trkpt lat="46.65296017" lon="7.22371467"><ele>1185.923584</ele><time>2008-06-21T12:09:10Z</time></trkpt>
<trkpt lat="46.65293234" lon="7.22328368"><ele>1186.884766</ele><time>2008-06-21T12:09:24Z</time></trkpt>
<trkpt lat="46.65285070" lon="7.22291823"><ele>1185.923584</ele><time>2008-06-21T12:09:32Z</time></trkpt>
<trkpt lat="46.65283260" lon="7.22286609"><ele>1184.962402</ele><time>2008-06-21T12:09:33Z</time></trkpt>
<trkpt lat="46.65278709" lon="7.22256577"><ele>1184.962402</ele><time>2008-06-21T12:09:38Z</time></trkpt>
<trkpt lat="46.65296646" lon="7.22226460"><ele>1184.000977</ele><time>2008-06-21T12:09:47Z</time></trkpt>
<trkpt lat="46.65302932" lon="7.22223820"><ele>1182.078369</ele><time>2008-06-21T12:09:49Z</time></trkpt>
<trkpt lat="46.65310124" lon="7.22219872"><ele>1183.039551</ele><time>2008-06-21T12:09:51Z</time></trkpt>
<trkpt lat="46.65320006" lon="7.22213301"><ele>1182.078369</ele><time>2008-06-21T12:09:53Z</time></trkpt>
<trkpt lat="46.65348723" lon="7.22179220"><ele>1179.194092</ele><time>2008-06-21T12:09:59Z</time></trkpt>
<trkpt lat="46.65353215" lon="7.22172674"><ele>1174.868408</ele><time>2008-06-21T12:10:00Z</time></trkpt>
<trkpt lat="46.65358596" lon="7.22164812"><ele>1176.791016</ele><time>2008-06-21T12:10:01Z</time></trkpt>
<trkpt lat="46.65379249" lon="7.22145131"><ele>1173.906982</ele><time>2008-06-21T12:10:04Z</time></trkpt>
<trkpt lat="46.65399903" lon="7.22125450"><ele>1173.906982</ele><time>2008-06-21T12:10:07Z</time></trkpt>
<trkpt lat="46.65441259" lon="7.22114839"><ele>1173.906982</ele><time>2008-06-21T12:10:15Z</time></trkpt>
<trkpt lat="46.65451996" lon="7.22084748"><ele>1173.906982</ele><time>2008-06-21T12:10:19Z</time></trkpt>
<trkpt lat="46.65477972" lon="7.22027156"><ele>1172.945801</ele><time>2008-06-21T12:10:26Z</time></trkpt>
<trkpt lat="46.65491425" lon="7.22007508"><ele>1172.945801</ele><time>2008-06-21T12:10:29Z</time></trkpt>
<trkpt lat="46.65485071" lon="7.21974878"><ele>1171.984375</ele><time>2008-06-21T12:10:36Z</time></trkpt>
<trkpt lat="46.65475164" lon="7.21968382"><ele>1171.023193</ele><time>2008-06-21T12:10:38Z</time></trkpt>
<trkpt lat="46.65449942" lon="7.21951501"><ele>1166.216553</ele><time>2008-06-21T12:10:42Z</time></trkpt>
<trkpt lat="46.65434629" lon="7.21942415"><ele>1164.774658</ele><time>2008-06-21T12:10:44Z</time></trkpt>
<trkpt lat="46.65427429" lon="7.21937218"><ele>1164.774658</ele><time>2008-06-21T12:10:45Z</time></trkpt>
<trkpt lat="46.65405761" lon="7.21899424"><ele>1160.929199</ele><time>2008-06-21T12:10:49Z</time></trkpt>
<trkpt lat="46.65390406" lon="7.21864211"><ele>1158.04541</ele><time>2008-06-21T12:10:52Z</time></trkpt>
<trkpt lat="46.65372343" lon="7.21830323"><ele>1156.122559</ele><time>2008-06-21T12:10:55Z</time></trkpt>
<trkpt lat="46.65357909" lon="7.21808170"><ele>1155.161377</ele><time>2008-06-21T12:10:57Z</time></trkpt>
<trkpt lat="46.65285858" lon="7.21762740"><ele>1151.796875</ele><time>2008-06-21T12:11:05Z</time></trkpt>
<trkpt lat="46.65261534" lon="7.21745859"><ele>1151.796875</ele><time>2008-06-21T12:11:08Z</time></trkpt>
<trkpt lat="46.65239037" lon="7.21739422"><ele>1151.796875</ele><time>2008-06-21T12:11:11Z</time></trkpt>
<trkpt lat="46.65215601" lon="7.21716003"><ele>1150.835449</ele><time>2008-06-21T12:11:15Z</time></trkpt>
<trkpt lat="46.65207471" lon="7.21696439"><ele>1148.912842</ele><time>2008-06-21T12:11:17Z</time></trkpt>
<trkpt lat="46.65200229" lon="7.21675568"><ele>1147.951416</ele><time>2008-06-21T12:11:19Z</time></trkpt>
<trkpt lat="46.65195661" lon="7.21637707"><ele>1146.028809</ele><time>2008-06-21T12:11:22Z</time></trkpt>
<trkpt lat="46.65195610" lon="7.21611581"><ele>1146.028809</ele><time>2008-06-21T12:11:24Z</time></trkpt>
<trkpt lat="46.65220664" lon="7.21544852"><ele>1143.144775</ele><time>2008-06-21T12:11:31Z</time></trkpt>
<trkpt lat="46.65225031" lon="7.21476900"><ele>1138.819092</ele><time>2008-06-21T12:11:37Z</time></trkpt>
<trkpt lat="46.65226808" lon="7.21465141"><ele>1138.819092</ele><time>2008-06-21T12:11:38Z</time></trkpt>
<trkpt lat="46.65230379" lon="7.21453364"><ele>1137.857666</ele><time>2008-06-21T12:11:39Z</time></trkpt>
<trkpt lat="46.65241116" lon="7.21421965"><ele>1135.935059</ele><time>2008-06-21T12:11:42Z</time></trkpt>
<trkpt lat="46.65267066" lon="7.21355237"><ele>1134.012451</ele><time>2008-06-21T12:11:48Z</time></trkpt>
<trkpt lat="46.65309168" lon="7.21264922"><ele>1132.089844</ele><time>2008-06-21T12:11:57Z</time></trkpt>
<trkpt lat="46.65331531" lon="7.21202125"><ele>1131.128418</ele><time>2008-06-21T12:12:03Z</time></trkpt>
<trkpt lat="46.65338656" lon="7.21166820"><ele>1129.205566</ele><time>2008-06-21T12:12:06Z</time></trkpt>
<trkpt lat="46.65337717" lon="7.21143309"><ele>1127.763672</ele><time>2008-06-21T12:12:08Z</time></trkpt>
<trkpt lat="46.65327642" lon="7.21055827"><ele>1123.918457</ele><time>2008-06-21T12:12:15Z</time></trkpt>
<trkpt lat="46.65323988" lon="7.21028410"><ele>1122.957275</ele><time>2008-06-21T12:12:17Z</time></trkpt>
<trkpt lat="46.65317617" lon="7.20990549"><ele>1121.99585</ele><time>2008-06-21T12:12:20Z</time></trkpt>
<trkpt lat="46.65333660" lon="7.20914709"><ele>1121.99585</ele><time>2008-06-21T12:12:27Z</time></trkpt>
<trkpt lat="46.65336309" lon="7.20889882"><ele>1121.034668</ele><time>2008-06-21T12:12:29Z</time></trkpt>
<trkpt lat="46.65335353" lon="7.20863756"><ele>1120.073242</ele><time>2008-06-21T12:12:31Z</time></trkpt>
<trkpt lat="46.65343325" lon="7.20801017"><ele>1116.228027</ele><time>2008-06-21T12:12:36Z</time></trkpt>
<trkpt lat="46.65346895" lon="7.20787933"><ele>1116.228027</ele><time>2008-06-21T12:12:37Z</time></trkpt>
<trkpt lat="46.65355822" lon="7.20755235"><ele>1114.785889</ele><time>2008-06-21T12:12:40Z</time></trkpt>
<trkpt lat="46.65372829" lon="7.20713359"><ele>1110.940674</ele><time>2008-06-21T12:12:44Z</time></trkpt>
<trkpt lat="46.65428393" lon="7.20609918"><ele>1112.863281</ele><time>2008-06-21T12:12:57Z</time></trkpt>
<trkpt lat="46.65449808" lon="7.20523601"><ele>1112.863281</ele><time>2008-06-21T12:13:07Z</time></trkpt>
<trkpt lat="46.65450663" lon="7.20504005"><ele>1110.940674</ele><time>2008-06-21T12:13:09Z</time></trkpt>
<trkpt lat="46.65440454" lon="7.20351202"><ele>1109.018066</ele><time>2008-06-21T12:13:24Z</time></trkpt>
<trkpt lat="46.65438577" lon="7.20312017"><ele>1109.979248</ele><time>2008-06-21T12:13:28Z</time></trkpt>
<trkpt lat="46.65442114" lon="7.20283259"><ele>1109.018066</ele><time>2008-06-21T12:13:31Z</time></trkpt>
<trkpt lat="46.65454653" lon="7.20257074"><ele>1107.095459</ele><time>2008-06-21T12:13:34Z</time></trkpt>
<trkpt lat="46.65494157" lon="7.20219020"><ele>1106.134033</ele><time>2008-06-21T12:13:40Z</time></trkpt>
<trkpt lat="46.65512899" lon="7.20149693"><ele>1102.769531</ele><time>2008-06-21T12:13:47Z</time></trkpt>
<trkpt lat="46.65508239" lon="7.20070023"><ele>1097.001465</ele><time>2008-06-21T12:13:53Z</time></trkpt>
<trkpt lat="46.65509110" lon="7.20055648"><ele>1097.001465</ele><time>2008-06-21T12:13:54Z</time></trkpt>
<trkpt lat="46.65509923" lon="7.20015147"><ele>1097.001465</ele><time>2008-06-21T12:13:57Z</time></trkpt>
<trkpt lat="46.65493621" lon="7.19961653"><ele>1097.962891</ele><time>2008-06-21T12:14:02Z</time></trkpt>
<trkpt lat="46.65478282" lon="7.19939517"><ele>1097.962891</ele><time>2008-06-21T12:14:05Z</time></trkpt>
<trkpt lat="46.65460244" lon="7.19917389"><ele>1097.962891</ele><time>2008-06-21T12:14:08Z</time></trkpt>
<trkpt lat="46.65409802" lon="7.19887566"><ele>1097.962891</ele><time>2008-06-21T12:14:16Z</time></trkpt>
<trkpt lat="46.65394454" lon="7.19861506"><ele>1097.962891</ele><time>2008-06-21T12:14:20Z</time></trkpt>
<trkpt lat="46.65383541" lon="7.19804074"><ele>1097.962891</ele><time>2008-06-21T12:14:26Z</time></trkpt>
<trkpt lat="46.65386081" lon="7.19729592"><ele>1093.15625</ele><time>2008-06-21T12:14:33Z</time></trkpt>
<trkpt lat="46.65387774" lon="7.19678639"><ele>1088.830566</ele><time>2008-06-21T12:14:37Z</time></trkpt>
<trkpt lat="46.65386810" lon="7.19648598"><ele>1084.985352</ele><time>2008-06-21T12:14:39Z</time></trkpt>
<trkpt lat="46.65380230" lon="7.19515376"><ele>1084.023926</ele><time>2008-06-21T12:14:48Z</time></trkpt>
<trkpt lat="46.65376592" lon="7.19497103"><ele>1084.023926</ele><time>2008-06-21T12:14:50Z</time></trkpt>
<trkpt lat="46.65345018" lon="7.19456744"><ele>1081.139893</ele><time>2008-06-21T12:14:55Z</time></trkpt>
<trkpt lat="46.65298121" lon="7.19399479"><ele>1076.813965</ele><time>2008-06-21T12:15:02Z</time></trkpt>
<trkpt lat="46.65278256" lon="7.19365600"><ele>1073.929932</ele><time>2008-06-21T12:15:05Z</time></trkpt>
<trkpt lat="46.65267410" lon="7.19339523"><ele>1072.007324</ele><time>2008-06-21T12:15:07Z</time></trkpt>
<trkpt lat="46.65258349" lon="7.19308209"><ele>1069.123535</ele><time>2008-06-21T12:15:09Z</time></trkpt>
<trkpt lat="46.65248383" lon="7.19278210"><ele>1068.162109</ele><time>2008-06-21T12:15:11Z</time></trkpt>
<trkpt lat="46.65229356" lon="7.19214289"><ele>1062.874756</ele><time>2008-06-21T12:15:15Z</time></trkpt>
<trkpt lat="46.65219398" lon="7.19184291"><ele>1060.952148</ele><time>2008-06-21T12:15:17Z</time></trkpt>
<trkpt lat="46.65206725" lon="7.19149070"><ele>1060.952148</ele><time>2008-06-21T12:15:20Z</time></trkpt>
<trkpt lat="46.65192283" lon="7.19124318"><ele>1059.990723</ele><time>2008-06-21T12:15:24Z</time></trkpt>
<trkpt lat="46.65154472" lon="7.19112734"><ele>1058.068359</ele><time>2008-06-21T12:15:33Z</time></trkpt>
<trkpt lat="46.65125655" lon="7.19099801"><ele>1055.184326</ele><time>2008-06-21T12:15:37Z</time></trkpt>
<trkpt lat="46.65104927" lon="7.19080305"><ele>1049.896973</ele><time>2008-06-21T12:15:40Z</time></trkpt>
<trkpt lat="46.65098615" lon="7.19073800"><ele>1049.896973</ele><time>2008-06-21T12:15:41Z</time></trkpt>
<trkpt lat="46.65083268" lon="7.19047749"><ele>1045.090332</ele><time>2008-06-21T12:15:44Z</time></trkpt>
<trkpt lat="46.65080544" lon="7.19037306"><ele>1043.167725</ele><time>2008-06-21T12:15:45Z</time></trkpt>
<trkpt lat="46.65069647" lon="7.18989026"><ele>1044.12915</ele><time>2008-06-21T12:15:50Z</time></trkpt>
<trkpt lat="46.65043496" lon="7.18960402"><ele>1043.167725</ele><time>2008-06-21T12:15:56Z</time></trkpt>
<trkpt lat="46.65031820" lon="7.18968297"><ele>1043.167725</ele><time>2008-06-21T12:16:01Z</time></trkpt>
<trkpt lat="46.65035441" lon="7.18978733"><ele>1040.764404</ele><time>2008-06-21T12:16:06Z</time></trkpt>
<trkpt lat="46.65039950" lon="7.18983938"><ele>1040.764404</ele><time>2008-06-21T12:16:08Z</time></trkpt>
<trkpt lat="46.65046253" lon="7.18987827"><ele>1039.803223</ele><time>2008-06-21T12:16:10Z</time></trkpt>
<trkpt lat="46.65048961" lon="7.18993041"><ele>1037.880615</ele><time>2008-06-21T12:16:12Z</time></trkpt>
<trkpt lat="46.65037301" lon="7.19006158"><ele>1035.957764</ele><time>2008-06-21T12:16:18Z</time></trkpt>
<trkpt lat="46.65032800" lon="7.19006175"><ele>1034.996582</ele><time>2008-06-21T12:16:19Z</time></trkpt>
<trkpt lat="46.65003137" lon="7.19015454"><ele>1030.189941</ele><time>2008-06-21T12:16:25Z</time></trkpt>
<trkpt lat="46.64995945" lon="7.19019410"><ele>1029.228516</ele><time>2008-06-21T12:16:27Z</time></trkpt>
<trkpt lat="46.64990564" lon="7.19027272"><ele>1024.902832</ele><time>2008-06-21T12:16:29Z</time></trkpt>
<trkpt lat="46.64987873" lon="7.19029896"><ele>1024.902832</ele><time>2008-06-21T12:16:30Z</time></trkpt>
<trkpt lat="46.64979793" lon="7.19035160"><ele>1023.941406</ele><time>2008-06-21T12:16:32Z</time></trkpt>
<trkpt lat="46.64971705" lon="7.19041723"><ele>1022.980225</ele><time>2008-06-21T12:16:34Z</time></trkpt>
<trkpt lat="46.64963624" lon="7.19046987"><ele>1022.018799</ele><time>2008-06-21T12:16:36Z</time></trkpt>
<trkpt lat="46.64949249" lon="7.19056198"><ele>1021.057617</ele><time>2008-06-21T12:16:38Z</time></trkpt>
<trkpt lat="46.64931295" lon="7.19071956"><ele>1018.17334</ele><time>2008-06-21T12:16:43Z</time></trkpt>
<trkpt lat="46.64923215" lon="7.19079827"><ele>1015.770264</ele><time>2008-06-21T12:16:46Z</time></trkpt>
<trkpt lat="46.64915144" lon="7.19092928"><ele>1013.847412</ele><time>2008-06-21T12:16:50Z</time></trkpt>
<trkpt lat="46.64909779" lon="7.19107328"><ele>1012.88623</ele><time>2008-06-21T12:16:53Z</time></trkpt>
<trkpt lat="46.64906208" lon="7.19117789"><ele>1010.963623</ele><time>2008-06-21T12:16:55Z</time></trkpt>
<trkpt lat="46.64908078" lon="7.19151744"><ele>1008.079834</ele><time>2008-06-21T12:17:01Z</time></trkpt>
<trkpt lat="46.64905412" lon="7.19164819"><ele>1008.079834</ele><time>2008-06-21T12:17:03Z</time></trkpt>
<trkpt lat="46.64900090" lon="7.19202722"><ele>1005.195801</ele><time>2008-06-21T12:17:13Z</time></trkpt>
<trkpt lat="46.64910047" lon="7.19231422"><ele>1004.234619</ele><time>2008-06-21T12:17:18Z</time></trkpt>
<trkpt lat="46.64910106" lon="7.19257540"><ele>1002.792236</ele><time>2008-06-21T12:17:24Z</time></trkpt>
<trkpt lat="46.64902939" lon="7.19271949"><ele>1002.792236</ele><time>2008-06-21T12:17:29Z</time></trkpt>
<trkpt lat="46.64902051" lon="7.19275871"><ele>1001.831055</ele><time>2008-06-21T12:17:31Z</time></trkpt>
<trkpt lat="46.64896678" lon="7.19286340"><ele>1000.869629</ele><time>2008-06-21T12:17:36Z</time></trkpt>
<trkpt lat="46.64894893" lon="7.19294186"><ele>998.947021</ele><time>2008-06-21T12:17:39Z</time></trkpt>
<trkpt lat="46.64887718" lon="7.19303364"><ele>997.98584</ele><time>2008-06-21T12:17:43Z</time></trkpt>
<trkpt lat="46.64877869" lon="7.19325618"><ele>997.024414</ele><time>2008-06-21T12:17:48Z</time></trkpt>
<trkpt lat="46.64873418" lon="7.19346539"><ele>995.101807</ele><time>2008-06-21T12:17:54Z</time></trkpt>
<trkpt lat="46.64877953" lon="7.19364803"><ele>992.218018</ele><time>2008-06-21T12:17:57Z</time></trkpt>
<trkpt lat="46.64877987" lon="7.19379170"><ele>990.775879</ele><time>2008-06-21T12:17:59Z</time></trkpt>
<trkpt lat="46.64877106" lon="7.19390930"><ele>989.814697</ele><time>2008-06-21T12:18:01Z</time></trkpt>
<trkpt lat="46.64854744" lon="7.19448513"><ele>986.93042</ele><time>2008-06-21T12:18:13Z</time></trkpt>
<trkpt lat="46.64815273" lon="7.19498327"><ele>987.891846</ele><time>2008-06-21T12:18:27Z</time></trkpt>
<trkpt lat="46.64796414" lon="7.19514085"><ele>987.891846</ele><time>2008-06-21T12:18:33Z</time></trkpt>
<trkpt lat="46.64770304" lon="7.19502451"><ele>988.853516</ele><time>2008-06-21T12:18:43Z</time></trkpt>
<trkpt lat="46.64758561" lon="7.19478990"><ele>992.218018</ele><time>2008-06-21T12:18:53Z</time></trkpt>
<trkpt lat="46.64756751" lon="7.19473768"><ele>992.218018</ele><time>2008-06-21T12:18:55Z</time></trkpt>
<trkpt lat="46.64751328" lon="7.19463349"><ele>994.140625</ele><time>2008-06-21T12:19:00Z</time></trkpt>
<trkpt lat="46.64730599" lon="7.19445152"><ele>995.101807</ele><time>2008-06-21T12:19:12Z</time></trkpt>
<trkpt lat="46.64719795" lon="7.19442587"><ele>997.024414</ele><time>2008-06-21T12:19:23Z</time></trkpt>
<trkpt lat="46.64712670" lon="7.19476584"><ele>997.98584</ele><time>2008-06-21T12:19:37Z</time></trkpt>
<trkpt lat="46.64719032" lon="7.19503985"><ele>1000.869629</ele><time>2008-06-21T12:19:49Z</time></trkpt>
<trkpt lat="46.64718194" lon="7.19535341"><ele>1001.831055</ele><time>2008-06-21T12:20:02Z</time></trkpt>
<trkpt lat="46.64702956" lon="7.19560227"><ele>1002.792236</ele><time>2008-06-21T12:20:17Z</time></trkpt>
<trkpt lat="46.64684088" lon="7.19570755"><ele>1005.195801</ele><time>2008-06-21T12:20:31Z</time></trkpt>
<trkpt lat="46.64658892" lon="7.19566950"><ele>1006.156982</ele><time>2008-06-21T12:20:46Z</time></trkpt>
<trkpt lat="46.64634584" lon="7.19557922"><ele>1007.118408</ele><time>2008-06-21T12:21:01Z</time></trkpt>
<trkpt lat="46.64615675" lon="7.19548861"><ele>1009.041016</ele><time>2008-06-21T12:21:13Z</time></trkpt>
<trkpt lat="46.64610260" lon="7.19541050"><ele>1009.041016</ele><time>2008-06-21T12:21:18Z</time></trkpt>
<trkpt lat="46.64593932" lon="7.19475813"><ele>1008.079834</ele><time>2008-06-21T12:21:34Z</time></trkpt>
<trkpt lat="46.64570404" lon="7.19410610"><ele>1006.156982</ele><time>2008-06-21T12:21:47Z</time></trkpt>
<trkpt lat="46.64554956" lon="7.19337529"><ele>1007.118408</ele><time>2008-06-21T12:22:00Z</time></trkpt>
<trkpt lat="46.64552232" lon="7.19325786"><ele>1008.079834</ele><time>2008-06-21T12:22:02Z</time></trkpt>
<trkpt lat="46.64545862" lon="7.19293163"><ele>1010.002197</ele><time>2008-06-21T12:22:09Z</time></trkpt>
<trkpt lat="46.64526902" lon="7.19260591"><ele>1011.925049</ele><time>2008-06-21T12:22:19Z</time></trkpt>
<trkpt lat="46.64497138" lon="7.19225463"><ele>1013.847412</ele><time>2008-06-21T12:22:35Z</time></trkpt>
<trkpt lat="46.64464667" lon="7.19185120"><ele>1012.88623</ele><time>2008-06-21T12:22:47Z</time></trkpt>
<trkpt lat="46.64443913" lon="7.19155172"><ele>1011.925049</ele><time>2008-06-21T12:22:53Z</time></trkpt>
<trkpt lat="46.64433058" lon="7.19129104"><ele>1011.925049</ele><time>2008-06-21T12:22:57Z</time></trkpt>
<trkpt lat="46.64430317" lon="7.19109524"><ele>1011.925049</ele><time>2008-06-21T12:23:00Z</time></trkpt>
<trkpt lat="46.64423067" lon="7.19084739"><ele>1011.925049</ele><time>2008-06-21T12:23:05Z</time></trkpt>
<trkpt lat="46.64405893" lon="7.19044321"><ele>1008.079834</ele><time>2008-06-21T12:23:10Z</time></trkpt>
<trkpt lat="46.64402272" lon="7.19035202"><ele>1008.079834</ele><time>2008-06-21T12:23:11Z</time></trkpt>
<trkpt lat="46.64379674" lon="7.18985665"><ele>1005.195801</ele><time>2008-06-21T12:23:16Z</time></trkpt>
<trkpt lat="46.64358024" lon="7.18955725"><ele>1000.869629</ele><time>2008-06-21T12:23:20Z</time></trkpt>
<trkpt lat="46.64352609" lon="7.18950528"><ele>999.908447</ele><time>2008-06-21T12:23:21Z</time></trkpt>
<trkpt lat="46.64328285" lon="7.18932356"><ele>995.101807</ele><time>2008-06-21T12:23:25Z</time></trkpt>
<trkpt lat="46.64302116" lon="7.18893288"><ele>990.775879</ele><time>2008-06-21T12:23:30Z</time></trkpt>
<trkpt lat="46.64277800" lon="7.18882953"><ele>989.814697</ele><time>2008-06-21T12:23:33Z</time></trkpt>
<trkpt lat="46.64235447" lon="7.18849191"><ele>989.814697</ele><time>2008-06-21T12:23:41Z</time></trkpt>
<trkpt lat="46.64229110" lon="7.18832242"><ele>990.775879</ele><time>2008-06-21T12:23:43Z</time></trkpt>
<trkpt lat="46.64215540" lon="7.18794423"><ele>989.814697</ele><time>2008-06-21T12:23:47Z</time></trkpt>
<trkpt lat="46.64214559" lon="7.18760476"><ele>989.814697</ele><time>2008-06-21T12:23:51Z</time></trkpt>
<trkpt lat="46.64199170" lon="7.18713521"><ele>988.853516</ele><time>2008-06-21T12:23:57Z</time></trkpt>
<trkpt lat="46.64150370" lon="7.18613181"><ele>985.969238</ele><time>2008-06-21T12:24:09Z</time></trkpt>
<trkpt lat="46.64132114" lon="7.18493111"><ele>985.969238</ele><time>2008-06-21T12:24:21Z</time></trkpt>
<trkpt lat="46.64106675" lon="7.18380902"><ele>986.93042</ele><time>2008-06-21T12:24:36Z</time></trkpt>
<trkpt lat="46.64103968" lon="7.18376996"><ele>986.93042</ele><time>2008-06-21T12:24:37Z</time></trkpt>
<trkpt lat="46.64090415" lon="7.18352244"><ele>986.93042</ele><time>2008-06-21T12:24:42Z</time></trkpt>
<trkpt lat="46.64067859" lon="7.18319706"><ele>987.891846</ele><time>2008-06-21T12:24:50Z</time></trkpt>
<trkpt lat="46.64037206" lon="7.18292423"><ele>987.891846</ele><time>2008-06-21T12:25:01Z</time></trkpt>
<trkpt lat="46.64006554" lon="7.18262524"><ele>987.891846</ele><time>2008-06-21T12:25:10Z</time></trkpt>
<trkpt lat="46.63992103" lon="7.18236473"><ele>985.969238</ele><time>2008-06-21T12:25:15Z</time></trkpt>
<trkpt lat="46.63985783" lon="7.18226055"><ele>986.93042</ele><time>2008-06-21T12:25:17Z</time></trkpt>
<trkpt lat="46.63977661" lon="7.18214337"><ele>986.93042</ele><time>2008-06-21T12:25:19Z</time></trkpt>
<trkpt lat="46.63945206" lon="7.18183148"><ele>985.008057</ele><time>2008-06-21T12:25:26Z</time></trkpt>
<trkpt lat="46.63927135" lon="7.18146661"><ele>985.008057</ele><time>2008-06-21T12:25:31Z</time></trkpt>
<trkpt lat="46.63916180" lon="7.18077494"><ele>985.008057</ele><time>2008-06-21T12:25:40Z</time></trkpt>
<trkpt lat="46.63907127" lon="7.18051418"><ele>985.008057</ele><time>2008-06-21T12:25:44Z</time></trkpt>
<trkpt lat="46.63868311" lon="7.17992837"><ele>983.085205</ele><time>2008-06-21T12:25:53Z</time></trkpt>
<trkpt lat="46.63842117" lon="7.17944641"><ele>979.23999</ele><time>2008-06-21T12:25:59Z</time></trkpt>
<trkpt lat="46.63837600" lon="7.17936820"><ele>979.23999</ele><time>2008-06-21T12:26:00Z</time></trkpt>
<trkpt lat="46.63825848" lon="7.17910761"><ele>979.23999</ele><time>2008-06-21T12:26:03Z</time></trkpt>
<trkpt lat="46.63743756" lon="7.17807982"><ele>977.798096</ele><time>2008-06-21T12:26:18Z</time></trkpt>
<trkpt lat="46.63649007" lon="7.17679144"><ele>977.798096</ele><time>2008-06-21T12:26:37Z</time></trkpt>
<trkpt lat="46.63643592" lon="7.17672640"><ele>977.798096</ele><time>2008-06-21T12:26:38Z</time></trkpt>
<trkpt lat="46.63615655" lon="7.17650578"><ele>976.836914</ele><time>2008-06-21T12:26:43Z</time></trkpt>
<trkpt lat="46.63577811" lon="7.17624636"><ele>976.836914</ele><time>2008-06-21T12:26:49Z</time></trkpt>
<trkpt lat="46.63491217" lon="7.17520583"><ele>973.952881</ele><time>2008-06-21T12:27:05Z</time></trkpt>
<trkpt lat="46.63427087" lon="7.17407285"><ele>972.991699</ele><time>2008-06-21T12:27:19Z</time></trkpt>
<trkpt lat="46.63404490" lon="7.17362995"><ele>969.14624</ele><time>2008-06-21T12:27:24Z</time></trkpt>
<trkpt lat="46.63394557" lon="7.17343457"><ele>968.184814</ele><time>2008-06-21T12:27:26Z</time></trkpt>
<trkpt lat="46.63377358" lon="7.17297834"><ele>964.820313</ele><time>2008-06-21T12:27:30Z</time></trkpt>
<trkpt lat="46.63362874" lon="7.17258724"><ele>962.897705</ele><time>2008-06-21T12:27:33Z</time></trkpt>
<trkpt lat="46.63337577" lon="7.17211836"><ele>959.05249</ele><time>2008-06-21T12:27:37Z</time></trkpt>
<trkpt lat="46.63315902" lon="7.17177990"><ele>956.168457</ele><time>2008-06-21T12:27:40Z</time></trkpt>
<trkpt lat="46.63309582" lon="7.17166272"><ele>955.207031</ele><time>2008-06-21T12:27:41Z</time></trkpt>
<trkpt lat="46.63287856" lon="7.17108915"><ele>950.881104</ele><time>2008-06-21T12:27:45Z</time></trkpt>
<trkpt lat="46.63269768" lon="7.17067223"><ele>948.958496</ele><time>2008-06-21T12:27:48Z</time></trkpt>
<trkpt lat="46.63230046" lon="7.17006044"><ele>945.113281</ele><time>2008-06-21T12:27:53Z</time></trkpt>
<trkpt lat="46.63221915" lon="7.16994326"><ele>946.074707</ele><time>2008-06-21T12:27:54Z</time></trkpt>
<trkpt lat="46.63193014" lon="7.16943540"><ele>940.787354</ele><time>2008-06-21T12:27:58Z</time></trkpt>
<trkpt lat="46.63186686" lon="7.16931822"><ele>939.825928</ele><time>2008-06-21T12:27:59Z</time></trkpt>
<trkpt lat="46.63160535" lon="7.16903223"><ele>937.90332</ele><time>2008-06-21T12:28:02Z</time></trkpt>
<trkpt lat="46.63091091" lon="7.16829135"><ele>934.058105</ele><time>2008-06-21T12:28:10Z</time></trkpt>
<trkpt lat="46.63081183" lon="7.16822656"><ele>934.058105</ele><time>2008-06-21T12:28:11Z</time></trkpt>
<trkpt lat="46.62985688" lon="7.16763069"><ele>934.058105</ele><time>2008-06-21T12:28:23Z</time></trkpt>
<trkpt lat="46.62932505" lon="7.16718938"><ele>933.09668</ele><time>2008-06-21T12:28:31Z</time></trkpt>
<trkpt lat="46.62851485" lon="7.16694538"><ele>926.848389</ele><time>2008-06-21T12:28:41Z</time></trkpt>
<trkpt lat="46.62843397" lon="7.16694572"><ele>927.80957</ele><time>2008-06-21T12:28:42Z</time></trkpt>
<trkpt lat="46.62780466" lon="7.16711864"><ele>931.174316</ele><time>2008-06-21T12:28:51Z</time></trkpt>
<trkpt lat="46.62687921" lon="7.16758031"><ele>930.212891</ele><time>2008-06-21T12:29:07Z</time></trkpt>
<trkpt lat="46.62647478" lon="7.16772599"><ele>930.212891</ele><time>2008-06-21T12:29:14Z</time></trkpt>
<trkpt lat="46.62558429" lon="7.16778265"><ele>932.135498</ele><time>2008-06-21T12:29:30Z</time></trkpt>
<trkpt lat="46.62475674" lon="7.16779984"><ele>933.09668</ele><time>2008-06-21T12:29:46Z</time></trkpt>
<trkpt lat="46.62406423" lon="7.16784250"><ele>932.135498</ele><time>2008-06-21T12:29:59Z</time></trkpt>
<trkpt lat="46.62392920" lon="7.16780403"><ele>933.09668</ele><time>2008-06-21T12:30:02Z</time></trkpt>
<trkpt lat="46.62379417" lon="7.16776555"><ele>933.09668</ele><time>2008-06-21T12:30:05Z</time></trkpt>
<trkpt lat="46.62293804" lon="7.16711696"><ele>932.135498</ele><time>2008-06-21T12:30:24Z</time></trkpt>
<trkpt lat="46.62253269" lon="7.16689711"><ele>930.212891</ele><time>2008-06-21T12:30:31Z</time></trkpt>
<trkpt lat="46.62229850" lon="7.16676769"><ele>930.212891</ele><time>2008-06-21T12:30:35Z</time></trkpt>
<trkpt lat="46.62217244" lon="7.16670306"><ele>930.212891</ele><time>2008-06-21T12:30:37Z</time></trkpt>
<trkpt lat="46.62188443" lon="7.16666535"><ele>928.770996</ele><time>2008-06-21T12:30:41Z</time></trkpt>
<trkpt lat="46.62149803" lon="7.16681086"><ele>927.80957</ele><time>2008-06-21T12:30:46Z</time></trkpt>
<trkpt lat="46.62102043" lon="7.16646074"><ele>925.886963</ele><time>2008-06-21T12:30:53Z</time></trkpt>
<trkpt lat="46.62099319" lon="7.16635647"><ele>925.886963</ele><time>2008-06-21T12:30:54Z</time></trkpt>
<trkpt lat="46.62083887" lon="7.16578273"><ele>923.00293</ele><time>2008-06-21T12:30:59Z</time></trkpt>
<trkpt lat="46.62066705" lon="7.16541803"><ele>921.080322</ele><time>2008-06-21T12:31:03Z</time></trkpt>
<trkpt lat="46.62038717" lon="7.16498863"><ele>915.793213</ele><time>2008-06-21T12:31:09Z</time></trkpt>
<trkpt lat="46.62025172" lon="7.16478042"><ele>910.986572</ele><time>2008-06-21T12:31:11Z</time></trkpt>
<trkpt lat="46.62018852" lon="7.16467632"><ele>910.986572</ele><time>2008-06-21T12:31:12Z</time></trkpt>
<trkpt lat="46.61998090" lon="7.16436401"><ele>908.102783</ele><time>2008-06-21T12:31:15Z</time></trkpt>
<trkpt lat="46.61981829" lon="7.16410375"><ele>907.141113</ele><time>2008-06-21T12:31:18Z</time></trkpt>
<trkpt lat="46.61951202" lon="7.16390946"><ele>903.776611</ele><time>2008-06-21T12:31:23Z</time></trkpt>
<trkpt lat="46.61945754" lon="7.16370083"><ele>905.218506</ele><time>2008-06-21T12:31:30Z</time></trkpt>
<trkpt lat="46.61944848" lon="7.16368784"><ele>905.218506</ele><time>2008-06-21T12:31:34Z</time></trkpt>
<trkpt lat="46.61944840" lon="7.16366169"><ele>905.218506</ele><time>2008-06-21T12:31:36Z</time></trkpt>
<trkpt lat="46.61936735" lon="7.16359690"><ele>903.776611</ele><time>2008-06-21T12:31:47Z</time></trkpt>
<trkpt lat="46.61931337" lon="7.16361023"><ele>902.815186</ele><time>2008-06-21T12:32:26Z</time></trkpt>
<trkpt lat="46.61932284" lon="7.16379295"><ele>903.776611</ele><time>2008-06-21T12:34:40Z</time></trkpt>
<trkpt lat="46.61932284" lon="7.16381902"><ele>902.815186</ele><time>2008-06-21T12:34:42Z</time></trkpt>
<trkpt lat="46.61911723" lon="7.16435538"><ele>903.776611</ele><time>2008-06-21T12:34:54Z</time></trkpt>
<trkpt lat="46.61866059" lon="7.16523238"><ele>900.892578</ele><time>2008-06-21T12:35:10Z</time></trkpt>
<trkpt lat="46.61853519" lon="7.16545491"><ele>898.969971</ele><time>2008-06-21T12:35:13Z</time></trkpt>
<trkpt lat="46.61845464" lon="7.16563814"><ele>898.008789</ele><time>2008-06-21T12:35:15Z</time></trkpt>
<trkpt lat="46.61826680" lon="7.16605682"><ele>896.086182</ele><time>2008-06-21T12:35:19Z</time></trkpt>
<trkpt lat="46.61818634" lon="7.16627919"><ele>895.124756</ele><time>2008-06-21T12:35:21Z</time></trkpt>
<trkpt lat="46.61815080" lon="7.16647524"><ele>895.124756</ele><time>2008-06-21T12:35:23Z</time></trkpt>
<trkpt lat="46.61794486" lon="7.16686794"><ele>889.837402</ele><time>2008-06-21T12:35:28Z</time></trkpt>
<trkpt lat="46.61785542" lon="7.16707723"><ele>888.876221</ele><time>2008-06-21T12:35:30Z</time></trkpt>
<trkpt lat="46.61778392" lon="7.16727345"><ele>887.914795</ele><time>2008-06-21T12:35:32Z</time></trkpt>
<trkpt lat="46.61763154" lon="7.16752223"><ele>886.953369</ele><time>2008-06-21T12:35:36Z</time></trkpt>
<trkpt lat="46.61743423" lon="7.16774519"><ele>883.108154</ele><time>2008-06-21T12:35:40Z</time></trkpt>
<trkpt lat="46.61730850" lon="7.16783714"><ele>880.224365</ele><time>2008-06-21T12:35:42Z</time></trkpt>
<trkpt lat="46.61715612" lon="7.16805984"><ele>874.937012</ele><time>2008-06-21T12:35:45Z</time></trkpt>
<trkpt lat="46.61697708" lon="7.16843938"><ele>873.014404</ele><time>2008-06-21T12:35:49Z</time></trkpt>
<trkpt lat="46.61675278" lon="7.16867549"><ele>870.130371</ele><time>2008-06-21T12:35:52Z</time></trkpt>
<trkpt lat="46.61644718" lon="7.16878144"><ele>869.169189</ele><time>2008-06-21T12:35:56Z</time></trkpt>
<trkpt lat="46.61630318" lon="7.16878220"><ele>869.169189</ele><time>2008-06-21T12:35:58Z</time></trkpt>
<trkpt lat="46.61597989" lon="7.16899266"><ele>865.804688</ele><time>2008-06-21T12:36:03Z</time></trkpt>
<trkpt lat="46.61574637" lon="7.16916349"><ele>868.207764</ele><time>2008-06-21T12:36:07Z</time></trkpt>
<trkpt lat="46.61564746" lon="7.16919014"><ele>869.169189</ele><time>2008-06-21T12:36:09Z</time></trkpt>
<trkpt lat="46.61544990" lon="7.16933473"><ele>869.169189</ele><time>2008-06-21T12:36:14Z</time></trkpt>
<trkpt lat="46.61509073" lon="7.16959759"><ele>870.130371</ele><time>2008-06-21T12:36:25Z</time></trkpt>
<trkpt lat="46.61497347" lon="7.16945459"><ele>871.091797</ele><time>2008-06-21T12:36:31Z</time></trkpt>
<trkpt lat="46.61486560" lon="7.16948125"><ele>873.014404</ele><time>2008-06-21T12:36:35Z</time></trkpt>
<trkpt lat="46.61482972" lon="7.16952056"><ele>873.014404</ele><time>2008-06-21T12:36:37Z</time></trkpt>
<trkpt lat="46.61473056" lon="7.16945576"><ele>871.091797</ele><time>2008-06-21T12:36:41Z</time></trkpt>
<trkpt lat="46.61470332" lon="7.16935149"><ele>872.052979</ele><time>2008-06-21T12:36:43Z</time></trkpt>
<trkpt lat="46.61438716" lon="7.16879175"><ele>873.975586</ele><time>2008-06-21T12:36:55Z</time></trkpt>
<trkpt lat="46.61401743" lon="7.16840191"><ele>873.014404</ele><time>2008-06-21T12:37:07Z</time></trkpt>
<trkpt lat="46.61374778" lon="7.16848162"><ele>873.014404</ele><time>2008-06-21T12:37:14Z</time></trkpt>
<trkpt lat="46.61338753" lon="7.16832672"><ele>870.130371</ele><time>2008-06-21T12:37:21Z</time></trkpt>
<trkpt lat="46.61332450" lon="7.16828791"><ele>870.130371</ele><time>2008-06-21T12:37:22Z</time></trkpt>
<trkpt lat="46.61277507" lon="7.16799044"><ele>870.130371</ele><time>2008-06-21T12:37:33Z</time></trkpt>
<trkpt lat="46.61267582" lon="7.16788650"><ele>869.169189</ele><time>2008-06-21T12:37:38Z</time></trkpt>
<trkpt lat="46.61261246" lon="7.16770403"><ele>871.091797</ele><time>2008-06-21T12:37:41Z</time></trkpt>
<trkpt lat="46.61261229" lon="7.16765181"><ele>871.091797</ele><time>2008-06-21T12:37:42Z</time></trkpt>
<trkpt lat="46.61261941" lon="7.16684246"><ele>871.091797</ele><time>2008-06-21T12:37:55Z</time></trkpt>
<trkpt lat="46.61278873" lon="7.16616277"><ele>873.014404</ele><time>2008-06-21T12:38:07Z</time></trkpt>
<trkpt lat="46.61278739" lon="7.16562758"><ele>873.014404</ele><time>2008-06-21T12:38:16Z</time></trkpt>
<trkpt lat="46.61293021" lon="7.16514386"><ele>873.014404</ele><time>2008-06-21T12:38:23Z</time></trkpt>
<trkpt lat="46.61310825" lon="7.16435974"><ele>875.898193</ele><time>2008-06-21T12:38:37Z</time></trkpt>
<trkpt lat="46.61305360" lon="7.16408590"><ele>875.898193</ele><time>2008-06-21T12:38:43Z</time></trkpt>
<trkpt lat="46.61310623" lon="7.16353730"><ele>875.898193</ele><time>2008-06-21T12:38:51Z</time></trkpt>
<trkpt lat="46.61316809" lon="7.16306708"><ele>875.898193</ele><time>2008-06-21T12:38:58Z</time></trkpt>
<trkpt lat="46.61316700" lon="7.16263625"><ele>876.859863</ele><time>2008-06-21T12:39:05Z</time></trkpt>
<trkpt lat="46.61314856" lon="7.16245361"><ele>876.859863</ele><time>2008-06-21T12:39:08Z</time></trkpt>
<trkpt lat="46.61318318" lon="7.16187903"><ele>878.782471</ele><time>2008-06-21T12:39:19Z</time></trkpt>
<trkpt lat="46.61322735" lon="7.16156554"><ele>878.782471</ele><time>2008-06-21T12:39:25Z</time></trkpt>
<trkpt lat="46.61335166" lon="7.16087303"><ele>878.782471</ele><time>2008-06-21T12:39:35Z</time></trkpt>
<trkpt lat="46.61338627" lon="7.16033768"><ele>880.224365</ele><time>2008-06-21T12:39:44Z</time></trkpt>
<trkpt lat="46.61342123" lon="7.15989361"><ele>878.782471</ele><time>2008-06-21T12:39:52Z</time></trkpt>
<trkpt lat="46.61343782" lon="7.15933219"><ele>880.224365</ele><time>2008-06-21T12:40:00Z</time></trkpt>
<trkpt lat="46.61341016" lon="7.15905818"><ele>880.224365</ele><time>2008-06-21T12:40:04Z</time></trkpt>
<trkpt lat="46.61334679" lon="7.15888887"><ele>880.224365</ele><time>2008-06-21T12:40:07Z</time></trkpt>
<trkpt lat="46.61299417" lon="7.15817272"><ele>882.146973</ele><time>2008-06-21T12:40:21Z</time></trkpt>
<trkpt lat="46.61266870" lon="7.15752169"><ele>884.06958</ele><time>2008-06-21T12:40:36Z</time></trkpt>
<trkpt lat="46.61256015" lon="7.15727426"><ele>885.992188</ele><time>2008-06-21T12:40:45Z</time></trkpt>
<trkpt lat="46.61252419" lon="7.15726135"><ele>885.992188</ele><time>2008-06-21T12:41:00Z</time></trkpt>
<trkpt lat="46.61255118" lon="7.15726119"><ele>886.953369</ele><time>2008-06-21T12:43:56Z</time></trkpt>
<trkpt lat="46.61247793" lon="7.15673941"><ele>887.914795</ele><time>2008-06-21T12:44:14Z</time></trkpt>
<trkpt lat="46.61247684" lon="7.15630867"><ele>889.837402</ele><time>2008-06-21T12:44:29Z</time></trkpt>
<trkpt lat="46.61246661" lon="7.15582570"><ele>890.798584</ele><time>2008-06-21T12:44:46Z</time></trkpt>
<trkpt lat="46.61245655" lon="7.15539504"><ele>893.202148</ele><time>2008-06-21T12:45:00Z</time></trkpt>
<trkpt lat="46.61242847" lon="7.15495130"><ele>896.086182</ele><time>2008-06-21T12:45:15Z</time></trkpt>
<trkpt lat="46.61247206" lon="7.15437672"><ele>897.047363</ele><time>2008-06-21T12:45:34Z</time></trkpt>
<trkpt lat="46.61252461" lon="7.15381513"><ele>898.008789</ele><time>2008-06-21T12:45:52Z</time></trkpt>
<trkpt lat="46.61246016" lon="7.15324106"><ele>899.931396</ele><time>2008-06-21T12:46:08Z</time></trkpt>
<trkpt lat="46.61236854" lon="7.15256279"><ele>898.008789</ele><time>2008-06-21T12:46:26Z</time></trkpt>
<trkpt lat="46.61219495" lon="7.15151941"><ele>898.008789</ele><time>2008-06-21T12:46:45Z</time></trkpt>
<trkpt lat="46.61211315" lon="7.15118045"><ele>898.008789</ele><time>2008-06-21T12:46:51Z</time></trkpt>
<trkpt lat="46.61178667" lon="7.15013782"><ele>896.086182</ele><time>2008-06-21T12:47:08Z</time></trkpt>
<trkpt lat="46.61144209" lon="7.14903016"><ele>894.163574</ele><time>2008-06-21T12:47:24Z</time></trkpt>
<trkpt lat="46.61114261" lon="7.14800052"><ele>894.163574</ele><time>2008-06-21T12:47:40Z</time></trkpt>
<trkpt lat="46.61085234" lon="7.14707525"><ele>895.124756</ele><time>2008-06-21T12:47:56Z</time></trkpt>
<trkpt lat="46.61055311" lon="7.14613706"><ele>897.047363</ele><time>2008-06-21T12:48:14Z</time></trkpt>
<trkpt lat="46.61035345" lon="7.14545930"><ele>897.047363</ele><time>2008-06-21T12:48:28Z</time></trkpt>
<trkpt lat="46.61002915" lon="7.14529141"><ele>897.047363</ele><time>2008-06-21T12:48:37Z</time></trkpt>
<trkpt lat="46.60921142" lon="7.14560908"><ele>895.124756</ele><time>2008-06-21T12:48:54Z</time></trkpt>
<trkpt lat="46.60915744" lon="7.14563549"><ele>896.086182</ele><time>2008-06-21T12:48:55Z</time></trkpt>
<trkpt lat="46.60901360" lon="7.14564932"><ele>896.086182</ele><time>2008-06-21T12:48:58Z</time></trkpt>
<trkpt lat="46.60892375" lon="7.14568896"><ele>895.124756</ele><time>2008-06-21T12:49:00Z</time></trkpt>
<trkpt lat="46.60878922" lon="7.14585937"><ele>893.202148</ele><time>2008-06-21T12:49:04Z</time></trkpt>
<trkpt lat="46.60871747" lon="7.14595115"><ele>890.798584</ele><time>2008-06-21T12:49:06Z</time></trkpt>
<trkpt lat="46.60852008" lon="7.14614804"><ele>889.837402</ele><time>2008-06-21T12:49:09Z</time></trkpt>
<trkpt lat="46.60792722" lon="7.14647753"><ele>886.953369</ele><time>2008-06-21T12:49:17Z</time></trkpt>
<trkpt lat="46.60778406" lon="7.14676545"><ele>885.031006</ele><time>2008-06-21T12:49:21Z</time></trkpt>
<trkpt lat="46.60770359" lon="7.14697475"><ele>883.108154</ele><time>2008-06-21T12:49:24Z</time></trkpt>
<trkpt lat="46.60778498" lon="7.14711791"><ele>880.224365</ele><time>2008-06-21T12:49:26Z</time></trkpt>
<trkpt lat="46.60773125" lon="7.14722260"><ele>878.782471</ele><time>2008-06-21T12:49:27Z</time></trkpt>
<trkpt lat="46.60774098" lon="7.14752275"><ele>876.859863</ele><time>2008-06-21T12:49:29Z</time></trkpt>
<trkpt lat="46.60767023" lon="7.14799306"><ele>873.975586</ele><time>2008-06-21T12:49:35Z</time></trkpt>
<trkpt lat="46.60753663" lon="7.14850285"><ele>871.091797</ele><time>2008-06-21T12:49:41Z</time></trkpt>
<trkpt lat="46.60734066" lon="7.14927399"><ele>869.169189</ele><time>2008-06-21T12:49:42Z</time></trkpt>
<trkpt lat="46.60704570" lon="7.15001956"><ele>864.843262</ele><time>2008-06-21T12:49:46Z</time></trkpt>
<trkpt lat="46.60689424" lon="7.15059472"><ele>861.959473</ele><time>2008-06-21T12:49:50Z</time></trkpt>
<trkpt lat="46.60673263" lon="7.15073914"><ele>860.998047</ele><time>2008-06-21T12:49:52Z</time></trkpt>
<trkpt lat="46.60652627" lon="7.15093603"><ele>862.920654</ele><time>2008-06-21T12:49:55Z</time></trkpt>
<trkpt lat="46.60622955" lon="7.15098976"><ele>863.881836</ele><time>2008-06-21T12:50:00Z</time></trkpt>
<trkpt lat="46.60594130" lon="7.15082162"><ele>863.881836</ele><time>2008-06-21T12:50:05Z</time></trkpt>
<trkpt lat="46.60576134" lon="7.15082263"><ele>863.881836</ele><time>2008-06-21T12:50:08Z</time></trkpt>
<trkpt lat="46.60556386" lon="7.15098029"><ele>863.881836</ele><time>2008-06-21T12:50:12Z</time></trkpt>
<trkpt lat="46.60543822" lon="7.15109839"><ele>862.920654</ele><time>2008-06-21T12:50:15Z</time></trkpt>
<trkpt lat="46.60532146" lon="7.15116427"><ele>862.920654</ele><time>2008-06-21T12:50:17Z</time></trkpt>
<trkpt lat="46.60479977" lon="7.15119319"><ele>866.765869</ele><time>2008-06-21T12:50:29Z</time></trkpt>
<trkpt lat="46.60454789" lon="7.15119453"><ele>870.130371</ele><time>2008-06-21T12:50:39Z</time></trkpt>
<trkpt lat="46.60428721" lon="7.15127424"><ele>873.014404</ele><time>2008-06-21T12:50:50Z</time></trkpt>
<trkpt lat="46.60426928" lon="7.15128740"><ele>873.014404</ele><time>2008-06-21T12:50:51Z</time></trkpt>
<trkpt lat="46.60391925" lon="7.15160248"><ele>874.937012</ele><time>2008-06-21T12:51:07Z</time></trkpt>
<trkpt lat="46.60376712" lon="7.15191655"><ele>877.821045</ele><time>2008-06-21T12:51:22Z</time></trkpt>
<trkpt lat="46.60358783" lon="7.15217848"><ele>881.185791</ele><time>2008-06-21T12:51:35Z</time></trkpt>
<trkpt lat="46.60339940" lon="7.15237529"><ele>882.146973</ele><time>2008-06-21T12:51:49Z</time></trkpt>
<trkpt lat="46.60328323" lon="7.15268911"><ele>884.06958</ele><time>2008-06-21T12:52:03Z</time></trkpt>
<trkpt lat="46.60307712" lon="7.15297736"><ele>885.031006</ele><time>2008-06-21T12:52:18Z</time></trkpt>
<trkpt lat="46.60294267" lon="7.15318691"><ele>885.992188</ele><time>2008-06-21T12:52:29Z</time></trkpt>
<trkpt lat="46.60292448" lon="7.15310871"><ele>885.992188</ele><time>2008-06-21T12:52:34Z</time></trkpt>
<trkpt lat="46.60300495" lon="7.15291249"><ele>886.953369</ele><time>2008-06-21T12:52:42Z</time></trkpt>
<trkpt lat="46.60317519" lon="7.15262448"><ele>887.914795</ele><time>2008-06-21T12:52:57Z</time></trkpt>
<trkpt lat="46.60330921" lon="7.15227135"><ele>889.837402</ele><time>2008-06-21T12:53:11Z</time></trkpt>
<trkpt lat="46.60339840" lon="7.15197070"><ele>893.202148</ele><time>2008-06-21T12:53:27Z</time></trkpt>
<trkpt lat="46.60351449" lon="7.15164380"><ele>893.202148</ele><time>2008-06-21T12:53:43Z</time></trkpt>
<trkpt lat="46.60353226" lon="7.15155235"><ele>894.163574</ele><time>2008-06-21T12:53:48Z</time></trkpt>
<trkpt lat="46.60368439" lon="7.15121213"><ele>896.086182</ele><time>2008-06-21T12:54:04Z</time></trkpt>
<trkpt lat="46.60377374" lon="7.15097677"><ele>897.047363</ele><time>2008-06-21T12:54:16Z</time></trkpt>
<trkpt lat="46.60380953" lon="7.15089823"><ele>898.008789</ele><time>2008-06-21T12:54:23Z</time></trkpt>
<trkpt lat="46.60380861" lon="7.15054586"><ele>898.969971</ele><time>2008-06-21T12:54:32Z</time></trkpt>
<trkpt lat="46.60408714" lon="7.15042692"><ele>900.892578</ele><time>2008-06-21T12:54:48Z</time></trkpt>
<trkpt lat="46.60427573" lon="7.15028233"><ele>901.854004</ele><time>2008-06-21T12:54:59Z</time></trkpt>
<trkpt lat="46.60439266" lon="7.15029473"><ele>902.815186</ele><time>2008-06-21T12:55:03Z</time></trkpt>
<trkpt lat="46.60466197" lon="7.15007144"><ele>903.776611</ele><time>2008-06-21T12:55:19Z</time></trkpt>
<trkpt lat="46.60485014" lon="7.14977028"><ele>902.815186</ele><time>2008-06-21T12:55:31Z</time></trkpt>
<trkpt lat="46.60504779" lon="7.14966475"><ele>901.854004</ele><time>2008-06-21T12:55:42Z</time></trkpt>
<trkpt lat="46.60515558" lon="7.14959895"><ele>899.931396</ele><time>2008-06-21T12:55:46Z</time></trkpt>
<trkpt lat="46.60524527" lon="7.14949401"><ele>900.892578</ele><time>2008-06-21T12:55:48Z</time></trkpt>
<trkpt lat="46.60557635" lon="7.14882656"><ele>897.047363</ele><time>2008-06-21T12:55:55Z</time></trkpt>
<trkpt lat="46.60560234" lon="7.14840881"><ele>898.969971</ele><time>2008-06-21T12:56:01Z</time></trkpt>
<trkpt lat="46.60564592" lon="7.14786038"><ele>898.008789</ele><time>2008-06-21T12:56:10Z</time></trkpt>
<trkpt lat="46.60558188" lon="7.14745612"><ele>894.163574</ele><time>2008-06-21T12:56:15Z</time></trkpt>
<trkpt lat="46.60545557" lon="7.14731321"><ele>891.76001</ele><time>2008-06-21T12:56:18Z</time></trkpt>
<trkpt lat="46.60546370" lon="7.14696075"><ele>889.837402</ele><time>2008-06-21T12:56:25Z</time></trkpt>
<trkpt lat="46.60540930" lon="7.14679135"><ele>888.876221</ele><time>2008-06-21T12:56:27Z</time></trkpt>
<trkpt lat="46.60540896" lon="7.14668691"><ele>886.953369</ele><time>2008-06-21T12:56:28Z</time></trkpt>
<trkpt lat="46.60571272" lon="7.14587605"><ele>886.953369</ele><time>2008-06-21T12:56:38Z</time></trkpt>
<trkpt lat="46.60574843" lon="7.14574537"><ele>885.992188</ele><time>2008-06-21T12:56:40Z</time></trkpt>
<trkpt lat="46.60576620" lon="7.14567999"><ele>885.992188</ele><time>2008-06-21T12:56:41Z</time></trkpt>
<trkpt lat="46.60585538" lon="7.14535318"><ele>885.031006</ele><time>2008-06-21T12:56:46Z</time></trkpt>
<trkpt lat="46.60589092" lon="7.14520943"><ele>885.992188</ele><time>2008-06-21T12:56:48Z</time></trkpt>
<trkpt lat="46.60586352" lon="7.14502688"><ele>886.953369</ele><time>2008-06-21T12:56:52Z</time></trkpt>
<trkpt lat="46.60583535" lon="7.14458322"><ele>887.914795</ele><time>2008-06-21T12:57:01Z</time></trkpt>
<trkpt lat="46.60587131" lon="7.14455690"><ele>888.876221</ele><time>2008-06-21T12:57:03Z</time></trkpt>
<trkpt lat="46.60619452" lon="7.14432020"><ele>890.798584</ele><time>2008-06-21T12:57:17Z</time></trkpt>
<trkpt lat="46.60638236" lon="7.14391460"><ele>894.163574</ele><time>2008-06-21T12:57:26Z</time></trkpt>
<trkpt lat="46.60655217" lon="7.14349592"><ele>897.047363</ele><time>2008-06-21T12:57:42Z</time></trkpt>
<trkpt lat="46.60674068" lon="7.14332527"><ele>897.047363</ele><time>2008-06-21T12:57:56Z</time></trkpt>
<trkpt lat="46.60689332" lon="7.14321999"><ele>894.163574</ele><time>2008-06-21T12:58:01Z</time></trkpt>
<trkpt lat="46.60698292" lon="7.14306291"><ele>893.202148</ele><time>2008-06-21T12:58:05Z</time></trkpt>
<trkpt lat="46.60691838" lon="7.14248892"><ele>889.837402</ele><time>2008-06-21T12:58:11Z</time></trkpt>
<trkpt lat="46.60687244" lon="7.14209757"><ele>887.914795</ele><time>2008-06-21T12:58:15Z</time></trkpt>
<trkpt lat="46.60677237" lon="7.14168048"><ele>885.031006</ele><time>2008-06-21T12:58:19Z</time></trkpt>
<trkpt lat="46.60661738" lon="7.14089812"><ele>885.031006</ele><time>2008-06-21T12:58:26Z</time></trkpt>
<trkpt lat="46.60656265" lon="7.14059821"><ele>885.031006</ele><time>2008-06-21T12:58:29Z</time></trkpt>
<trkpt lat="46.60663339" lon="7.14012799"><ele>885.031006</ele><time>2008-06-21T12:58:35Z</time></trkpt>
<trkpt lat="46.60675820" lon="7.13969657"><ele>882.146973</ele><time>2008-06-21T12:58:40Z</time></trkpt>
<trkpt lat="46.60677589" lon="7.13959205"><ele>882.146973</ele><time>2008-06-21T12:58:41Z</time></trkpt>
<trkpt lat="46.60660355" lon="7.13905787"><ele>884.06958</ele><time>2008-06-21T12:58:48Z</time></trkpt>
<trkpt lat="46.60597122" lon="7.13803017"><ele>883.108154</ele><time>2008-06-21T12:59:08Z</time></trkpt>
<trkpt lat="46.60583544" lon="7.13771769"><ele>884.06958</ele><time>2008-06-21T12:59:13Z</time></trkpt>
<trkpt lat="46.60548197" lon="7.13672770"><ele>881.185791</ele><time>2008-06-21T12:59:28Z</time></trkpt>
<trkpt lat="46.60539136" lon="7.13649326"><ele>882.146973</ele><time>2008-06-21T12:59:31Z</time></trkpt>
<trkpt lat="46.60535507" lon="7.13636292"><ele>882.146973</ele><time>2008-06-21T12:59:33Z</time></trkpt>
<trkpt lat="46.60495676" lon="7.13541233"><ele>882.146973</ele><time>2008-06-21T12:59:46Z</time></trkpt>
<trkpt lat="46.60466725" lon="7.13481361"><ele>882.146973</ele><time>2008-06-21T12:59:55Z</time></trkpt>
<trkpt lat="46.60433273" lon="7.13416284"><ele>880.224365</ele><time>2008-06-21T13:00:05Z</time></trkpt>
<trkpt lat="46.60416978" lon="7.13379831"><ele>876.859863</ele><time>2008-06-21T13:00:09Z</time></trkpt>
<trkpt lat="46.60406954" lon="7.13331602"><ele>877.821045</ele><time>2008-06-21T13:00:14Z</time></trkpt>
<trkpt lat="46.60407716" lon="7.13279391"><ele>877.821045</ele><time>2008-06-21T13:00:20Z</time></trkpt>
<trkpt lat="46.60404070" lon="7.13262442"><ele>877.821045</ele><time>2008-06-21T13:00:22Z</time></trkpt>
<trkpt lat="46.60382261" lon="7.13180333"><ele>876.859863</ele><time>2008-06-21T13:00:32Z</time></trkpt>
<trkpt lat="46.60374055" lon="7.13139924"><ele>874.937012</ele><time>2008-06-21T13:00:37Z</time></trkpt>
<trkpt lat="46.60360484" lon="7.13111283"><ele>873.975586</ele><time>2008-06-21T13:00:41Z</time></trkpt>
<trkpt lat="46.60320763" lon="7.13059307"><ele>873.975586</ele><time>2008-06-21T13:00:49Z</time></trkpt>
<trkpt lat="46.60308869" lon="7.12984976"><ele>873.014404</ele><time>2008-06-21T13:00:58Z</time></trkpt>
<trkpt lat="46.60311433" lon="7.12934065"><ele>872.052979</ele><time>2008-06-21T13:01:04Z</time></trkpt>
<trkpt lat="46.60288710" lon="7.12848050"><ele>870.130371</ele><time>2008-06-21T13:01:15Z</time></trkpt>
<trkpt lat="46.60265920" lon="7.12738548"><ele>869.169189</ele><time>2008-06-21T13:01:27Z</time></trkpt>
<trkpt lat="46.60260430" lon="7.12705951"><ele>869.169189</ele><time>2008-06-21T13:01:31Z</time></trkpt>
<trkpt lat="46.60249533" lon="7.12668166"><ele>869.169189</ele><time>2008-06-21T13:01:36Z</time></trkpt>
<trkpt lat="46.60244043" lon="7.12632962"><ele>868.207764</ele><time>2008-06-21T13:01:40Z</time></trkpt>
<trkpt lat="46.60247563" lon="7.12604228"><ele>866.765869</ele><time>2008-06-21T13:01:43Z</time></trkpt>
<trkpt lat="46.60262735" lon="7.12561070"><ele>861.959473</ele><time>2008-06-21T13:01:47Z</time></trkpt>
<trkpt lat="46.60272558" lon="7.12536209"><ele>859.075195</ele><time>2008-06-21T13:01:49Z</time></trkpt>
<trkpt lat="46.60282373" lon="7.12506135"><ele>855.22998</ele><time>2008-06-21T13:01:51Z</time></trkpt>
<trkpt lat="46.60287738" lon="7.12493051"><ele>855.22998</ele><time>2008-06-21T13:01:52Z</time></trkpt>
<trkpt lat="46.60304694" lon="7.12444662"><ele>852.82666</ele><time>2008-06-21T13:01:56Z</time></trkpt>
<trkpt lat="46.60330687" lon="7.12410581"><ele>848.020264</ele><time>2008-06-21T13:02:00Z</time></trkpt>
<trkpt lat="46.60336965" lon="7.12404018"><ele>847.058838</ele><time>2008-06-21T13:02:01Z</time></trkpt>
<trkpt lat="46.60351315" lon="7.12389576"><ele>844.175049</ele><time>2008-06-21T13:02:03Z</time></trkpt>
<trkpt lat="46.60363871" lon="7.12373843"><ele>844.175049</ele><time>2008-06-21T13:02:05Z</time></trkpt>
<trkpt lat="46.60373711" lon="7.12355512"><ele>839.848877</ele><time>2008-06-21T13:02:07Z</time></trkpt>
<trkpt lat="46.60390584" lon="7.12277099"><ele>834.081055</ele><time>2008-06-21T13:02:14Z</time></trkpt>
<trkpt lat="46.60383300" lon="7.12245818"><ele>832.158447</ele><time>2008-06-21T13:02:17Z</time></trkpt>
<trkpt lat="46.60363426" lon="7.12215920"><ele>827.832275</ele><time>2008-06-21T13:02:21Z</time></trkpt>
<trkpt lat="46.60351700" lon="7.12202936"><ele>825.909668</ele><time>2008-06-21T13:02:23Z</time></trkpt>
<trkpt lat="46.60331810" lon="7.12167808"><ele>821.103271</ele><time>2008-06-21T13:02:27Z</time></trkpt>
<trkpt lat="46.60324526" lon="7.12135227"><ele>816.777344</ele><time>2008-06-21T13:02:30Z</time></trkpt>
<trkpt lat="46.60321718" lon="7.12096084"><ele>812.932129</ele><time>2008-06-21T13:02:33Z</time></trkpt>
<trkpt lat="46.60323361" lon="7.12041258"><ele>807.164063</ele><time>2008-06-21T13:02:37Z</time></trkpt>
<trkpt lat="46.60323319" lon="7.12026900"><ele>807.164063</ele><time>2008-06-21T13:02:38Z</time></trkpt>
<trkpt lat="46.60325046" lon="7.11999482"><ele>802.838135</ele><time>2008-06-21T13:02:40Z</time></trkpt>
<trkpt lat="46.60325004" lon="7.11985124"><ele>801.876953</ele><time>2008-06-21T13:02:41Z</time></trkpt>
<trkpt lat="46.60319480" lon="7.11938177"><ele>796.109131</ele><time>2008-06-21T13:02:44Z</time></trkpt>
<trkpt lat="46.60315834" lon="7.11922537"><ele>796.109131</ele><time>2008-06-21T13:02:45Z</time></trkpt>
<trkpt lat="46.60302205" lon="7.11874324"><ele>793.224854</ele><time>2008-06-21T13:02:48Z</time></trkpt>
<trkpt lat="46.60289389" lon="7.11794780"><ele>788.89917</ele><time>2008-06-21T13:02:53Z</time></trkpt>
<trkpt lat="46.60288232" lon="7.11704733"><ele>786.976318</ele><time>2008-06-21T13:02:59Z</time></trkpt>
<trkpt lat="46.60286305" lon="7.11659068"><ele>785.053955</ele><time>2008-06-21T13:03:02Z</time></trkpt>
<trkpt lat="46.60287025" lon="7.11596414"><ele>782.169922</ele><time>2008-06-21T13:03:06Z</time></trkpt>
<trkpt lat="46.60283186" lon="7.11510298"><ele>781.20874</ele><time>2008-06-21T13:03:13Z</time></trkpt>
<trkpt lat="46.60265056" lon="7.11460811"><ele>776.882568</ele><time>2008-06-21T13:03:18Z</time></trkpt>
<trkpt lat="46.60241554" lon="7.11421793"><ele>775.921143</ele><time>2008-06-21T13:03:22Z</time></trkpt>
<trkpt lat="46.60227070" lon="7.11389255"><ele>774.959961</ele><time>2008-06-21T13:03:25Z</time></trkpt>
<trkpt lat="46.60219794" lon="7.11363195"><ele>773.998535</ele><time>2008-06-21T13:03:27Z</time></trkpt>
<trkpt lat="46.60203458" lon="7.11312393"><ele>771.114746</ele><time>2008-06-21T13:03:31Z</time></trkpt>
<trkpt lat="46.60199820" lon="7.11299359"><ele>771.114746</ele><time>2008-06-21T13:03:32Z</time></trkpt>
<trkpt lat="46.60190759" lon="7.11275923"><ele>769.192139</ele><time>2008-06-21T13:03:34Z</time></trkpt>
<trkpt lat="46.60185328" lon="7.11264214"><ele>768.230713</ele><time>2008-06-21T13:03:35Z</time></trkpt>
<trkpt lat="46.60166292" lon="7.11213428"><ele>763.904541</ele><time>2008-06-21T13:03:40Z</time></trkpt>
<trkpt lat="46.60165354" lon="7.11199069"><ele>761.020752</ele><time>2008-06-21T13:03:41Z</time></trkpt>
<trkpt lat="46.60162529" lon="7.11154712"><ele>758.136963</ele><time>2008-06-21T13:03:44Z</time></trkpt>
<trkpt lat="46.60160601" lon="7.11111655"><ele>756.214111</ele><time>2008-06-21T13:03:47Z</time></trkpt>
<trkpt lat="46.60157751" lon="7.11056862"><ele>751.888428</ele><time>2008-06-21T13:03:51Z</time></trkpt>
<trkpt lat="46.60157584" lon="7.10999438"><ele>749.96582</ele><time>2008-06-21T13:03:56Z</time></trkpt>
<trkpt lat="46.60162889" lon="7.10968081"><ele>747.081543</ele><time>2008-06-21T13:03:59Z</time></trkpt>
<trkpt lat="46.60174448" lon="7.10921025"><ele>743.236328</ele><time>2008-06-21T13:04:03Z</time></trkpt>
<trkpt lat="46.60178010" lon="7.10909257"><ele>743.236328</ele><time>2008-06-21T13:04:04Z</time></trkpt>
<trkpt lat="46.60195847" lon="7.10854330"><ele>739.871826</ele><time>2008-06-21T13:04:09Z</time></trkpt>
<trkpt lat="46.60193902" lon="7.10804751"><ele>740.833008</ele><time>2008-06-21T13:04:16Z</time></trkpt>
<trkpt lat="46.60107225" lon="7.10695652"><ele>738.910645</ele><time>2008-06-21T13:04:33Z</time></trkpt>
<trkpt lat="46.60056649" lon="7.10625487"><ele>737.949219</ele><time>2008-06-21T13:04:44Z</time></trkpt>
<trkpt lat="46.60026960" lon="7.10624364"><ele>738.910645</ele><time>2008-06-21T13:04:51Z</time></trkpt>
<trkpt lat="46.60017061" lon="7.10624423"><ele>738.910645</ele><time>2008-06-21T13:04:53Z</time></trkpt>
<trkpt lat="46.59979250" lon="7.10615521"><ele>736.987793</ele><time>2008-06-21T13:05:00Z</time></trkpt>
<trkpt lat="46.59963006" lon="7.10597349"><ele>736.987793</ele><time>2008-06-21T13:05:04Z</time></trkpt>
<trkpt lat="46.59911416" lon="7.10488041"><ele>736.026611</ele><time>2008-06-21T13:05:20Z</time></trkpt>
<trkpt lat="46.59912187" lon="7.10444966"><ele>734.104004</ele><time>2008-06-21T13:05:26Z</time></trkpt>
<trkpt lat="46.59917551" lon="7.10434489"><ele>736.026611</ele><time>2008-06-21T13:05:28Z</time></trkpt>
<trkpt lat="46.59918440" lon="7.10430575"><ele>735.06543</ele><time>2008-06-21T13:05:29Z</time></trkpt>
<trkpt lat="46.59944407" lon="7.10389956"><ele>735.06543</ele><time>2008-06-21T13:05:41Z</time></trkpt>
<trkpt lat="46.59982930" lon="7.10334904"><ele>735.06543</ele><time>2008-06-21T13:05:54Z</time></trkpt>
<trkpt lat="46.60009903" lon="7.10330822"><ele>733.142578</ele><time>2008-06-21T13:06:00Z</time></trkpt>
<trkpt lat="46.60054830" lon="7.10312272"><ele>734.104004</ele><time>2008-06-21T13:06:09Z</time></trkpt>
<trkpt lat="46.60096119" lon="7.10283305"><ele>736.026611</ele><time>2008-06-21T13:06:22Z</time></trkpt>
<trkpt lat="46.60099681" lon="7.10270229"><ele>735.06543</ele><time>2008-06-21T13:06:26Z</time></trkpt>
<trkpt lat="46.60128297" lon="7.10212620"><ele>733.142578</ele><time>2008-06-21T13:06:39Z</time></trkpt>
<trkpt lat="46.60120209" lon="7.10213978"><ele>732.181396</ele><time>2008-06-21T13:06:43Z</time></trkpt>
<trkpt lat="46.60113931" lon="7.10221848"><ele>731.219971</ele><time>2008-06-21T13:06:45Z</time></trkpt>
<trkpt lat="46.60091526" lon="7.10250699"><ele>726.894043</ele><time>2008-06-21T13:06:49Z</time></trkpt>
<trkpt lat="46.60078081" lon="7.10266449"><ele>724.971436</ele><time>2008-06-21T13:06:51Z</time></trkpt>
<trkpt lat="46.60062818" lon="7.10276985"><ele>724.01001</ele><time>2008-06-21T13:06:53Z</time></trkpt>
<trkpt lat="46.60047554" lon="7.10286213"><ele>723.048828</ele><time>2008-06-21T13:06:55Z</time></trkpt>
<trkpt lat="46.60032283" lon="7.10292835"><ele>722.087402</ele><time>2008-06-21T13:06:57Z</time></trkpt>
<trkpt lat="46.59995377" lon="7.10286540"><ele>717.761475</ele><time>2008-06-21T13:07:02Z</time></trkpt>
<trkpt lat="46.59987272" lon="7.10281368"><ele>717.761475</ele><time>2008-06-21T13:07:03Z</time></trkpt>
<trkpt lat="46.59950274" lon="7.10243750"><ele>714.877441</ele><time>2008-06-21T13:07:09Z</time></trkpt>
<trkpt lat="46.59929571" lon="7.10238654"><ele>713.916016</ele><time>2008-06-21T13:07:13Z</time></trkpt>
<trkpt lat="46.59922413" lon="7.10253054"><ele>711.032227</ele><time>2008-06-21T13:07:15Z</time></trkpt>
<trkpt lat="46.59919747" lon="7.10263515"><ele>711.032227</ele><time>2008-06-21T13:07:16Z</time></trkpt>
<trkpt lat="46.59917979" lon="7.10273967"><ele>711.032227</ele><time>2008-06-21T13:07:17Z</time></trkpt>
<trkpt lat="46.59914441" lon="7.10293564"><ele>710.070801</ele><time>2008-06-21T13:07:19Z</time></trkpt>
<trkpt lat="46.59900041" lon="7.10291041"><ele>706.225586</ele><time>2008-06-21T13:07:23Z</time></trkpt>
<trkpt lat="46.59898214" lon="7.10281922"><ele>704.783691</ele><time>2008-06-21T13:07:24Z</time></trkpt>
<trkpt lat="46.59894526" lon="7.10250624"><ele>702.861084</ele><time>2008-06-21T13:07:27Z</time></trkpt>
<trkpt lat="46.59889958" lon="7.10227154"><ele>700.938477</ele><time>2008-06-21T13:07:29Z</time></trkpt>
<trkpt lat="46.59874544" lon="7.10186795"><ele>699.015625</ele><time>2008-06-21T13:07:35Z</time></trkpt>
<trkpt lat="46.59907753" lon="7.10160485"><ele>699.015625</ele><time>2008-06-21T13:07:42Z</time></trkpt>
<trkpt lat="46.59924843" lon="7.10160384"><ele>698.054443</ele><time>2008-06-21T13:07:45Z</time></trkpt>
<trkpt lat="46.59936544" lon="7.10162915"><ele>698.054443</ele><time>2008-06-21T13:07:47Z</time></trkpt>
<trkpt lat="46.59960785" lon="7.10148415"><ele>698.054443</ele><time>2008-06-21T13:07:52Z</time></trkpt>
<trkpt lat="46.60027061" lon="7.10048812"><ele>699.015625</ele><time>2008-06-21T13:08:09Z</time></trkpt>
<trkpt lat="46.60096932" lon="7.09950493"><ele>699.015625</ele><time>2008-06-21T13:08:28Z</time></trkpt>
<trkpt lat="46.60125582" lon="7.09903328"><ele>699.015625</ele><time>2008-06-21T13:08:37Z</time></trkpt>
<trkpt lat="46.60129144" lon="7.09891560"><ele>699.015625</ele><time>2008-06-21T13:08:39Z</time></trkpt>
<trkpt lat="46.60126185" lon="7.09805436"><ele>699.977051</ele><time>2008-06-21T13:08:52Z</time></trkpt>
<trkpt lat="46.60122497" lon="7.09775445"><ele>700.938477</ele><time>2008-06-21T13:08:58Z</time></trkpt>
<trkpt lat="46.60115004" lon="7.09676304"><ele>700.938477</ele><time>2008-06-21T13:09:12Z</time></trkpt>
<trkpt lat="46.60114048" lon="7.09656732"><ele>699.977051</ele><time>2008-06-21T13:09:15Z</time></trkpt>
<trkpt lat="46.60105884" lon="7.09633288"><ele>699.977051</ele><time>2008-06-21T13:09:19Z</time></trkpt>
<trkpt lat="46.60093202" lon="7.09604655"><ele>699.977051</ele><time>2008-06-21T13:09:25Z</time></trkpt>
<trkpt lat="46.60083245" lon="7.09585142"><ele>699.977051</ele><time>2008-06-21T13:09:29Z</time></trkpt>
<trkpt lat="46.60059683" lon="7.09526561"><ele>699.977051</ele><time>2008-06-21T13:09:41Z</time></trkpt>
<trkpt lat="46.60042601" lon="7.09529285"><ele>699.977051</ele><time>2008-06-21T13:09:48Z</time></trkpt>
<trkpt lat="46.60021009" lon="7.09529419"><ele>699.977051</ele><time>2008-06-21T13:09:54Z</time></trkpt>
<trkpt lat="46.60013725" lon="7.09499446"><ele>699.977051</ele><time>2008-06-21T13:10:00Z</time></trkpt>
<trkpt lat="46.60008159" lon="7.09445978"><ele>699.977051</ele><time>2008-06-21T13:10:12Z</time></trkpt>
<trkpt lat="46.60002711" lon="7.09427739"><ele>701.899902</ele><time>2008-06-21T13:10:21Z</time></trkpt>
<trkpt lat="46.59999987" lon="7.09419927"><ele>702.861084</ele><time>2008-06-21T13:10:26Z</time></trkpt>
<trkpt lat="46.59998160" lon="7.09410799"><ele>702.861084</ele><time>2008-06-21T13:10:38Z</time></trkpt>
<trkpt lat="46.59995436" lon="7.09402987"><ele>702.861084</ele><time>2008-06-21T13:10:51Z</time></trkpt>
<trkpt lat="46.59988143" lon="7.09369099"><ele>702.861084</ele><time>2008-06-21T13:11:11Z</time></trkpt>
<trkpt lat="46.59986266" lon="7.09345621"><ele>701.899902</ele><time>2008-06-21T13:11:25Z</time></trkpt>
<trkpt lat="46.59982645" lon="7.09336510"><ele>701.899902</ele><time>2008-06-21T13:11:41Z</time></trkpt>
<trkpt lat="46.59981731" lon="7.09332604"><ele>701.899902</ele><time>2008-06-21T13:12:00Z</time></trkpt>
<trkpt lat="46.59968178" lon="7.09311808"><ele>700.938477</ele><time>2008-06-21T13:12:06Z</time></trkpt>
<trkpt lat="46.59946418" lon="7.09257133"><ele>700.938477</ele><time>2008-06-21T13:12:18Z</time></trkpt>
<trkpt lat="46.59921105" lon="7.09214226"><ele>700.938477</ele><time>2008-06-21T13:12:28Z</time></trkpt>
<trkpt lat="46.59907543" lon="7.09192123"><ele>700.938477</ele><time>2008-06-21T13:12:33Z</time></trkpt>
<trkpt lat="46.59892187" lon="7.09171345"><ele>700.938477</ele><time>2008-06-21T13:12:38Z</time></trkpt>
<trkpt lat="46.59875013" lon="7.09145352"><ele>701.899902</ele><time>2008-06-21T13:12:44Z</time></trkpt>
<trkpt lat="46.59863253" lon="7.09123241"><ele>701.899902</ele><time>2008-06-21T13:12:49Z</time></trkpt>
<trkpt lat="46.59828887" lon="7.09064735"><ele>702.861084</ele><time>2008-06-21T13:13:03Z</time></trkpt>
<trkpt lat="46.59827077" lon="7.09059530"><ele>702.861084</ele><time>2008-06-21T13:13:04Z</time></trkpt>
<trkpt lat="46.59796332" lon="7.09008828"><ele>703.82251</ele><time>2008-06-21T13:13:15Z</time></trkpt>
<trkpt lat="46.59756560" lon="7.08946441"><ele>703.82251</ele><time>2008-06-21T13:13:29Z</time></trkpt>
<trkpt lat="46.59722202" lon="7.08887936"><ele>704.783691</ele><time>2008-06-21T13:13:42Z</time></trkpt>
<trkpt lat="46.59692363" lon="7.08839849"><ele>707.187012</ele><time>2008-06-21T13:13:54Z</time></trkpt>
<trkpt lat="46.59658936" lon="7.08793086"><ele>707.187012</ele><time>2008-06-21T13:14:07Z</time></trkpt>
<trkpt lat="46.59629071" lon="7.08733248"><ele>708.148438</ele><time>2008-06-21T13:14:22Z</time></trkpt>
<trkpt lat="46.59608301" lon="7.08707280"><ele>709.109619</ele><time>2008-06-21T13:14:32Z</time></trkpt>
<trkpt lat="46.59599366" lon="7.08726911"><ele>707.187012</ele><time>2008-06-21T13:14:39Z</time></trkpt>
<trkpt lat="46.59581546" lon="7.08784453"><ele>707.187012</ele><time>2008-06-21T13:14:49Z</time></trkpt>
<trkpt lat="46.59544079" lon="7.08885178"><ele>706.225586</ele><time>2008-06-21T13:15:04Z</time></trkpt>
<trkpt lat="46.59506687" lon="7.09013304"><ele>706.225586</ele><time>2008-06-21T13:15:21Z</time></trkpt>
<trkpt lat="46.59479203" lon="7.09145285"><ele>703.82251</ele><time>2008-06-21T13:15:37Z</time></trkpt>
<trkpt lat="46.59473998" lon="7.09207957"><ele>703.82251</ele><time>2008-06-21T13:15:44Z</time></trkpt>
<trkpt lat="46.59448835" lon="7.09217252"><ele>702.861084</ele><time>2008-06-21T13:15:50Z</time></trkpt>
<trkpt lat="46.59341589" lon="7.09150080"><ele>700.938477</ele><time>2008-06-21T13:16:09Z</time></trkpt>
<trkpt lat="46.59246965" lon="7.09094575"><ele>700.938477</ele><time>2008-06-21T13:16:25Z</time></trkpt>
<trkpt lat="46.59200999" lon="7.09067468"><ele>700.938477</ele><time>2008-06-21T13:16:33Z</time></trkpt>
<trkpt lat="46.59179399" lon="7.09063696"><ele>702.861084</ele><time>2008-06-21T13:16:37Z</time></trkpt>
<trkpt lat="46.59171302" lon="7.09063746"><ele>703.82251</ele><time>2008-06-21T13:16:39Z</time></trkpt>
<trkpt lat="46.59163213" lon="7.09066411"><ele>706.225586</ele><time>2008-06-21T13:16:41Z</time></trkpt>
<trkpt lat="46.59151521" lon="7.09065179"><ele>707.187012</ele><time>2008-06-21T13:16:44Z</time></trkpt>
<trkpt lat="46.59093861" lon="7.09036840"><ele>708.148438</ele><time>2008-06-21T13:16:59Z</time></trkpt>
<trkpt lat="46.59025381" lon="7.09000748"><ele>709.109619</ele><time>2008-06-21T13:17:15Z</time></trkpt>
<trkpt lat="46.58939785" lon="7.08955628"><ele>710.070801</ele><time>2008-06-21T13:17:34Z</time></trkpt>
<trkpt lat="46.58868598" lon="7.08916945"><ele>710.070801</ele><time>2008-06-21T13:17:50Z</time></trkpt>
<trkpt lat="46.58852379" lon="7.08907918"><ele>711.032227</ele><time>2008-06-21T13:17:54Z</time></trkpt>
<trkpt lat="46.58816211" lon="7.08848130"><ele>712.954834</ele><time>2008-06-21T13:18:09Z</time></trkpt>
<trkpt lat="46.58810595" lon="7.08775098"><ele>714.877441</ele><time>2008-06-21T13:18:24Z</time></trkpt>
<trkpt lat="46.58815901" lon="7.08747656"><ele>716.800293</ele><time>2008-06-21T13:18:30Z</time></trkpt>
<trkpt lat="46.58813084" lon="7.08707230"><ele>720.164795</ele><time>2008-06-21T13:18:40Z</time></trkpt>
<trkpt lat="46.58789565" lon="7.08666930"><ele>723.048828</ele><time>2008-06-21T13:18:52Z</time></trkpt>
<trkpt lat="46.58781426" lon="7.08652630"><ele>724.01001</ele><time>2008-06-21T13:18:56Z</time></trkpt>
<trkpt lat="46.58757898" lon="7.08607117"><ele>725.932617</ele><time>2008-06-21T13:19:10Z</time></trkpt>
<trkpt lat="46.58751553" lon="7.08592809"><ele>725.932617</ele><time>2008-06-21T13:19:15Z</time></trkpt>
<trkpt lat="46.58772164" lon="7.08565274"><ele>726.894043</ele><time>2008-06-21T13:19:26Z</time></trkpt>
<trkpt lat="46.58805340" lon="7.08529827"><ele>726.894043</ele><time>2008-06-21T13:19:39Z</time></trkpt>
<trkpt lat="46.58837576" lon="7.08483945"><ele>724.971436</ele><time>2008-06-21T13:19:52Z</time></trkpt>
<trkpt lat="46.58849210" lon="7.08464297"><ele>724.01001</ele><time>2008-06-21T13:20:00Z</time></trkpt>
<trkpt lat="46.58823067" lon="7.08447509"><ele>724.971436</ele><time>2008-06-21T13:20:10Z</time></trkpt>
<trkpt lat="46.58800445" lon="7.08403294"><ele>726.894043</ele><time>2008-06-21T13:20:22Z</time></trkpt>
<trkpt lat="46.58792281" lon="7.08381166"><ele>727.855225</ele><time>2008-06-21T13:20:27Z</time></trkpt>
<trkpt lat="46.58784167" lon="7.08375994"><ele>727.855225</ele><time>2008-06-21T13:20:30Z</time></trkpt>
<trkpt lat="46.58744361" lon="7.08303189"><ele>728.81665</ele><time>2008-06-21T13:20:48Z</time></trkpt>
<trkpt lat="46.58737136" lon="7.08294103"><ele>729.777832</ele><time>2008-06-21T13:20:51Z</time></trkpt>
<trkpt lat="46.58751352" lon="7.08239210"><ele>727.855225</ele><time>2008-06-21T13:21:02Z</time></trkpt>
<trkpt lat="46.58787972" lon="7.08154159"><ele>726.894043</ele><time>2008-06-21T13:21:17Z</time></trkpt>
<trkpt lat="46.58798676" lon="7.08126683"><ele>727.855225</ele><time>2008-06-21T13:21:22Z</time></trkpt>
<trkpt lat="46.58801308" lon="7.08103180"><ele>729.777832</ele><time>2008-06-21T13:21:26Z</time></trkpt>
<trkpt lat="46.58790370" lon="7.08057582"><ele>729.777832</ele><time>2008-06-21T13:21:34Z</time></trkpt>
<trkpt lat="46.58786723" lon="7.08044557"><ele>728.81665</ele><time>2008-06-21T13:21:36Z</time></trkpt>
<trkpt lat="46.58784905" lon="7.08038053"><ele>729.777832</ele><time>2008-06-21T13:21:37Z</time></trkpt>
<trkpt lat="46.58771317" lon="7.08006822"><ele>729.777832</ele><time>2008-06-21T13:21:42Z</time></trkpt>
<trkpt lat="46.58750480" lon="7.07959992"><ele>733.142578</ele><time>2008-06-21T13:21:54Z</time></trkpt>
<trkpt lat="46.58737798" lon="7.07931368"><ele>736.026611</ele><time>2008-06-21T13:22:06Z</time></trkpt>
<trkpt lat="46.58733255" lon="7.07918351"><ele>737.949219</ele><time>2008-06-21T13:22:12Z</time></trkpt>
<trkpt lat="46.58728721" lon="7.07906641"><ele>739.871826</ele><time>2008-06-21T13:22:17Z</time></trkpt>
<trkpt lat="46.58724152" lon="7.07883180"><ele>743.236328</ele><time>2008-06-21T13:22:28Z</time></trkpt>
<trkpt lat="46.58725921" lon="7.07874035"><ele>744.197754</ele><time>2008-06-21T13:22:32Z</time></trkpt>
<trkpt lat="46.58743808" lon="7.07842603"><ele>746.120361</ele><time>2008-06-21T13:22:48Z</time></trkpt>
<trkpt lat="46.58768912" lon="7.07815035"><ele>748.043213</ele><time>2008-06-21T13:23:03Z</time></trkpt>
<trkpt lat="46.58782306" lon="7.07783628"><ele>748.043213</ele><time>2008-06-21T13:23:15Z</time></trkpt>
<trkpt lat="46.58778677" lon="7.07774517"><ele>747.081543</ele><time>2008-06-21T13:23:17Z</time></trkpt>
<trkpt lat="46.58775927" lon="7.07757577"><ele>746.120361</ele><time>2008-06-21T13:23:20Z</time></trkpt>
<trkpt lat="46.58774083" lon="7.07743236"><ele>746.120361</ele><time>2008-06-21T13:23:22Z</time></trkpt>
<trkpt lat="46.58785642" lon="7.07700103"><ele>740.833008</ele><time>2008-06-21T13:23:27Z</time></trkpt>
<trkpt lat="46.58808843" lon="7.07641228"><ele>735.06543</ele><time>2008-06-21T13:23:32Z</time></trkpt>
<trkpt lat="46.58823067" lon="7.07590249"><ele>734.104004</ele><time>2008-06-21T13:23:36Z</time></trkpt>
<trkpt lat="46.58822045" lon="7.07549807"><ele>736.987793</ele><time>2008-06-21T13:23:41Z</time></trkpt>
<trkpt lat="46.58820201" lon="7.07535465"><ele>736.026611</ele><time>2008-06-21T13:23:44Z</time></trkpt>
<trkpt lat="46.58828247" lon="7.07521057"><ele>734.104004</ele><time>2008-06-21T13:23:47Z</time></trkpt>
<trkpt lat="46.58837216" lon="7.07513169"><ele>732.181396</ele><time>2008-06-21T13:23:49Z</time></trkpt>
<trkpt lat="46.58890148" lon="7.07467144"><ele>733.142578</ele><time>2008-06-21T13:24:02Z</time></trkpt>
<trkpt lat="46.58900910" lon="7.07456633"><ele>734.104004</ele><time>2008-06-21T13:24:05Z</time></trkpt>
<trkpt lat="46.58922334" lon="7.07406904"><ele>736.026611</ele><time>2008-06-21T13:24:17Z</time></trkpt>
<trkpt lat="46.58921429" lon="7.07402998"><ele>736.026611</ele><time>2008-06-21T13:24:19Z</time></trkpt>
<trkpt lat="46.58914204" lon="7.07396518"><ele>736.026611</ele><time>2008-06-21T13:24:25Z</time></trkpt>
<trkpt lat="46.58880835" lon="7.07369344"><ele>736.987793</ele><time>2008-06-21T13:24:39Z</time></trkpt>
<trkpt lat="46.58851960" lon="7.07342137"><ele>738.910645</ele><time>2008-06-21T13:24:52Z</time></trkpt>
<trkpt lat="46.58843838" lon="7.07333059"><ele>738.910645</ele><time>2008-06-21T13:25:07Z</time></trkpt>
<trkpt lat="46.58822204" lon="7.07320159"><ele>739.871826</ele><time>2008-06-21T13:25:44Z</time></trkpt>
<trkpt lat="46.58770840" lon="7.07291795"><ele>741.794434</ele><time>2008-06-21T13:26:01Z</time></trkpt>
<trkpt lat="46.58733842" lon="7.07256817"><ele>744.197754</ele><time>2008-06-21T13:26:16Z</time></trkpt>
<trkpt lat="46.58705888" lon="7.07233524"><ele>745.158936</ele><time>2008-06-21T13:26:28Z</time></trkpt>
<trkpt lat="46.58670735" lon="7.07211580"><ele>746.120361</ele><time>2008-06-21T13:26:40Z</time></trkpt>
<trkpt lat="46.58625632" lon="7.07175354"><ele>748.043213</ele><time>2008-06-21T13:26:56Z</time></trkpt>
<trkpt lat="46.58581484" lon="7.07152161"><ele>749.96582</ele><time>2008-06-21T13:27:12Z</time></trkpt>
<trkpt lat="46.58560722" lon="7.07130125"><ele>750.927002</ele><time>2008-06-21T13:27:22Z</time></trkpt>
<trkpt lat="46.58559817" lon="7.07128826"><ele>750.927002</ele><time>2008-06-21T13:27:23Z</time></trkpt>
<trkpt lat="46.58585801" lon="7.07096027"><ele>748.043213</ele><time>2008-06-21T13:27:33Z</time></trkpt>
<trkpt lat="46.58603721" lon="7.07075031"><ele>747.081543</ele><time>2008-06-21T13:27:38Z</time></trkpt>
<trkpt lat="46.58631482" lon="7.07035703"><ele>744.197754</ele><time>2008-06-21T13:27:44Z</time></trkpt>
<trkpt lat="46.58687867" lon="7.06946595"><ele>739.871826</ele><time>2008-06-21T13:27:54Z</time></trkpt>
<trkpt lat="46.58720976" lon="7.06892867"><ele>739.871826</ele><time>2008-06-21T13:28:01Z</time></trkpt>
<trkpt lat="46.58713675" lon="7.06860303"><ele>738.910645</ele><time>2008-06-21T13:28:06Z</time></trkpt>
<trkpt lat="46.58686484" lon="7.06799165"><ele>738.910645</ele><time>2008-06-21T13:28:18Z</time></trkpt>
<trkpt lat="46.58677356" lon="7.06757474"><ele>736.987793</ele><time>2008-06-21T13:28:25Z</time></trkpt>
<trkpt lat="46.58678840" lon="7.06660906"><ele>736.987793</ele><time>2008-06-21T13:28:41Z</time></trkpt>
<trkpt lat="46.58659821" lon="7.06621896"><ele>737.949219</ele><time>2008-06-21T13:28:52Z</time></trkpt>
<trkpt lat="46.58650811" lon="7.06616742"><ele>739.871826</ele><time>2008-06-21T13:29:03Z</time></trkpt>
<trkpt lat="46.58634609" lon="7.06614244"><ele>741.794434</ele><time>2008-06-21T13:29:20Z</time></trkpt>
<trkpt lat="46.58620200" lon="7.06610422"><ele>744.197754</ele><time>2008-06-21T13:29:38Z</time></trkpt>
<trkpt lat="46.58609396" lon="7.06606583"><ele>748.043213</ele><time>2008-06-21T13:29:51Z</time></trkpt>
<trkpt lat="46.58596789" lon="7.06602761"><ele>748.043213</ele><time>2008-06-21T13:30:06Z</time></trkpt>
<trkpt lat="46.58585030" lon="7.06583264"><ele>748.043213</ele><time>2008-06-21T13:30:23Z</time></trkpt>
<trkpt lat="46.58572390" lon="7.06567699"><ele>749.004395</ele><time>2008-06-21T13:30:40Z</time></trkpt>
<trkpt lat="46.58563362" lon="7.06559929"><ele>749.004395</ele><time>2008-06-21T13:30:59Z</time></trkpt>
<trkpt lat="46.58550748" lon="7.06552193"><ele>751.888428</ele><time>2008-06-21T13:31:18Z</time></trkpt>
<trkpt lat="46.58538108" lon="7.06539226"><ele>753.811035</ele><time>2008-06-21T13:31:39Z</time></trkpt>
<trkpt lat="46.58523666" lon="7.06524977"><ele>757.175537</ele><time>2008-06-21T13:31:58Z</time></trkpt>
<trkpt lat="46.58519140" lon="7.06515874"><ele>758.136963</ele><time>2008-06-21T13:32:15Z</time></trkpt>
<trkpt lat="46.58509207" lon="7.06502899"><ele>759.098145</ele><time>2008-06-21T13:32:30Z</time></trkpt>
<trkpt lat="46.58506483" lon="7.06495087"><ele>760.059326</ele><time>2008-06-21T13:32:48Z</time></trkpt>
<trkpt lat="46.58504639" lon="7.06482053"><ele>762.943359</ele><time>2008-06-21T13:34:45Z</time></trkpt>
<trkpt lat="46.58499182" lon="7.06463822"><ele>764.866211</ele><time>2008-06-21T13:35:01Z</time></trkpt>
<trkpt lat="46.58490130" lon="7.06446924"><ele>768.230713</ele><time>2008-06-21T13:35:20Z</time></trkpt>
<trkpt lat="46.58483776" lon="7.06431309"><ele>770.15332</ele><time>2008-06-21T13:35:40Z</time></trkpt>
<trkpt lat="46.58476501" lon="7.06405266"><ele>772.075928</ele><time>2008-06-21T13:36:03Z</time></trkpt>
<trkpt lat="46.58463844" lon="7.06385787"><ele>771.114746</ele><time>2008-06-21T13:36:20Z</time></trkpt>
<trkpt lat="46.58451213" lon="7.06375435"><ele>771.114746</ele><time>2008-06-21T13:36:34Z</time></trkpt>
<trkpt lat="46.58436762" lon="7.06358571"><ele>772.075928</ele><time>2008-06-21T13:36:51Z</time></trkpt>
<trkpt lat="46.58427726" lon="7.06345587"><ele>773.998535</ele><time>2008-06-21T13:37:08Z</time></trkpt>
<trkpt lat="46.58415087" lon="7.06332629"><ele>775.921143</ele><time>2008-06-21T13:37:25Z</time></trkpt>
<trkpt lat="46.58402463" lon="7.06322277"><ele>777.84375</ele><time>2008-06-21T13:37:44Z</time></trkpt>
<trkpt lat="46.58394333" lon="7.06311900"><ele>781.20874</ele><time>2008-06-21T13:38:00Z</time></trkpt>
<trkpt lat="46.58381710" lon="7.06302856"><ele>785.053955</ele><time>2008-06-21T13:38:22Z</time></trkpt>
<trkpt lat="46.58371786" lon="7.06296394"><ele>787.937744</ele><time>2008-06-21T13:38:45Z</time></trkpt>
<trkpt lat="46.58371794" lon="7.06299009"><ele>786.976318</ele><time>2008-06-21T13:39:00Z</time></trkpt>
<trkpt lat="46.58371794" lon="7.06299009"><ele>787.937744</ele><time>2008-06-21T13:50:32Z</time></trkpt>
<trkpt lat="46.58374476" lon="7.06293770"><ele>788.89917</ele><time>2008-06-21T13:50:36Z</time></trkpt>
<trkpt lat="46.58389731" lon="7.06280619"><ele>788.89917</ele><time>2008-06-21T13:50:48Z</time></trkpt>
<trkpt lat="46.58404081" lon="7.06268775"><ele>790.821533</ele><time>2008-06-21T13:51:04Z</time></trkpt>
<trkpt lat="46.58402212" lon="7.06247913"><ele>793.224854</ele><time>2008-06-21T13:51:20Z</time></trkpt>
<trkpt lat="46.58403989" lon="7.06241375"><ele>793.224854</ele><time>2008-06-21T13:51:35Z</time></trkpt>
<trkpt lat="46.58413796" lon="7.06213907"><ele>794.186279</ele><time>2008-06-21T13:51:47Z</time></trkpt>
<trkpt lat="46.58410074" lon="7.06176097"><ele>796.109131</ele><time>2008-06-21T13:52:03Z</time></trkpt>
<trkpt lat="46.58413578" lon="7.06148671"><ele>797.070313</ele><time>2008-06-21T13:52:15Z</time></trkpt>
<trkpt lat="46.58413494" lon="7.06121279"><ele>799.954346</ele><time>2008-06-21T13:52:27Z</time></trkpt>
<trkpt lat="46.58413477" lon="7.06118664"><ele>800.915527</ele><time>2008-06-21T13:52:29Z</time></trkpt>
<trkpt lat="46.58414374" lon="7.06117356"><ele>800.915527</ele><time>2008-06-21T13:52:30Z</time></trkpt>
<trkpt lat="46.58420635" lon="7.06106870"><ele>799.954346</ele><time>2008-06-21T13:52:35Z</time></trkpt>
<trkpt lat="46.58440358" lon="7.06084558"><ele>800.915527</ele><time>2008-06-21T13:52:49Z</time></trkpt>
<trkpt lat="46.58463635" lon="7.06051776"><ele>800.915527</ele><time>2008-06-21T13:53:03Z</time></trkpt>
<trkpt lat="46.58489618" lon="7.06021585"><ele>798.99292</ele><time>2008-06-21T13:53:11Z</time></trkpt>
<trkpt lat="46.58530883" lon="7.05986070"><ele>796.109131</ele><time>2008-06-21T13:53:19Z</time></trkpt>
<trkpt lat="46.58548811" lon="7.05967681"><ele>793.224854</ele><time>2008-06-21T13:53:22Z</time></trkpt>
<trkpt lat="46.58562264" lon="7.05955837"><ele>790.821533</ele><time>2008-06-21T13:53:24Z</time></trkpt>
<trkpt lat="46.58615196" lon="7.05912410"><ele>787.937744</ele><time>2008-06-21T13:53:31Z</time></trkpt>
<trkpt lat="46.58686141" lon="7.05875379"><ele>785.053955</ele><time>2008-06-21T13:53:40Z</time></trkpt>
<trkpt lat="46.58732886" lon="7.05865916"><ele>781.20874</ele><time>2008-06-21T13:53:48Z</time></trkpt>
<trkpt lat="46.58781443" lon="7.05860359"><ele>776.882568</ele><time>2008-06-21T13:53:55Z</time></trkpt>
<trkpt lat="46.58789540" lon="7.05859001"><ele>775.921143</ele><time>2008-06-21T13:53:56Z</time></trkpt>
<trkpt lat="46.58814702" lon="7.05853603"><ele>773.037354</ele><time>2008-06-21T13:53:59Z</time></trkpt>
<trkpt lat="46.58823704" lon="7.05853536"><ele>773.037354</ele><time>2008-06-21T13:54:00Z</time></trkpt>
<trkpt lat="46.58867760" lon="7.05848012"><ele>771.114746</ele><time>2008-06-21T13:54:05Z</time></trkpt>
<trkpt lat="46.58897440" lon="7.05845187"><ele>768.230713</ele><time>2008-06-21T13:54:08Z</time></trkpt>
<trkpt lat="46.58928017" lon="7.05842363"><ele>766.788818</ele><time>2008-06-21T13:54:11Z</time></trkpt>
<trkpt lat="46.58948704" lon="7.05840913"><ele>762.943359</ele><time>2008-06-21T13:54:13Z</time></trkpt>
<trkpt lat="46.58979272" lon="7.05838088"><ele>761.020752</ele><time>2008-06-21T13:54:16Z</time></trkpt>
<trkpt lat="46.59007151" lon="7.05835288"><ele>761.982178</ele><time>2008-06-21T13:54:19Z</time></trkpt>
<trkpt lat="46.59056554" lon="7.05812758"><ele>760.059326</ele><time>2008-06-21T13:54:25Z</time></trkpt>
<trkpt lat="46.59105822" lon="7.05751084"><ele>760.059326</ele><time>2008-06-21T13:54:33Z</time></trkpt>
<trkpt lat="46.59175736" lon="7.05676208"><ele>756.214111</ele><time>2008-06-21T13:54:45Z</time></trkpt>
<trkpt lat="46.59197269" lon="7.05659092"><ele>753.811035</ele><time>2008-06-21T13:54:48Z</time></trkpt>
<trkpt lat="46.59231442" lon="7.05656243"><ele>749.96582</ele><time>2008-06-21T13:54:52Z</time></trkpt>
<trkpt lat="46.59255750" lon="7.05659981"><ele>749.96582</ele><time>2008-06-21T13:54:55Z</time></trkpt>
<trkpt lat="46.59286302" lon="7.05651943"><ele>750.927002</ele><time>2008-06-21T13:54:59Z</time></trkpt>
<trkpt lat="46.59306049" lon="7.05638750"><ele>751.888428</ele><time>2008-06-21T13:55:02Z</time></trkpt>
<trkpt lat="46.59323039" lon="7.05607309"><ele>754.772217</ele><time>2008-06-21T13:55:09Z</time></trkpt>
<trkpt lat="46.59325713" lon="7.05599464"><ele>756.214111</ele><time>2008-06-21T13:55:11Z</time></trkpt>
<trkpt lat="46.59333726" lon="7.05577226"><ele>757.175537</ele><time>2008-06-21T13:55:20Z</time></trkpt>
<trkpt lat="46.59348059" lon="7.05558853"><ele>757.175537</ele><time>2008-06-21T13:55:29Z</time></trkpt>
<trkpt lat="46.59371403" lon="7.05545635"><ele>758.136963</ele><time>2008-06-21T13:55:41Z</time></trkpt>
<trkpt lat="46.59403749" lon="7.05532358"><ele>757.175537</ele><time>2008-06-21T13:55:53Z</time></trkpt>
<trkpt lat="46.59426196" lon="7.05521763"><ele>757.175537</ele><time>2008-06-21T13:56:05Z</time></trkpt>
<trkpt lat="46.59428844" lon="7.05506081"><ele>759.098145</ele><time>2008-06-21T13:56:09Z</time></trkpt>
<trkpt lat="46.59427034" lon="7.05502183"><ele>759.098145</ele><time>2008-06-21T13:56:10Z</time></trkpt>
<trkpt lat="46.59407043" lon="7.05442294"><ele>761.020752</ele><time>2008-06-21T13:56:25Z</time></trkpt>
<trkpt lat="46.59393397" lon="7.05398021"><ele>761.982178</ele><time>2008-06-21T13:56:39Z</time></trkpt>
<trkpt lat="46.59387899" lon="7.05368048"><ele>765.827637</ele><time>2008-06-21T13:56:49Z</time></trkpt>
<trkpt lat="46.59387890" lon="7.05365441"><ele>765.827637</ele><time>2008-06-21T13:56:50Z</time></trkpt>
<trkpt lat="46.59379634" lon="7.05318519"><ele>768.230713</ele><time>2008-06-21T13:57:08Z</time></trkpt>
<trkpt lat="46.59378653" lon="7.05295033"><ele>773.037354</ele><time>2008-06-21T13:57:18Z</time></trkpt>
<trkpt lat="46.59373105" lon="7.05250709"><ele>774.959961</ele><time>2008-06-21T13:57:36Z</time></trkpt>
<trkpt lat="46.59369391" lon="7.05215505"><ele>776.882568</ele><time>2008-06-21T13:57:51Z</time></trkpt>
<trkpt lat="46.59365645" lon="7.05172464"><ele>779.766357</ele><time>2008-06-21T13:58:09Z</time></trkpt>
<trkpt lat="46.59358336" lon="7.05138585"><ele>783.131104</ele><time>2008-06-21T13:58:25Z</time></trkpt>
<trkpt lat="46.59356508" lon="7.05129465"><ele>783.131104</ele><time>2008-06-21T13:58:29Z</time></trkpt>
<trkpt lat="46.59350993" lon="7.05096885"><ele>786.015137</ele><time>2008-06-21T13:58:44Z</time></trkpt>
<trkpt lat="46.59342779" lon="7.05061706"><ele>788.89917</ele><time>2008-06-21T13:59:01Z</time></trkpt>
<trkpt lat="46.59340952" lon="7.05052586"><ele>789.860352</ele><time>2008-06-21T13:59:05Z</time></trkpt>
<trkpt lat="46.59336425" lon="7.05044791"><ele>790.821533</ele><time>2008-06-21T13:59:09Z</time></trkpt>
<trkpt lat="46.59330022" lon="7.05013518"><ele>795.147461</ele><time>2008-06-21T13:59:24Z</time></trkpt>
<trkpt lat="46.59319133" lon="7.04986193"><ele>798.031738</ele><time>2008-06-21T13:59:39Z</time></trkpt>
<trkpt lat="46.59307365" lon="7.04964090"><ele>798.031738</ele><time>2008-06-21T13:59:54Z</time></trkpt>
<trkpt lat="46.59302814" lon="7.04949774"><ele>799.954346</ele><time>2008-06-21T14:00:09Z</time></trkpt>
<trkpt lat="46.59296427" lon="7.04923723"><ele>802.838135</ele><time>2008-06-21T14:00:32Z</time></trkpt>
<trkpt lat="46.59285564" lon="7.04901611"><ele>806.202637</ele><time>2008-06-21T14:00:52Z</time></trkpt>
<trkpt lat="46.59273813" lon="7.04884730"><ele>808.125488</ele><time>2008-06-21T14:01:08Z</time></trkpt>
<trkpt lat="46.59262966" lon="7.04871763"><ele>809.08667</ele><time>2008-06-21T14:01:23Z</time></trkpt>
<trkpt lat="46.59256663" lon="7.04867891"><ele>810.047852</ele><time>2008-06-21T14:01:27Z</time></trkpt>
<trkpt lat="46.59243093" lon="7.04847112"><ele>811.970703</ele><time>2008-06-21T14:01:45Z</time></trkpt>
<trkpt lat="46.59234049" lon="7.04832821"><ele>813.893311</ele><time>2008-06-21T14:01:59Z</time></trkpt>
<trkpt lat="46.59225030" lon="7.04826367"><ele>814.854736</ele><time>2008-06-21T14:02:06Z</time></trkpt>
<trkpt lat="46.59214200" lon="7.04816007"><ele>818.219238</ele><time>2008-06-21T14:02:19Z</time></trkpt>
<trkpt lat="46.59206028" lon="7.04793879"><ele>819.180664</ele><time>2008-06-21T14:02:34Z</time></trkpt>
<trkpt lat="46.59209565" lon="7.04776889"><ele>822.064453</ele><time>2008-06-21T14:02:57Z</time></trkpt>
<trkpt lat="46.59220344" lon="7.04770284"><ele>822.064453</ele><time>2008-06-21T14:03:26Z</time></trkpt>
<trkpt lat="46.59239237" lon="7.04771457"><ele>823.987061</ele><time>2008-06-21T14:03:54Z</time></trkpt>
<trkpt lat="46.59243738" lon="7.04772731"><ele>824.948486</ele><time>2008-06-21T14:04:00Z</time></trkpt>
<trkpt lat="46.59257267" lon="7.04783066"><ele>825.909668</ele><time>2008-06-21T14:04:15Z</time></trkpt>
<trkpt lat="46.59269898" lon="7.04793418"><ele>827.832275</ele><time>2008-06-21T14:04:32Z</time></trkpt>
<trkpt lat="46.59276210" lon="7.04797290"><ele>828.793945</ele><time>2008-06-21T14:04:39Z</time></trkpt>
<trkpt lat="46.59292387" lon="7.04793259"><ele>831.197266</ele><time>2008-06-21T14:04:57Z</time></trkpt>
<trkpt lat="46.59295974" lon="7.04789311"><ele>831.197266</ele><time>2008-06-21T14:05:01Z</time></trkpt>
<trkpt lat="46.59296854" lon="7.04784089"><ele>832.158447</ele><time>2008-06-21T14:05:05Z</time></trkpt>
<trkpt lat="46.59290467" lon="7.04758038"><ele>835.04248</ele><time>2008-06-21T14:05:26Z</time></trkpt>
<trkpt lat="46.59282287" lon="7.04734610"><ele>836.964844</ele><time>2008-06-21T14:05:47Z</time></trkpt>
<trkpt lat="46.59277744" lon="7.04721593"><ele>836.964844</ele><time>2008-06-21T14:05:57Z</time></trkpt>
<trkpt lat="46.59278624" lon="7.04715055"><ele>837.92627</ele><time>2008-06-21T14:06:15Z</time></trkpt>
<trkpt lat="46.59278615" lon="7.04713756"><ele>837.92627</ele><time>2008-06-21T14:06:19Z</time></trkpt>
<trkpt lat="46.59282178" lon="7.04703287"><ele>837.92627</ele><time>2008-06-21T14:06:24Z</time></trkpt>
<trkpt lat="46.59301867" lon="7.04671830"><ele>839.848877</ele><time>2008-06-21T14:06:41Z</time></trkpt>
<trkpt lat="46.59320634" lon="7.04636458"><ele>840.810059</ele><time>2008-06-21T14:06:58Z</time></trkpt>
<trkpt lat="46.59346593" lon="7.04598430"><ele>840.810059</ele><time>2008-06-21T14:07:12Z</time></trkpt>
<trkpt lat="46.59392299" lon="7.04548507"><ele>841.771484</ele><time>2008-06-21T14:07:32Z</time></trkpt>
<trkpt lat="46.59441652" lon="7.04512917"><ele>845.13623</ele><time>2008-06-21T14:07:52Z</time></trkpt>
<trkpt lat="46.59467678" lon="7.04495760"><ele>848.020264</ele><time>2008-06-21T14:08:07Z</time></trkpt>
<trkpt lat="46.59493687" lon="7.04473388"><ele>849.942871</ele><time>2008-06-21T14:08:23Z</time></trkpt>
<trkpt lat="46.59509813" lon="7.04454998"><ele>852.82666</ele><time>2008-06-21T14:08:33Z</time></trkpt>
<trkpt lat="46.59511607" lon="7.04453683"><ele>852.82666</ele><time>2008-06-21T14:08:34Z</time></trkpt>
<trkpt lat="46.59533978" lon="7.04418286"><ele>855.22998</ele><time>2008-06-21T14:08:52Z</time></trkpt>
<trkpt lat="46.59553626" lon="7.04377684"><ele>856.191162</ele><time>2008-06-21T14:09:10Z</time></trkpt>
<trkpt lat="46.59578620" lon="7.04322699"><ele>856.191162</ele><time>2008-06-21T14:09:29Z</time></trkpt>
<trkpt lat="46.59607211" lon="7.04266372"><ele>858.114014</ele><time>2008-06-21T14:09:44Z</time></trkpt>
<trkpt lat="46.59655650" lon="7.04226868"><ele>858.114014</ele><time>2008-06-21T14:10:01Z</time></trkpt>
<trkpt lat="46.59707693" lon="7.04188638"><ele>859.075195</ele><time>2008-06-21T14:10:20Z</time></trkpt>
<trkpt lat="46.59728229" lon="7.04142815"><ele>860.998047</ele><time>2008-06-21T14:10:36Z</time></trkpt>
<trkpt lat="46.59723560" lon="7.04094560"><ele>863.881836</ele><time>2008-06-21T14:10:52Z</time></trkpt>
<trkpt lat="46.59712580" lon="7.04041134"><ele>865.804688</ele><time>2008-06-21T14:11:10Z</time></trkpt>
<trkpt lat="46.59723242" lon="7.04004513"><ele>868.207764</ele><time>2008-06-21T14:11:25Z</time></trkpt>
<trkpt lat="46.59759175" lon="7.03989895"><ele>868.207764</ele><time>2008-06-21T14:11:39Z</time></trkpt>
<trkpt lat="46.59804060" lon="7.03963467"><ele>868.207764</ele><time>2008-06-21T14:11:54Z</time></trkpt>
<trkpt lat="46.59847965" lon="7.03912245"><ele>868.207764</ele><time>2008-06-21T14:12:12Z</time></trkpt>
<trkpt lat="46.59875692" lon="7.03868969"><ele>871.091797</ele><time>2008-06-21T14:12:26Z</time></trkpt>
<trkpt lat="46.59903461" lon="7.03834830"><ele>872.052979</ele><time>2008-06-21T14:12:40Z</time></trkpt>
<trkpt lat="46.59930300" lon="7.03792870"><ele>871.091797</ele><time>2008-06-21T14:12:53Z</time></trkpt>
<trkpt lat="46.59963350" lon="7.03726066"><ele>872.052979</ele><time>2008-06-21T14:13:09Z</time></trkpt>
<trkpt lat="46.60000951" lon="7.03674886"><ele>872.052979</ele><time>2008-06-21T14:13:23Z</time></trkpt>
<trkpt lat="46.60034152" lon="7.03651149"><ele>870.130371</ele><time>2008-06-21T14:13:31Z</time></trkpt>
<trkpt lat="46.60071870" lon="7.03633907"><ele>866.765869</ele><time>2008-06-21T14:13:38Z</time></trkpt>
<trkpt lat="46.60091626" lon="7.03623313"><ele>863.881836</ele><time>2008-06-21T14:13:42Z</time></trkpt>
<trkpt lat="46.60160786" lon="7.03592786"><ele>860.036621</ele><time>2008-06-21T14:13:54Z</time></trkpt>
<trkpt lat="46.60167969" lon="7.03590120"><ele>860.036621</ele><time>2008-06-21T14:13:55Z</time></trkpt>
<trkpt lat="46.60190432" lon="7.03580816"><ele>858.114014</ele><time>2008-06-21T14:13:58Z</time></trkpt>
<trkpt lat="46.60223658" lon="7.03564907"><ele>855.22998</ele><time>2008-06-21T14:14:02Z</time></trkpt>
<trkpt lat="46.60259591" lon="7.03551589"><ele>850.904053</ele><time>2008-06-21T14:14:06Z</time></trkpt>
<trkpt lat="46.60276649" lon="7.03542327"><ele>851.865479</ele><time>2008-06-21T14:14:08Z</time></trkpt>
<trkpt lat="46.60346596" lon="7.03480460"><ele>848.020264</ele><time>2008-06-21T14:14:18Z</time></trkpt>
<trkpt lat="46.60353770" lon="7.03472572"><ele>848.020264</ele><time>2008-06-21T14:14:19Z</time></trkpt>
<trkpt lat="46.60375270" lon="7.03448919"><ele>845.13623</ele><time>2008-06-21T14:14:22Z</time></trkpt>
<trkpt lat="46.60409292" lon="7.03401678"><ele>841.771484</ele><time>2008-06-21T14:14:27Z</time></trkpt>
<trkpt lat="46.60415545" lon="7.03391192"><ele>840.810059</ele><time>2008-06-21T14:14:28Z</time></trkpt>
<trkpt lat="46.60435234" lon="7.03361026"><ele>840.810059</ele><time>2008-06-21T14:14:31Z</time></trkpt>
<trkpt lat="46.60474746" lon="7.03342452"><ele>840.810059</ele><time>2008-06-21T14:14:36Z</time></trkpt>
<trkpt lat="46.60493606" lon="7.03334481"><ele>840.810059</ele><time>2008-06-21T14:14:39Z</time></trkpt>
<trkpt lat="46.60536655" lon="7.03296309"><ele>836.964844</ele><time>2008-06-21T14:14:48Z</time></trkpt>
<trkpt lat="46.60566243" lon="7.03269982"><ele>835.04248</ele><time>2008-06-21T14:14:54Z</time></trkpt>
<trkpt lat="46.60582387" lon="7.03255506"><ele>834.081055</ele><time>2008-06-21T14:14:58Z</time></trkpt>
<trkpt lat="46.60663121" lon="7.03193547"><ele>833.119629</ele><time>2008-06-21T14:15:14Z</time></trkpt>
<trkpt lat="46.60668511" lon="7.03189591"><ele>833.119629</ele><time>2008-06-21T14:15:15Z</time></trkpt>
<trkpt lat="46.60702541" lon="7.03147572"><ele>830.23584</ele><time>2008-06-21T14:15:22Z</time></trkpt>
<trkpt lat="46.60709700" lon="7.03137070"><ele>832.158447</ele><time>2008-06-21T14:15:24Z</time></trkpt>
<trkpt lat="46.60748282" lon="7.03109376"><ele>832.158447</ele><time>2008-06-21T14:15:36Z</time></trkpt>
<trkpt lat="46.60759103" lon="7.03115813"><ele>832.158447</ele><time>2008-06-21T14:15:39Z</time></trkpt>
<trkpt lat="46.60784416" lon="7.03152174"><ele>831.197266</ele><time>2008-06-21T14:15:46Z</time></trkpt>
<trkpt lat="46.60850373" lon="7.03232607"><ele>830.23584</ele><time>2008-06-21T14:16:03Z</time></trkpt>
<trkpt lat="46.60870230" lon="7.03250729"><ele>830.23584</ele><time>2008-06-21T14:16:08Z</time></trkpt>
<trkpt lat="46.60876550" lon="7.03257208"><ele>828.793945</ele><time>2008-06-21T14:16:10Z</time></trkpt>
<trkpt lat="46.60905300" lon="7.03247862"><ele>828.793945</ele><time>2008-06-21T14:16:19Z</time></trkpt>
<trkpt lat="46.60950931" lon="7.03177026"><ele>827.832275</ele><time>2008-06-21T14:16:35Z</time></trkpt>
<trkpt lat="46.60975968" lon="7.03136374"><ele>824.948486</ele><time>2008-06-21T14:16:42Z</time></trkpt>
<trkpt lat="46.61043987" lon="7.03037962"><ele>823.987061</ele><time>2008-06-21T14:17:00Z</time></trkpt>
<trkpt lat="46.61123782" lon="7.02964260"><ele>825.909668</ele><time>2008-06-21T14:17:19Z</time></trkpt>
<trkpt lat="46.61180268" lon="7.02912921"><ele>826.871094</ele><time>2008-06-21T14:17:36Z</time></trkpt>
<trkpt lat="46.61216126" lon="7.02877407"><ele>823.987061</ele><time>2008-06-21T14:17:44Z</time></trkpt>
<trkpt lat="46.61222404" lon="7.02872135"><ele>823.025879</ele><time>2008-06-21T14:17:45Z</time></trkpt>
<trkpt lat="46.61262805" lon="7.02850945"><ele>822.064453</ele><time>2008-06-21T14:17:52Z</time></trkpt>
<trkpt lat="46.61342827" lon="7.02838582"><ele>820.141846</ele><time>2008-06-21T14:18:04Z</time></trkpt>
<trkpt lat="46.61365290" lon="7.02831885"><ele>821.103271</ele><time>2008-06-21T14:18:08Z</time></trkpt>
<trkpt lat="46.61439772" lon="7.02780412"><ele>818.219238</ele><time>2008-06-21T14:18:23Z</time></trkpt>
<trkpt lat="46.61455924" lon="7.02769842"><ele>819.180664</ele><time>2008-06-21T14:18:26Z</time></trkpt>
<trkpt lat="46.61490918" lon="7.02746079"><ele>821.103271</ele><time>2008-06-21T14:18:35Z</time></trkpt>
<trkpt lat="46.61539424" lon="7.02726130"><ele>816.777344</ele><time>2008-06-21T14:18:44Z</time></trkpt>
<trkpt lat="46.61577185" lon="7.02720623"><ele>813.893311</ele><time>2008-06-21T14:18:49Z</time></trkpt>
<trkpt lat="46.61597880" lon="7.02720464"><ele>812.932129</ele><time>2008-06-21T14:18:52Z</time></trkpt>
<trkpt lat="46.61632991" lon="7.02729332"><ele>811.009277</ele><time>2008-06-21T14:18:58Z</time></trkpt>
<trkpt lat="46.61650987" lon="7.02730506"><ele>811.009277</ele><time>2008-06-21T14:19:02Z</time></trkpt>
<trkpt lat="46.61655405" lon="7.02708277"><ele>810.047852</ele><time>2008-06-21T14:19:07Z</time></trkpt>
<trkpt lat="46.61643410" lon="7.02624818"><ele>809.08667</ele><time>2008-06-21T14:19:19Z</time></trkpt>
<trkpt lat="46.61644198" lon="7.02593478"><ele>809.08667</ele><time>2008-06-21T14:19:23Z</time></trkpt>
<trkpt lat="46.61662839" lon="7.02525451"><ele>811.009277</ele><time>2008-06-21T14:19:36Z</time></trkpt>
<trkpt lat="46.61674272" lon="7.02453559"><ele>812.932129</ele><time>2008-06-21T14:19:52Z</time></trkpt>
<trkpt lat="46.61653435" lon="7.02411943"><ele>815.816162</ele><time>2008-06-21T14:20:03Z</time></trkpt>
<trkpt lat="46.61647098" lon="7.02401550"><ele>813.893311</ele><time>2008-06-21T14:20:06Z</time></trkpt>
<trkpt lat="46.61638029" lon="7.02382036"><ele>815.816162</ele><time>2008-06-21T14:20:11Z</time></trkpt>
<trkpt lat="46.61623528" lon="7.02352121"><ele>815.816162</ele><time>2008-06-21T14:20:19Z</time></trkpt>
<trkpt lat="46.61601794" lon="7.02311813"><ele>816.777344</ele><time>2008-06-21T14:20:31Z</time></trkpt>
<trkpt lat="46.61598936" lon="7.02270063"><ele>820.141846</ele><time>2008-06-21T14:20:41Z</time></trkpt>
<trkpt lat="46.61593286" lon="7.02200912"><ele>821.103271</ele><time>2008-06-21T14:20:58Z</time></trkpt>
<trkpt lat="46.61583195" lon="7.02146161"><ele>822.064453</ele><time>2008-06-21T14:21:11Z</time></trkpt>
<trkpt lat="46.61576732" lon="7.02101829"><ele>823.025879</ele><time>2008-06-21T14:21:22Z</time></trkpt>
<trkpt lat="46.61578450" lon="7.02079617"><ele>823.025879</ele><time>2008-06-21T14:21:28Z</time></trkpt>
<trkpt lat="46.61588341" lon="7.02076935"><ele>823.025879</ele><time>2008-06-21T14:21:32Z</time></trkpt>
<trkpt lat="46.61599120" lon="7.02072929"><ele>821.103271</ele><time>2008-06-21T14:21:35Z</time></trkpt>
<trkpt lat="46.61608986" lon="7.02065025"><ele>818.219238</ele><time>2008-06-21T14:21:38Z</time></trkpt>
<trkpt lat="46.61620477" lon="7.02010106"><ele>814.854736</ele><time>2008-06-21T14:21:46Z</time></trkpt>
<trkpt lat="46.61624869" lon="7.01982656"><ele>813.893311</ele><time>2008-06-21T14:21:50Z</time></trkpt>
<trkpt lat="46.61643636" lon="7.01948566"><ele>811.009277</ele><time>2008-06-21T14:21:57Z</time></trkpt>
<trkpt lat="46.61657961" lon="7.01930176"><ele>811.970703</ele><time>2008-06-21T14:22:01Z</time></trkpt>
<trkpt lat="46.61668782" lon="7.01936622"><ele>811.009277</ele><time>2008-06-21T14:22:05Z</time></trkpt>
<trkpt lat="46.61675119" lon="7.01947016"><ele>811.009277</ele><time>2008-06-21T14:22:07Z</time></trkpt>
<trkpt lat="46.61701237" lon="7.01955951"><ele>810.047852</ele><time>2008-06-21T14:22:13Z</time></trkpt>
<trkpt lat="46.61710323" lon="7.01980686"><ele>811.009277</ele><time>2008-06-21T14:22:20Z</time></trkpt>
<trkpt lat="46.61708529" lon="7.01980703"><ele>811.009277</ele><time>2008-06-21T14:22:30Z</time></trkpt>
<trkpt lat="46.61708529" lon="7.01980703"><ele>809.08667</ele><time>2008-06-22T09:29:05Z</time></trkpt>
<trkpt lat="46.61708529" lon="7.01980703"><ele>475.028687</ele><time>2008-06-22T09:29:06Z</time></trkpt>
<trkpt lat="46.61708529" lon="7.01980703"><ele>474.067261</ele><time>2008-06-22T09:29:15Z</time></trkpt>
<trkpt lat="46.61708529" lon="7.01980703"><ele>475.989868</ele><time>2008-06-22T09:30:17Z</time></trkpt>
<trkpt lat="46.61708529" lon="7.01980703"><ele>474.067261</ele><time>2008-06-22T09:30:40Z</time></trkpt>
<trkpt lat="46.61708529" lon="7.01980703"><ele>475.028687</ele><time>2008-06-22T09:31:22Z</time></trkpt>
<trkpt lat="46.61708529" lon="7.01980703"><ele>474.067261</ele><time>2008-06-22T09:31:43Z</time></trkpt>
<trkpt lat="46.61708529" lon="7.01980703"><ele>475.989868</ele><time>2008-06-22T09:31:54Z</time></trkpt>
<trkpt lat="46.61708345" lon="7.01980744"><ele>480.796631</ele><time>2008-06-22T11:11:17Z</time></trkpt>
<trkpt lat="46.61708345" lon="7.01980744"><ele>479.354492</ele><time>2008-06-22T11:13:47Z</time></trkpt>
</trkseg></trk></gpx>